<?xml version="1.0" encoding="UTF-8" standalone="no" ?>
<gpx xmlns="http://www.topografix.com/GPX/1/1" xmlns:xsi="http://www.w3.org/2001/XMLSchema-instance" xsi:schemaLocation="http://www.topografix.com/GPX/1/1 http://www.topografix.com/GPX/1/1/gpx.xsd" version="1.1" creator="VisuGPX - https://www.visugpx.com">
  <metadata>
    <name>Sentier du blé</name>
    <desc><![CDATA[Difficulté moyenne,
départ du col de l'Ange.]]></desc>
  </metadata>
  <trk>
    <name><![CDATA[Sentier du blé_1]]></name>
    <trkseg>
      <trkpt lat="43.26611" lon="5.66964">
        <ele>218</ele>
        <time>2022-02-23T08:27:06Z</time>
      </trkpt>
      <trkpt lat="43.26614" lon="5.66969">
        <ele>218.7</ele>
        <time>2022-02-23T08:27:10Z</time>
      </trkpt>
      <trkpt lat="43.26613" lon="5.66975">
        <ele>218.6</ele>
        <time>2022-02-23T08:30:04Z</time>
      </trkpt>
      <trkpt lat="43.26612" lon="5.66984">
        <ele>218.7</ele>
        <time>2022-02-23T08:30:12Z</time>
      </trkpt>
      <trkpt lat="43.26612" lon="5.66992">
        <ele>219</ele>
        <time>2022-02-23T08:30:18Z</time>
      </trkpt>
      <trkpt lat="43.26611" lon="5.66998">
        <ele>218.9</ele>
        <time>2022-02-23T08:30:22Z</time>
      </trkpt>
      <trkpt lat="43.2661" lon="5.67005">
        <ele>219.3</ele>
        <time>2022-02-23T08:30:26Z</time>
      </trkpt>
      <trkpt lat="43.26608" lon="5.67011">
        <ele>219.7</ele>
        <time>2022-02-23T08:30:32Z</time>
      </trkpt>
      <trkpt lat="43.26608" lon="5.67018">
        <ele>220.1</ele>
        <time>2022-02-23T08:30:48Z</time>
      </trkpt>
      <trkpt lat="43.26608" lon="5.67025">
        <ele>220.6</ele>
        <time>2022-02-23T08:30:52Z</time>
      </trkpt>
      <trkpt lat="43.26609" lon="5.67032">
        <ele>220.9</ele>
        <time>2022-02-23T08:30:56Z</time>
      </trkpt>
      <trkpt lat="43.26612" lon="5.67038">
        <ele>221.2</ele>
        <time>2022-02-23T08:31:02Z</time>
      </trkpt>
      <trkpt lat="43.26617" lon="5.67045">
        <ele>221.8</ele>
        <time>2022-02-23T08:31:08Z</time>
      </trkpt>
      <trkpt lat="43.2662" lon="5.67052">
        <ele>222.2</ele>
        <time>2022-02-23T08:31:12Z</time>
      </trkpt>
      <trkpt lat="43.26622" lon="5.67059">
        <ele>222.5</ele>
        <time>2022-02-23T08:31:16Z</time>
      </trkpt>
      <trkpt lat="43.26623" lon="5.67067">
        <ele>222.6</ele>
        <time>2022-02-23T08:31:20Z</time>
      </trkpt>
      <trkpt lat="43.26627" lon="5.67072">
        <ele>223</ele>
        <time>2022-02-23T08:31:26Z</time>
      </trkpt>
      <trkpt lat="43.26632" lon="5.6707">
        <ele>223.6</ele>
        <time>2022-02-23T08:31:32Z</time>
      </trkpt>
      <trkpt lat="43.26635" lon="5.67075">
        <ele>223.9</ele>
        <time>2022-02-23T08:31:38Z</time>
      </trkpt>
      <trkpt lat="43.26637" lon="5.67084">
        <ele>223.8</ele>
        <time>2022-02-23T08:31:42Z</time>
      </trkpt>
      <trkpt lat="43.26639" lon="5.67091">
        <ele>224</ele>
        <time>2022-02-23T08:31:46Z</time>
      </trkpt>
      <trkpt lat="43.26642" lon="5.67096">
        <ele>224.8</ele>
        <time>2022-02-23T08:31:50Z</time>
      </trkpt>
      <trkpt lat="43.26646" lon="5.67099">
        <ele>226.1</ele>
        <time>2022-02-23T08:31:54Z</time>
      </trkpt>
      <trkpt lat="43.26649" lon="5.67105">
        <ele>227</ele>
        <time>2022-02-23T08:32:04Z</time>
      </trkpt>
      <trkpt lat="43.26655" lon="5.67107">
        <ele>228.5</ele>
        <time>2022-02-23T08:32:10Z</time>
      </trkpt>
      <trkpt lat="43.26659" lon="5.67106">
        <ele>229.8</ele>
        <time>2022-02-23T08:32:20Z</time>
      </trkpt>
      <trkpt lat="43.26664" lon="5.67104">
        <ele>231.2</ele>
        <time>2022-02-23T08:32:30Z</time>
      </trkpt>
      <trkpt lat="43.26668" lon="5.67105">
        <ele>232.3</ele>
        <time>2022-02-23T08:32:36Z</time>
      </trkpt>
      <trkpt lat="43.26673" lon="5.67112">
        <ele>233.1</ele>
        <time>2022-02-23T08:32:46Z</time>
      </trkpt>
      <trkpt lat="43.26678" lon="5.67118">
        <ele>234</ele>
        <time>2022-02-23T08:32:52Z</time>
      </trkpt>
      <trkpt lat="43.26681" lon="5.67123">
        <ele>234.5</ele>
        <time>2022-02-23T08:32:56Z</time>
      </trkpt>
      <trkpt lat="43.26685" lon="5.67128">
        <ele>235.3</ele>
        <time>2022-02-23T08:33:00Z</time>
      </trkpt>
      <trkpt lat="43.26689" lon="5.67131">
        <ele>236</ele>
        <time>2022-02-23T08:33:04Z</time>
      </trkpt>
      <trkpt lat="43.26693" lon="5.67134">
        <ele>236.7</ele>
        <time>2022-02-23T08:33:10Z</time>
      </trkpt>
      <trkpt lat="43.26698" lon="5.67136">
        <ele>237.4</ele>
        <time>2022-02-23T08:33:16Z</time>
      </trkpt>
      <trkpt lat="43.26703" lon="5.67137">
        <ele>237.9</ele>
        <time>2022-02-23T08:33:20Z</time>
      </trkpt>
      <trkpt lat="43.26708" lon="5.67138">
        <ele>238.5</ele>
        <time>2022-02-23T08:33:24Z</time>
      </trkpt>
      <trkpt lat="43.26713" lon="5.67139">
        <ele>239</ele>
        <time>2022-02-23T08:33:28Z</time>
      </trkpt>
      <trkpt lat="43.26718" lon="5.67142">
        <ele>239.5</ele>
        <time>2022-02-23T08:33:32Z</time>
      </trkpt>
      <trkpt lat="43.26722" lon="5.67145">
        <ele>240</ele>
        <time>2022-02-23T08:33:36Z</time>
      </trkpt>
      <trkpt lat="43.26728" lon="5.67147">
        <ele>240.8</ele>
        <time>2022-02-23T08:33:42Z</time>
      </trkpt>
      <trkpt lat="43.26732" lon="5.6715">
        <ele>241.4</ele>
        <time>2022-02-23T08:34:00Z</time>
      </trkpt>
      <trkpt lat="43.26738" lon="5.67154">
        <ele>242.2</ele>
        <time>2022-02-23T08:34:06Z</time>
      </trkpt>
      <trkpt lat="43.26742" lon="5.67157">
        <ele>242.6</ele>
        <time>2022-02-23T08:34:10Z</time>
      </trkpt>
      <trkpt lat="43.26746" lon="5.67161">
        <ele>242.9</ele>
        <time>2022-02-23T08:34:16Z</time>
      </trkpt>
      <trkpt lat="43.26751" lon="5.67163">
        <ele>243.4</ele>
        <time>2022-02-23T08:34:22Z</time>
      </trkpt>
      <trkpt lat="43.26757" lon="5.67165">
        <ele>244.3</ele>
        <time>2022-02-23T08:34:28Z</time>
      </trkpt>
      <trkpt lat="43.26762" lon="5.67167">
        <ele>245.1</ele>
        <time>2022-02-23T08:34:32Z</time>
      </trkpt>
      <trkpt lat="43.26768" lon="5.6717">
        <ele>246.1</ele>
        <time>2022-02-23T08:34:38Z</time>
      </trkpt>
      <trkpt lat="43.26773" lon="5.67175">
        <ele>246.6</ele>
        <time>2022-02-23T08:34:44Z</time>
      </trkpt>
      <trkpt lat="43.26777" lon="5.6718">
        <ele>246.9</ele>
        <time>2022-02-23T08:34:52Z</time>
      </trkpt>
      <trkpt lat="43.26783" lon="5.67181">
        <ele>248.3</ele>
        <time>2022-02-23T08:34:58Z</time>
      </trkpt>
      <trkpt lat="43.26789" lon="5.67183">
        <ele>249.8</ele>
        <time>2022-02-23T08:37:10Z</time>
      </trkpt>
      <trkpt lat="43.26792" lon="5.67188">
        <ele>250</ele>
        <time>2022-02-23T08:37:16Z</time>
      </trkpt>
      <trkpt lat="43.26797" lon="5.67192">
        <ele>250.5</ele>
        <time>2022-02-23T08:37:24Z</time>
      </trkpt>
      <trkpt lat="43.26801" lon="5.67193">
        <ele>251.3</ele>
        <time>2022-02-23T08:37:31Z</time>
      </trkpt>
      <trkpt lat="43.26808" lon="5.67197">
        <ele>252.6</ele>
        <time>2022-02-23T08:37:38Z</time>
      </trkpt>
      <trkpt lat="43.26813" lon="5.67201">
        <ele>254</ele>
        <time>2022-02-23T08:37:42Z</time>
      </trkpt>
      <trkpt lat="43.26816" lon="5.67205">
        <ele>254.7</ele>
        <time>2022-02-23T08:37:46Z</time>
      </trkpt>
      <trkpt lat="43.26819" lon="5.6721">
        <ele>255.2</ele>
        <time>2022-02-23T08:37:54Z</time>
      </trkpt>
      <trkpt lat="43.26821" lon="5.67204">
        <ele>256.5</ele>
        <time>2022-02-23T08:38:04Z</time>
      </trkpt>
      <trkpt lat="43.26822" lon="5.67198">
        <ele>257.4</ele>
        <time>2022-02-23T08:38:10Z</time>
      </trkpt>
      <trkpt lat="43.26817" lon="5.67193">
        <ele>256.2</ele>
        <time>2022-02-23T08:38:16Z</time>
      </trkpt>
      <trkpt lat="43.26817" lon="5.67185">
        <ele>257.8</ele>
        <time>2022-02-23T08:38:20Z</time>
      </trkpt>
      <trkpt lat="43.2682" lon="5.67175">
        <ele>260.2</ele>
        <time>2022-02-23T08:38:24Z</time>
      </trkpt>
      <trkpt lat="43.26822" lon="5.67169">
        <ele>262</ele>
        <time>2022-02-23T08:38:32Z</time>
      </trkpt>
      <trkpt lat="43.2682" lon="5.67163">
        <ele>262.1</ele>
        <time>2022-02-23T08:38:40Z</time>
      </trkpt>
      <trkpt lat="43.2682" lon="5.67155">
        <ele>263.3</ele>
        <time>2022-02-23T08:38:44Z</time>
      </trkpt>
      <trkpt lat="43.26819" lon="5.67147">
        <ele>263.9</ele>
        <time>2022-02-23T08:38:50Z</time>
      </trkpt>
      <trkpt lat="43.26822" lon="5.67137">
        <ele>265.9</ele>
        <time>2022-02-23T08:39:08Z</time>
      </trkpt>
      <trkpt lat="43.26821" lon="5.67129">
        <ele>266.5</ele>
        <time>2022-02-23T08:39:12Z</time>
      </trkpt>
      <trkpt lat="43.2682" lon="5.67123">
        <ele>266.6</ele>
        <time>2022-02-23T08:39:18Z</time>
      </trkpt>
      <trkpt lat="43.2682" lon="5.67115">
        <ele>267.2</ele>
        <time>2022-02-23T08:39:24Z</time>
      </trkpt>
      <trkpt lat="43.26821" lon="5.67107">
        <ele>268.6</ele>
        <time>2022-02-23T08:39:30Z</time>
      </trkpt>
      <trkpt lat="43.26823" lon="5.671">
        <ele>269.8</ele>
        <time>2022-02-23T08:39:36Z</time>
      </trkpt>
      <trkpt lat="43.26824" lon="5.67093">
        <ele>270.8</ele>
        <time>2022-02-23T08:39:43Z</time>
      </trkpt>
      <trkpt lat="43.26824" lon="5.67086">
        <ele>271.6</ele>
        <time>2022-02-23T08:39:48Z</time>
      </trkpt>
      <trkpt lat="43.26824" lon="5.67077">
        <ele>271.7</ele>
        <time>2022-02-23T08:39:56Z</time>
      </trkpt>
      <trkpt lat="43.26824" lon="5.67068">
        <ele>272</ele>
        <time>2022-02-23T08:40:02Z</time>
      </trkpt>
      <trkpt lat="43.26825" lon="5.6706">
        <ele>272.1</ele>
        <time>2022-02-23T08:40:06Z</time>
      </trkpt>
      <trkpt lat="43.26827" lon="5.67054">
        <ele>272.9</ele>
        <time>2022-02-23T08:40:13Z</time>
      </trkpt>
      <trkpt lat="43.26827" lon="5.67048">
        <ele>273.4</ele>
        <time>2022-02-23T08:40:18Z</time>
      </trkpt>
      <trkpt lat="43.26828" lon="5.67041">
        <ele>274</ele>
        <time>2022-02-23T08:40:34Z</time>
      </trkpt>
      <trkpt lat="43.2683" lon="5.67033">
        <ele>274.9</ele>
        <time>2022-02-23T08:40:38Z</time>
      </trkpt>
      <trkpt lat="43.26832" lon="5.67025">
        <ele>275.6</ele>
        <time>2022-02-23T08:40:42Z</time>
      </trkpt>
      <trkpt lat="43.26834" lon="5.67016">
        <ele>276.5</ele>
        <time>2022-02-23T08:40:46Z</time>
      </trkpt>
      <trkpt lat="43.26834" lon="5.67007">
        <ele>277.1</ele>
        <time>2022-02-23T08:40:50Z</time>
      </trkpt>
      <trkpt lat="43.26838" lon="5.67002">
        <ele>278.6</ele>
        <time>2022-02-23T08:40:58Z</time>
      </trkpt>
      <trkpt lat="43.26842" lon="5.66999">
        <ele>280.2</ele>
        <time>2022-02-23T08:41:04Z</time>
      </trkpt>
      <trkpt lat="43.26847" lon="5.66994">
        <ele>281.8</ele>
        <time>2022-02-23T08:41:10Z</time>
      </trkpt>
      <trkpt lat="43.26847" lon="5.66988">
        <ele>282.1</ele>
        <time>2022-02-23T08:41:20Z</time>
      </trkpt>
      <trkpt lat="43.26845" lon="5.66982">
        <ele>281.1</ele>
        <time>2022-02-23T08:41:32Z</time>
      </trkpt>
      <trkpt lat="43.26842" lon="5.66978">
        <ele>280.1</ele>
        <time>2022-02-23T08:41:40Z</time>
      </trkpt>
      <trkpt lat="43.26843" lon="5.66969">
        <ele>281</ele>
        <time>2022-02-23T08:41:50Z</time>
      </trkpt>
      <trkpt lat="43.26843" lon="5.66962">
        <ele>281.9</ele>
        <time>2022-02-23T08:42:04Z</time>
      </trkpt>
      <trkpt lat="43.26842" lon="5.66954">
        <ele>282.7</ele>
        <time>2022-02-23T08:42:22Z</time>
      </trkpt>
      <trkpt lat="43.26843" lon="5.66946">
        <ele>284.1</ele>
        <time>2022-02-23T08:42:26Z</time>
      </trkpt>
      <trkpt lat="43.26842" lon="5.66939">
        <ele>284.7</ele>
        <time>2022-02-23T08:42:32Z</time>
      </trkpt>
      <trkpt lat="43.26841" lon="5.66932">
        <ele>285.4</ele>
        <time>2022-02-23T08:42:38Z</time>
      </trkpt>
      <trkpt lat="43.26841" lon="5.66922">
        <ele>287.1</ele>
        <time>2022-02-23T08:42:44Z</time>
      </trkpt>
      <trkpt lat="43.26841" lon="5.66913">
        <ele>288.3</ele>
        <time>2022-02-23T08:42:50Z</time>
      </trkpt>
      <trkpt lat="43.26839" lon="5.66905">
        <ele>288.8</ele>
        <time>2022-02-23T08:42:58Z</time>
      </trkpt>
      <trkpt lat="43.26838" lon="5.66897">
        <ele>289.2</ele>
        <time>2022-02-23T08:43:02Z</time>
      </trkpt>
      <trkpt lat="43.26841" lon="5.66889">
        <ele>291.2</ele>
        <time>2022-02-23T08:43:08Z</time>
      </trkpt>
      <trkpt lat="43.26841" lon="5.66882">
        <ele>292.1</ele>
        <time>2022-02-23T08:43:12Z</time>
      </trkpt>
      <trkpt lat="43.26841" lon="5.66875">
        <ele>293</ele>
        <time>2022-02-23T08:43:16Z</time>
      </trkpt>
      <trkpt lat="43.26841" lon="5.66867">
        <ele>293.9</ele>
        <time>2022-02-23T08:43:20Z</time>
      </trkpt>
      <trkpt lat="43.26841" lon="5.66861">
        <ele>294.6</ele>
        <time>2022-02-23T08:43:24Z</time>
      </trkpt>
      <trkpt lat="43.2684" lon="5.66854">
        <ele>295.6</ele>
        <time>2022-02-23T08:43:34Z</time>
      </trkpt>
      <trkpt lat="43.2684" lon="5.66846">
        <ele>296.5</ele>
        <time>2022-02-23T08:43:44Z</time>
      </trkpt>
      <trkpt lat="43.26839" lon="5.6684">
        <ele>297.4</ele>
        <time>2022-02-23T08:43:58Z</time>
      </trkpt>
      <trkpt lat="43.2684" lon="5.66832">
        <ele>299.2</ele>
        <time>2022-02-23T08:44:10Z</time>
      </trkpt>
      <trkpt lat="43.2684" lon="5.66824">
        <ele>300.5</ele>
        <time>2022-02-23T08:44:16Z</time>
      </trkpt>
      <trkpt lat="43.2684" lon="5.66817">
        <ele>301.9</ele>
        <time>2022-02-23T08:44:22Z</time>
      </trkpt>
      <trkpt lat="43.26841" lon="5.6681">
        <ele>303.5</ele>
        <time>2022-02-23T08:44:28Z</time>
      </trkpt>
      <trkpt lat="43.2684" lon="5.66802">
        <ele>304.2</ele>
        <time>2022-02-23T08:44:32Z</time>
      </trkpt>
      <trkpt lat="43.26838" lon="5.66793">
        <ele>303.8</ele>
        <time>2022-02-23T08:44:36Z</time>
      </trkpt>
      <trkpt lat="43.26837" lon="5.66786">
        <ele>304.1</ele>
        <time>2022-02-23T08:44:40Z</time>
      </trkpt>
      <trkpt lat="43.26838" lon="5.66778">
        <ele>305.2</ele>
        <time>2022-02-23T08:44:46Z</time>
      </trkpt>
      <trkpt lat="43.26839" lon="5.66771">
        <ele>306.3</ele>
        <time>2022-02-23T08:44:56Z</time>
      </trkpt>
      <trkpt lat="43.26842" lon="5.66766">
        <ele>308.5</ele>
        <time>2022-02-23T08:45:04Z</time>
      </trkpt>
      <trkpt lat="43.26842" lon="5.66759">
        <ele>309.6</ele>
        <time>2022-02-23T08:45:26Z</time>
      </trkpt>
      <trkpt lat="43.26842" lon="5.66752">
        <ele>310</ele>
        <time>2022-02-23T08:45:34Z</time>
      </trkpt>
      <trkpt lat="43.26842" lon="5.66745">
        <ele>310.6</ele>
        <time>2022-02-23T08:45:40Z</time>
      </trkpt>
      <trkpt lat="43.2684" lon="5.66739">
        <ele>310.4</ele>
        <time>2022-02-23T08:45:46Z</time>
      </trkpt>
      <trkpt lat="43.26841" lon="5.66733">
        <ele>311.3</ele>
        <time>2022-02-23T08:45:54Z</time>
      </trkpt>
      <trkpt lat="43.26841" lon="5.66726">
        <ele>311.9</ele>
        <time>2022-02-23T08:46:00Z</time>
      </trkpt>
      <trkpt lat="43.26842" lon="5.66719">
        <ele>313.2</ele>
        <time>2022-02-23T08:46:06Z</time>
      </trkpt>
      <trkpt lat="43.26843" lon="5.66709">
        <ele>314.5</ele>
        <time>2022-02-23T08:47:06Z</time>
      </trkpt>
      <trkpt lat="43.26844" lon="5.66703">
        <ele>315.2</ele>
        <time>2022-02-23T08:47:12Z</time>
      </trkpt>
      <trkpt lat="43.26845" lon="5.66696">
        <ele>316.6</ele>
        <time>2022-02-23T08:47:18Z</time>
      </trkpt>
      <trkpt lat="43.26847" lon="5.66689">
        <ele>318.4</ele>
        <time>2022-02-23T08:47:26Z</time>
      </trkpt>
      <trkpt lat="43.26849" lon="5.66683">
        <ele>319.9</ele>
        <time>2022-02-23T08:47:32Z</time>
      </trkpt>
      <trkpt lat="43.2685" lon="5.66676">
        <ele>320.6</ele>
        <time>2022-02-23T08:47:40Z</time>
      </trkpt>
      <trkpt lat="43.26851" lon="5.6667">
        <ele>321.4</ele>
        <time>2022-02-23T08:47:46Z</time>
      </trkpt>
      <trkpt lat="43.26853" lon="5.66662">
        <ele>322.6</ele>
        <time>2022-02-23T08:47:54Z</time>
      </trkpt>
      <trkpt lat="43.26854" lon="5.66654">
        <ele>323.5</ele>
        <time>2022-02-23T08:47:58Z</time>
      </trkpt>
      <trkpt lat="43.26857" lon="5.66648">
        <ele>324.7</ele>
        <time>2022-02-23T08:48:04Z</time>
      </trkpt>
      <trkpt lat="43.26857" lon="5.66641">
        <ele>325.2</ele>
        <time>2022-02-23T08:48:10Z</time>
      </trkpt>
      <trkpt lat="43.26859" lon="5.66634">
        <ele>325.9</ele>
        <time>2022-02-23T08:48:24Z</time>
      </trkpt>
      <trkpt lat="43.2686" lon="5.66625">
        <ele>326.5</ele>
        <time>2022-02-23T08:48:30Z</time>
      </trkpt>
      <trkpt lat="43.26864" lon="5.66621">
        <ele>328.2</ele>
        <time>2022-02-23T08:48:36Z</time>
      </trkpt>
      <trkpt lat="43.26865" lon="5.66613">
        <ele>328.9</ele>
        <time>2022-02-23T08:49:02Z</time>
      </trkpt>
      <trkpt lat="43.26867" lon="5.66605">
        <ele>329.7</ele>
        <time>2022-02-23T08:49:06Z</time>
      </trkpt>
      <trkpt lat="43.26871" lon="5.66601">
        <ele>331.6</ele>
        <time>2022-02-23T08:49:12Z</time>
      </trkpt>
      <trkpt lat="43.26872" lon="5.66595">
        <ele>332.1</ele>
        <time>2022-02-23T08:49:18Z</time>
      </trkpt>
      <trkpt lat="43.26874" lon="5.66589">
        <ele>333.1</ele>
        <time>2022-02-23T08:49:23Z</time>
      </trkpt>
      <trkpt lat="43.26877" lon="5.66583">
        <ele>334.5</ele>
        <time>2022-02-23T08:49:30Z</time>
      </trkpt>
      <trkpt lat="43.2688" lon="5.66577">
        <ele>335.7</ele>
        <time>2022-02-23T08:49:36Z</time>
      </trkpt>
      <trkpt lat="43.26883" lon="5.66571">
        <ele>336.9</ele>
        <time>2022-02-23T08:49:42Z</time>
      </trkpt>
      <trkpt lat="43.26885" lon="5.66563">
        <ele>337.5</ele>
        <time>2022-02-23T08:49:48Z</time>
      </trkpt>
      <trkpt lat="43.26888" lon="5.66556">
        <ele>338.7</ele>
        <time>2022-02-23T08:49:56Z</time>
      </trkpt>
      <trkpt lat="43.26891" lon="5.6655">
        <ele>339.8</ele>
        <time>2022-02-23T08:50:02Z</time>
      </trkpt>
      <trkpt lat="43.26892" lon="5.66544">
        <ele>340.4</ele>
        <time>2022-02-23T08:50:08Z</time>
      </trkpt>
      <trkpt lat="43.26893" lon="5.66534">
        <ele>340.7</ele>
        <time>2022-02-23T08:50:18Z</time>
      </trkpt>
      <trkpt lat="43.26896" lon="5.66529">
        <ele>341.9</ele>
        <time>2022-02-23T08:50:26Z</time>
      </trkpt>
      <trkpt lat="43.26899" lon="5.66523">
        <ele>342.6</ele>
        <time>2022-02-23T08:50:34Z</time>
      </trkpt>
      <trkpt lat="43.26904" lon="5.66518">
        <ele>343.9</ele>
        <time>2022-02-23T08:50:48Z</time>
      </trkpt>
      <trkpt lat="43.26907" lon="5.66513">
        <ele>344.7</ele>
        <time>2022-02-23T08:50:54Z</time>
      </trkpt>
      <trkpt lat="43.26911" lon="5.66508">
        <ele>345.4</ele>
        <time>2022-02-23T08:51:00Z</time>
      </trkpt>
      <trkpt lat="43.26913" lon="5.66501">
        <ele>345.2</ele>
        <time>2022-02-23T08:51:06Z</time>
      </trkpt>
      <trkpt lat="43.26919" lon="5.66497">
        <ele>345.4</ele>
        <time>2022-02-23T08:51:12Z</time>
      </trkpt>
      <trkpt lat="43.26925" lon="5.66495">
        <ele>345.7</ele>
        <time>2022-02-23T08:51:18Z</time>
      </trkpt>
      <trkpt lat="43.26931" lon="5.66497">
        <ele>346.8</ele>
        <time>2022-02-23T08:51:24Z</time>
      </trkpt>
      <trkpt lat="43.26935" lon="5.66496">
        <ele>347.3</ele>
        <time>2022-02-23T08:51:30Z</time>
      </trkpt>
      <trkpt lat="43.2694" lon="5.66495">
        <ele>347.8</ele>
        <time>2022-02-23T08:51:34Z</time>
      </trkpt>
      <trkpt lat="43.26945" lon="5.66497">
        <ele>348.8</ele>
        <time>2022-02-23T08:51:46Z</time>
      </trkpt>
      <trkpt lat="43.26951" lon="5.665">
        <ele>350.1</ele>
        <time>2022-02-23T08:51:52Z</time>
      </trkpt>
      <trkpt lat="43.26956" lon="5.66502">
        <ele>351.7</ele>
        <time>2022-02-23T08:51:58Z</time>
      </trkpt>
      <trkpt lat="43.26961" lon="5.66506">
        <ele>353.2</ele>
        <time>2022-02-23T08:52:06Z</time>
      </trkpt>
      <trkpt lat="43.26967" lon="5.66507">
        <ele>354.3</ele>
        <time>2022-02-23T08:54:52Z</time>
      </trkpt>
      <trkpt lat="43.26973" lon="5.6651">
        <ele>355.7</ele>
        <time>2022-02-23T08:54:56Z</time>
      </trkpt>
      <trkpt lat="43.26978" lon="5.66513">
        <ele>357.4</ele>
        <time>2022-02-23T08:55:00Z</time>
      </trkpt>
      <trkpt lat="43.26984" lon="5.66516">
        <ele>359.2</ele>
        <time>2022-02-23T08:55:08Z</time>
      </trkpt>
      <trkpt lat="43.2699" lon="5.66518">
        <ele>360.8</ele>
        <time>2022-02-23T08:55:12Z</time>
      </trkpt>
      <trkpt lat="43.26995" lon="5.66521">
        <ele>361.7</ele>
        <time>2022-02-23T08:55:20Z</time>
      </trkpt>
      <trkpt lat="43.27001" lon="5.66522">
        <ele>362.8</ele>
        <time>2022-02-23T08:55:36Z</time>
      </trkpt>
      <trkpt lat="43.27006" lon="5.66523">
        <ele>363.9</ele>
        <time>2022-02-23T08:55:40Z</time>
      </trkpt>
      <trkpt lat="43.27011" lon="5.66523">
        <ele>365</ele>
        <time>2022-02-23T08:55:46Z</time>
      </trkpt>
      <trkpt lat="43.27016" lon="5.66524">
        <ele>365.8</ele>
        <time>2022-02-23T08:55:58Z</time>
      </trkpt>
      <trkpt lat="43.2702" lon="5.66529">
        <ele>365.9</ele>
        <time>2022-02-23T08:56:02Z</time>
      </trkpt>
      <trkpt lat="43.27025" lon="5.66532">
        <ele>367.6</ele>
        <time>2022-02-23T08:56:10Z</time>
      </trkpt>
      <trkpt lat="43.2703" lon="5.66531">
        <ele>368.9</ele>
        <time>2022-02-23T08:56:16Z</time>
      </trkpt>
      <trkpt lat="43.27036" lon="5.66533">
        <ele>372.1</ele>
        <time>2022-02-23T08:56:20Z</time>
      </trkpt>
      <trkpt lat="43.27043" lon="5.66535">
        <ele>375.1</ele>
        <time>2022-02-23T08:57:06Z</time>
      </trkpt>
      <trkpt lat="43.27048" lon="5.66536">
        <ele>377.2</ele>
        <time>2022-02-23T08:57:10Z</time>
      </trkpt>
      <trkpt lat="43.27052" lon="5.6654">
        <ele>379.1</ele>
        <time>2022-02-23T08:57:22Z</time>
      </trkpt>
      <trkpt lat="43.27056" lon="5.66542">
        <ele>380.7</ele>
        <time>2022-02-23T08:57:28Z</time>
      </trkpt>
      <trkpt lat="43.27061" lon="5.66546">
        <ele>382.2</ele>
        <time>2022-02-23T08:57:48Z</time>
      </trkpt>
      <trkpt lat="43.27066" lon="5.66548">
        <ele>383.4</ele>
        <time>2022-02-23T08:57:55Z</time>
      </trkpt>
      <trkpt lat="43.27071" lon="5.6655">
        <ele>384.4</ele>
        <time>2022-02-23T08:58:00Z</time>
      </trkpt>
      <trkpt lat="43.27076" lon="5.6655">
        <ele>385.5</ele>
        <time>2022-02-23T08:58:10Z</time>
      </trkpt>
      <trkpt lat="43.2708" lon="5.66546">
        <ele>387.1</ele>
        <time>2022-02-23T08:58:36Z</time>
      </trkpt>
      <trkpt lat="43.27086" lon="5.66546">
        <ele>388.4</ele>
        <time>2022-02-23T08:58:44Z</time>
      </trkpt>
      <trkpt lat="43.27091" lon="5.66548">
        <ele>389.1</ele>
        <time>2022-02-23T08:58:54Z</time>
      </trkpt>
      <trkpt lat="43.27096" lon="5.66547">
        <ele>390.3</ele>
        <time>2022-02-23T08:59:00Z</time>
      </trkpt>
      <trkpt lat="43.271" lon="5.66547">
        <ele>391.1</ele>
        <time>2022-02-23T08:59:06Z</time>
      </trkpt>
      <trkpt lat="43.27105" lon="5.66551">
        <ele>391.3</ele>
        <time>2022-02-23T08:59:16Z</time>
      </trkpt>
      <trkpt lat="43.27111" lon="5.66553">
        <ele>391.8</ele>
        <time>2022-02-23T08:59:22Z</time>
      </trkpt>
      <trkpt lat="43.27117" lon="5.66554">
        <ele>392.7</ele>
        <time>2022-02-23T08:59:28Z</time>
      </trkpt>
      <trkpt lat="43.27121" lon="5.66553">
        <ele>394.1</ele>
        <time>2022-02-23T08:59:56Z</time>
      </trkpt>
      <trkpt lat="43.27127" lon="5.66552">
        <ele>395.5</ele>
        <time>2022-02-23T09:00:00Z</time>
      </trkpt>
      <trkpt lat="43.27132" lon="5.66554">
        <ele>396.1</ele>
        <time>2022-02-23T09:00:06Z</time>
      </trkpt>
      <trkpt lat="43.27136" lon="5.66557">
        <ele>396.7</ele>
        <time>2022-02-23T09:00:10Z</time>
      </trkpt>
      <trkpt lat="43.2714" lon="5.6656">
        <ele>398.3</ele>
        <time>2022-02-23T09:00:16Z</time>
      </trkpt>
      <trkpt lat="43.27144" lon="5.66565">
        <ele>400</ele>
        <time>2022-02-23T09:00:32Z</time>
      </trkpt>
      <trkpt lat="43.27147" lon="5.6657">
        <ele>401.4</ele>
        <time>2022-02-23T09:00:38Z</time>
      </trkpt>
      <trkpt lat="43.27153" lon="5.66572">
        <ele>402.6</ele>
        <time>2022-02-23T09:00:44Z</time>
      </trkpt>
      <trkpt lat="43.27151" lon="5.66578">
        <ele>402.6</ele>
        <time>2022-02-23T09:01:00Z</time>
      </trkpt>
      <trkpt lat="43.27149" lon="5.66585">
        <ele>403.1</ele>
        <time>2022-02-23T09:02:58Z</time>
      </trkpt>
      <trkpt lat="43.27142" lon="5.66587">
        <ele>403.5</ele>
        <time>2022-02-23T09:03:06Z</time>
      </trkpt>
      <trkpt lat="43.27138" lon="5.6659">
        <ele>404.5</ele>
        <time>2022-02-23T09:03:12Z</time>
      </trkpt>
      <trkpt lat="43.27132" lon="5.66594">
        <ele>405.6</ele>
        <time>2022-02-23T09:03:18Z</time>
      </trkpt>
      <trkpt lat="43.27127" lon="5.66598">
        <ele>406.8</ele>
        <time>2022-02-23T09:03:26Z</time>
      </trkpt>
      <trkpt lat="43.27122" lon="5.666">
        <ele>407.2</ele>
        <time>2022-02-23T09:03:36Z</time>
      </trkpt>
      <trkpt lat="43.27117" lon="5.66602">
        <ele>407.9</ele>
        <time>2022-02-23T09:03:44Z</time>
      </trkpt>
      <trkpt lat="43.27113" lon="5.66608">
        <ele>410</ele>
        <time>2022-02-23T09:04:02Z</time>
      </trkpt>
      <trkpt lat="43.27108" lon="5.66613">
        <ele>410.9</ele>
        <time>2022-02-23T09:04:08Z</time>
      </trkpt>
      <trkpt lat="43.27104" lon="5.66619">
        <ele>412.2</ele>
        <time>2022-02-23T09:04:12Z</time>
      </trkpt>
      <trkpt lat="43.27102" lon="5.66624">
        <ele>413.3</ele>
        <time>2022-02-23T09:04:22Z</time>
      </trkpt>
      <trkpt lat="43.27099" lon="5.66629">
        <ele>414.4</ele>
        <time>2022-02-23T09:04:32Z</time>
      </trkpt>
      <trkpt lat="43.27095" lon="5.66635">
        <ele>415.4</ele>
        <time>2022-02-23T09:04:42Z</time>
      </trkpt>
      <trkpt lat="43.27092" lon="5.66642">
        <ele>416.9</ele>
        <time>2022-02-23T09:04:46Z</time>
      </trkpt>
      <trkpt lat="43.2709" lon="5.66648">
        <ele>418.1</ele>
        <time>2022-02-23T09:04:50Z</time>
      </trkpt>
      <trkpt lat="43.27088" lon="5.66654">
        <ele>419.2</ele>
        <time>2022-02-23T09:04:56Z</time>
      </trkpt>
      <trkpt lat="43.27084" lon="5.66659">
        <ele>419.9</ele>
        <time>2022-02-23T09:05:06Z</time>
      </trkpt>
      <trkpt lat="43.27081" lon="5.66664">
        <ele>420.5</ele>
        <time>2022-02-23T09:05:12Z</time>
      </trkpt>
      <trkpt lat="43.27078" lon="5.66669">
        <ele>420.9</ele>
        <time>2022-02-23T09:05:18Z</time>
      </trkpt>
      <trkpt lat="43.27076" lon="5.66675">
        <ele>421</ele>
        <time>2022-02-23T09:05:26Z</time>
      </trkpt>
      <trkpt lat="43.27075" lon="5.66684">
        <ele>422.3</ele>
        <time>2022-02-23T09:05:34Z</time>
      </trkpt>
      <trkpt lat="43.27075" lon="5.66691">
        <ele>423.3</ele>
        <time>2022-02-23T09:05:42Z</time>
      </trkpt>
      <trkpt lat="43.27076" lon="5.667">
        <ele>424.8</ele>
        <time>2022-02-23T09:06:06Z</time>
      </trkpt>
      <trkpt lat="43.27077" lon="5.66706">
        <ele>425.8</ele>
        <time>2022-02-23T09:06:10Z</time>
      </trkpt>
      <trkpt lat="43.27078" lon="5.66713">
        <ele>427</ele>
        <time>2022-02-23T09:06:16Z</time>
      </trkpt>
      <trkpt lat="43.2708" lon="5.6672">
        <ele>428.5</ele>
        <time>2022-02-23T09:06:28Z</time>
      </trkpt>
      <trkpt lat="43.27082" lon="5.66728">
        <ele>430.1</ele>
        <time>2022-02-23T09:06:34Z</time>
      </trkpt>
      <trkpt lat="43.27085" lon="5.66732">
        <ele>431.6</ele>
        <time>2022-02-23T09:06:40Z</time>
      </trkpt>
      <trkpt lat="43.2709" lon="5.66733">
        <ele>433.4</ele>
        <time>2022-02-23T09:06:52Z</time>
      </trkpt>
      <trkpt lat="43.27094" lon="5.6673">
        <ele>434.3</ele>
        <time>2022-02-23T09:07:02Z</time>
      </trkpt>
      <trkpt lat="43.27098" lon="5.66727">
        <ele>435.5</ele>
        <time>2022-02-23T09:07:08Z</time>
      </trkpt>
      <trkpt lat="43.27103" lon="5.66724">
        <ele>436.5</ele>
        <time>2022-02-23T09:07:14Z</time>
      </trkpt>
      <trkpt lat="43.27108" lon="5.66722">
        <ele>437.8</ele>
        <time>2022-02-23T09:07:22Z</time>
      </trkpt>
      <trkpt lat="43.27112" lon="5.6672">
        <ele>438.8</ele>
        <time>2022-02-23T09:07:28Z</time>
      </trkpt>
      <trkpt lat="43.27118" lon="5.66717">
        <ele>439.6</ele>
        <time>2022-02-23T09:07:38Z</time>
      </trkpt>
      <trkpt lat="43.27122" lon="5.66711">
        <ele>439</ele>
        <time>2022-02-23T09:07:44Z</time>
      </trkpt>
      <trkpt lat="43.27127" lon="5.66709">
        <ele>439.9</ele>
        <time>2022-02-23T09:07:50Z</time>
      </trkpt>
      <trkpt lat="43.27132" lon="5.66707">
        <ele>440.6</ele>
        <time>2022-02-23T09:07:58Z</time>
      </trkpt>
      <trkpt lat="43.27137" lon="5.66707">
        <ele>441.7</ele>
        <time>2022-02-23T09:08:06Z</time>
      </trkpt>
      <trkpt lat="43.27143" lon="5.66701">
        <ele>441.3</ele>
        <time>2022-02-23T09:10:46Z</time>
      </trkpt>
      <trkpt lat="43.27148" lon="5.667">
        <ele>441.9</ele>
        <time>2022-02-23T09:10:52Z</time>
      </trkpt>
      <trkpt lat="43.27153" lon="5.66699">
        <ele>442.7</ele>
        <time>2022-02-23T09:10:58Z</time>
      </trkpt>
      <trkpt lat="43.27158" lon="5.66698">
        <ele>443.2</ele>
        <time>2022-02-23T09:11:04Z</time>
      </trkpt>
      <trkpt lat="43.27163" lon="5.66697">
        <ele>444</ele>
        <time>2022-02-23T09:11:12Z</time>
      </trkpt>
      <trkpt lat="43.27169" lon="5.66697">
        <ele>444.6</ele>
        <time>2022-02-23T09:11:18Z</time>
      </trkpt>
      <trkpt lat="43.27173" lon="5.66695">
        <ele>444.4</ele>
        <time>2022-02-23T09:11:22Z</time>
      </trkpt>
      <trkpt lat="43.27179" lon="5.66696">
        <ele>444.9</ele>
        <time>2022-02-23T09:11:28Z</time>
      </trkpt>
      <trkpt lat="43.27184" lon="5.66697">
        <ele>445.1</ele>
        <time>2022-02-23T09:11:32Z</time>
      </trkpt>
      <trkpt lat="43.2719" lon="5.66698">
        <ele>445.6</ele>
        <time>2022-02-23T09:11:38Z</time>
      </trkpt>
      <trkpt lat="43.27196" lon="5.66699">
        <ele>446</ele>
        <time>2022-02-23T09:11:46Z</time>
      </trkpt>
      <trkpt lat="43.272" lon="5.66703">
        <ele>446.8</ele>
        <time>2022-02-23T09:11:56Z</time>
      </trkpt>
      <trkpt lat="43.27204" lon="5.66707">
        <ele>447.7</ele>
        <time>2022-02-23T09:12:08Z</time>
      </trkpt>
      <trkpt lat="43.27203" lon="5.66715">
        <ele>449</ele>
        <time>2022-02-23T09:12:16Z</time>
      </trkpt>
      <trkpt lat="43.272" lon="5.6672">
        <ele>450.1</ele>
        <time>2022-02-23T09:12:22Z</time>
      </trkpt>
      <trkpt lat="43.27205" lon="5.66718">
        <ele>449.5</ele>
        <time>2022-02-23T09:13:42Z</time>
      </trkpt>
      <trkpt lat="43.2721" lon="5.66714">
        <ele>448.6</ele>
        <time>2022-02-23T09:13:50Z</time>
      </trkpt>
      <trkpt lat="43.27214" lon="5.66711">
        <ele>448</ele>
        <time>2022-02-23T09:13:56Z</time>
      </trkpt>
      <trkpt lat="43.2722" lon="5.66709">
        <ele>447.6</ele>
        <time>2022-02-23T09:14:02Z</time>
      </trkpt>
      <trkpt lat="43.27226" lon="5.66706">
        <ele>447.2</ele>
        <time>2022-02-23T09:14:08Z</time>
      </trkpt>
      <trkpt lat="43.27232" lon="5.66707">
        <ele>447.4</ele>
        <time>2022-02-23T09:14:14Z</time>
      </trkpt>
      <trkpt lat="43.27236" lon="5.6671">
        <ele>447.6</ele>
        <time>2022-02-23T09:14:18Z</time>
      </trkpt>
      <trkpt lat="43.27241" lon="5.66714">
        <ele>447.8</ele>
        <time>2022-02-23T09:14:24Z</time>
      </trkpt>
      <trkpt lat="43.27246" lon="5.66718">
        <ele>448</ele>
        <time>2022-02-23T09:14:28Z</time>
      </trkpt>
      <trkpt lat="43.27251" lon="5.66722">
        <ele>448</ele>
        <time>2022-02-23T09:14:32Z</time>
      </trkpt>
      <trkpt lat="43.27255" lon="5.66726">
        <ele>448.1</ele>
        <time>2022-02-23T09:14:36Z</time>
      </trkpt>
      <trkpt lat="43.27259" lon="5.66729">
        <ele>448.1</ele>
        <time>2022-02-23T09:14:40Z</time>
      </trkpt>
      <trkpt lat="43.27265" lon="5.66731">
        <ele>448</ele>
        <time>2022-02-23T09:14:48Z</time>
      </trkpt>
      <trkpt lat="43.27271" lon="5.66732">
        <ele>447.9</ele>
        <time>2022-02-23T09:14:52Z</time>
      </trkpt>
      <trkpt lat="43.27276" lon="5.66734">
        <ele>447.8</ele>
        <time>2022-02-23T09:14:56Z</time>
      </trkpt>
      <trkpt lat="43.27281" lon="5.66735">
        <ele>447.9</ele>
        <time>2022-02-23T09:15:00Z</time>
      </trkpt>
      <trkpt lat="43.27286" lon="5.66736">
        <ele>448.1</ele>
        <time>2022-02-23T09:15:04Z</time>
      </trkpt>
      <trkpt lat="43.27291" lon="5.66737">
        <ele>448.4</ele>
        <time>2022-02-23T09:15:08Z</time>
      </trkpt>
      <trkpt lat="43.27297" lon="5.66738">
        <ele>448.6</ele>
        <time>2022-02-23T09:15:12Z</time>
      </trkpt>
      <trkpt lat="43.27302" lon="5.66738">
        <ele>448.9</ele>
        <time>2022-02-23T09:15:16Z</time>
      </trkpt>
      <trkpt lat="43.27309" lon="5.66739">
        <ele>449.1</ele>
        <time>2022-02-23T09:15:22Z</time>
      </trkpt>
      <trkpt lat="43.27315" lon="5.6674">
        <ele>449.2</ele>
        <time>2022-02-23T09:15:28Z</time>
      </trkpt>
      <trkpt lat="43.27322" lon="5.66741">
        <ele>449.3</ele>
        <time>2022-02-23T09:15:34Z</time>
      </trkpt>
      <trkpt lat="43.27328" lon="5.66743">
        <ele>449.3</ele>
        <time>2022-02-23T09:15:40Z</time>
      </trkpt>
      <trkpt lat="43.27332" lon="5.66744">
        <ele>449.2</ele>
        <time>2022-02-23T09:15:44Z</time>
      </trkpt>
      <trkpt lat="43.27339" lon="5.66746">
        <ele>449.4</ele>
        <time>2022-02-23T09:15:50Z</time>
      </trkpt>
      <trkpt lat="43.27344" lon="5.66748">
        <ele>449.7</ele>
        <time>2022-02-23T09:15:54Z</time>
      </trkpt>
      <trkpt lat="43.2735" lon="5.66749">
        <ele>450</ele>
        <time>2022-02-23T09:15:58Z</time>
      </trkpt>
      <trkpt lat="43.27355" lon="5.66751">
        <ele>450</ele>
        <time>2022-02-23T09:16:04Z</time>
      </trkpt>
      <trkpt lat="43.27362" lon="5.66753">
        <ele>450.1</ele>
        <time>2022-02-23T09:16:10Z</time>
      </trkpt>
      <trkpt lat="43.27368" lon="5.66756">
        <ele>450.7</ele>
        <time>2022-02-23T09:16:14Z</time>
      </trkpt>
      <trkpt lat="43.27372" lon="5.66758">
        <ele>450.9</ele>
        <time>2022-02-23T09:16:18Z</time>
      </trkpt>
      <trkpt lat="43.27377" lon="5.66762">
        <ele>450.9</ele>
        <time>2022-02-23T09:16:24Z</time>
      </trkpt>
      <trkpt lat="43.27381" lon="5.66766">
        <ele>450.4</ele>
        <time>2022-02-23T09:16:34Z</time>
      </trkpt>
      <trkpt lat="43.27386" lon="5.66769">
        <ele>450.6</ele>
        <time>2022-02-23T09:16:46Z</time>
      </trkpt>
      <trkpt lat="43.27392" lon="5.66773">
        <ele>450.8</ele>
        <time>2022-02-23T09:16:50Z</time>
      </trkpt>
      <trkpt lat="43.27396" lon="5.66778">
        <ele>450.5</ele>
        <time>2022-02-23T09:16:56Z</time>
      </trkpt>
      <trkpt lat="43.27402" lon="5.66783">
        <ele>450.5</ele>
        <time>2022-02-23T09:17:02Z</time>
      </trkpt>
      <trkpt lat="43.27408" lon="5.66788">
        <ele>450.4</ele>
        <time>2022-02-23T09:17:08Z</time>
      </trkpt>
      <trkpt lat="43.27412" lon="5.66793">
        <ele>450</ele>
        <time>2022-02-23T09:17:14Z</time>
      </trkpt>
      <trkpt lat="43.27416" lon="5.66798">
        <ele>449.7</ele>
        <time>2022-02-23T09:17:20Z</time>
      </trkpt>
      <trkpt lat="43.27419" lon="5.66803">
        <ele>449.4</ele>
        <time>2022-02-23T09:17:26Z</time>
      </trkpt>
      <trkpt lat="43.27423" lon="5.66809">
        <ele>449.3</ele>
        <time>2022-02-23T09:17:32Z</time>
      </trkpt>
      <trkpt lat="43.27425" lon="5.66814">
        <ele>449.2</ele>
        <time>2022-02-23T09:17:38Z</time>
      </trkpt>
      <trkpt lat="43.27429" lon="5.6682">
        <ele>449.3</ele>
        <time>2022-02-23T09:17:44Z</time>
      </trkpt>
      <trkpt lat="43.27432" lon="5.66826">
        <ele>449.2</ele>
        <time>2022-02-23T09:17:50Z</time>
      </trkpt>
      <trkpt lat="43.27436" lon="5.66831">
        <ele>449.7</ele>
        <time>2022-02-23T09:17:56Z</time>
      </trkpt>
      <trkpt lat="43.2744" lon="5.66836">
        <ele>450.2</ele>
        <time>2022-02-23T09:18:00Z</time>
      </trkpt>
      <trkpt lat="43.27441" lon="5.66842">
        <ele>449.8</ele>
        <time>2022-02-23T09:18:06Z</time>
      </trkpt>
      <trkpt lat="43.27445" lon="5.66847">
        <ele>450.1</ele>
        <time>2022-02-23T09:18:12Z</time>
      </trkpt>
      <trkpt lat="43.27448" lon="5.66853">
        <ele>450</ele>
        <time>2022-02-23T09:18:18Z</time>
      </trkpt>
      <trkpt lat="43.27452" lon="5.66858">
        <ele>450.1</ele>
        <time>2022-02-23T09:18:24Z</time>
      </trkpt>
      <trkpt lat="43.27456" lon="5.66861">
        <ele>450.4</ele>
        <time>2022-02-23T09:18:28Z</time>
      </trkpt>
      <trkpt lat="43.27461" lon="5.66864">
        <ele>451.2</ele>
        <time>2022-02-23T09:18:34Z</time>
      </trkpt>
      <trkpt lat="43.27468" lon="5.66864">
        <ele>452.5</ele>
        <time>2022-02-23T09:18:42Z</time>
      </trkpt>
      <trkpt lat="43.27472" lon="5.66862">
        <ele>453.8</ele>
        <time>2022-02-23T09:18:50Z</time>
      </trkpt>
      <trkpt lat="43.27477" lon="5.66858">
        <ele>454.2</ele>
        <time>2022-02-23T09:19:00Z</time>
      </trkpt>
      <trkpt lat="43.27481" lon="5.66853">
        <ele>454.7</ele>
        <time>2022-02-23T09:19:18Z</time>
      </trkpt>
      <trkpt lat="43.27484" lon="5.66848">
        <ele>455.4</ele>
        <time>2022-02-23T09:19:28Z</time>
      </trkpt>
      <trkpt lat="43.27485" lon="5.6684">
        <ele>456.8</ele>
        <time>2022-02-23T09:19:36Z</time>
      </trkpt>
      <trkpt lat="43.27484" lon="5.66833">
        <ele>458</ele>
        <time>2022-02-23T09:19:44Z</time>
      </trkpt>
      <trkpt lat="43.27484" lon="5.66825">
        <ele>459.5</ele>
        <time>2022-02-23T09:19:52Z</time>
      </trkpt>
      <trkpt lat="43.27484" lon="5.66819">
        <ele>460.6</ele>
        <time>2022-02-23T09:19:58Z</time>
      </trkpt>
      <trkpt lat="43.27487" lon="5.66812">
        <ele>461.8</ele>
        <time>2022-02-23T09:20:14Z</time>
      </trkpt>
      <trkpt lat="43.27489" lon="5.66806">
        <ele>462.8</ele>
        <time>2022-02-23T09:20:24Z</time>
      </trkpt>
      <trkpt lat="43.27492" lon="5.66801">
        <ele>463.7</ele>
        <time>2022-02-23T09:20:32Z</time>
      </trkpt>
      <trkpt lat="43.27495" lon="5.66796">
        <ele>464.4</ele>
        <time>2022-02-23T09:20:42Z</time>
      </trkpt>
      <trkpt lat="43.27498" lon="5.66789">
        <ele>465.5</ele>
        <time>2022-02-23T09:20:50Z</time>
      </trkpt>
      <trkpt lat="43.275" lon="5.66782">
        <ele>466.3</ele>
        <time>2022-02-23T09:20:56Z</time>
      </trkpt>
      <trkpt lat="43.27504" lon="5.66777">
        <ele>466.5</ele>
        <time>2022-02-23T09:21:02Z</time>
      </trkpt>
      <trkpt lat="43.2751" lon="5.66771">
        <ele>466.7</ele>
        <time>2022-02-23T09:21:08Z</time>
      </trkpt>
      <trkpt lat="43.27513" lon="5.66766">
        <ele>467.1</ele>
        <time>2022-02-23T09:21:12Z</time>
      </trkpt>
      <trkpt lat="43.27519" lon="5.66764">
        <ele>466.6</ele>
        <time>2022-02-23T09:21:18Z</time>
      </trkpt>
      <trkpt lat="43.27522" lon="5.6676">
        <ele>466.7</ele>
        <time>2022-02-23T09:21:26Z</time>
      </trkpt>
      <trkpt lat="43.27526" lon="5.66755">
        <ele>467.2</ele>
        <time>2022-02-23T09:22:06Z</time>
      </trkpt>
      <trkpt lat="43.27527" lon="5.66747">
        <ele>468.8</ele>
        <time>2022-02-23T09:22:12Z</time>
      </trkpt>
      <trkpt lat="43.27527" lon="5.6674">
        <ele>470.2</ele>
        <time>2022-02-23T09:22:18Z</time>
      </trkpt>
      <trkpt lat="43.27529" lon="5.66733">
        <ele>471.3</ele>
        <time>2022-02-23T09:22:26Z</time>
      </trkpt>
      <trkpt lat="43.27534" lon="5.66734">
        <ele>470.1</ele>
        <time>2022-02-23T09:23:16Z</time>
      </trkpt>
      <trkpt lat="43.27535" lon="5.66728">
        <ele>471.1</ele>
        <time>2022-02-23T09:25:18Z</time>
      </trkpt>
      <trkpt lat="43.27541" lon="5.66723">
        <ele>471</ele>
        <time>2022-02-23T09:25:24Z</time>
      </trkpt>
      <trkpt lat="43.27545" lon="5.6672">
        <ele>470.8</ele>
        <time>2022-02-23T09:25:30Z</time>
      </trkpt>
      <trkpt lat="43.27548" lon="5.66715">
        <ele>471.1</ele>
        <time>2022-02-23T09:25:36Z</time>
      </trkpt>
      <trkpt lat="43.27553" lon="5.66709">
        <ele>471.4</ele>
        <time>2022-02-23T09:25:42Z</time>
      </trkpt>
      <trkpt lat="43.27557" lon="5.66703">
        <ele>471.7</ele>
        <time>2022-02-23T09:25:48Z</time>
      </trkpt>
      <trkpt lat="43.27561" lon="5.66697">
        <ele>471.7</ele>
        <time>2022-02-23T09:25:54Z</time>
      </trkpt>
      <trkpt lat="43.27565" lon="5.66694">
        <ele>471.3</ele>
        <time>2022-02-23T09:26:00Z</time>
      </trkpt>
      <trkpt lat="43.27571" lon="5.6669">
        <ele>470.7</ele>
        <time>2022-02-23T09:26:06Z</time>
      </trkpt>
      <trkpt lat="43.27575" lon="5.66686">
        <ele>470.3</ele>
        <time>2022-02-23T09:26:12Z</time>
      </trkpt>
      <trkpt lat="43.27578" lon="5.66682">
        <ele>470.2</ele>
        <time>2022-02-23T09:26:16Z</time>
      </trkpt>
      <trkpt lat="43.27582" lon="5.66676">
        <ele>470.3</ele>
        <time>2022-02-23T09:26:22Z</time>
      </trkpt>
      <trkpt lat="43.27585" lon="5.66671">
        <ele>470.3</ele>
        <time>2022-02-23T09:26:26Z</time>
      </trkpt>
      <trkpt lat="43.27587" lon="5.66664">
        <ele>470.7</ele>
        <time>2022-02-23T09:26:30Z</time>
      </trkpt>
      <trkpt lat="43.2759" lon="5.66658">
        <ele>470.3</ele>
        <time>2022-02-23T09:26:34Z</time>
      </trkpt>
      <trkpt lat="43.27594" lon="5.66652">
        <ele>469.6</ele>
        <time>2022-02-23T09:26:40Z</time>
      </trkpt>
      <trkpt lat="43.27597" lon="5.66644">
        <ele>469.3</ele>
        <time>2022-02-23T09:26:46Z</time>
      </trkpt>
      <trkpt lat="43.27601" lon="5.66638">
        <ele>468.7</ele>
        <time>2022-02-23T09:26:52Z</time>
      </trkpt>
      <trkpt lat="43.27604" lon="5.66632">
        <ele>468</ele>
        <time>2022-02-23T09:26:58Z</time>
      </trkpt>
      <trkpt lat="43.27607" lon="5.66626">
        <ele>467.5</ele>
        <time>2022-02-23T09:27:04Z</time>
      </trkpt>
      <trkpt lat="43.27609" lon="5.66618">
        <ele>467.5</ele>
        <time>2022-02-23T09:27:10Z</time>
      </trkpt>
      <trkpt lat="43.2761" lon="5.66609">
        <ele>467.5</ele>
        <time>2022-02-23T09:27:16Z</time>
      </trkpt>
      <trkpt lat="43.27613" lon="5.666">
        <ele>467.4</ele>
        <time>2022-02-23T09:27:22Z</time>
      </trkpt>
      <trkpt lat="43.27615" lon="5.66595">
        <ele>467.2</ele>
        <time>2022-02-23T09:27:26Z</time>
      </trkpt>
      <trkpt lat="43.27618" lon="5.66589">
        <ele>467</ele>
        <time>2022-02-23T09:27:30Z</time>
      </trkpt>
      <trkpt lat="43.27623" lon="5.66584">
        <ele>466.4</ele>
        <time>2022-02-23T09:27:36Z</time>
      </trkpt>
      <trkpt lat="43.27628" lon="5.6658">
        <ele>465.6</ele>
        <time>2022-02-23T09:27:42Z</time>
      </trkpt>
      <trkpt lat="43.27633" lon="5.66576">
        <ele>464.8</ele>
        <time>2022-02-23T09:27:48Z</time>
      </trkpt>
      <trkpt lat="43.27639" lon="5.66571">
        <ele>464</ele>
        <time>2022-02-23T09:27:54Z</time>
      </trkpt>
      <trkpt lat="43.27644" lon="5.66567">
        <ele>464</ele>
        <time>2022-02-23T09:28:00Z</time>
      </trkpt>
      <trkpt lat="43.2765" lon="5.66566">
        <ele>463.8</ele>
        <time>2022-02-23T09:28:06Z</time>
      </trkpt>
      <trkpt lat="43.27655" lon="5.66565">
        <ele>463.7</ele>
        <time>2022-02-23T09:28:12Z</time>
      </trkpt>
      <trkpt lat="43.2766" lon="5.66564">
        <ele>463.6</ele>
        <time>2022-02-23T09:28:18Z</time>
      </trkpt>
      <trkpt lat="43.27665" lon="5.66563">
        <ele>463.5</ele>
        <time>2022-02-23T09:28:24Z</time>
      </trkpt>
      <trkpt lat="43.2767" lon="5.66564">
        <ele>463.5</ele>
        <time>2022-02-23T09:28:28Z</time>
      </trkpt>
      <trkpt lat="43.27675" lon="5.66563">
        <ele>463.6</ele>
        <time>2022-02-23T09:28:32Z</time>
      </trkpt>
      <trkpt lat="43.2768" lon="5.66563">
        <ele>463.7</ele>
        <time>2022-02-23T09:28:36Z</time>
      </trkpt>
      <trkpt lat="43.27685" lon="5.66562">
        <ele>463.8</ele>
        <time>2022-02-23T09:28:40Z</time>
      </trkpt>
      <trkpt lat="43.27689" lon="5.66563">
        <ele>463.9</ele>
        <time>2022-02-23T09:28:44Z</time>
      </trkpt>
      <trkpt lat="43.27694" lon="5.66563">
        <ele>464</ele>
        <time>2022-02-23T09:28:48Z</time>
      </trkpt>
      <trkpt lat="43.277" lon="5.66564">
        <ele>464.6</ele>
        <time>2022-02-23T09:28:54Z</time>
      </trkpt>
      <trkpt lat="43.27704" lon="5.66562">
        <ele>465.1</ele>
        <time>2022-02-23T09:28:58Z</time>
      </trkpt>
      <trkpt lat="43.27709" lon="5.6656">
        <ele>465.6</ele>
        <time>2022-02-23T09:29:02Z</time>
      </trkpt>
      <trkpt lat="43.27713" lon="5.6656">
        <ele>466.2</ele>
        <time>2022-02-23T09:29:06Z</time>
      </trkpt>
      <trkpt lat="43.27719" lon="5.66561">
        <ele>466.8</ele>
        <time>2022-02-23T09:29:12Z</time>
      </trkpt>
      <trkpt lat="43.27725" lon="5.66563">
        <ele>467.4</ele>
        <time>2022-02-23T09:29:18Z</time>
      </trkpt>
      <trkpt lat="43.27731" lon="5.66564">
        <ele>467.8</ele>
        <time>2022-02-23T09:29:24Z</time>
      </trkpt>
      <trkpt lat="43.27737" lon="5.66567">
        <ele>468.4</ele>
        <time>2022-02-23T09:29:30Z</time>
      </trkpt>
      <trkpt lat="43.27743" lon="5.6657">
        <ele>469</ele>
        <time>2022-02-23T09:29:36Z</time>
      </trkpt>
      <trkpt lat="43.27749" lon="5.66573">
        <ele>469.8</ele>
        <time>2022-02-23T09:29:42Z</time>
      </trkpt>
      <trkpt lat="43.27755" lon="5.66577">
        <ele>470.4</ele>
        <time>2022-02-23T09:29:48Z</time>
      </trkpt>
      <trkpt lat="43.2776" lon="5.66579">
        <ele>471.1</ele>
        <time>2022-02-23T09:29:54Z</time>
      </trkpt>
      <trkpt lat="43.27765" lon="5.66582">
        <ele>471.9</ele>
        <time>2022-02-23T09:30:00Z</time>
      </trkpt>
      <trkpt lat="43.2777" lon="5.66585">
        <ele>472.4</ele>
        <time>2022-02-23T09:30:06Z</time>
      </trkpt>
      <trkpt lat="43.27775" lon="5.66587">
        <ele>472.8</ele>
        <time>2022-02-23T09:30:12Z</time>
      </trkpt>
      <trkpt lat="43.2778" lon="5.66589">
        <ele>473</ele>
        <time>2022-02-23T09:30:18Z</time>
      </trkpt>
      <trkpt lat="43.27785" lon="5.66592">
        <ele>473.1</ele>
        <time>2022-02-23T09:30:24Z</time>
      </trkpt>
      <trkpt lat="43.2779" lon="5.66594">
        <ele>473.2</ele>
        <time>2022-02-23T09:30:32Z</time>
      </trkpt>
      <trkpt lat="43.27795" lon="5.66597">
        <ele>473.3</ele>
        <time>2022-02-23T09:30:40Z</time>
      </trkpt>
      <trkpt lat="43.278" lon="5.66596">
        <ele>473.4</ele>
        <time>2022-02-23T09:32:38Z</time>
      </trkpt>
      <trkpt lat="43.27806" lon="5.66599">
        <ele>473.6</ele>
        <time>2022-02-23T09:32:44Z</time>
      </trkpt>
      <trkpt lat="43.27812" lon="5.66601">
        <ele>473</ele>
        <time>2022-02-23T09:32:50Z</time>
      </trkpt>
      <trkpt lat="43.27819" lon="5.66603">
        <ele>472.5</ele>
        <time>2022-02-23T09:32:56Z</time>
      </trkpt>
      <trkpt lat="43.27823" lon="5.66604">
        <ele>472.1</ele>
        <time>2022-02-23T09:33:00Z</time>
      </trkpt>
      <trkpt lat="43.2783" lon="5.66606">
        <ele>471.7</ele>
        <time>2022-02-23T09:33:06Z</time>
      </trkpt>
      <trkpt lat="43.27834" lon="5.66606">
        <ele>471.5</ele>
        <time>2022-02-23T09:33:10Z</time>
      </trkpt>
      <trkpt lat="43.27839" lon="5.66606">
        <ele>471.7</ele>
        <time>2022-02-23T09:33:16Z</time>
      </trkpt>
      <trkpt lat="43.27845" lon="5.66607">
        <ele>471.9</ele>
        <time>2022-02-23T09:33:20Z</time>
      </trkpt>
      <trkpt lat="43.27849" lon="5.66608">
        <ele>472.2</ele>
        <time>2022-02-23T09:33:24Z</time>
      </trkpt>
      <trkpt lat="43.27855" lon="5.6661">
        <ele>472.7</ele>
        <time>2022-02-23T09:33:30Z</time>
      </trkpt>
      <trkpt lat="43.2786" lon="5.66612">
        <ele>472.9</ele>
        <time>2022-02-23T09:33:38Z</time>
      </trkpt>
      <trkpt lat="43.27866" lon="5.66613">
        <ele>473.1</ele>
        <time>2022-02-23T09:33:44Z</time>
      </trkpt>
      <trkpt lat="43.2787" lon="5.66614">
        <ele>473.2</ele>
        <time>2022-02-23T09:33:48Z</time>
      </trkpt>
      <trkpt lat="43.27877" lon="5.66614">
        <ele>473.4</ele>
        <time>2022-02-23T09:33:54Z</time>
      </trkpt>
      <trkpt lat="43.27882" lon="5.66614">
        <ele>473.6</ele>
        <time>2022-02-23T09:34:00Z</time>
      </trkpt>
      <trkpt lat="43.27887" lon="5.66614">
        <ele>473.8</ele>
        <time>2022-02-23T09:34:04Z</time>
      </trkpt>
      <trkpt lat="43.27893" lon="5.66614">
        <ele>474.2</ele>
        <time>2022-02-23T09:34:10Z</time>
      </trkpt>
      <trkpt lat="43.27899" lon="5.66615">
        <ele>474.7</ele>
        <time>2022-02-23T09:34:16Z</time>
      </trkpt>
      <trkpt lat="43.27905" lon="5.66618">
        <ele>475.1</ele>
        <time>2022-02-23T09:34:22Z</time>
      </trkpt>
      <trkpt lat="43.27909" lon="5.66619">
        <ele>475.4</ele>
        <time>2022-02-23T09:34:28Z</time>
      </trkpt>
      <trkpt lat="43.27914" lon="5.6662">
        <ele>475.8</ele>
        <time>2022-02-23T09:34:32Z</time>
      </trkpt>
      <trkpt lat="43.27919" lon="5.66621">
        <ele>476.2</ele>
        <time>2022-02-23T09:34:36Z</time>
      </trkpt>
      <trkpt lat="43.27924" lon="5.66624">
        <ele>476.7</ele>
        <time>2022-02-23T09:34:42Z</time>
      </trkpt>
      <trkpt lat="43.27929" lon="5.66625">
        <ele>477.3</ele>
        <time>2022-02-23T09:34:48Z</time>
      </trkpt>
      <trkpt lat="43.27935" lon="5.66628">
        <ele>477.7</ele>
        <time>2022-02-23T09:34:54Z</time>
      </trkpt>
      <trkpt lat="43.2794" lon="5.66632">
        <ele>477.7</ele>
        <time>2022-02-23T09:35:00Z</time>
      </trkpt>
      <trkpt lat="43.27947" lon="5.66635">
        <ele>478.1</ele>
        <time>2022-02-23T09:35:06Z</time>
      </trkpt>
      <trkpt lat="43.27953" lon="5.66638">
        <ele>478.4</ele>
        <time>2022-02-23T09:35:12Z</time>
      </trkpt>
      <trkpt lat="43.27959" lon="5.66641">
        <ele>478.8</ele>
        <time>2022-02-23T09:35:18Z</time>
      </trkpt>
      <trkpt lat="43.27965" lon="5.66644">
        <ele>479.2</ele>
        <time>2022-02-23T09:35:24Z</time>
      </trkpt>
      <trkpt lat="43.27971" lon="5.66647">
        <ele>479.4</ele>
        <time>2022-02-23T09:35:30Z</time>
      </trkpt>
      <trkpt lat="43.27977" lon="5.66651">
        <ele>479.4</ele>
        <time>2022-02-23T09:35:36Z</time>
      </trkpt>
      <trkpt lat="43.27981" lon="5.66653">
        <ele>479.5</ele>
        <time>2022-02-23T09:35:40Z</time>
      </trkpt>
      <trkpt lat="43.27986" lon="5.66655">
        <ele>479.5</ele>
        <time>2022-02-23T09:35:44Z</time>
      </trkpt>
      <trkpt lat="43.27991" lon="5.66659">
        <ele>479.2</ele>
        <time>2022-02-23T09:35:50Z</time>
      </trkpt>
      <trkpt lat="43.27996" lon="5.66661">
        <ele>479.2</ele>
        <time>2022-02-23T09:35:56Z</time>
      </trkpt>
      <trkpt lat="43.28001" lon="5.66663">
        <ele>479</ele>
        <time>2022-02-23T09:36:00Z</time>
      </trkpt>
      <trkpt lat="43.28007" lon="5.66666">
        <ele>479.1</ele>
        <time>2022-02-23T09:36:04Z</time>
      </trkpt>
      <trkpt lat="43.28011" lon="5.66669">
        <ele>479.2</ele>
        <time>2022-02-23T09:36:08Z</time>
      </trkpt>
      <trkpt lat="43.28016" lon="5.66674">
        <ele>479.1</ele>
        <time>2022-02-23T09:36:16Z</time>
      </trkpt>
      <trkpt lat="43.28021" lon="5.66679">
        <ele>479.2</ele>
        <time>2022-02-23T09:36:22Z</time>
      </trkpt>
      <trkpt lat="43.28026" lon="5.66683">
        <ele>479.3</ele>
        <time>2022-02-23T09:36:26Z</time>
      </trkpt>
      <trkpt lat="43.28029" lon="5.66687">
        <ele>479.4</ele>
        <time>2022-02-23T09:36:30Z</time>
      </trkpt>
      <trkpt lat="43.28034" lon="5.6669">
        <ele>479.9</ele>
        <time>2022-02-23T09:36:34Z</time>
      </trkpt>
      <trkpt lat="43.28038" lon="5.66695">
        <ele>480.2</ele>
        <time>2022-02-23T09:36:40Z</time>
      </trkpt>
      <trkpt lat="43.28043" lon="5.66701">
        <ele>480.5</ele>
        <time>2022-02-23T09:36:46Z</time>
      </trkpt>
      <trkpt lat="43.28048" lon="5.66705">
        <ele>480.9</ele>
        <time>2022-02-23T09:36:52Z</time>
      </trkpt>
      <trkpt lat="43.28053" lon="5.66711">
        <ele>481</ele>
        <time>2022-02-23T09:36:58Z</time>
      </trkpt>
      <trkpt lat="43.28057" lon="5.66715">
        <ele>481.3</ele>
        <time>2022-02-23T09:37:04Z</time>
      </trkpt>
      <trkpt lat="43.28061" lon="5.6672">
        <ele>481.3</ele>
        <time>2022-02-23T09:37:10Z</time>
      </trkpt>
      <trkpt lat="43.28066" lon="5.66726">
        <ele>481.9</ele>
        <time>2022-02-23T09:37:16Z</time>
      </trkpt>
      <trkpt lat="43.2807" lon="5.66729">
        <ele>482.4</ele>
        <time>2022-02-23T09:37:20Z</time>
      </trkpt>
      <trkpt lat="43.28076" lon="5.66734">
        <ele>482.8</ele>
        <time>2022-02-23T09:37:26Z</time>
      </trkpt>
      <trkpt lat="43.2808" lon="5.66737">
        <ele>483</ele>
        <time>2022-02-23T09:37:30Z</time>
      </trkpt>
      <trkpt lat="43.28084" lon="5.66742">
        <ele>482.9</ele>
        <time>2022-02-23T09:37:36Z</time>
      </trkpt>
      <trkpt lat="43.28089" lon="5.66746">
        <ele>483.1</ele>
        <time>2022-02-23T09:37:42Z</time>
      </trkpt>
      <trkpt lat="43.28095" lon="5.66751">
        <ele>483.3</ele>
        <time>2022-02-23T09:37:48Z</time>
      </trkpt>
      <trkpt lat="43.28099" lon="5.66754">
        <ele>483.6</ele>
        <time>2022-02-23T09:37:52Z</time>
      </trkpt>
      <trkpt lat="43.28105" lon="5.66758">
        <ele>483.9</ele>
        <time>2022-02-23T09:37:58Z</time>
      </trkpt>
      <trkpt lat="43.2811" lon="5.66762">
        <ele>484</ele>
        <time>2022-02-23T09:38:04Z</time>
      </trkpt>
      <trkpt lat="43.28114" lon="5.66765">
        <ele>484.1</ele>
        <time>2022-02-23T09:38:08Z</time>
      </trkpt>
      <trkpt lat="43.2812" lon="5.66769">
        <ele>484</ele>
        <time>2022-02-23T09:38:14Z</time>
      </trkpt>
      <trkpt lat="43.28124" lon="5.66772">
        <ele>484</ele>
        <time>2022-02-23T09:38:18Z</time>
      </trkpt>
      <trkpt lat="43.2813" lon="5.66775">
        <ele>484</ele>
        <time>2022-02-23T09:38:24Z</time>
      </trkpt>
      <trkpt lat="43.28136" lon="5.66778">
        <ele>483.9</ele>
        <time>2022-02-23T09:38:30Z</time>
      </trkpt>
      <trkpt lat="43.28141" lon="5.66781">
        <ele>484</ele>
        <time>2022-02-23T09:38:36Z</time>
      </trkpt>
      <trkpt lat="43.28147" lon="5.66783">
        <ele>484.1</ele>
        <time>2022-02-23T09:38:42Z</time>
      </trkpt>
      <trkpt lat="43.28152" lon="5.66785">
        <ele>484</ele>
        <time>2022-02-23T09:38:48Z</time>
      </trkpt>
      <trkpt lat="43.28158" lon="5.66787">
        <ele>483.9</ele>
        <time>2022-02-23T09:38:54Z</time>
      </trkpt>
      <trkpt lat="43.28163" lon="5.66788">
        <ele>483.7</ele>
        <time>2022-02-23T09:39:00Z</time>
      </trkpt>
      <trkpt lat="43.28168" lon="5.66788">
        <ele>483.7</ele>
        <time>2022-02-23T09:39:08Z</time>
      </trkpt>
      <trkpt lat="43.28173" lon="5.6679">
        <ele>483.6</ele>
        <time>2022-02-23T09:39:12Z</time>
      </trkpt>
      <trkpt lat="43.28177" lon="5.66791">
        <ele>483.3</ele>
        <time>2022-02-23T09:39:16Z</time>
      </trkpt>
      <trkpt lat="43.28183" lon="5.66793">
        <ele>482.9</ele>
        <time>2022-02-23T09:39:22Z</time>
      </trkpt>
      <trkpt lat="43.28187" lon="5.66796">
        <ele>482.4</ele>
        <time>2022-02-23T09:39:28Z</time>
      </trkpt>
      <trkpt lat="43.28192" lon="5.66798">
        <ele>481.8</ele>
        <time>2022-02-23T09:39:34Z</time>
      </trkpt>
      <trkpt lat="43.28188" lon="5.66801">
        <ele>481</ele>
        <time>2022-02-23T09:39:58Z</time>
      </trkpt>
      <trkpt lat="43.28186" lon="5.66808">
        <ele>479.5</ele>
        <time>2022-02-23T09:40:40Z</time>
      </trkpt>
      <trkpt lat="43.28184" lon="5.66802">
        <ele>480.9</ele>
        <time>2022-02-23T09:41:08Z</time>
      </trkpt>
      <trkpt lat="43.28189" lon="5.668">
        <ele>481.3</ele>
        <time>2022-02-23T09:47:30Z</time>
      </trkpt>
      <trkpt lat="43.28195" lon="5.66803">
        <ele>480.6</ele>
        <time>2022-02-23T09:47:38Z</time>
      </trkpt>
      <trkpt lat="43.282" lon="5.66806">
        <ele>479.1</ele>
        <time>2022-02-23T09:47:48Z</time>
      </trkpt>
      <trkpt lat="43.28203" lon="5.66811">
        <ele>477.5</ele>
        <time>2022-02-23T09:48:00Z</time>
      </trkpt>
      <trkpt lat="43.28207" lon="5.66816">
        <ele>475.7</ele>
        <time>2022-02-23T09:48:10Z</time>
      </trkpt>
      <trkpt lat="43.28212" lon="5.66818">
        <ele>474.4</ele>
        <time>2022-02-23T09:48:18Z</time>
      </trkpt>
      <trkpt lat="43.28216" lon="5.66821">
        <ele>473.1</ele>
        <time>2022-02-23T09:48:24Z</time>
      </trkpt>
      <trkpt lat="43.2822" lon="5.66828">
        <ele>470.8</ele>
        <time>2022-02-23T09:48:32Z</time>
      </trkpt>
      <trkpt lat="43.28223" lon="5.66835">
        <ele>468.8</ele>
        <time>2022-02-23T09:48:38Z</time>
      </trkpt>
      <trkpt lat="43.28224" lon="5.66841">
        <ele>468</ele>
        <time>2022-02-23T09:48:42Z</time>
      </trkpt>
      <trkpt lat="43.28228" lon="5.66846">
        <ele>467.1</ele>
        <time>2022-02-23T09:48:48Z</time>
      </trkpt>
      <trkpt lat="43.28233" lon="5.66851">
        <ele>466.1</ele>
        <time>2022-02-23T09:48:54Z</time>
      </trkpt>
      <trkpt lat="43.28239" lon="5.66854">
        <ele>465.1</ele>
        <time>2022-02-23T09:49:00Z</time>
      </trkpt>
      <trkpt lat="43.28244" lon="5.66859">
        <ele>464</ele>
        <time>2022-02-23T09:49:06Z</time>
      </trkpt>
      <trkpt lat="43.28249" lon="5.66861">
        <ele>463.1</ele>
        <time>2022-02-23T09:49:10Z</time>
      </trkpt>
      <trkpt lat="43.28254" lon="5.66864">
        <ele>462.6</ele>
        <time>2022-02-23T09:49:14Z</time>
      </trkpt>
      <trkpt lat="43.28259" lon="5.66869">
        <ele>461.7</ele>
        <time>2022-02-23T09:49:20Z</time>
      </trkpt>
      <trkpt lat="43.28264" lon="5.66874">
        <ele>460.8</ele>
        <time>2022-02-23T09:49:26Z</time>
      </trkpt>
      <trkpt lat="43.2827" lon="5.66879">
        <ele>459.8</ele>
        <time>2022-02-23T09:49:32Z</time>
      </trkpt>
      <trkpt lat="43.28274" lon="5.66884">
        <ele>458.9</ele>
        <time>2022-02-23T09:49:38Z</time>
      </trkpt>
      <trkpt lat="43.28278" lon="5.66887">
        <ele>458.2</ele>
        <time>2022-02-23T09:49:42Z</time>
      </trkpt>
      <trkpt lat="43.28283" lon="5.66892">
        <ele>457.4</ele>
        <time>2022-02-23T09:49:48Z</time>
      </trkpt>
      <trkpt lat="43.28288" lon="5.66894">
        <ele>456.9</ele>
        <time>2022-02-23T09:49:52Z</time>
      </trkpt>
      <trkpt lat="43.28292" lon="5.66897">
        <ele>456.4</ele>
        <time>2022-02-23T09:49:56Z</time>
      </trkpt>
      <trkpt lat="43.28295" lon="5.66902">
        <ele>455.8</ele>
        <time>2022-02-23T09:50:02Z</time>
      </trkpt>
      <trkpt lat="43.2829" lon="5.66904">
        <ele>456</ele>
        <time>2022-02-23T09:51:36Z</time>
      </trkpt>
      <trkpt lat="43.28294" lon="5.66901">
        <ele>455.9</ele>
        <time>2022-02-23T09:52:06Z</time>
      </trkpt>
      <trkpt lat="43.28299" lon="5.66904">
        <ele>455.4</ele>
        <time>2022-02-23T09:52:12Z</time>
      </trkpt>
      <trkpt lat="43.28303" lon="5.66908">
        <ele>454.8</ele>
        <time>2022-02-23T09:52:18Z</time>
      </trkpt>
      <trkpt lat="43.28307" lon="5.66912">
        <ele>454.2</ele>
        <time>2022-02-23T09:52:28Z</time>
      </trkpt>
      <trkpt lat="43.28312" lon="5.6691">
        <ele>453.9</ele>
        <time>2022-02-23T09:52:34Z</time>
      </trkpt>
      <trkpt lat="43.28316" lon="5.66907">
        <ele>453.5</ele>
        <time>2022-02-23T09:52:38Z</time>
      </trkpt>
      <trkpt lat="43.28321" lon="5.66903">
        <ele>452.6</ele>
        <time>2022-02-23T09:52:46Z</time>
      </trkpt>
      <trkpt lat="43.28325" lon="5.669">
        <ele>451.5</ele>
        <time>2022-02-23T09:52:56Z</time>
      </trkpt>
      <trkpt lat="43.2833" lon="5.66896">
        <ele>450.1</ele>
        <time>2022-02-23T09:53:06Z</time>
      </trkpt>
      <trkpt lat="43.28335" lon="5.66893">
        <ele>448.8</ele>
        <time>2022-02-23T09:53:14Z</time>
      </trkpt>
      <trkpt lat="43.28339" lon="5.66892">
        <ele>448.3</ele>
        <time>2022-02-23T09:53:20Z</time>
      </trkpt>
      <trkpt lat="43.28343" lon="5.66888">
        <ele>447.6</ele>
        <time>2022-02-23T09:53:28Z</time>
      </trkpt>
      <trkpt lat="43.28347" lon="5.66884">
        <ele>447</ele>
        <time>2022-02-23T09:53:36Z</time>
      </trkpt>
      <trkpt lat="43.2835" lon="5.66878">
        <ele>446</ele>
        <time>2022-02-23T09:53:44Z</time>
      </trkpt>
      <trkpt lat="43.28353" lon="5.66875">
        <ele>444.8</ele>
        <time>2022-02-23T09:53:54Z</time>
      </trkpt>
      <trkpt lat="43.28359" lon="5.66872">
        <ele>443.3</ele>
        <time>2022-02-23T09:54:02Z</time>
      </trkpt>
      <trkpt lat="43.28363" lon="5.6687">
        <ele>442.3</ele>
        <time>2022-02-23T09:54:08Z</time>
      </trkpt>
      <trkpt lat="43.28367" lon="5.66865">
        <ele>441.5</ele>
        <time>2022-02-23T09:54:14Z</time>
      </trkpt>
      <trkpt lat="43.28371" lon="5.6686">
        <ele>440.7</ele>
        <time>2022-02-23T09:54:26Z</time>
      </trkpt>
      <trkpt lat="43.28376" lon="5.66856">
        <ele>440.6</ele>
        <time>2022-02-23T09:54:32Z</time>
      </trkpt>
      <trkpt lat="43.2838" lon="5.66852">
        <ele>440</ele>
        <time>2022-02-23T09:54:38Z</time>
      </trkpt>
      <trkpt lat="43.28382" lon="5.66847">
        <ele>439.1</ele>
        <time>2022-02-23T09:54:44Z</time>
      </trkpt>
      <trkpt lat="43.28382" lon="5.6684">
        <ele>437.8</ele>
        <time>2022-02-23T09:54:56Z</time>
      </trkpt>
      <trkpt lat="43.28386" lon="5.66835">
        <ele>436.3</ele>
        <time>2022-02-23T09:55:04Z</time>
      </trkpt>
      <trkpt lat="43.2839" lon="5.66832">
        <ele>435</ele>
        <time>2022-02-23T09:55:10Z</time>
      </trkpt>
      <trkpt lat="43.28394" lon="5.66828">
        <ele>434.6</ele>
        <time>2022-02-23T09:55:16Z</time>
      </trkpt>
      <trkpt lat="43.284" lon="5.66826">
        <ele>434.1</ele>
        <time>2022-02-23T09:55:22Z</time>
      </trkpt>
      <trkpt lat="43.28406" lon="5.66825">
        <ele>433.5</ele>
        <time>2022-02-23T09:55:28Z</time>
      </trkpt>
      <trkpt lat="43.28412" lon="5.66826">
        <ele>432.8</ele>
        <time>2022-02-23T09:55:36Z</time>
      </trkpt>
      <trkpt lat="43.28417" lon="5.66826">
        <ele>432.2</ele>
        <time>2022-02-23T09:55:42Z</time>
      </trkpt>
      <trkpt lat="43.28423" lon="5.66828">
        <ele>431.6</ele>
        <time>2022-02-23T09:55:52Z</time>
      </trkpt>
      <trkpt lat="43.28428" lon="5.6683">
        <ele>431</ele>
        <time>2022-02-23T09:56:04Z</time>
      </trkpt>
      <trkpt lat="43.28434" lon="5.66832">
        <ele>430.2</ele>
        <time>2022-02-23T09:56:12Z</time>
      </trkpt>
      <trkpt lat="43.28439" lon="5.66832">
        <ele>429.6</ele>
        <time>2022-02-23T09:56:20Z</time>
      </trkpt>
      <trkpt lat="43.28445" lon="5.66832">
        <ele>429.1</ele>
        <time>2022-02-23T09:56:26Z</time>
      </trkpt>
      <trkpt lat="43.2845" lon="5.66831">
        <ele>429</ele>
        <time>2022-02-23T09:56:30Z</time>
      </trkpt>
      <trkpt lat="43.28455" lon="5.66832">
        <ele>428.7</ele>
        <time>2022-02-23T09:56:36Z</time>
      </trkpt>
      <trkpt lat="43.2846" lon="5.66831">
        <ele>428.5</ele>
        <time>2022-02-23T09:56:46Z</time>
      </trkpt>
      <trkpt lat="43.28464" lon="5.66825">
        <ele>428.5</ele>
        <time>2022-02-23T09:57:06Z</time>
      </trkpt>
      <trkpt lat="43.28468" lon="5.66819">
        <ele>428.4</ele>
        <time>2022-02-23T09:57:14Z</time>
      </trkpt>
      <trkpt lat="43.28473" lon="5.66816">
        <ele>427.9</ele>
        <time>2022-02-23T09:57:20Z</time>
      </trkpt>
      <trkpt lat="43.28478" lon="5.66812">
        <ele>427.3</ele>
        <time>2022-02-23T09:57:26Z</time>
      </trkpt>
      <trkpt lat="43.28484" lon="5.66812">
        <ele>426.6</ele>
        <time>2022-02-23T09:57:30Z</time>
      </trkpt>
      <trkpt lat="43.28488" lon="5.6681">
        <ele>425.7</ele>
        <time>2022-02-23T09:57:36Z</time>
      </trkpt>
      <trkpt lat="43.28493" lon="5.66808">
        <ele>424.7</ele>
        <time>2022-02-23T09:57:46Z</time>
      </trkpt>
      <trkpt lat="43.28498" lon="5.66806">
        <ele>423.5</ele>
        <time>2022-02-23T09:57:54Z</time>
      </trkpt>
      <trkpt lat="43.28503" lon="5.66805">
        <ele>423.1</ele>
        <time>2022-02-23T09:57:58Z</time>
      </trkpt>
      <trkpt lat="43.28509" lon="5.66804">
        <ele>423.2</ele>
        <time>2022-02-23T09:58:04Z</time>
      </trkpt>
      <trkpt lat="43.28514" lon="5.66803">
        <ele>423.2</ele>
        <time>2022-02-23T09:58:08Z</time>
      </trkpt>
      <trkpt lat="43.2852" lon="5.66804">
        <ele>423.1</ele>
        <time>2022-02-23T09:58:14Z</time>
      </trkpt>
      <trkpt lat="43.28525" lon="5.66804">
        <ele>423</ele>
        <time>2022-02-23T09:58:20Z</time>
      </trkpt>
      <trkpt lat="43.2853" lon="5.66804">
        <ele>422.6</ele>
        <time>2022-02-23T09:58:26Z</time>
      </trkpt>
      <trkpt lat="43.28535" lon="5.66804">
        <ele>421.9</ele>
        <time>2022-02-23T09:58:32Z</time>
      </trkpt>
      <trkpt lat="43.2854" lon="5.66807">
        <ele>421.6</ele>
        <time>2022-02-23T09:58:38Z</time>
      </trkpt>
      <trkpt lat="43.28545" lon="5.66808">
        <ele>421.2</ele>
        <time>2022-02-23T09:58:42Z</time>
      </trkpt>
      <trkpt lat="43.28551" lon="5.66811">
        <ele>421</ele>
        <time>2022-02-23T09:58:48Z</time>
      </trkpt>
      <trkpt lat="43.28557" lon="5.66813">
        <ele>420.6</ele>
        <time>2022-02-23T09:58:54Z</time>
      </trkpt>
      <trkpt lat="43.2856" lon="5.66818">
        <ele>420.9</ele>
        <time>2022-02-23T09:59:00Z</time>
      </trkpt>
      <trkpt lat="43.28564" lon="5.66823">
        <ele>420.8</ele>
        <time>2022-02-23T09:59:06Z</time>
      </trkpt>
      <trkpt lat="43.2857" lon="5.66827">
        <ele>419.7</ele>
        <time>2022-02-23T09:59:12Z</time>
      </trkpt>
      <trkpt lat="43.28576" lon="5.66831">
        <ele>418.9</ele>
        <time>2022-02-23T09:59:18Z</time>
      </trkpt>
      <trkpt lat="43.2858" lon="5.66835">
        <ele>418.4</ele>
        <time>2022-02-23T09:59:22Z</time>
      </trkpt>
      <trkpt lat="43.28583" lon="5.6684">
        <ele>417.4</ele>
        <time>2022-02-23T09:59:28Z</time>
      </trkpt>
      <trkpt lat="43.28587" lon="5.66847">
        <ele>415.2</ele>
        <time>2022-02-23T09:59:34Z</time>
      </trkpt>
      <trkpt lat="43.28588" lon="5.66854">
        <ele>415.4</ele>
        <time>2022-02-23T09:59:40Z</time>
      </trkpt>
      <trkpt lat="43.28588" lon="5.66861">
        <ele>416.1</ele>
        <time>2022-02-23T09:59:50Z</time>
      </trkpt>
      <trkpt lat="43.28589" lon="5.66868">
        <ele>415.6</ele>
        <time>2022-02-23T09:59:58Z</time>
      </trkpt>
      <trkpt lat="43.2859" lon="5.66875">
        <ele>415</ele>
        <time>2022-02-23T10:00:06Z</time>
      </trkpt>
      <trkpt lat="43.28592" lon="5.6688">
        <ele>414</ele>
        <time>2022-02-23T10:00:12Z</time>
      </trkpt>
      <trkpt lat="43.28594" lon="5.66886">
        <ele>413.1</ele>
        <time>2022-02-23T10:00:18Z</time>
      </trkpt>
      <trkpt lat="43.28595" lon="5.66892">
        <ele>413.3</ele>
        <time>2022-02-23T10:00:24Z</time>
      </trkpt>
      <trkpt lat="43.28596" lon="5.669">
        <ele>413.3</ele>
        <time>2022-02-23T10:00:32Z</time>
      </trkpt>
      <trkpt lat="43.286" lon="5.66906">
        <ele>412.3</ele>
        <time>2022-02-23T10:00:44Z</time>
      </trkpt>
      <trkpt lat="43.28606" lon="5.66911">
        <ele>409.9</ele>
        <time>2022-02-23T10:00:50Z</time>
      </trkpt>
      <trkpt lat="43.2861" lon="5.66914">
        <ele>408.2</ele>
        <time>2022-02-23T10:00:54Z</time>
      </trkpt>
      <trkpt lat="43.28615" lon="5.66918">
        <ele>406.6</ele>
        <time>2022-02-23T10:01:00Z</time>
      </trkpt>
      <trkpt lat="43.28618" lon="5.66922">
        <ele>406.1</ele>
        <time>2022-02-23T10:01:06Z</time>
      </trkpt>
      <trkpt lat="43.28619" lon="5.66929">
        <ele>407.7</ele>
        <time>2022-02-23T10:01:20Z</time>
      </trkpt>
      <trkpt lat="43.28625" lon="5.66933">
        <ele>406.2</ele>
        <time>2022-02-23T10:01:26Z</time>
      </trkpt>
      <trkpt lat="43.2863" lon="5.66937">
        <ele>404.4</ele>
        <time>2022-02-23T10:01:34Z</time>
      </trkpt>
      <trkpt lat="43.28636" lon="5.6694">
        <ele>402.5</ele>
        <time>2022-02-23T10:01:42Z</time>
      </trkpt>
      <trkpt lat="43.28639" lon="5.66945">
        <ele>402</ele>
        <time>2022-02-23T10:01:52Z</time>
      </trkpt>
      <trkpt lat="43.28644" lon="5.66947">
        <ele>401.5</ele>
        <time>2022-02-23T10:01:58Z</time>
      </trkpt>
      <trkpt lat="43.28649" lon="5.66946">
        <ele>400.1</ele>
        <time>2022-02-23T10:02:04Z</time>
      </trkpt>
      <trkpt lat="43.28654" lon="5.66948">
        <ele>399.2</ele>
        <time>2022-02-23T10:02:10Z</time>
      </trkpt>
      <trkpt lat="43.28659" lon="5.66952">
        <ele>399.2</ele>
        <time>2022-02-23T10:02:16Z</time>
      </trkpt>
      <trkpt lat="43.2866" lon="5.66945">
        <ele>397</ele>
        <time>2022-02-23T10:02:30Z</time>
      </trkpt>
      <trkpt lat="43.28659" lon="5.66939">
        <ele>395.7</ele>
        <time>2022-02-23T10:02:38Z</time>
      </trkpt>
      <trkpt lat="43.28655" lon="5.66933">
        <ele>395.2</ele>
        <time>2022-02-23T10:02:48Z</time>
      </trkpt>
      <trkpt lat="43.28651" lon="5.66929">
        <ele>395.1</ele>
        <time>2022-02-23T10:03:00Z</time>
      </trkpt>
      <trkpt lat="43.28648" lon="5.66924">
        <ele>394.4</ele>
        <time>2022-02-23T10:03:06Z</time>
      </trkpt>
      <trkpt lat="43.28645" lon="5.66918">
        <ele>393.2</ele>
        <time>2022-02-23T10:03:16Z</time>
      </trkpt>
      <trkpt lat="43.28643" lon="5.66913">
        <ele>392.4</ele>
        <time>2022-02-23T10:03:22Z</time>
      </trkpt>
      <trkpt lat="43.2864" lon="5.66907">
        <ele>391.6</ele>
        <time>2022-02-23T10:03:30Z</time>
      </trkpt>
      <trkpt lat="43.28638" lon="5.66899">
        <ele>390.7</ele>
        <time>2022-02-23T10:03:38Z</time>
      </trkpt>
      <trkpt lat="43.28638" lon="5.66892">
        <ele>388.9</ele>
        <time>2022-02-23T10:03:46Z</time>
      </trkpt>
      <trkpt lat="43.28639" lon="5.66885">
        <ele>387.6</ele>
        <time>2022-02-23T10:03:54Z</time>
      </trkpt>
      <trkpt lat="43.2864" lon="5.66878">
        <ele>386.4</ele>
        <time>2022-02-23T10:04:00Z</time>
      </trkpt>
      <trkpt lat="43.2864" lon="5.6687">
        <ele>385.6</ele>
        <time>2022-02-23T10:04:06Z</time>
      </trkpt>
      <trkpt lat="43.28639" lon="5.66864">
        <ele>385</ele>
        <time>2022-02-23T10:04:10Z</time>
      </trkpt>
      <trkpt lat="43.28638" lon="5.66855">
        <ele>384.4</ele>
        <time>2022-02-23T10:04:16Z</time>
      </trkpt>
      <trkpt lat="43.28638" lon="5.66847">
        <ele>383.5</ele>
        <time>2022-02-23T10:04:22Z</time>
      </trkpt>
      <trkpt lat="43.28636" lon="5.66839">
        <ele>383.3</ele>
        <time>2022-02-23T10:04:28Z</time>
      </trkpt>
      <trkpt lat="43.28634" lon="5.66833">
        <ele>383.8</ele>
        <time>2022-02-23T10:04:34Z</time>
      </trkpt>
      <trkpt lat="43.28633" lon="5.66826">
        <ele>383.1</ele>
        <time>2022-02-23T10:04:40Z</time>
      </trkpt>
      <trkpt lat="43.28631" lon="5.66819">
        <ele>382.3</ele>
        <time>2022-02-23T10:04:48Z</time>
      </trkpt>
      <trkpt lat="43.28629" lon="5.66812">
        <ele>382.1</ele>
        <time>2022-02-23T10:04:54Z</time>
      </trkpt>
      <trkpt lat="43.2863" lon="5.66805">
        <ele>380.3</ele>
        <time>2022-02-23T10:05:00Z</time>
      </trkpt>
      <trkpt lat="43.28632" lon="5.66799">
        <ele>380.3</ele>
        <time>2022-02-23T10:05:14Z</time>
      </trkpt>
      <trkpt lat="43.28636" lon="5.66796">
        <ele>379</ele>
        <time>2022-02-23T10:06:00Z</time>
      </trkpt>
      <trkpt lat="43.28641" lon="5.66794">
        <ele>378</ele>
        <time>2022-02-23T10:06:06Z</time>
      </trkpt>
      <trkpt lat="43.28646" lon="5.6679">
        <ele>377.9</ele>
        <time>2022-02-23T10:06:14Z</time>
      </trkpt>
      <trkpt lat="43.28651" lon="5.6679">
        <ele>376.6</ele>
        <time>2022-02-23T10:06:20Z</time>
      </trkpt>
      <trkpt lat="43.28656" lon="5.66789">
        <ele>375.6</ele>
        <time>2022-02-23T10:06:26Z</time>
      </trkpt>
      <trkpt lat="43.28662" lon="5.66787">
        <ele>374.6</ele>
        <time>2022-02-23T10:06:34Z</time>
      </trkpt>
      <trkpt lat="43.28669" lon="5.66785">
        <ele>373.5</ele>
        <time>2022-02-23T10:06:40Z</time>
      </trkpt>
      <trkpt lat="43.28673" lon="5.66783">
        <ele>372.4</ele>
        <time>2022-02-23T10:06:46Z</time>
      </trkpt>
      <trkpt lat="43.28678" lon="5.6678">
        <ele>371.6</ele>
        <time>2022-02-23T10:06:52Z</time>
      </trkpt>
      <trkpt lat="43.28683" lon="5.66779">
        <ele>370</ele>
        <time>2022-02-23T10:06:58Z</time>
      </trkpt>
      <trkpt lat="43.28689" lon="5.66776">
        <ele>368.4</ele>
        <time>2022-02-23T10:07:04Z</time>
      </trkpt>
      <trkpt lat="43.28694" lon="5.66771">
        <ele>367.2</ele>
        <time>2022-02-23T10:07:08Z</time>
      </trkpt>
      <trkpt lat="43.28699" lon="5.66766">
        <ele>366.7</ele>
        <time>2022-02-23T10:07:14Z</time>
      </trkpt>
      <trkpt lat="43.28703" lon="5.66762">
        <ele>365.8</ele>
        <time>2022-02-23T10:07:20Z</time>
      </trkpt>
      <trkpt lat="43.28704" lon="5.66755">
        <ele>366.5</ele>
        <time>2022-02-23T10:07:32Z</time>
      </trkpt>
      <trkpt lat="43.28708" lon="5.66749">
        <ele>366.3</ele>
        <time>2022-02-23T10:07:40Z</time>
      </trkpt>
      <trkpt lat="43.28711" lon="5.66743">
        <ele>366.5</ele>
        <time>2022-02-23T10:07:48Z</time>
      </trkpt>
      <trkpt lat="43.28716" lon="5.66738">
        <ele>365.6</ele>
        <time>2022-02-23T10:07:54Z</time>
      </trkpt>
      <trkpt lat="43.2872" lon="5.66734">
        <ele>364.2</ele>
        <time>2022-02-23T10:08:00Z</time>
      </trkpt>
      <trkpt lat="43.28723" lon="5.66727">
        <ele>364.1</ele>
        <time>2022-02-23T10:08:06Z</time>
      </trkpt>
      <trkpt lat="43.28725" lon="5.66721">
        <ele>364.3</ele>
        <time>2022-02-23T10:08:12Z</time>
      </trkpt>
      <trkpt lat="43.28727" lon="5.66714">
        <ele>364.7</ele>
        <time>2022-02-23T10:08:18Z</time>
      </trkpt>
      <trkpt lat="43.28729" lon="5.66706">
        <ele>365.8</ele>
        <time>2022-02-23T10:08:22Z</time>
      </trkpt>
      <trkpt lat="43.28733" lon="5.667">
        <ele>365.3</ele>
        <time>2022-02-23T10:08:28Z</time>
      </trkpt>
      <trkpt lat="43.28738" lon="5.66695">
        <ele>364</ele>
        <time>2022-02-23T10:08:34Z</time>
      </trkpt>
      <trkpt lat="43.28742" lon="5.6669">
        <ele>362.7</ele>
        <time>2022-02-23T10:08:38Z</time>
      </trkpt>
      <trkpt lat="43.28746" lon="5.66683">
        <ele>362.2</ele>
        <time>2022-02-23T10:08:44Z</time>
      </trkpt>
      <trkpt lat="43.28749" lon="5.66679">
        <ele>361.7</ele>
        <time>2022-02-23T10:08:48Z</time>
      </trkpt>
      <trkpt lat="43.28753" lon="5.66673">
        <ele>361.4</ele>
        <time>2022-02-23T10:08:52Z</time>
      </trkpt>
      <trkpt lat="43.28757" lon="5.66669">
        <ele>361</ele>
        <time>2022-02-23T10:08:56Z</time>
      </trkpt>
      <trkpt lat="43.2876" lon="5.66664">
        <ele>360.5</ele>
        <time>2022-02-23T10:09:00Z</time>
      </trkpt>
      <trkpt lat="43.28763" lon="5.66656">
        <ele>360.3</ele>
        <time>2022-02-23T10:09:06Z</time>
      </trkpt>
      <trkpt lat="43.28765" lon="5.66649">
        <ele>360.7</ele>
        <time>2022-02-23T10:09:12Z</time>
      </trkpt>
      <trkpt lat="43.28765" lon="5.66643">
        <ele>361.3</ele>
        <time>2022-02-23T10:09:18Z</time>
      </trkpt>
      <trkpt lat="43.28765" lon="5.66637">
        <ele>361.3</ele>
        <time>2022-02-23T10:09:24Z</time>
      </trkpt>
      <trkpt lat="43.28765" lon="5.66629">
        <ele>360.3</ele>
        <time>2022-02-23T10:09:32Z</time>
      </trkpt>
      <trkpt lat="43.28767" lon="5.66623">
        <ele>358.9</ele>
        <time>2022-02-23T10:09:42Z</time>
      </trkpt>
      <trkpt lat="43.28767" lon="5.66616">
        <ele>358</ele>
        <time>2022-02-23T10:09:50Z</time>
      </trkpt>
      <trkpt lat="43.28767" lon="5.66607">
        <ele>356.5</ele>
        <time>2022-02-23T10:09:58Z</time>
      </trkpt>
      <trkpt lat="43.28767" lon="5.66601">
        <ele>355.3</ele>
        <time>2022-02-23T10:10:04Z</time>
      </trkpt>
      <trkpt lat="43.28767" lon="5.66593">
        <ele>353.6</ele>
        <time>2022-02-23T10:10:10Z</time>
      </trkpt>
      <trkpt lat="43.28767" lon="5.66587">
        <ele>352.2</ele>
        <time>2022-02-23T10:10:16Z</time>
      </trkpt>
      <trkpt lat="43.28768" lon="5.6658">
        <ele>351.1</ele>
        <time>2022-02-23T10:10:22Z</time>
      </trkpt>
      <trkpt lat="43.28771" lon="5.66574">
        <ele>349.8</ele>
        <time>2022-02-23T10:10:30Z</time>
      </trkpt>
      <trkpt lat="43.28772" lon="5.66567">
        <ele>348.9</ele>
        <time>2022-02-23T10:10:36Z</time>
      </trkpt>
      <trkpt lat="43.28775" lon="5.66561">
        <ele>347</ele>
        <time>2022-02-23T10:10:42Z</time>
      </trkpt>
      <trkpt lat="43.28776" lon="5.66556">
        <ele>345.5</ele>
        <time>2022-02-23T10:10:48Z</time>
      </trkpt>
      <trkpt lat="43.28781" lon="5.66551">
        <ele>345.3</ele>
        <time>2022-02-23T10:10:56Z</time>
      </trkpt>
      <trkpt lat="43.28785" lon="5.66547">
        <ele>345.2</ele>
        <time>2022-02-23T10:11:02Z</time>
      </trkpt>
      <trkpt lat="43.28789" lon="5.66542">
        <ele>344.7</ele>
        <time>2022-02-23T10:11:08Z</time>
      </trkpt>
      <trkpt lat="43.28791" lon="5.66537">
        <ele>343.9</ele>
        <time>2022-02-23T10:11:16Z</time>
      </trkpt>
      <trkpt lat="43.28793" lon="5.6653">
        <ele>342.7</ele>
        <time>2022-02-23T10:11:26Z</time>
      </trkpt>
      <trkpt lat="43.28796" lon="5.66524">
        <ele>341.5</ele>
        <time>2022-02-23T10:11:34Z</time>
      </trkpt>
      <trkpt lat="43.288" lon="5.66519">
        <ele>339.8</ele>
        <time>2022-02-23T10:11:42Z</time>
      </trkpt>
      <trkpt lat="43.28805" lon="5.66515">
        <ele>338</ele>
        <time>2022-02-23T10:11:48Z</time>
      </trkpt>
      <trkpt lat="43.2881" lon="5.66513">
        <ele>336.2</ele>
        <time>2022-02-23T10:11:54Z</time>
      </trkpt>
      <trkpt lat="43.28814" lon="5.66514">
        <ele>334.8</ele>
        <time>2022-02-23T10:11:58Z</time>
      </trkpt>
      <trkpt lat="43.28819" lon="5.66516">
        <ele>333.4</ele>
        <time>2022-02-23T10:12:06Z</time>
      </trkpt>
      <trkpt lat="43.28823" lon="5.66521">
        <ele>332</ele>
        <time>2022-02-23T10:13:14Z</time>
      </trkpt>
      <trkpt lat="43.28824" lon="5.66527">
        <ele>331.2</ele>
        <time>2022-02-23T10:13:22Z</time>
      </trkpt>
      <trkpt lat="43.28824" lon="5.66534">
        <ele>332.1</ele>
        <time>2022-02-23T10:13:34Z</time>
      </trkpt>
      <trkpt lat="43.28827" lon="5.66538">
        <ele>331.2</ele>
        <time>2022-02-23T10:13:40Z</time>
      </trkpt>
      <trkpt lat="43.28831" lon="5.66543">
        <ele>330</ele>
        <time>2022-02-23T10:13:48Z</time>
      </trkpt>
      <trkpt lat="43.28836" lon="5.66547">
        <ele>328.5</ele>
        <time>2022-02-23T10:14:00Z</time>
      </trkpt>
      <trkpt lat="43.2884" lon="5.66551">
        <ele>328.1</ele>
        <time>2022-02-23T10:14:06Z</time>
      </trkpt>
      <trkpt lat="43.28844" lon="5.66555">
        <ele>328.4</ele>
        <time>2022-02-23T10:14:12Z</time>
      </trkpt>
      <trkpt lat="43.28849" lon="5.66558">
        <ele>328.6</ele>
        <time>2022-02-23T10:14:18Z</time>
      </trkpt>
      <trkpt lat="43.28846" lon="5.66552">
        <ele>327.1</ele>
        <time>2022-02-23T10:14:30Z</time>
      </trkpt>
      <trkpt lat="43.28843" lon="5.66548">
        <ele>327</ele>
        <time>2022-02-23T10:14:36Z</time>
      </trkpt>
      <trkpt lat="43.2884" lon="5.66541">
        <ele>326.2</ele>
        <time>2022-02-23T10:14:50Z</time>
      </trkpt>
      <trkpt lat="43.28835" lon="5.66536">
        <ele>327.1</ele>
        <time>2022-02-23T10:14:54Z</time>
      </trkpt>
      <trkpt lat="43.28835" lon="5.6653">
        <ele>326.6</ele>
        <time>2022-02-23T10:15:02Z</time>
      </trkpt>
      <trkpt lat="43.28836" lon="5.66523">
        <ele>326</ele>
        <time>2022-02-23T10:15:14Z</time>
      </trkpt>
      <trkpt lat="43.2884" lon="5.66518">
        <ele>324.6</ele>
        <time>2022-02-23T10:15:20Z</time>
      </trkpt>
      <trkpt lat="43.28843" lon="5.66514">
        <ele>322.4</ele>
        <time>2022-02-23T10:15:24Z</time>
      </trkpt>
      <trkpt lat="43.28848" lon="5.66508">
        <ele>319.8</ele>
        <time>2022-02-23T10:15:30Z</time>
      </trkpt>
      <trkpt lat="43.28852" lon="5.66505">
        <ele>316.6</ele>
        <time>2022-02-23T10:15:34Z</time>
      </trkpt>
      <trkpt lat="43.28854" lon="5.66497">
        <ele>314.3</ele>
        <time>2022-02-23T10:15:42Z</time>
      </trkpt>
      <trkpt lat="43.28856" lon="5.6649">
        <ele>313.6</ele>
        <time>2022-02-23T10:15:48Z</time>
      </trkpt>
      <trkpt lat="43.2886" lon="5.66485">
        <ele>310.3</ele>
        <time>2022-02-23T10:15:56Z</time>
      </trkpt>
      <trkpt lat="43.28861" lon="5.66478">
        <ele>309.9</ele>
        <time>2022-02-23T10:16:02Z</time>
      </trkpt>
      <trkpt lat="43.28864" lon="5.66473">
        <ele>310.1</ele>
        <time>2022-02-23T10:16:10Z</time>
      </trkpt>
      <trkpt lat="43.28865" lon="5.66466">
        <ele>309.6</ele>
        <time>2022-02-23T10:16:24Z</time>
      </trkpt>
      <trkpt lat="43.28868" lon="5.66461">
        <ele>308.8</ele>
        <time>2022-02-23T10:16:32Z</time>
      </trkpt>
      <trkpt lat="43.28871" lon="5.66455">
        <ele>307.4</ele>
        <time>2022-02-23T10:16:40Z</time>
      </trkpt>
      <trkpt lat="43.28874" lon="5.66447">
        <ele>305.3</ele>
        <time>2022-02-23T10:16:46Z</time>
      </trkpt>
      <trkpt lat="43.28878" lon="5.66441">
        <ele>304.4</ele>
        <time>2022-02-23T10:16:52Z</time>
      </trkpt>
      <trkpt lat="43.28882" lon="5.66438">
        <ele>303.1</ele>
        <time>2022-02-23T10:17:00Z</time>
      </trkpt>
      <trkpt lat="43.28886" lon="5.66432">
        <ele>302</ele>
        <time>2022-02-23T10:17:08Z</time>
      </trkpt>
      <trkpt lat="43.2889" lon="5.66428">
        <ele>300.9</ele>
        <time>2022-02-23T10:17:16Z</time>
      </trkpt>
      <trkpt lat="43.28894" lon="5.66423">
        <ele>302.1</ele>
        <time>2022-02-23T10:17:22Z</time>
      </trkpt>
      <trkpt lat="43.28898" lon="5.66415">
        <ele>302.4</ele>
        <time>2022-02-23T10:17:28Z</time>
      </trkpt>
      <trkpt lat="43.28899" lon="5.66408">
        <ele>303.2</ele>
        <time>2022-02-23T10:17:34Z</time>
      </trkpt>
      <trkpt lat="43.28901" lon="5.66399">
        <ele>303.4</ele>
        <time>2022-02-23T10:17:40Z</time>
      </trkpt>
      <trkpt lat="43.28904" lon="5.66394">
        <ele>302.7</ele>
        <time>2022-02-23T10:17:46Z</time>
      </trkpt>
      <trkpt lat="43.28907" lon="5.66388">
        <ele>300.9</ele>
        <time>2022-02-23T10:17:54Z</time>
      </trkpt>
      <trkpt lat="43.28912" lon="5.66383">
        <ele>298.9</ele>
        <time>2022-02-23T10:18:00Z</time>
      </trkpt>
      <trkpt lat="43.28915" lon="5.66377">
        <ele>297.3</ele>
        <time>2022-02-23T10:18:06Z</time>
      </trkpt>
      <trkpt lat="43.28919" lon="5.66371">
        <ele>296.4</ele>
        <time>2022-02-23T10:18:12Z</time>
      </trkpt>
      <trkpt lat="43.28923" lon="5.66364">
        <ele>295.5</ele>
        <time>2022-02-23T10:18:18Z</time>
      </trkpt>
      <trkpt lat="43.28926" lon="5.66359">
        <ele>294.9</ele>
        <time>2022-02-23T10:18:24Z</time>
      </trkpt>
      <trkpt lat="43.2893" lon="5.66352">
        <ele>294.3</ele>
        <time>2022-02-23T10:18:32Z</time>
      </trkpt>
      <trkpt lat="43.28934" lon="5.66349">
        <ele>293.2</ele>
        <time>2022-02-23T10:18:38Z</time>
      </trkpt>
      <trkpt lat="43.28939" lon="5.66343">
        <ele>292</ele>
        <time>2022-02-23T10:18:44Z</time>
      </trkpt>
      <trkpt lat="43.28943" lon="5.66338">
        <ele>290.4</ele>
        <time>2022-02-23T10:18:50Z</time>
      </trkpt>
      <trkpt lat="43.28948" lon="5.66333">
        <ele>289.6</ele>
        <time>2022-02-23T10:18:56Z</time>
      </trkpt>
      <trkpt lat="43.28951" lon="5.66328">
        <ele>289.2</ele>
        <time>2022-02-23T10:19:00Z</time>
      </trkpt>
      <trkpt lat="43.28956" lon="5.66323">
        <ele>288.5</ele>
        <time>2022-02-23T10:19:06Z</time>
      </trkpt>
      <trkpt lat="43.2896" lon="5.66319">
        <ele>287.7</ele>
        <time>2022-02-23T10:19:12Z</time>
      </trkpt>
      <trkpt lat="43.28965" lon="5.66316">
        <ele>286.9</ele>
        <time>2022-02-23T10:19:18Z</time>
      </trkpt>
      <trkpt lat="43.28969" lon="5.66311">
        <ele>285.9</ele>
        <time>2022-02-23T10:19:26Z</time>
      </trkpt>
      <trkpt lat="43.28973" lon="5.66306">
        <ele>284.8</ele>
        <time>2022-02-23T10:19:32Z</time>
      </trkpt>
      <trkpt lat="43.28975" lon="5.66299">
        <ele>283.4</ele>
        <time>2022-02-23T10:19:38Z</time>
      </trkpt>
      <trkpt lat="43.28976" lon="5.66293">
        <ele>282.2</ele>
        <time>2022-02-23T10:19:44Z</time>
      </trkpt>
      <trkpt lat="43.28977" lon="5.66286">
        <ele>281.1</ele>
        <time>2022-02-23T10:19:50Z</time>
      </trkpt>
      <trkpt lat="43.28978" lon="5.66279">
        <ele>279.7</ele>
        <time>2022-02-23T10:19:56Z</time>
      </trkpt>
      <trkpt lat="43.28978" lon="5.66271">
        <ele>278.6</ele>
        <time>2022-02-23T10:20:08Z</time>
      </trkpt>
      <trkpt lat="43.28973" lon="5.66268">
        <ele>279.5</ele>
        <time>2022-02-23T10:20:16Z</time>
      </trkpt>
      <trkpt lat="43.28978" lon="5.66271">
        <ele>278.4</ele>
        <time>2022-02-23T10:20:24Z</time>
      </trkpt>
      <trkpt lat="43.28983" lon="5.66275">
        <ele>277.9</ele>
        <time>2022-02-23T10:20:36Z</time>
      </trkpt>
      <trkpt lat="43.28987" lon="5.66278">
        <ele>277.3</ele>
        <time>2022-02-23T10:20:40Z</time>
      </trkpt>
      <trkpt lat="43.28991" lon="5.66283">
        <ele>277.3</ele>
        <time>2022-02-23T10:20:46Z</time>
      </trkpt>
      <trkpt lat="43.28995" lon="5.66281">
        <ele>275.7</ele>
        <time>2022-02-23T10:21:38Z</time>
      </trkpt>
      <trkpt lat="43.28997" lon="5.66275">
        <ele>274.1</ele>
        <time>2022-02-23T10:21:48Z</time>
      </trkpt>
      <trkpt lat="43.28994" lon="5.66268">
        <ele>273.7</ele>
        <time>2022-02-23T10:21:52Z</time>
      </trkpt>
      <trkpt lat="43.28992" lon="5.66263">
        <ele>273.5</ele>
        <time>2022-02-23T10:21:58Z</time>
      </trkpt>
      <trkpt lat="43.2899" lon="5.66257">
        <ele>273.2</ele>
        <time>2022-02-23T10:22:10Z</time>
      </trkpt>
      <trkpt lat="43.28988" lon="5.66251">
        <ele>272.5</ele>
        <time>2022-02-23T10:22:22Z</time>
      </trkpt>
      <trkpt lat="43.28988" lon="5.66244">
        <ele>271.7</ele>
        <time>2022-02-23T10:22:30Z</time>
      </trkpt>
      <trkpt lat="43.28989" lon="5.66236">
        <ele>270.4</ele>
        <time>2022-02-23T10:22:38Z</time>
      </trkpt>
      <trkpt lat="43.28987" lon="5.66227">
        <ele>270.2</ele>
        <time>2022-02-23T10:22:44Z</time>
      </trkpt>
      <trkpt lat="43.28986" lon="5.66221">
        <ele>270</ele>
        <time>2022-02-23T10:22:48Z</time>
      </trkpt>
      <trkpt lat="43.28985" lon="5.66213">
        <ele>270.2</ele>
        <time>2022-02-23T10:22:54Z</time>
      </trkpt>
      <trkpt lat="43.28987" lon="5.66205">
        <ele>268.8</ele>
        <time>2022-02-23T10:23:02Z</time>
      </trkpt>
      <trkpt lat="43.28989" lon="5.66198">
        <ele>267.3</ele>
        <time>2022-02-23T10:23:08Z</time>
      </trkpt>
      <trkpt lat="43.28992" lon="5.6619">
        <ele>265.4</ele>
        <time>2022-02-23T10:23:14Z</time>
      </trkpt>
      <trkpt lat="43.28993" lon="5.66184">
        <ele>264.6</ele>
        <time>2022-02-23T10:23:24Z</time>
      </trkpt>
      <trkpt lat="43.28993" lon="5.66176">
        <ele>264</ele>
        <time>2022-02-23T10:23:32Z</time>
      </trkpt>
      <trkpt lat="43.28995" lon="5.66171">
        <ele>262.5</ele>
        <time>2022-02-23T10:23:38Z</time>
      </trkpt>
      <trkpt lat="43.28999" lon="5.66164">
        <ele>259.6</ele>
        <time>2022-02-23T10:23:44Z</time>
      </trkpt>
      <trkpt lat="43.29004" lon="5.6616">
        <ele>259.3</ele>
        <time>2022-02-23T10:23:50Z</time>
      </trkpt>
      <trkpt lat="43.29008" lon="5.66156">
        <ele>259.1</ele>
        <time>2022-02-23T10:23:58Z</time>
      </trkpt>
      <trkpt lat="43.29009" lon="5.66149">
        <ele>259.3</ele>
        <time>2022-02-23T10:24:06Z</time>
      </trkpt>
      <trkpt lat="43.2901" lon="5.66142">
        <ele>259.4</ele>
        <time>2022-02-23T10:24:12Z</time>
      </trkpt>
      <trkpt lat="43.29011" lon="5.66135">
        <ele>259.5</ele>
        <time>2022-02-23T10:24:16Z</time>
      </trkpt>
      <trkpt lat="43.29014" lon="5.66128">
        <ele>258.8</ele>
        <time>2022-02-23T10:24:20Z</time>
      </trkpt>
      <trkpt lat="43.29017" lon="5.6612">
        <ele>258</ele>
        <time>2022-02-23T10:24:28Z</time>
      </trkpt>
      <trkpt lat="43.29017" lon="5.66114">
        <ele>257.8</ele>
        <time>2022-02-23T10:24:32Z</time>
      </trkpt>
      <trkpt lat="43.2902" lon="5.66109">
        <ele>256.8</ele>
        <time>2022-02-23T10:24:38Z</time>
      </trkpt>
      <trkpt lat="43.29019" lon="5.66102">
        <ele>257</ele>
        <time>2022-02-23T10:24:44Z</time>
      </trkpt>
      <trkpt lat="43.29015" lon="5.66092">
        <ele>258.1</ele>
        <time>2022-02-23T10:24:48Z</time>
      </trkpt>
      <trkpt lat="43.29014" lon="5.66083">
        <ele>258.5</ele>
        <time>2022-02-23T10:24:52Z</time>
      </trkpt>
      <trkpt lat="43.29012" lon="5.66075">
        <ele>259.1</ele>
        <time>2022-02-23T10:24:56Z</time>
      </trkpt>
      <trkpt lat="43.29012" lon="5.66068">
        <ele>258.7</ele>
        <time>2022-02-23T10:25:00Z</time>
      </trkpt>
      <trkpt lat="43.29019" lon="5.66071">
        <ele>255.8</ele>
        <time>2022-02-23T10:25:06Z</time>
      </trkpt>
      <trkpt lat="43.29025" lon="5.66074">
        <ele>253.6</ele>
        <time>2022-02-23T10:25:12Z</time>
      </trkpt>
      <trkpt lat="43.29031" lon="5.66074">
        <ele>252.4</ele>
        <time>2022-02-23T10:25:20Z</time>
      </trkpt>
      <trkpt lat="43.29037" lon="5.66077">
        <ele>252.5</ele>
        <time>2022-02-23T10:25:26Z</time>
      </trkpt>
      <trkpt lat="43.29041" lon="5.66082">
        <ele>252.9</ele>
        <time>2022-02-23T10:25:32Z</time>
      </trkpt>
      <trkpt lat="43.29037" lon="5.66075">
        <ele>252.4</ele>
        <time>2022-02-23T10:25:46Z</time>
      </trkpt>
      <trkpt lat="43.29037" lon="5.66067">
        <ele>251.8</ele>
        <time>2022-02-23T10:25:56Z</time>
      </trkpt>
      <trkpt lat="43.29034" lon="5.66059">
        <ele>251.3</ele>
        <time>2022-02-23T10:26:02Z</time>
      </trkpt>
      <trkpt lat="43.2903" lon="5.66052">
        <ele>250.6</ele>
        <time>2022-02-23T10:26:06Z</time>
      </trkpt>
      <trkpt lat="43.29027" lon="5.66047">
        <ele>250.3</ele>
        <time>2022-02-23T10:26:14Z</time>
      </trkpt>
      <trkpt lat="43.29023" lon="5.66041">
        <ele>251.1</ele>
        <time>2022-02-23T10:26:20Z</time>
      </trkpt>
      <trkpt lat="43.29021" lon="5.66033">
        <ele>251.3</ele>
        <time>2022-02-23T10:26:26Z</time>
      </trkpt>
      <trkpt lat="43.29016" lon="5.66026">
        <ele>252.7</ele>
        <time>2022-02-23T10:26:32Z</time>
      </trkpt>
      <trkpt lat="43.29013" lon="5.6602">
        <ele>254.1</ele>
        <time>2022-02-23T10:26:36Z</time>
      </trkpt>
      <trkpt lat="43.29012" lon="5.66014">
        <ele>254.4</ele>
        <time>2022-02-23T10:26:40Z</time>
      </trkpt>
      <trkpt lat="43.2901" lon="5.66006">
        <ele>255.5</ele>
        <time>2022-02-23T10:26:46Z</time>
      </trkpt>
      <trkpt lat="43.2901" lon="5.65999">
        <ele>255.1</ele>
        <time>2022-02-23T10:26:52Z</time>
      </trkpt>
      <trkpt lat="43.29011" lon="5.65992">
        <ele>254.2</ele>
        <time>2022-02-23T10:26:58Z</time>
      </trkpt>
      <trkpt lat="43.29014" lon="5.65988">
        <ele>251.4</ele>
        <time>2022-02-23T10:27:06Z</time>
      </trkpt>
      <trkpt lat="43.29017" lon="5.65982">
        <ele>249</ele>
        <time>2022-02-23T10:27:16Z</time>
      </trkpt>
      <trkpt lat="43.29022" lon="5.6598">
        <ele>244.5</ele>
        <time>2022-02-23T10:27:30Z</time>
      </trkpt>
      <trkpt lat="43.29028" lon="5.65982">
        <ele>240.4</ele>
        <time>2022-02-23T10:27:48Z</time>
      </trkpt>
      <trkpt lat="43.29034" lon="5.6598">
        <ele>239.7</ele>
        <time>2022-02-23T10:27:54Z</time>
      </trkpt>
      <trkpt lat="43.29038" lon="5.65976">
        <ele>239</ele>
        <time>2022-02-23T10:29:20Z</time>
      </trkpt>
      <trkpt lat="43.29042" lon="5.65979">
        <ele>239.2</ele>
        <time>2022-02-23T10:29:32Z</time>
      </trkpt>
      <trkpt lat="43.29048" lon="5.65981">
        <ele>239.1</ele>
        <time>2022-02-23T10:29:36Z</time>
      </trkpt>
      <trkpt lat="43.29054" lon="5.65984">
        <ele>239</ele>
        <time>2022-02-23T10:29:40Z</time>
      </trkpt>
      <trkpt lat="43.29058" lon="5.65986">
        <ele>239.1</ele>
        <time>2022-02-23T10:29:44Z</time>
      </trkpt>
      <trkpt lat="43.29064" lon="5.65986">
        <ele>239.4</ele>
        <time>2022-02-23T10:29:56Z</time>
      </trkpt>
      <trkpt lat="43.29067" lon="5.65992">
        <ele>239.9</ele>
        <time>2022-02-23T10:30:02Z</time>
      </trkpt>
      <trkpt lat="43.29071" lon="5.65995">
        <ele>240.3</ele>
        <time>2022-02-23T10:30:06Z</time>
      </trkpt>
      <trkpt lat="43.29075" lon="5.65999">
        <ele>240.7</ele>
        <time>2022-02-23T10:30:10Z</time>
      </trkpt>
      <trkpt lat="43.29082" lon="5.66004">
        <ele>240.9</ele>
        <time>2022-02-23T10:30:14Z</time>
      </trkpt>
      <trkpt lat="43.29083" lon="5.66011">
        <ele>240.6</ele>
        <time>2022-02-23T10:30:40Z</time>
      </trkpt>
      <trkpt lat="43.29085" lon="5.66017">
        <ele>240.9</ele>
        <time>2022-02-23T10:30:44Z</time>
      </trkpt>
      <trkpt lat="43.29087" lon="5.66024">
        <ele>241.4</ele>
        <time>2022-02-23T10:30:48Z</time>
      </trkpt>
      <trkpt lat="43.29087" lon="5.66031">
        <ele>241.7</ele>
        <time>2022-02-23T10:30:56Z</time>
      </trkpt>
      <trkpt lat="43.29088" lon="5.66037">
        <ele>243.2</ele>
        <time>2022-02-23T10:31:04Z</time>
      </trkpt>
      <trkpt lat="43.29092" lon="5.66041">
        <ele>244.5</ele>
        <time>2022-02-23T10:32:32Z</time>
      </trkpt>
      <trkpt lat="43.29096" lon="5.66045">
        <ele>245.4</ele>
        <time>2022-02-23T10:32:42Z</time>
      </trkpt>
      <trkpt lat="43.29098" lon="5.66051">
        <ele>245.9</ele>
        <time>2022-02-23T10:32:48Z</time>
      </trkpt>
      <trkpt lat="43.29101" lon="5.66057">
        <ele>245.9</ele>
        <time>2022-02-23T10:32:54Z</time>
      </trkpt>
      <trkpt lat="43.29106" lon="5.66066">
        <ele>244.9</ele>
        <time>2022-02-23T10:33:04Z</time>
      </trkpt>
      <trkpt lat="43.29109" lon="5.66073">
        <ele>243.2</ele>
        <time>2022-02-23T10:33:06Z</time>
      </trkpt>
      <trkpt lat="43.29114" lon="5.66079">
        <ele>242.9</ele>
        <time>2022-02-23T10:33:10Z</time>
      </trkpt>
      <trkpt lat="43.29118" lon="5.66086">
        <ele>243.4</ele>
        <time>2022-02-23T10:33:16Z</time>
      </trkpt>
      <trkpt lat="43.29119" lon="5.66092">
        <ele>244.1</ele>
        <time>2022-02-23T10:33:24Z</time>
      </trkpt>
      <trkpt lat="43.29122" lon="5.66098">
        <ele>244.7</ele>
        <time>2022-02-23T10:33:34Z</time>
      </trkpt>
      <trkpt lat="43.29127" lon="5.66098">
        <ele>245.2</ele>
        <time>2022-02-23T10:33:44Z</time>
      </trkpt>
      <trkpt lat="43.29132" lon="5.66096">
        <ele>245.8</ele>
        <time>2022-02-23T10:33:52Z</time>
      </trkpt>
      <trkpt lat="43.29135" lon="5.661">
        <ele>245.5</ele>
        <time>2022-02-23T10:34:14Z</time>
      </trkpt>
      <trkpt lat="43.29136" lon="5.66107">
        <ele>244.3</ele>
        <time>2022-02-23T10:34:22Z</time>
      </trkpt>
      <trkpt lat="43.29138" lon="5.66113">
        <ele>243.6</ele>
        <time>2022-02-23T10:34:30Z</time>
      </trkpt>
      <trkpt lat="43.29141" lon="5.66119">
        <ele>245.7</ele>
        <time>2022-02-23T10:34:38Z</time>
      </trkpt>
      <trkpt lat="43.29145" lon="5.66125">
        <ele>247.7</ele>
        <time>2022-02-23T10:34:46Z</time>
      </trkpt>
      <trkpt lat="43.29148" lon="5.66129">
        <ele>249.3</ele>
        <time>2022-02-23T10:34:56Z</time>
      </trkpt>
      <trkpt lat="43.29153" lon="5.66135">
        <ele>250.8</ele>
        <time>2022-02-23T10:35:02Z</time>
      </trkpt>
      <trkpt lat="43.29157" lon="5.66141">
        <ele>251.9</ele>
        <time>2022-02-23T10:35:08Z</time>
      </trkpt>
      <trkpt lat="43.2916" lon="5.66148">
        <ele>252.8</ele>
        <time>2022-02-23T10:35:16Z</time>
      </trkpt>
      <trkpt lat="43.29163" lon="5.66155">
        <ele>253.4</ele>
        <time>2022-02-23T10:35:24Z</time>
      </trkpt>
      <trkpt lat="43.29165" lon="5.66161">
        <ele>253.8</ele>
        <time>2022-02-23T10:35:32Z</time>
      </trkpt>
      <trkpt lat="43.29168" lon="5.66169">
        <ele>254.2</ele>
        <time>2022-02-23T10:35:44Z</time>
      </trkpt>
      <trkpt lat="43.2917" lon="5.66176">
        <ele>254.8</ele>
        <time>2022-02-23T10:35:50Z</time>
      </trkpt>
      <trkpt lat="43.29172" lon="5.66181">
        <ele>255.2</ele>
        <time>2022-02-23T10:36:04Z</time>
      </trkpt>
      <trkpt lat="43.29168" lon="5.66182">
        <ele>255.1</ele>
        <time>2022-02-23T10:36:28Z</time>
      </trkpt>
      <trkpt lat="43.29164" lon="5.66186">
        <ele>255.4</ele>
        <time>2022-02-23T10:36:54Z</time>
      </trkpt>
      <trkpt lat="43.2916" lon="5.66183">
        <ele>255.3</ele>
        <time>2022-02-23T10:37:08Z</time>
      </trkpt>
      <trkpt lat="43.29165" lon="5.66181">
        <ele>255.1</ele>
        <time>2022-02-23T10:37:48Z</time>
      </trkpt>
      <trkpt lat="43.2917" lon="5.66183">
        <ele>255.3</ele>
        <time>2022-02-23T10:38:38Z</time>
      </trkpt>
      <trkpt lat="43.29173" lon="5.66189">
        <ele>255.6</ele>
        <time>2022-02-23T10:38:42Z</time>
      </trkpt>
      <trkpt lat="43.29175" lon="5.66195">
        <ele>255.8</ele>
        <time>2022-02-23T10:38:48Z</time>
      </trkpt>
      <trkpt lat="43.29178" lon="5.662">
        <ele>256.1</ele>
        <time>2022-02-23T10:38:56Z</time>
      </trkpt>
      <trkpt lat="43.29181" lon="5.66206">
        <ele>256.5</ele>
        <time>2022-02-23T10:39:02Z</time>
      </trkpt>
      <trkpt lat="43.2918" lon="5.66215">
        <ele>257.3</ele>
        <time>2022-02-23T10:39:12Z</time>
      </trkpt>
      <trkpt lat="43.2918" lon="5.66223">
        <ele>258</ele>
        <time>2022-02-23T10:39:18Z</time>
      </trkpt>
      <trkpt lat="43.29178" lon="5.66229">
        <ele>258.2</ele>
        <time>2022-02-23T10:39:24Z</time>
      </trkpt>
      <trkpt lat="43.29174" lon="5.66234">
        <ele>258.3</ele>
        <time>2022-02-23T10:39:30Z</time>
      </trkpt>
      <trkpt lat="43.29169" lon="5.66238">
        <ele>258.5</ele>
        <time>2022-02-23T10:39:38Z</time>
      </trkpt>
      <trkpt lat="43.29167" lon="5.66244">
        <ele>258.8</ele>
        <time>2022-02-23T10:39:48Z</time>
      </trkpt>
      <trkpt lat="43.29166" lon="5.66251">
        <ele>259</ele>
        <time>2022-02-23T10:40:04Z</time>
      </trkpt>
      <trkpt lat="43.29165" lon="5.66258">
        <ele>259.3</ele>
        <time>2022-02-23T10:40:10Z</time>
      </trkpt>
      <trkpt lat="43.29162" lon="5.66265">
        <ele>259.5</ele>
        <time>2022-02-23T10:40:16Z</time>
      </trkpt>
      <trkpt lat="43.2916" lon="5.66273">
        <ele>259.8</ele>
        <time>2022-02-23T10:40:22Z</time>
      </trkpt>
      <trkpt lat="43.29156" lon="5.66278">
        <ele>260</ele>
        <time>2022-02-23T10:40:30Z</time>
      </trkpt>
      <trkpt lat="43.29152" lon="5.66282">
        <ele>260.9</ele>
        <time>2022-02-23T10:40:38Z</time>
      </trkpt>
      <trkpt lat="43.29146" lon="5.66286">
        <ele>261.7</ele>
        <time>2022-02-23T10:40:44Z</time>
      </trkpt>
      <trkpt lat="43.29141" lon="5.66291">
        <ele>262.4</ele>
        <time>2022-02-23T10:40:50Z</time>
      </trkpt>
      <trkpt lat="43.29136" lon="5.66295">
        <ele>263.1</ele>
        <time>2022-02-23T10:40:56Z</time>
      </trkpt>
      <trkpt lat="43.29133" lon="5.663">
        <ele>264.1</ele>
        <time>2022-02-23T10:41:04Z</time>
      </trkpt>
      <trkpt lat="43.29131" lon="5.66307">
        <ele>265.6</ele>
        <time>2022-02-23T10:41:10Z</time>
      </trkpt>
      <trkpt lat="43.29126" lon="5.66303">
        <ele>264.6</ele>
        <time>2022-02-23T10:41:28Z</time>
      </trkpt>
      <trkpt lat="43.29121" lon="5.66305">
        <ele>265</ele>
        <time>2022-02-23T10:41:42Z</time>
      </trkpt>
      <trkpt lat="43.29115" lon="5.66303">
        <ele>264.7</ele>
        <time>2022-02-23T10:41:48Z</time>
      </trkpt>
      <trkpt lat="43.29111" lon="5.66307">
        <ele>265.8</ele>
        <time>2022-02-23T10:41:54Z</time>
      </trkpt>
      <trkpt lat="43.29113" lon="5.66301">
        <ele>264.5</ele>
        <time>2022-02-23T10:42:22Z</time>
      </trkpt>
      <trkpt lat="43.29118" lon="5.66301">
        <ele>264.5</ele>
        <time>2022-02-23T10:45:32Z</time>
      </trkpt>
      <trkpt lat="43.29123" lon="5.66303">
        <ele>264.6</ele>
        <time>2022-02-23T10:45:40Z</time>
      </trkpt>
      <trkpt lat="43.29128" lon="5.663">
        <ele>264.1</ele>
        <time>2022-02-23T10:45:46Z</time>
      </trkpt>
      <trkpt lat="43.29132" lon="5.66297">
        <ele>263.5</ele>
        <time>2022-02-23T10:45:54Z</time>
      </trkpt>
      <trkpt lat="43.2914" lon="5.66297">
        <ele>263.5</ele>
        <time>2022-02-23T10:46:00Z</time>
      </trkpt>
      <trkpt lat="43.29144" lon="5.66295">
        <ele>263.3</ele>
        <time>2022-02-23T10:46:04Z</time>
      </trkpt>
      <trkpt lat="43.29148" lon="5.66292">
        <ele>262.9</ele>
        <time>2022-02-23T10:46:08Z</time>
      </trkpt>
      <trkpt lat="43.29153" lon="5.66287">
        <ele>262</ele>
        <time>2022-02-23T10:46:14Z</time>
      </trkpt>
      <trkpt lat="43.29158" lon="5.66283">
        <ele>261.2</ele>
        <time>2022-02-23T10:46:20Z</time>
      </trkpt>
      <trkpt lat="43.29161" lon="5.66277">
        <ele>260</ele>
        <time>2022-02-23T10:46:24Z</time>
      </trkpt>
      <trkpt lat="43.29163" lon="5.66271">
        <ele>259.7</ele>
        <time>2022-02-23T10:46:28Z</time>
      </trkpt>
      <trkpt lat="43.29166" lon="5.66265">
        <ele>259.5</ele>
        <time>2022-02-23T10:46:32Z</time>
      </trkpt>
      <trkpt lat="43.29168" lon="5.66257">
        <ele>259.2</ele>
        <time>2022-02-23T10:46:38Z</time>
      </trkpt>
      <trkpt lat="43.29169" lon="5.66251">
        <ele>258.9</ele>
        <time>2022-02-23T10:46:44Z</time>
      </trkpt>
      <trkpt lat="43.2917" lon="5.66243">
        <ele>258.7</ele>
        <time>2022-02-23T10:46:52Z</time>
      </trkpt>
      <trkpt lat="43.29175" lon="5.66237">
        <ele>258.4</ele>
        <time>2022-02-23T10:47:02Z</time>
      </trkpt>
      <trkpt lat="43.29178" lon="5.66233">
        <ele>258.2</ele>
        <time>2022-02-23T10:47:06Z</time>
      </trkpt>
      <trkpt lat="43.29181" lon="5.66225">
        <ele>258</ele>
        <time>2022-02-23T10:47:12Z</time>
      </trkpt>
      <trkpt lat="43.29183" lon="5.66216">
        <ele>257.5</ele>
        <time>2022-02-23T10:47:18Z</time>
      </trkpt>
      <trkpt lat="43.29186" lon="5.6621">
        <ele>256.8</ele>
        <time>2022-02-23T10:47:24Z</time>
      </trkpt>
      <trkpt lat="43.29186" lon="5.66203">
        <ele>256.1</ele>
        <time>2022-02-23T10:47:30Z</time>
      </trkpt>
      <trkpt lat="43.29182" lon="5.66195">
        <ele>255.5</ele>
        <time>2022-02-23T10:47:34Z</time>
      </trkpt>
      <trkpt lat="43.29178" lon="5.6619">
        <ele>255.5</ele>
        <time>2022-02-23T10:47:38Z</time>
      </trkpt>
      <trkpt lat="43.29174" lon="5.66186">
        <ele>255.4</ele>
        <time>2022-02-23T10:47:42Z</time>
      </trkpt>
      <trkpt lat="43.2917" lon="5.66183">
        <ele>255.2</ele>
        <time>2022-02-23T10:47:46Z</time>
      </trkpt>
      <trkpt lat="43.29166" lon="5.66177">
        <ele>254.8</ele>
        <time>2022-02-23T10:47:52Z</time>
      </trkpt>
      <trkpt lat="43.29166" lon="5.66168">
        <ele>254.2</ele>
        <time>2022-02-23T10:47:58Z</time>
      </trkpt>
      <trkpt lat="43.2917" lon="5.66162">
        <ele>254.2</ele>
        <time>2022-02-23T10:48:04Z</time>
      </trkpt>
      <trkpt lat="43.29175" lon="5.66159">
        <ele>254.6</ele>
        <time>2022-02-23T10:48:08Z</time>
      </trkpt>
      <trkpt lat="43.2918" lon="5.66156">
        <ele>255.3</ele>
        <time>2022-02-23T10:48:12Z</time>
      </trkpt>
      <trkpt lat="43.29186" lon="5.66156">
        <ele>255.9</ele>
        <time>2022-02-23T10:48:20Z</time>
      </trkpt>
      <trkpt lat="43.29191" lon="5.66159">
        <ele>256.6</ele>
        <time>2022-02-23T10:48:26Z</time>
      </trkpt>
      <trkpt lat="43.29196" lon="5.66162">
        <ele>257.1</ele>
        <time>2022-02-23T10:48:30Z</time>
      </trkpt>
      <trkpt lat="43.29201" lon="5.66166">
        <ele>257.2</ele>
        <time>2022-02-23T10:48:36Z</time>
      </trkpt>
      <trkpt lat="43.29205" lon="5.66169">
        <ele>257.1</ele>
        <time>2022-02-23T10:48:40Z</time>
      </trkpt>
      <trkpt lat="43.2921" lon="5.66172">
        <ele>256.9</ele>
        <time>2022-02-23T10:48:44Z</time>
      </trkpt>
      <trkpt lat="43.29214" lon="5.66175">
        <ele>256.6</ele>
        <time>2022-02-23T10:48:48Z</time>
      </trkpt>
      <trkpt lat="43.29219" lon="5.66176">
        <ele>256.6</ele>
        <time>2022-02-23T10:48:52Z</time>
      </trkpt>
      <trkpt lat="43.29224" lon="5.66179">
        <ele>256.3</ele>
        <time>2022-02-23T10:48:56Z</time>
      </trkpt>
      <trkpt lat="43.29228" lon="5.66182">
        <ele>256.4</ele>
        <time>2022-02-23T10:49:00Z</time>
      </trkpt>
      <trkpt lat="43.29234" lon="5.66185">
        <ele>256.7</ele>
        <time>2022-02-23T10:49:06Z</time>
      </trkpt>
      <trkpt lat="43.2924" lon="5.66186">
        <ele>257.2</ele>
        <time>2022-02-23T10:49:12Z</time>
      </trkpt>
      <trkpt lat="43.29245" lon="5.66191">
        <ele>257.5</ele>
        <time>2022-02-23T10:49:18Z</time>
      </trkpt>
      <trkpt lat="43.29249" lon="5.66195">
        <ele>257.7</ele>
        <time>2022-02-23T10:49:22Z</time>
      </trkpt>
      <trkpt lat="43.29252" lon="5.66199">
        <ele>257.3</ele>
        <time>2022-02-23T10:49:26Z</time>
      </trkpt>
      <trkpt lat="43.29257" lon="5.66201">
        <ele>257.3</ele>
        <time>2022-02-23T10:49:32Z</time>
      </trkpt>
      <trkpt lat="43.29262" lon="5.66206">
        <ele>257.1</ele>
        <time>2022-02-23T10:49:38Z</time>
      </trkpt>
      <trkpt lat="43.29268" lon="5.6621">
        <ele>257.3</ele>
        <time>2022-02-23T10:49:44Z</time>
      </trkpt>
      <trkpt lat="43.29273" lon="5.66212">
        <ele>257.8</ele>
        <time>2022-02-23T10:49:50Z</time>
      </trkpt>
      <trkpt lat="43.29278" lon="5.66216">
        <ele>258.2</ele>
        <time>2022-02-23T10:49:56Z</time>
      </trkpt>
      <trkpt lat="43.29284" lon="5.66217">
        <ele>258.6</ele>
        <time>2022-02-23T10:50:00Z</time>
      </trkpt>
      <trkpt lat="43.29288" lon="5.6622">
        <ele>258.9</ele>
        <time>2022-02-23T10:50:04Z</time>
      </trkpt>
      <trkpt lat="43.29293" lon="5.66223">
        <ele>259.1</ele>
        <time>2022-02-23T10:50:10Z</time>
      </trkpt>
      <trkpt lat="43.29298" lon="5.66226">
        <ele>259.3</ele>
        <time>2022-02-23T10:50:16Z</time>
      </trkpt>
      <trkpt lat="43.29302" lon="5.66229">
        <ele>259.5</ele>
        <time>2022-02-23T10:50:20Z</time>
      </trkpt>
      <trkpt lat="43.29308" lon="5.6623">
        <ele>259.9</ele>
        <time>2022-02-23T10:50:26Z</time>
      </trkpt>
      <trkpt lat="43.29311" lon="5.66236">
        <ele>260</ele>
        <time>2022-02-23T10:50:36Z</time>
      </trkpt>
      <trkpt lat="43.29315" lon="5.66241">
        <ele>260.1</ele>
        <time>2022-02-23T10:50:40Z</time>
      </trkpt>
      <trkpt lat="43.2932" lon="5.66245">
        <ele>260.3</ele>
        <time>2022-02-23T10:50:44Z</time>
      </trkpt>
      <trkpt lat="43.29324" lon="5.66249">
        <ele>260.4</ele>
        <time>2022-02-23T10:50:48Z</time>
      </trkpt>
      <trkpt lat="43.29329" lon="5.6625">
        <ele>260.7</ele>
        <time>2022-02-23T10:50:52Z</time>
      </trkpt>
      <trkpt lat="43.29334" lon="5.66248">
        <ele>261.3</ele>
        <time>2022-02-23T10:50:56Z</time>
      </trkpt>
      <trkpt lat="43.29339" lon="5.66247">
        <ele>262.6</ele>
        <time>2022-02-23T10:51:00Z</time>
      </trkpt>
      <trkpt lat="43.29344" lon="5.66244">
        <ele>264.1</ele>
        <time>2022-02-23T10:51:06Z</time>
      </trkpt>
      <trkpt lat="43.29349" lon="5.66248">
        <ele>264.7</ele>
        <time>2022-02-23T10:51:12Z</time>
      </trkpt>
      <trkpt lat="43.29354" lon="5.66253">
        <ele>264.8</ele>
        <time>2022-02-23T10:51:18Z</time>
      </trkpt>
      <trkpt lat="43.29358" lon="5.66259">
        <ele>264.3</ele>
        <time>2022-02-23T10:51:24Z</time>
      </trkpt>
      <trkpt lat="43.29362" lon="5.66264">
        <ele>263.7</ele>
        <time>2022-02-23T10:51:28Z</time>
      </trkpt>
      <trkpt lat="43.29365" lon="5.66268">
        <ele>263.3</ele>
        <time>2022-02-23T10:51:32Z</time>
      </trkpt>
      <trkpt lat="43.29371" lon="5.66272">
        <ele>263.2</ele>
        <time>2022-02-23T10:51:38Z</time>
      </trkpt>
      <trkpt lat="43.29377" lon="5.66274">
        <ele>263.3</ele>
        <time>2022-02-23T10:51:44Z</time>
      </trkpt>
      <trkpt lat="43.29381" lon="5.66275">
        <ele>263.9</ele>
        <time>2022-02-23T10:51:54Z</time>
      </trkpt>
      <trkpt lat="43.29387" lon="5.66277">
        <ele>264.2</ele>
        <time>2022-02-23T10:52:16Z</time>
      </trkpt>
      <trkpt lat="43.29394" lon="5.66278">
        <ele>264.2</ele>
        <time>2022-02-23T10:52:22Z</time>
      </trkpt>
      <trkpt lat="43.29399" lon="5.6628">
        <ele>264.1</ele>
        <time>2022-02-23T10:52:26Z</time>
      </trkpt>
      <trkpt lat="43.29404" lon="5.66281">
        <ele>264.3</ele>
        <time>2022-02-23T10:52:30Z</time>
      </trkpt>
      <trkpt lat="43.2941" lon="5.66279">
        <ele>264.7</ele>
        <time>2022-02-23T10:52:36Z</time>
      </trkpt>
      <trkpt lat="43.29415" lon="5.66277">
        <ele>265.4</ele>
        <time>2022-02-23T10:52:40Z</time>
      </trkpt>
      <trkpt lat="43.29421" lon="5.66276">
        <ele>265.6</ele>
        <time>2022-02-23T10:52:46Z</time>
      </trkpt>
      <trkpt lat="43.29425" lon="5.66275">
        <ele>266</ele>
        <time>2022-02-23T10:52:50Z</time>
      </trkpt>
      <trkpt lat="43.29431" lon="5.66273">
        <ele>266.3</ele>
        <time>2022-02-23T10:52:54Z</time>
      </trkpt>
      <trkpt lat="43.29436" lon="5.66272">
        <ele>266.5</ele>
        <time>2022-02-23T10:53:00Z</time>
      </trkpt>
      <trkpt lat="43.29442" lon="5.66271">
        <ele>266.4</ele>
        <time>2022-02-23T10:53:06Z</time>
      </trkpt>
      <trkpt lat="43.29448" lon="5.6627">
        <ele>266.4</ele>
        <time>2022-02-23T10:53:12Z</time>
      </trkpt>
      <trkpt lat="43.29454" lon="5.66268">
        <ele>266.8</ele>
        <time>2022-02-23T10:53:18Z</time>
      </trkpt>
      <trkpt lat="43.29459" lon="5.66268">
        <ele>266.8</ele>
        <time>2022-02-23T10:53:22Z</time>
      </trkpt>
      <trkpt lat="43.29464" lon="5.66267">
        <ele>267.1</ele>
        <time>2022-02-23T10:53:26Z</time>
      </trkpt>
      <trkpt lat="43.2947" lon="5.66265">
        <ele>267.4</ele>
        <time>2022-02-23T10:53:32Z</time>
      </trkpt>
      <trkpt lat="43.29476" lon="5.66264">
        <ele>267.5</ele>
        <time>2022-02-23T10:53:38Z</time>
      </trkpt>
      <trkpt lat="43.29482" lon="5.66263">
        <ele>267.9</ele>
        <time>2022-02-23T10:53:44Z</time>
      </trkpt>
      <trkpt lat="43.29488" lon="5.66262">
        <ele>268.2</ele>
        <time>2022-02-23T10:53:50Z</time>
      </trkpt>
      <trkpt lat="43.29494" lon="5.66262">
        <ele>268.2</ele>
        <time>2022-02-23T10:53:56Z</time>
      </trkpt>
      <trkpt lat="43.29499" lon="5.66263">
        <ele>268.1</ele>
        <time>2022-02-23T10:54:00Z</time>
      </trkpt>
      <trkpt lat="43.29505" lon="5.66264">
        <ele>268.1</ele>
        <time>2022-02-23T10:54:04Z</time>
      </trkpt>
      <trkpt lat="43.2951" lon="5.66265">
        <ele>268.2</ele>
        <time>2022-02-23T10:54:08Z</time>
      </trkpt>
      <trkpt lat="43.29514" lon="5.66263">
        <ele>268.6</ele>
        <time>2022-02-23T10:54:12Z</time>
      </trkpt>
      <trkpt lat="43.29519" lon="5.66262">
        <ele>269</ele>
        <time>2022-02-23T10:54:16Z</time>
      </trkpt>
      <trkpt lat="43.29525" lon="5.66262">
        <ele>269.2</ele>
        <time>2022-02-23T10:54:22Z</time>
      </trkpt>
      <trkpt lat="43.29531" lon="5.6626">
        <ele>269.8</ele>
        <time>2022-02-23T10:54:28Z</time>
      </trkpt>
      <trkpt lat="43.29537" lon="5.66261">
        <ele>270.3</ele>
        <time>2022-02-23T10:54:34Z</time>
      </trkpt>
      <trkpt lat="43.29543" lon="5.6626">
        <ele>271.1</ele>
        <time>2022-02-23T10:54:42Z</time>
      </trkpt>
      <trkpt lat="43.29549" lon="5.66257">
        <ele>272.2</ele>
        <time>2022-02-23T10:54:50Z</time>
      </trkpt>
      <trkpt lat="43.29555" lon="5.66256">
        <ele>273.3</ele>
        <time>2022-02-23T10:54:56Z</time>
      </trkpt>
      <trkpt lat="43.29562" lon="5.66256">
        <ele>274</ele>
        <time>2022-02-23T10:55:02Z</time>
      </trkpt>
      <trkpt lat="43.29568" lon="5.66258">
        <ele>274.3</ele>
        <time>2022-02-23T10:55:08Z</time>
      </trkpt>
      <trkpt lat="43.29574" lon="5.6626">
        <ele>274.4</ele>
        <time>2022-02-23T10:55:12Z</time>
      </trkpt>
      <trkpt lat="43.2958" lon="5.66259">
        <ele>275.4</ele>
        <time>2022-02-23T10:55:18Z</time>
      </trkpt>
      <trkpt lat="43.29585" lon="5.66256">
        <ele>276.5</ele>
        <time>2022-02-23T10:55:24Z</time>
      </trkpt>
      <trkpt lat="43.29591" lon="5.66255">
        <ele>276.8</ele>
        <time>2022-02-23T10:55:30Z</time>
      </trkpt>
      <trkpt lat="43.29597" lon="5.66256">
        <ele>276.6</ele>
        <time>2022-02-23T10:55:36Z</time>
      </trkpt>
      <trkpt lat="43.29604" lon="5.66256">
        <ele>276.6</ele>
        <time>2022-02-23T10:55:42Z</time>
      </trkpt>
      <trkpt lat="43.2961" lon="5.66254">
        <ele>277</ele>
        <time>2022-02-23T10:55:48Z</time>
      </trkpt>
      <trkpt lat="43.29616" lon="5.66254">
        <ele>277</ele>
        <time>2022-02-23T10:55:54Z</time>
      </trkpt>
      <trkpt lat="43.29622" lon="5.66252">
        <ele>277.2</ele>
        <time>2022-02-23T10:56:00Z</time>
      </trkpt>
      <trkpt lat="43.29628" lon="5.66248">
        <ele>278</ele>
        <time>2022-02-23T10:56:06Z</time>
      </trkpt>
      <trkpt lat="43.29633" lon="5.66246">
        <ele>278.5</ele>
        <time>2022-02-23T10:56:12Z</time>
      </trkpt>
      <trkpt lat="43.29639" lon="5.66247">
        <ele>278.2</ele>
        <time>2022-02-23T10:56:18Z</time>
      </trkpt>
      <trkpt lat="43.29645" lon="5.66245">
        <ele>278.9</ele>
        <time>2022-02-23T10:56:24Z</time>
      </trkpt>
      <trkpt lat="43.29651" lon="5.66246">
        <ele>278.5</ele>
        <time>2022-02-23T10:56:30Z</time>
      </trkpt>
      <trkpt lat="43.29656" lon="5.66245">
        <ele>278.6</ele>
        <time>2022-02-23T10:56:34Z</time>
      </trkpt>
      <trkpt lat="43.2966" lon="5.66245">
        <ele>278.6</ele>
        <time>2022-02-23T10:56:38Z</time>
      </trkpt>
      <trkpt lat="43.29665" lon="5.66248">
        <ele>277.7</ele>
        <time>2022-02-23T10:56:42Z</time>
      </trkpt>
      <trkpt lat="43.2967" lon="5.66249">
        <ele>277.6</ele>
        <time>2022-02-23T10:56:46Z</time>
      </trkpt>
      <trkpt lat="43.29675" lon="5.66249">
        <ele>278.1</ele>
        <time>2022-02-23T10:56:50Z</time>
      </trkpt>
      <trkpt lat="43.29679" lon="5.6625">
        <ele>278.5</ele>
        <time>2022-02-23T10:56:54Z</time>
      </trkpt>
      <trkpt lat="43.29686" lon="5.66251">
        <ele>279</ele>
        <time>2022-02-23T10:57:00Z</time>
      </trkpt>
      <trkpt lat="43.29691" lon="5.66253">
        <ele>279.2</ele>
        <time>2022-02-23T10:57:04Z</time>
      </trkpt>
      <trkpt lat="43.29696" lon="5.66253">
        <ele>279.7</ele>
        <time>2022-02-23T10:57:08Z</time>
      </trkpt>
      <trkpt lat="43.29701" lon="5.66254">
        <ele>280.6</ele>
        <time>2022-02-23T10:57:12Z</time>
      </trkpt>
      <trkpt lat="43.29705" lon="5.66255">
        <ele>281.3</ele>
        <time>2022-02-23T10:57:16Z</time>
      </trkpt>
      <trkpt lat="43.29709" lon="5.6626">
        <ele>281.2</ele>
        <time>2022-02-23T10:57:24Z</time>
      </trkpt>
      <trkpt lat="43.29715" lon="5.66264">
        <ele>281.6</ele>
        <time>2022-02-23T10:57:30Z</time>
      </trkpt>
      <trkpt lat="43.29721" lon="5.66267">
        <ele>282.1</ele>
        <time>2022-02-23T10:57:36Z</time>
      </trkpt>
      <trkpt lat="43.29725" lon="5.66269">
        <ele>282.8</ele>
        <time>2022-02-23T10:57:42Z</time>
      </trkpt>
      <trkpt lat="43.29733" lon="5.66272">
        <ele>284.9</ele>
        <time>2022-02-23T10:57:48Z</time>
      </trkpt>
      <trkpt lat="43.29739" lon="5.66274">
        <ele>286.4</ele>
        <time>2022-02-23T10:57:54Z</time>
      </trkpt>
      <trkpt lat="43.29746" lon="5.66276">
        <ele>287.9</ele>
        <time>2022-02-23T10:58:00Z</time>
      </trkpt>
      <trkpt lat="43.29752" lon="5.66279">
        <ele>288.7</ele>
        <time>2022-02-23T10:58:06Z</time>
      </trkpt>
      <trkpt lat="43.29756" lon="5.66282">
        <ele>288.3</ele>
        <time>2022-02-23T10:58:14Z</time>
      </trkpt>
      <trkpt lat="43.29761" lon="5.66282">
        <ele>288.6</ele>
        <time>2022-02-23T10:58:22Z</time>
      </trkpt>
      <trkpt lat="43.29765" lon="5.6628">
        <ele>289.6</ele>
        <time>2022-02-23T10:58:30Z</time>
      </trkpt>
      <trkpt lat="43.29771" lon="5.66278">
        <ele>290.4</ele>
        <time>2022-02-23T10:58:40Z</time>
      </trkpt>
      <trkpt lat="43.29776" lon="5.6628">
        <ele>290.2</ele>
        <time>2022-02-23T10:58:48Z</time>
      </trkpt>
      <trkpt lat="43.29778" lon="5.66286">
        <ele>289.2</ele>
        <time>2022-02-23T10:58:54Z</time>
      </trkpt>
      <trkpt lat="43.29781" lon="5.6629">
        <ele>288.8</ele>
        <time>2022-02-23T10:59:04Z</time>
      </trkpt>
      <trkpt lat="43.29781" lon="5.66297">
        <ele>287.3</ele>
        <time>2022-02-23T10:59:28Z</time>
      </trkpt>
      <trkpt lat="43.29785" lon="5.66299">
        <ele>287.2</ele>
        <time>2022-02-23T10:59:44Z</time>
      </trkpt>
      <trkpt lat="43.29789" lon="5.66304">
        <ele>286.6</ele>
        <time>2022-02-23T10:59:50Z</time>
      </trkpt>
      <trkpt lat="43.29794" lon="5.66307">
        <ele>286.5</ele>
        <time>2022-02-23T10:59:54Z</time>
      </trkpt>
      <trkpt lat="43.29798" lon="5.66311">
        <ele>286.2</ele>
        <time>2022-02-23T10:59:58Z</time>
      </trkpt>
      <trkpt lat="43.29803" lon="5.66315">
        <ele>286.2</ele>
        <time>2022-02-23T11:00:04Z</time>
      </trkpt>
      <trkpt lat="43.29809" lon="5.66313">
        <ele>287.3</ele>
        <time>2022-02-23T11:00:10Z</time>
      </trkpt>
      <trkpt lat="43.29815" lon="5.66316">
        <ele>287.9</ele>
        <time>2022-02-23T11:00:18Z</time>
      </trkpt>
      <trkpt lat="43.2982" lon="5.6632">
        <ele>288.1</ele>
        <time>2022-02-23T11:00:22Z</time>
      </trkpt>
      <trkpt lat="43.29824" lon="5.66324">
        <ele>288.2</ele>
        <time>2022-02-23T11:00:26Z</time>
      </trkpt>
      <trkpt lat="43.29829" lon="5.66326">
        <ele>288.7</ele>
        <time>2022-02-23T11:00:30Z</time>
      </trkpt>
      <trkpt lat="43.29833" lon="5.66329">
        <ele>288.8</ele>
        <time>2022-02-23T11:00:34Z</time>
      </trkpt>
      <trkpt lat="43.29837" lon="5.66333">
        <ele>289.2</ele>
        <time>2022-02-23T11:00:38Z</time>
      </trkpt>
      <trkpt lat="43.29845" lon="5.66334">
        <ele>290.7</ele>
        <time>2022-02-23T11:00:44Z</time>
      </trkpt>
      <trkpt lat="43.29849" lon="5.66336">
        <ele>291.3</ele>
        <time>2022-02-23T11:00:48Z</time>
      </trkpt>
      <trkpt lat="43.29853" lon="5.66339">
        <ele>291.5</ele>
        <time>2022-02-23T11:00:52Z</time>
      </trkpt>
      <trkpt lat="43.29858" lon="5.66344">
        <ele>291.2</ele>
        <time>2022-02-23T11:00:56Z</time>
      </trkpt>
      <trkpt lat="43.29861" lon="5.66349">
        <ele>290.4</ele>
        <time>2022-02-23T11:01:00Z</time>
      </trkpt>
      <trkpt lat="43.29864" lon="5.66354">
        <ele>289.5</ele>
        <time>2022-02-23T11:01:04Z</time>
      </trkpt>
      <trkpt lat="43.29869" lon="5.6636">
        <ele>289.1</ele>
        <time>2022-02-23T11:01:10Z</time>
      </trkpt>
      <trkpt lat="43.29874" lon="5.66364">
        <ele>289.3</ele>
        <time>2022-02-23T11:01:14Z</time>
      </trkpt>
      <trkpt lat="43.29879" lon="5.66368">
        <ele>289.6</ele>
        <time>2022-02-23T11:01:18Z</time>
      </trkpt>
      <trkpt lat="43.29883" lon="5.66373">
        <ele>289.4</ele>
        <time>2022-02-23T11:01:24Z</time>
      </trkpt>
      <trkpt lat="43.29886" lon="5.6638">
        <ele>288.6</ele>
        <time>2022-02-23T11:01:30Z</time>
      </trkpt>
      <trkpt lat="43.29891" lon="5.66385">
        <ele>288.2</ele>
        <time>2022-02-23T11:01:36Z</time>
      </trkpt>
      <trkpt lat="43.29896" lon="5.66388">
        <ele>288.4</ele>
        <time>2022-02-23T11:01:40Z</time>
      </trkpt>
      <trkpt lat="43.299" lon="5.66391">
        <ele>288.8</ele>
        <time>2022-02-23T11:01:44Z</time>
      </trkpt>
      <trkpt lat="43.29905" lon="5.66395">
        <ele>289.3</ele>
        <time>2022-02-23T11:01:50Z</time>
      </trkpt>
      <trkpt lat="43.29909" lon="5.66398">
        <ele>289.6</ele>
        <time>2022-02-23T11:01:56Z</time>
      </trkpt>
      <trkpt lat="43.29913" lon="5.664">
        <ele>289.9</ele>
        <time>2022-02-23T11:02:00Z</time>
      </trkpt>
      <trkpt lat="43.29917" lon="5.66403">
        <ele>290.1</ele>
        <time>2022-02-23T11:02:04Z</time>
      </trkpt>
      <trkpt lat="43.29921" lon="5.66406">
        <ele>290.3</ele>
        <time>2022-02-23T11:02:10Z</time>
      </trkpt>
      <trkpt lat="43.29926" lon="5.66411">
        <ele>290.1</ele>
        <time>2022-02-23T11:02:16Z</time>
      </trkpt>
      <trkpt lat="43.29932" lon="5.66416">
        <ele>289.8</ele>
        <time>2022-02-23T11:02:22Z</time>
      </trkpt>
      <trkpt lat="43.29935" lon="5.6642">
        <ele>289.9</ele>
        <time>2022-02-23T11:02:26Z</time>
      </trkpt>
      <trkpt lat="43.2994" lon="5.66427">
        <ele>290</ele>
        <time>2022-02-23T11:02:34Z</time>
      </trkpt>
      <trkpt lat="43.29944" lon="5.6643">
        <ele>290</ele>
        <time>2022-02-23T11:02:38Z</time>
      </trkpt>
      <trkpt lat="43.29949" lon="5.66435">
        <ele>290.6</ele>
        <time>2022-02-23T11:02:44Z</time>
      </trkpt>
      <trkpt lat="43.29954" lon="5.66439">
        <ele>291.1</ele>
        <time>2022-02-23T11:02:48Z</time>
      </trkpt>
      <trkpt lat="43.29958" lon="5.66445">
        <ele>291.5</ele>
        <time>2022-02-23T11:02:52Z</time>
      </trkpt>
      <trkpt lat="43.29964" lon="5.66448">
        <ele>292.5</ele>
        <time>2022-02-23T11:02:56Z</time>
      </trkpt>
      <trkpt lat="43.29968" lon="5.66451">
        <ele>292.9</ele>
        <time>2022-02-23T11:03:00Z</time>
      </trkpt>
      <trkpt lat="43.29972" lon="5.66453">
        <ele>293.1</ele>
        <time>2022-02-23T11:03:04Z</time>
      </trkpt>
      <trkpt lat="43.29977" lon="5.66454">
        <ele>294.3</ele>
        <time>2022-02-23T11:03:08Z</time>
      </trkpt>
      <trkpt lat="43.29982" lon="5.66456">
        <ele>295.3</ele>
        <time>2022-02-23T11:03:12Z</time>
      </trkpt>
      <trkpt lat="43.29987" lon="5.66458">
        <ele>295.9</ele>
        <time>2022-02-23T11:03:16Z</time>
      </trkpt>
      <trkpt lat="43.29991" lon="5.66463">
        <ele>295.8</ele>
        <time>2022-02-23T11:03:20Z</time>
      </trkpt>
      <trkpt lat="43.29997" lon="5.66467">
        <ele>295.2</ele>
        <time>2022-02-23T11:03:24Z</time>
      </trkpt>
      <trkpt lat="43.30002" lon="5.6647">
        <ele>295.1</ele>
        <time>2022-02-23T11:03:28Z</time>
      </trkpt>
      <trkpt lat="43.30007" lon="5.66474">
        <ele>295.1</ele>
        <time>2022-02-23T11:03:34Z</time>
      </trkpt>
      <trkpt lat="43.30012" lon="5.66479">
        <ele>295.6</ele>
        <time>2022-02-23T11:03:40Z</time>
      </trkpt>
      <trkpt lat="43.30015" lon="5.66486">
        <ele>295.5</ele>
        <time>2022-02-23T11:03:46Z</time>
      </trkpt>
      <trkpt lat="43.30017" lon="5.66494">
        <ele>294.9</ele>
        <time>2022-02-23T11:03:52Z</time>
      </trkpt>
      <trkpt lat="43.30019" lon="5.66503">
        <ele>294.7</ele>
        <time>2022-02-23T11:03:58Z</time>
      </trkpt>
      <trkpt lat="43.3002" lon="5.66509">
        <ele>295.2</ele>
        <time>2022-02-23T11:04:02Z</time>
      </trkpt>
      <trkpt lat="43.30022" lon="5.66517">
        <ele>295.5</ele>
        <time>2022-02-23T11:04:08Z</time>
      </trkpt>
      <trkpt lat="43.30025" lon="5.66525">
        <ele>295.2</ele>
        <time>2022-02-23T11:04:14Z</time>
      </trkpt>
      <trkpt lat="43.30026" lon="5.66532">
        <ele>294.8</ele>
        <time>2022-02-23T11:04:20Z</time>
      </trkpt>
      <trkpt lat="43.30029" lon="5.66538">
        <ele>294.7</ele>
        <time>2022-02-23T11:04:26Z</time>
      </trkpt>
      <trkpt lat="43.30033" lon="5.66543">
        <ele>296.1</ele>
        <time>2022-02-23T11:04:32Z</time>
      </trkpt>
      <trkpt lat="43.30035" lon="5.6655">
        <ele>296.8</ele>
        <time>2022-02-23T11:04:36Z</time>
      </trkpt>
      <trkpt lat="43.30037" lon="5.66556">
        <ele>297.4</ele>
        <time>2022-02-23T11:04:44Z</time>
      </trkpt>
      <trkpt lat="43.30036" lon="5.66562">
        <ele>298.4</ele>
        <time>2022-02-23T11:05:06Z</time>
      </trkpt>
      <trkpt lat="43.30031" lon="5.66566">
        <ele>298.7</ele>
        <time>2022-02-23T11:05:16Z</time>
      </trkpt>
      <trkpt lat="43.30028" lon="5.66572">
        <ele>299.8</ele>
        <time>2022-02-23T11:05:42Z</time>
      </trkpt>
      <trkpt lat="43.30031" lon="5.66577">
        <ele>301.3</ele>
        <time>2022-02-23T11:06:12Z</time>
      </trkpt>
      <trkpt lat="43.30027" lon="5.66573">
        <ele>301</ele>
        <time>2022-02-23T11:06:32Z</time>
      </trkpt>
      <trkpt lat="43.30029" lon="5.66578">
        <ele>301.5</ele>
        <time>2022-02-23T11:07:43Z</time>
      </trkpt>
      <trkpt lat="43.30032" lon="5.66572">
        <ele>300.2</ele>
        <time>2022-02-23T11:08:31Z</time>
      </trkpt>
      <trkpt lat="43.30034" lon="5.66567">
        <ele>299.3</ele>
        <time>2022-02-23T11:08:41Z</time>
      </trkpt>
      <trkpt lat="43.30037" lon="5.6656">
        <ele>298.3</ele>
        <time>2022-02-23T11:08:47Z</time>
      </trkpt>
      <trkpt lat="43.3004" lon="5.66555">
        <ele>298</ele>
        <time>2022-02-23T11:08:55Z</time>
      </trkpt>
      <trkpt lat="43.3004" lon="5.66547">
        <ele>298.3</ele>
        <time>2022-02-23T11:09:03Z</time>
      </trkpt>
      <trkpt lat="43.30035" lon="5.66548">
        <ele>296.9</ele>
        <time>2022-02-23T11:09:59Z</time>
      </trkpt>
      <trkpt lat="43.30033" lon="5.66541">
        <ele>296.3</ele>
        <time>2022-02-23T11:10:07Z</time>
      </trkpt>
      <trkpt lat="43.3003" lon="5.66536">
        <ele>295.1</ele>
        <time>2022-02-23T11:10:13Z</time>
      </trkpt>
      <trkpt lat="43.30029" lon="5.66529">
        <ele>294.3</ele>
        <time>2022-02-23T11:10:19Z</time>
      </trkpt>
      <trkpt lat="43.30027" lon="5.66521">
        <ele>294.6</ele>
        <time>2022-02-23T11:10:25Z</time>
      </trkpt>
      <trkpt lat="43.30023" lon="5.66513">
        <ele>295.2</ele>
        <time>2022-02-23T11:10:31Z</time>
      </trkpt>
      <trkpt lat="43.30021" lon="5.66505">
        <ele>294.9</ele>
        <time>2022-02-23T11:10:35Z</time>
      </trkpt>
      <trkpt lat="43.30019" lon="5.66499">
        <ele>294.4</ele>
        <time>2022-02-23T11:10:39Z</time>
      </trkpt>
      <trkpt lat="43.30015" lon="5.66494">
        <ele>294.7</ele>
        <time>2022-02-23T11:10:43Z</time>
      </trkpt>
      <trkpt lat="43.30011" lon="5.6649">
        <ele>294.5</ele>
        <time>2022-02-23T11:10:47Z</time>
      </trkpt>
      <trkpt lat="43.30006" lon="5.66486">
        <ele>294.2</ele>
        <time>2022-02-23T11:10:51Z</time>
      </trkpt>
      <trkpt lat="43.30001" lon="5.66482">
        <ele>293.8</ele>
        <time>2022-02-23T11:10:55Z</time>
      </trkpt>
      <trkpt lat="43.29997" lon="5.66477">
        <ele>293.7</ele>
        <time>2022-02-23T11:10:59Z</time>
      </trkpt>
      <trkpt lat="43.29991" lon="5.66474">
        <ele>293.2</ele>
        <time>2022-02-23T11:11:03Z</time>
      </trkpt>
      <trkpt lat="43.29986" lon="5.66471">
        <ele>292.7</ele>
        <time>2022-02-23T11:11:07Z</time>
      </trkpt>
      <trkpt lat="43.29979" lon="5.66467">
        <ele>292.8</ele>
        <time>2022-02-23T11:11:13Z</time>
      </trkpt>
      <trkpt lat="43.29974" lon="5.66463">
        <ele>292.4</ele>
        <time>2022-02-23T11:11:17Z</time>
      </trkpt>
      <trkpt lat="43.29969" lon="5.66459">
        <ele>292.5</ele>
        <time>2022-02-23T11:11:21Z</time>
      </trkpt>
      <trkpt lat="43.29966" lon="5.66454">
        <ele>292.7</ele>
        <time>2022-02-23T11:11:25Z</time>
      </trkpt>
      <trkpt lat="43.29961" lon="5.66448">
        <ele>292.1</ele>
        <time>2022-02-23T11:11:29Z</time>
      </trkpt>
      <trkpt lat="43.29956" lon="5.66442">
        <ele>291.3</ele>
        <time>2022-02-23T11:11:33Z</time>
      </trkpt>
      <trkpt lat="43.29951" lon="5.66437">
        <ele>290.9</ele>
        <time>2022-02-23T11:11:37Z</time>
      </trkpt>
      <trkpt lat="43.29948" lon="5.66433">
        <ele>290.5</ele>
        <time>2022-02-23T11:11:41Z</time>
      </trkpt>
      <trkpt lat="43.29943" lon="5.66429">
        <ele>290.1</ele>
        <time>2022-02-23T11:11:47Z</time>
      </trkpt>
      <trkpt lat="43.29938" lon="5.66425">
        <ele>290</ele>
        <time>2022-02-23T11:11:53Z</time>
      </trkpt>
      <trkpt lat="43.29932" lon="5.66422">
        <ele>289.6</ele>
        <time>2022-02-23T11:11:59Z</time>
      </trkpt>
      <trkpt lat="43.29927" lon="5.66418">
        <ele>289.1</ele>
        <time>2022-02-23T11:12:05Z</time>
      </trkpt>
      <trkpt lat="43.29922" lon="5.66415">
        <ele>288.9</ele>
        <time>2022-02-23T11:12:09Z</time>
      </trkpt>
      <trkpt lat="43.29916" lon="5.66411">
        <ele>288.7</ele>
        <time>2022-02-23T11:12:15Z</time>
      </trkpt>
      <trkpt lat="43.2991" lon="5.66407">
        <ele>288.6</ele>
        <time>2022-02-23T11:12:21Z</time>
      </trkpt>
      <trkpt lat="43.29904" lon="5.66404">
        <ele>288.3</ele>
        <time>2022-02-23T11:12:27Z</time>
      </trkpt>
      <trkpt lat="43.299" lon="5.664">
        <ele>288.1</ele>
        <time>2022-02-23T11:12:31Z</time>
      </trkpt>
      <trkpt lat="43.29895" lon="5.66395">
        <ele>287.7</ele>
        <time>2022-02-23T11:12:37Z</time>
      </trkpt>
      <trkpt lat="43.2989" lon="5.66393">
        <ele>287</ele>
        <time>2022-02-23T11:12:41Z</time>
      </trkpt>
      <trkpt lat="43.29886" lon="5.6639">
        <ele>286.7</ele>
        <time>2022-02-23T11:12:45Z</time>
      </trkpt>
      <trkpt lat="43.29881" lon="5.66384">
        <ele>287.2</ele>
        <time>2022-02-23T11:12:51Z</time>
      </trkpt>
      <trkpt lat="43.29877" lon="5.66377">
        <ele>287.8</ele>
        <time>2022-02-23T11:12:57Z</time>
      </trkpt>
      <trkpt lat="43.29872" lon="5.66372">
        <ele>287.7</ele>
        <time>2022-02-23T11:13:03Z</time>
      </trkpt>
      <trkpt lat="43.29866" lon="5.66367">
        <ele>287.4</ele>
        <time>2022-02-23T11:13:09Z</time>
      </trkpt>
      <trkpt lat="43.29863" lon="5.66361">
        <ele>287.4</ele>
        <time>2022-02-23T11:13:13Z</time>
      </trkpt>
      <trkpt lat="43.2986" lon="5.66356">
        <ele>288.4</ele>
        <time>2022-02-23T11:13:17Z</time>
      </trkpt>
      <trkpt lat="43.29858" lon="5.66351">
        <ele>289.3</ele>
        <time>2022-02-23T11:13:21Z</time>
      </trkpt>
      <trkpt lat="43.29854" lon="5.66347">
        <ele>289.5</ele>
        <time>2022-02-23T11:13:25Z</time>
      </trkpt>
      <trkpt lat="43.2985" lon="5.66344">
        <ele>289.5</ele>
        <time>2022-02-23T11:13:29Z</time>
      </trkpt>
      <trkpt lat="43.29845" lon="5.66342">
        <ele>288.8</ele>
        <time>2022-02-23T11:13:33Z</time>
      </trkpt>
      <trkpt lat="43.2984" lon="5.66341">
        <ele>288.2</ele>
        <time>2022-02-23T11:13:37Z</time>
      </trkpt>
      <trkpt lat="43.29835" lon="5.66337">
        <ele>287.6</ele>
        <time>2022-02-23T11:13:43Z</time>
      </trkpt>
      <trkpt lat="43.29829" lon="5.66332">
        <ele>287.4</ele>
        <time>2022-02-23T11:13:49Z</time>
      </trkpt>
      <trkpt lat="43.29825" lon="5.66329">
        <ele>287.4</ele>
        <time>2022-02-23T11:13:53Z</time>
      </trkpt>
      <trkpt lat="43.29821" lon="5.66326">
        <ele>287.2</ele>
        <time>2022-02-23T11:13:57Z</time>
      </trkpt>
      <trkpt lat="43.29815" lon="5.66323">
        <ele>286.8</ele>
        <time>2022-02-23T11:14:03Z</time>
      </trkpt>
      <trkpt lat="43.29809" lon="5.6632">
        <ele>286.2</ele>
        <time>2022-02-23T11:14:09Z</time>
      </trkpt>
      <trkpt lat="43.29804" lon="5.66318">
        <ele>285.5</ele>
        <time>2022-02-23T11:14:13Z</time>
      </trkpt>
      <trkpt lat="43.29798" lon="5.66316">
        <ele>285.3</ele>
        <time>2022-02-23T11:14:17Z</time>
      </trkpt>
      <trkpt lat="43.29793" lon="5.66313">
        <ele>285.4</ele>
        <time>2022-02-23T11:14:21Z</time>
      </trkpt>
      <trkpt lat="43.29789" lon="5.6631">
        <ele>285.4</ele>
        <time>2022-02-23T11:14:25Z</time>
      </trkpt>
      <trkpt lat="43.29784" lon="5.66305">
        <ele>285.8</ele>
        <time>2022-02-23T11:14:31Z</time>
      </trkpt>
      <trkpt lat="43.29785" lon="5.66298">
        <ele>287.3</ele>
        <time>2022-02-23T11:14:37Z</time>
      </trkpt>
      <trkpt lat="43.29785" lon="5.66292">
        <ele>288.8</ele>
        <time>2022-02-23T11:14:53Z</time>
      </trkpt>
      <trkpt lat="43.29789" lon="5.66288">
        <ele>290.2</ele>
        <time>2022-02-23T11:15:59Z</time>
      </trkpt>
      <trkpt lat="43.29794" lon="5.66291">
        <ele>290.2</ele>
        <time>2022-02-23T11:17:03Z</time>
      </trkpt>
      <trkpt lat="43.298" lon="5.66291">
        <ele>290.9</ele>
        <time>2022-02-23T11:17:09Z</time>
      </trkpt>
      <trkpt lat="43.29806" lon="5.66292">
        <ele>291.4</ele>
        <time>2022-02-23T11:17:17Z</time>
      </trkpt>
      <trkpt lat="43.29812" lon="5.66293">
        <ele>291.9</ele>
        <time>2022-02-23T11:17:23Z</time>
      </trkpt>
      <trkpt lat="43.29817" lon="5.66294">
        <ele>292.5</ele>
        <time>2022-02-23T11:17:31Z</time>
      </trkpt>
      <trkpt lat="43.29822" lon="5.66297">
        <ele>292.7</ele>
        <time>2022-02-23T11:17:47Z</time>
      </trkpt>
      <trkpt lat="43.29828" lon="5.663">
        <ele>293.4</ele>
        <time>2022-02-23T11:17:55Z</time>
      </trkpt>
      <trkpt lat="43.29834" lon="5.663">
        <ele>294.5</ele>
        <time>2022-02-23T11:18:01Z</time>
      </trkpt>
      <trkpt lat="43.29839" lon="5.66299">
        <ele>295.8</ele>
        <time>2022-02-23T11:18:05Z</time>
      </trkpt>
      <trkpt lat="43.29843" lon="5.66299">
        <ele>297</ele>
        <time>2022-02-23T11:18:09Z</time>
      </trkpt>
      <trkpt lat="43.29849" lon="5.66301">
        <ele>298.4</ele>
        <time>2022-02-23T11:18:15Z</time>
      </trkpt>
      <trkpt lat="43.29855" lon="5.66304">
        <ele>299.5</ele>
        <time>2022-02-23T11:18:23Z</time>
      </trkpt>
      <trkpt lat="43.29859" lon="5.66307">
        <ele>300.2</ele>
        <time>2022-02-23T11:18:29Z</time>
      </trkpt>
      <trkpt lat="43.29864" lon="5.66309">
        <ele>301.3</ele>
        <time>2022-02-23T11:18:35Z</time>
      </trkpt>
      <trkpt lat="43.29869" lon="5.66311">
        <ele>302.4</ele>
        <time>2022-02-23T11:18:41Z</time>
      </trkpt>
      <trkpt lat="43.29875" lon="5.66313">
        <ele>303.8</ele>
        <time>2022-02-23T11:18:47Z</time>
      </trkpt>
      <trkpt lat="43.2988" lon="5.66315">
        <ele>304.3</ele>
        <time>2022-02-23T11:18:53Z</time>
      </trkpt>
      <trkpt lat="43.29884" lon="5.66318">
        <ele>304.4</ele>
        <time>2022-02-23T11:19:01Z</time>
      </trkpt>
      <trkpt lat="43.2989" lon="5.66321">
        <ele>304.6</ele>
        <time>2022-02-23T11:19:09Z</time>
      </trkpt>
      <trkpt lat="43.29895" lon="5.66325">
        <ele>304.9</ele>
        <time>2022-02-23T11:19:15Z</time>
      </trkpt>
      <trkpt lat="43.29899" lon="5.66326">
        <ele>305.8</ele>
        <time>2022-02-23T11:19:19Z</time>
      </trkpt>
      <trkpt lat="43.29904" lon="5.6633">
        <ele>305.3</ele>
        <time>2022-02-23T11:19:25Z</time>
      </trkpt>
      <trkpt lat="43.29909" lon="5.66335">
        <ele>304.6</ele>
        <time>2022-02-23T11:19:31Z</time>
      </trkpt>
      <trkpt lat="43.29912" lon="5.66339">
        <ele>304.6</ele>
        <time>2022-02-23T11:19:37Z</time>
      </trkpt>
      <trkpt lat="43.29915" lon="5.66344">
        <ele>304.6</ele>
        <time>2022-02-23T11:19:45Z</time>
      </trkpt>
      <trkpt lat="43.2992" lon="5.66348">
        <ele>305.8</ele>
        <time>2022-02-23T11:19:51Z</time>
      </trkpt>
      <trkpt lat="43.29927" lon="5.66351">
        <ele>307.2</ele>
        <time>2022-02-23T11:19:57Z</time>
      </trkpt>
      <trkpt lat="43.29932" lon="5.66354">
        <ele>308.3</ele>
        <time>2022-02-23T11:20:03Z</time>
      </trkpt>
      <trkpt lat="43.29937" lon="5.66354">
        <ele>309.8</ele>
        <time>2022-02-23T11:20:09Z</time>
      </trkpt>
      <trkpt lat="43.29942" lon="5.66355">
        <ele>311.1</ele>
        <time>2022-02-23T11:20:15Z</time>
      </trkpt>
      <trkpt lat="43.29947" lon="5.66355">
        <ele>312.1</ele>
        <time>2022-02-23T11:20:21Z</time>
      </trkpt>
      <trkpt lat="43.29953" lon="5.66354">
        <ele>313.8</ele>
        <time>2022-02-23T11:20:27Z</time>
      </trkpt>
      <trkpt lat="43.29959" lon="5.66354">
        <ele>314.8</ele>
        <time>2022-02-23T11:20:35Z</time>
      </trkpt>
      <trkpt lat="43.29965" lon="5.66352">
        <ele>316.4</ele>
        <time>2022-02-23T11:20:41Z</time>
      </trkpt>
      <trkpt lat="43.2997" lon="5.66352">
        <ele>317</ele>
        <time>2022-02-23T11:20:47Z</time>
      </trkpt>
      <trkpt lat="43.29974" lon="5.66354">
        <ele>316.9</ele>
        <time>2022-02-23T11:20:55Z</time>
      </trkpt>
      <trkpt lat="43.29979" lon="5.66354">
        <ele>317.7</ele>
        <time>2022-02-23T11:21:01Z</time>
      </trkpt>
      <trkpt lat="43.29984" lon="5.66357">
        <ele>317.5</ele>
        <time>2022-02-23T11:21:09Z</time>
      </trkpt>
      <trkpt lat="43.29989" lon="5.66359">
        <ele>317</ele>
        <time>2022-02-23T11:21:21Z</time>
      </trkpt>
      <trkpt lat="43.29995" lon="5.6636">
        <ele>317.5</ele>
        <time>2022-02-23T11:21:27Z</time>
      </trkpt>
      <trkpt lat="43.29999" lon="5.66363">
        <ele>317.4</ele>
        <time>2022-02-23T11:21:33Z</time>
      </trkpt>
      <trkpt lat="43.30004" lon="5.66365">
        <ele>317.9</ele>
        <time>2022-02-23T11:21:39Z</time>
      </trkpt>
      <trkpt lat="43.30008" lon="5.6637">
        <ele>318</ele>
        <time>2022-02-23T11:21:47Z</time>
      </trkpt>
      <trkpt lat="43.30013" lon="5.66372">
        <ele>318.5</ele>
        <time>2022-02-23T11:21:53Z</time>
      </trkpt>
      <trkpt lat="43.30018" lon="5.66373">
        <ele>319.7</ele>
        <time>2022-02-23T11:21:59Z</time>
      </trkpt>
      <trkpt lat="43.30023" lon="5.66373">
        <ele>320.8</ele>
        <time>2022-02-23T11:22:05Z</time>
      </trkpt>
      <trkpt lat="43.30028" lon="5.66373">
        <ele>322.2</ele>
        <time>2022-02-23T11:22:13Z</time>
      </trkpt>
      <trkpt lat="43.30033" lon="5.66374">
        <ele>323.2</ele>
        <time>2022-02-23T11:22:19Z</time>
      </trkpt>
      <trkpt lat="43.30039" lon="5.66376">
        <ele>324.2</ele>
        <time>2022-02-23T11:22:25Z</time>
      </trkpt>
      <trkpt lat="43.30043" lon="5.66378">
        <ele>324.7</ele>
        <time>2022-02-23T11:22:31Z</time>
      </trkpt>
      <trkpt lat="43.30047" lon="5.66383">
        <ele>324.6</ele>
        <time>2022-02-23T11:22:37Z</time>
      </trkpt>
      <trkpt lat="43.30049" lon="5.6639">
        <ele>323.7</ele>
        <time>2022-02-23T11:22:43Z</time>
      </trkpt>
      <trkpt lat="43.30052" lon="5.66396">
        <ele>323.6</ele>
        <time>2022-02-23T11:22:49Z</time>
      </trkpt>
      <trkpt lat="43.30054" lon="5.66403">
        <ele>323</ele>
        <time>2022-02-23T11:22:55Z</time>
      </trkpt>
      <trkpt lat="43.30058" lon="5.66406">
        <ele>323.3</ele>
        <time>2022-02-23T11:23:01Z</time>
      </trkpt>
      <trkpt lat="43.30063" lon="5.66405">
        <ele>323.9</ele>
        <time>2022-02-23T11:23:05Z</time>
      </trkpt>
      <trkpt lat="43.30067" lon="5.66404">
        <ele>324.7</ele>
        <time>2022-02-23T11:23:13Z</time>
      </trkpt>
      <trkpt lat="43.30073" lon="5.66403">
        <ele>325.6</ele>
        <time>2022-02-23T11:23:23Z</time>
      </trkpt>
      <trkpt lat="43.30077" lon="5.664">
        <ele>326.8</ele>
        <time>2022-02-23T11:23:29Z</time>
      </trkpt>
      <trkpt lat="43.30082" lon="5.664">
        <ele>327.5</ele>
        <time>2022-02-23T11:23:37Z</time>
      </trkpt>
      <trkpt lat="43.30087" lon="5.66397">
        <ele>328.4</ele>
        <time>2022-02-23T11:23:47Z</time>
      </trkpt>
      <trkpt lat="43.30092" lon="5.66394">
        <ele>329.3</ele>
        <time>2022-02-23T11:23:53Z</time>
      </trkpt>
      <trkpt lat="43.30096" lon="5.66392">
        <ele>329.9</ele>
        <time>2022-02-23T11:24:03Z</time>
      </trkpt>
      <trkpt lat="43.30101" lon="5.66388">
        <ele>331</ele>
        <time>2022-02-23T11:24:13Z</time>
      </trkpt>
      <trkpt lat="43.30102" lon="5.66382">
        <ele>333.5</ele>
        <time>2022-02-23T11:24:27Z</time>
      </trkpt>
      <trkpt lat="43.30106" lon="5.6638">
        <ele>334.6</ele>
        <time>2022-02-23T11:25:23Z</time>
      </trkpt>
      <trkpt lat="43.30112" lon="5.66382">
        <ele>334.5</ele>
        <time>2022-02-23T11:25:43Z</time>
      </trkpt>
      <trkpt lat="43.30117" lon="5.66384">
        <ele>334.3</ele>
        <time>2022-02-23T11:25:51Z</time>
      </trkpt>
      <trkpt lat="43.30123" lon="5.66386">
        <ele>334.4</ele>
        <time>2022-02-23T11:25:59Z</time>
      </trkpt>
      <trkpt lat="43.30128" lon="5.66389">
        <ele>334</ele>
        <time>2022-02-23T11:26:07Z</time>
      </trkpt>
      <trkpt lat="43.30131" lon="5.66396">
        <ele>334.2</ele>
        <time>2022-02-23T11:26:13Z</time>
      </trkpt>
      <trkpt lat="43.30134" lon="5.66404">
        <ele>334.6</ele>
        <time>2022-02-23T11:26:19Z</time>
      </trkpt>
      <trkpt lat="43.30138" lon="5.66409">
        <ele>335.6</ele>
        <time>2022-02-23T11:26:25Z</time>
      </trkpt>
      <trkpt lat="43.30139" lon="5.66415">
        <ele>336.2</ele>
        <time>2022-02-23T11:26:31Z</time>
      </trkpt>
      <trkpt lat="43.3014" lon="5.66423">
        <ele>336.8</ele>
        <time>2022-02-23T11:26:37Z</time>
      </trkpt>
      <trkpt lat="43.30142" lon="5.66431">
        <ele>337.6</ele>
        <time>2022-02-23T11:26:43Z</time>
      </trkpt>
      <trkpt lat="43.30143" lon="5.66438">
        <ele>337.8</ele>
        <time>2022-02-23T11:26:47Z</time>
      </trkpt>
      <trkpt lat="43.30142" lon="5.66444">
        <ele>337.6</ele>
        <time>2022-02-23T11:26:51Z</time>
      </trkpt>
      <trkpt lat="43.30142" lon="5.66451">
        <ele>337.6</ele>
        <time>2022-02-23T11:26:55Z</time>
      </trkpt>
      <trkpt lat="43.30143" lon="5.66458">
        <ele>338.1</ele>
        <time>2022-02-23T11:26:59Z</time>
      </trkpt>
      <trkpt lat="43.30143" lon="5.66465">
        <ele>338.4</ele>
        <time>2022-02-23T11:27:03Z</time>
      </trkpt>
      <trkpt lat="43.30144" lon="5.66471">
        <ele>339.1</ele>
        <time>2022-02-23T11:27:07Z</time>
      </trkpt>
      <trkpt lat="43.30144" lon="5.6648">
        <ele>339.1</ele>
        <time>2022-02-23T11:27:13Z</time>
      </trkpt>
      <trkpt lat="43.30144" lon="5.66486">
        <ele>339</ele>
        <time>2022-02-23T11:27:17Z</time>
      </trkpt>
      <trkpt lat="43.30144" lon="5.66492">
        <ele>339</ele>
        <time>2022-02-23T11:27:21Z</time>
      </trkpt>
      <trkpt lat="43.30143" lon="5.665">
        <ele>338.6</ele>
        <time>2022-02-23T11:27:27Z</time>
      </trkpt>
      <trkpt lat="43.30141" lon="5.6651">
        <ele>338.9</ele>
        <time>2022-02-23T11:27:33Z</time>
      </trkpt>
      <trkpt lat="43.30138" lon="5.66515">
        <ele>338.3</ele>
        <time>2022-02-23T11:27:37Z</time>
      </trkpt>
      <trkpt lat="43.30136" lon="5.66524">
        <ele>338.2</ele>
        <time>2022-02-23T11:27:43Z</time>
      </trkpt>
      <trkpt lat="43.30137" lon="5.66532">
        <ele>339.8</ele>
        <time>2022-02-23T11:27:49Z</time>
      </trkpt>
      <trkpt lat="43.30136" lon="5.66541">
        <ele>341</ele>
        <time>2022-02-23T11:27:55Z</time>
      </trkpt>
      <trkpt lat="43.30135" lon="5.66548">
        <ele>341.9</ele>
        <time>2022-02-23T11:28:01Z</time>
      </trkpt>
      <trkpt lat="43.30132" lon="5.66554">
        <ele>341.7</ele>
        <time>2022-02-23T11:28:09Z</time>
      </trkpt>
      <trkpt lat="43.30128" lon="5.66561">
        <ele>341.1</ele>
        <time>2022-02-23T11:28:15Z</time>
      </trkpt>
      <trkpt lat="43.30122" lon="5.66565">
        <ele>339.7</ele>
        <time>2022-02-23T11:28:25Z</time>
      </trkpt>
      <trkpt lat="43.30116" lon="5.66569">
        <ele>338</ele>
        <time>2022-02-23T11:28:29Z</time>
      </trkpt>
      <trkpt lat="43.30108" lon="5.66577">
        <ele>337.9</ele>
        <time>2022-02-23T11:28:33Z</time>
      </trkpt>
      <trkpt lat="43.30103" lon="5.66583">
        <ele>337.8</ele>
        <time>2022-02-23T11:28:37Z</time>
      </trkpt>
      <trkpt lat="43.30099" lon="5.66589">
        <ele>338.2</ele>
        <time>2022-02-23T11:28:43Z</time>
      </trkpt>
      <trkpt lat="43.30096" lon="5.66594">
        <ele>338.3</ele>
        <time>2022-02-23T11:28:49Z</time>
      </trkpt>
      <trkpt lat="43.30093" lon="5.66601">
        <ele>339</ele>
        <time>2022-02-23T11:28:55Z</time>
      </trkpt>
      <trkpt lat="43.30092" lon="5.66608">
        <ele>339.9</ele>
        <time>2022-02-23T11:29:03Z</time>
      </trkpt>
      <trkpt lat="43.30089" lon="5.66612">
        <ele>339.8</ele>
        <time>2022-02-23T11:29:09Z</time>
      </trkpt>
      <trkpt lat="43.30083" lon="5.66614">
        <ele>336.7</ele>
        <time>2022-02-23T11:29:15Z</time>
      </trkpt>
      <trkpt lat="43.30077" lon="5.66614">
        <ele>333</ele>
        <time>2022-02-23T11:29:19Z</time>
      </trkpt>
      <trkpt lat="43.30071" lon="5.66613">
        <ele>328.3</ele>
        <time>2022-02-23T11:29:25Z</time>
      </trkpt>
      <trkpt lat="43.30066" lon="5.66611">
        <ele>323.9</ele>
        <time>2022-02-23T11:29:31Z</time>
      </trkpt>
      <trkpt lat="43.30061" lon="5.66612">
        <ele>321.2</ele>
        <time>2022-02-23T11:29:41Z</time>
      </trkpt>
      <trkpt lat="43.30057" lon="5.66617">
        <ele>323.2</ele>
        <time>2022-02-23T11:29:47Z</time>
      </trkpt>
      <trkpt lat="43.30055" lon="5.66624">
        <ele>329.2</ele>
        <time>2022-02-23T11:29:51Z</time>
      </trkpt>
      <trkpt lat="43.30053" lon="5.6663">
        <ele>332.9</ele>
        <time>2022-02-23T11:30:19Z</time>
      </trkpt>
      <trkpt lat="43.30058" lon="5.66628">
        <ele>334.4</ele>
        <time>2022-02-23T12:36:01Z</time>
      </trkpt>
      <trkpt lat="43.30053" lon="5.66627">
        <ele>330.4</ele>
        <time>2022-02-23T12:42:57Z</time>
      </trkpt>
      <trkpt lat="43.30057" lon="5.66624">
        <ele>330.1</ele>
        <time>2022-02-23T12:44:17Z</time>
      </trkpt>
      <trkpt lat="43.30052" lon="5.66627">
        <ele>329.7</ele>
        <time>2022-02-23T12:45:21Z</time>
      </trkpt>
      <trkpt lat="43.30056" lon="5.66624">
        <ele>328.6</ele>
        <time>2022-02-23T12:46:17Z</time>
      </trkpt>
      <trkpt lat="43.30051" lon="5.66628">
        <ele>330.2</ele>
        <time>2022-02-23T12:47:49Z</time>
      </trkpt>
      <trkpt lat="43.30056" lon="5.66628">
        <ele>333.6</ele>
        <time>2022-02-23T12:48:27Z</time>
      </trkpt>
      <trkpt lat="43.30055" lon="5.66627">
        <ele>331.5</ele>
        <time>2022-02-23T12:48:54Z</time>
      </trkpt>
      <trkpt lat="43.30057" lon="5.66622">
        <ele>328.1</ele>
        <time>2022-02-23T12:49:25Z</time>
      </trkpt>
      <trkpt lat="43.30062" lon="5.66618">
        <ele>327.6</ele>
        <time>2022-02-23T12:49:35Z</time>
      </trkpt>
      <trkpt lat="43.30065" lon="5.66614">
        <ele>325.5</ele>
        <time>2022-02-23T12:49:41Z</time>
      </trkpt>
      <trkpt lat="43.3007" lon="5.66612">
        <ele>327.8</ele>
        <time>2022-02-23T12:49:49Z</time>
      </trkpt>
      <trkpt lat="43.30076" lon="5.66614">
        <ele>332.7</ele>
        <time>2022-02-23T12:49:59Z</time>
      </trkpt>
      <trkpt lat="43.30081" lon="5.66614">
        <ele>335.9</ele>
        <time>2022-02-23T12:50:13Z</time>
      </trkpt>
      <trkpt lat="43.30086" lon="5.66614">
        <ele>339.1</ele>
        <time>2022-02-23T12:50:21Z</time>
      </trkpt>
      <trkpt lat="43.3009" lon="5.66609">
        <ele>338.8</ele>
        <time>2022-02-23T12:50:27Z</time>
      </trkpt>
      <trkpt lat="43.30093" lon="5.66602">
        <ele>339.1</ele>
        <time>2022-02-23T12:50:33Z</time>
      </trkpt>
      <trkpt lat="43.30094" lon="5.66595">
        <ele>337.9</ele>
        <time>2022-02-23T12:50:39Z</time>
      </trkpt>
      <trkpt lat="43.30099" lon="5.6659">
        <ele>338.8</ele>
        <time>2022-02-23T12:50:45Z</time>
      </trkpt>
      <trkpt lat="43.30105" lon="5.66587">
        <ele>340</ele>
        <time>2022-02-23T12:50:51Z</time>
      </trkpt>
      <trkpt lat="43.3011" lon="5.66585">
        <ele>341.6</ele>
        <time>2022-02-23T12:50:59Z</time>
      </trkpt>
      <trkpt lat="43.30113" lon="5.6658">
        <ele>340.6</ele>
        <time>2022-02-23T12:51:05Z</time>
      </trkpt>
      <trkpt lat="43.30132" lon="5.66564">
        <ele>343.2</ele>
        <time>2022-02-23T12:51:22Z</time>
      </trkpt>
      <trkpt lat="43.30134" lon="5.66556">
        <ele>342.9</ele>
        <time>2022-02-23T12:51:25Z</time>
      </trkpt>
      <trkpt lat="43.30139" lon="5.66553">
        <ele>344.6</ele>
        <time>2022-02-23T12:51:29Z</time>
      </trkpt>
      <trkpt lat="43.30138" lon="5.66546">
        <ele>343</ele>
        <time>2022-02-23T12:51:33Z</time>
      </trkpt>
      <trkpt lat="43.30139" lon="5.66538">
        <ele>341.9</ele>
        <time>2022-02-23T12:51:39Z</time>
      </trkpt>
      <trkpt lat="43.30137" lon="5.66531">
        <ele>339.7</ele>
        <time>2022-02-23T12:51:45Z</time>
      </trkpt>
      <trkpt lat="43.30138" lon="5.66523">
        <ele>338.9</ele>
        <time>2022-02-23T12:51:51Z</time>
      </trkpt>
      <trkpt lat="43.30142" lon="5.66517">
        <ele>340.2</ele>
        <time>2022-02-23T12:51:55Z</time>
      </trkpt>
      <trkpt lat="43.30145" lon="5.6651">
        <ele>340.8</ele>
        <time>2022-02-23T12:51:59Z</time>
      </trkpt>
      <trkpt lat="43.30147" lon="5.66504">
        <ele>341.1</ele>
        <time>2022-02-23T12:52:05Z</time>
      </trkpt>
      <trkpt lat="43.30151" lon="5.665">
        <ele>342.2</ele>
        <time>2022-02-23T12:52:11Z</time>
      </trkpt>
      <trkpt lat="43.30151" lon="5.6649">
        <ele>342.1</ele>
        <time>2022-02-23T12:52:17Z</time>
      </trkpt>
      <trkpt lat="43.30151" lon="5.66482">
        <ele>341.7</ele>
        <time>2022-02-23T12:52:21Z</time>
      </trkpt>
      <trkpt lat="43.3015" lon="5.66473">
        <ele>341.4</ele>
        <time>2022-02-23T12:52:27Z</time>
      </trkpt>
      <trkpt lat="43.3015" lon="5.66465">
        <ele>341.4</ele>
        <time>2022-02-23T12:52:33Z</time>
      </trkpt>
      <trkpt lat="43.3015" lon="5.66456">
        <ele>341.5</ele>
        <time>2022-02-23T12:52:39Z</time>
      </trkpt>
      <trkpt lat="43.30149" lon="5.66448">
        <ele>340.8</ele>
        <time>2022-02-23T12:52:45Z</time>
      </trkpt>
      <trkpt lat="43.30149" lon="5.66441">
        <ele>340.6</ele>
        <time>2022-02-23T12:52:49Z</time>
      </trkpt>
      <trkpt lat="43.30148" lon="5.66435">
        <ele>340.5</ele>
        <time>2022-02-23T12:52:53Z</time>
      </trkpt>
      <trkpt lat="43.30147" lon="5.66428">
        <ele>339.9</ele>
        <time>2022-02-23T12:52:57Z</time>
      </trkpt>
      <trkpt lat="43.30144" lon="5.6642">
        <ele>338.8</ele>
        <time>2022-02-23T12:53:03Z</time>
      </trkpt>
      <trkpt lat="43.30144" lon="5.66413">
        <ele>338.7</ele>
        <time>2022-02-23T12:53:07Z</time>
      </trkpt>
      <trkpt lat="43.30143" lon="5.66407">
        <ele>338.5</ele>
        <time>2022-02-23T12:53:11Z</time>
      </trkpt>
      <trkpt lat="43.30142" lon="5.66401">
        <ele>337.8</ele>
        <time>2022-02-23T12:53:15Z</time>
      </trkpt>
      <trkpt lat="43.3014" lon="5.66394">
        <ele>336.8</ele>
        <time>2022-02-23T12:53:19Z</time>
      </trkpt>
      <trkpt lat="43.30136" lon="5.66389">
        <ele>335.6</ele>
        <time>2022-02-23T12:53:23Z</time>
      </trkpt>
      <trkpt lat="43.30132" lon="5.66386">
        <ele>335.7</ele>
        <time>2022-02-23T12:53:27Z</time>
      </trkpt>
      <trkpt lat="43.30128" lon="5.66386">
        <ele>335.1</ele>
        <time>2022-02-23T12:53:31Z</time>
      </trkpt>
      <trkpt lat="43.30121" lon="5.66385">
        <ele>334.5</ele>
        <time>2022-02-23T12:53:37Z</time>
      </trkpt>
      <trkpt lat="43.30115" lon="5.66386">
        <ele>333</ele>
        <time>2022-02-23T12:53:43Z</time>
      </trkpt>
      <trkpt lat="43.3011" lon="5.66388">
        <ele>331.6</ele>
        <time>2022-02-23T12:53:47Z</time>
      </trkpt>
      <trkpt lat="43.30104" lon="5.66391">
        <ele>330.4</ele>
        <time>2022-02-23T12:53:51Z</time>
      </trkpt>
      <trkpt lat="43.301" lon="5.66394">
        <ele>329.6</ele>
        <time>2022-02-23T12:53:55Z</time>
      </trkpt>
      <trkpt lat="43.30096" lon="5.66398">
        <ele>328.6</ele>
        <time>2022-02-23T12:53:59Z</time>
      </trkpt>
      <trkpt lat="43.30091" lon="5.66401">
        <ele>327.8</ele>
        <time>2022-02-23T12:54:03Z</time>
      </trkpt>
      <trkpt lat="43.30087" lon="5.66403">
        <ele>327.1</ele>
        <time>2022-02-23T12:54:07Z</time>
      </trkpt>
      <trkpt lat="43.30081" lon="5.66406">
        <ele>326.1</ele>
        <time>2022-02-23T12:54:13Z</time>
      </trkpt>
      <trkpt lat="43.30075" lon="5.66407">
        <ele>325.1</ele>
        <time>2022-02-23T12:54:21Z</time>
      </trkpt>
      <trkpt lat="43.30069" lon="5.66409">
        <ele>324.1</ele>
        <time>2022-02-23T12:54:27Z</time>
      </trkpt>
      <trkpt lat="43.30064" lon="5.6641">
        <ele>323.2</ele>
        <time>2022-02-23T12:54:33Z</time>
      </trkpt>
      <trkpt lat="43.30058" lon="5.6641">
        <ele>322.5</ele>
        <time>2022-02-23T12:54:39Z</time>
      </trkpt>
      <trkpt lat="43.30052" lon="5.66409">
        <ele>321.5</ele>
        <time>2022-02-23T12:54:45Z</time>
      </trkpt>
      <trkpt lat="43.30047" lon="5.66404">
        <ele>320.8</ele>
        <time>2022-02-23T12:54:51Z</time>
      </trkpt>
      <trkpt lat="43.30043" lon="5.66397">
        <ele>320.5</ele>
        <time>2022-02-23T12:54:57Z</time>
      </trkpt>
      <trkpt lat="43.3004" lon="5.66392">
        <ele>320.5</ele>
        <time>2022-02-23T12:55:03Z</time>
      </trkpt>
      <trkpt lat="43.30035" lon="5.66386">
        <ele>320.2</ele>
        <time>2022-02-23T12:55:09Z</time>
      </trkpt>
      <trkpt lat="43.30029" lon="5.66384">
        <ele>318.9</ele>
        <time>2022-02-23T12:55:15Z</time>
      </trkpt>
      <trkpt lat="43.30023" lon="5.66383">
        <ele>317.8</ele>
        <time>2022-02-23T12:55:21Z</time>
      </trkpt>
      <trkpt lat="43.30017" lon="5.66381">
        <ele>316.9</ele>
        <time>2022-02-23T12:55:27Z</time>
      </trkpt>
      <trkpt lat="43.30012" lon="5.6638">
        <ele>316.2</ele>
        <time>2022-02-23T12:55:31Z</time>
      </trkpt>
      <trkpt lat="43.30007" lon="5.66379">
        <ele>315.2</ele>
        <time>2022-02-23T12:55:35Z</time>
      </trkpt>
      <trkpt lat="43.30002" lon="5.66378">
        <ele>314.2</ele>
        <time>2022-02-23T12:55:39Z</time>
      </trkpt>
      <trkpt lat="43.29997" lon="5.66375">
        <ele>313.8</ele>
        <time>2022-02-23T12:55:43Z</time>
      </trkpt>
      <trkpt lat="43.29993" lon="5.66373">
        <ele>313.4</ele>
        <time>2022-02-23T12:55:47Z</time>
      </trkpt>
      <trkpt lat="43.29986" lon="5.6637">
        <ele>313</ele>
        <time>2022-02-23T12:55:53Z</time>
      </trkpt>
      <trkpt lat="43.2998" lon="5.66368">
        <ele>312.3</ele>
        <time>2022-02-23T12:55:59Z</time>
      </trkpt>
      <trkpt lat="43.29975" lon="5.66366">
        <ele>311.8</ele>
        <time>2022-02-23T12:56:03Z</time>
      </trkpt>
      <trkpt lat="43.2997" lon="5.66365">
        <ele>311.2</ele>
        <time>2022-02-23T12:56:07Z</time>
      </trkpt>
      <trkpt lat="43.29964" lon="5.66364">
        <ele>310.7</ele>
        <time>2022-02-23T12:56:15Z</time>
      </trkpt>
      <trkpt lat="43.29958" lon="5.66365">
        <ele>309.4</ele>
        <time>2022-02-23T12:56:21Z</time>
      </trkpt>
      <trkpt lat="43.29952" lon="5.66365">
        <ele>308.5</ele>
        <time>2022-02-23T12:56:27Z</time>
      </trkpt>
      <trkpt lat="43.29945" lon="5.66364">
        <ele>307.9</ele>
        <time>2022-02-23T12:56:33Z</time>
      </trkpt>
      <trkpt lat="43.29939" lon="5.66363">
        <ele>307</ele>
        <time>2022-02-23T12:56:39Z</time>
      </trkpt>
      <trkpt lat="43.29934" lon="5.66363">
        <ele>305.7</ele>
        <time>2022-02-23T12:56:43Z</time>
      </trkpt>
      <trkpt lat="43.29928" lon="5.66363">
        <ele>304</ele>
        <time>2022-02-23T12:56:49Z</time>
      </trkpt>
      <trkpt lat="43.29922" lon="5.66362">
        <ele>303.1</ele>
        <time>2022-02-23T12:56:53Z</time>
      </trkpt>
      <trkpt lat="43.29917" lon="5.6636">
        <ele>302.3</ele>
        <time>2022-02-23T12:56:57Z</time>
      </trkpt>
      <trkpt lat="43.29912" lon="5.66359">
        <ele>300.9</ele>
        <time>2022-02-23T12:57:01Z</time>
      </trkpt>
      <trkpt lat="43.29907" lon="5.66355">
        <ele>300</ele>
        <time>2022-02-23T12:57:05Z</time>
      </trkpt>
      <trkpt lat="43.29903" lon="5.66349">
        <ele>299.8</ele>
        <time>2022-02-23T12:57:11Z</time>
      </trkpt>
      <trkpt lat="43.29899" lon="5.66344">
        <ele>299.9</ele>
        <time>2022-02-23T12:57:15Z</time>
      </trkpt>
      <trkpt lat="43.29895" lon="5.66339">
        <ele>299.6</ele>
        <time>2022-02-23T12:57:19Z</time>
      </trkpt>
      <trkpt lat="43.29892" lon="5.66335">
        <ele>299.5</ele>
        <time>2022-02-23T12:57:23Z</time>
      </trkpt>
      <trkpt lat="43.29887" lon="5.66333">
        <ele>298.9</ele>
        <time>2022-02-23T12:57:29Z</time>
      </trkpt>
      <trkpt lat="43.29882" lon="5.66332">
        <ele>298.6</ele>
        <time>2022-02-23T12:57:35Z</time>
      </trkpt>
      <trkpt lat="43.29877" lon="5.6633">
        <ele>298.4</ele>
        <time>2022-02-23T12:57:39Z</time>
      </trkpt>
      <trkpt lat="43.29871" lon="5.66329">
        <ele>297.9</ele>
        <time>2022-02-23T12:57:43Z</time>
      </trkpt>
      <trkpt lat="43.29866" lon="5.66326">
        <ele>297.5</ele>
        <time>2022-02-23T12:57:47Z</time>
      </trkpt>
      <trkpt lat="43.2986" lon="5.66322">
        <ele>297.2</ele>
        <time>2022-02-23T12:57:53Z</time>
      </trkpt>
      <trkpt lat="43.29855" lon="5.66319">
        <ele>296.6</ele>
        <time>2022-02-23T12:57:57Z</time>
      </trkpt>
      <trkpt lat="43.2985" lon="5.66316">
        <ele>296</ele>
        <time>2022-02-23T12:58:01Z</time>
      </trkpt>
      <trkpt lat="43.29845" lon="5.66312">
        <ele>295.4</ele>
        <time>2022-02-23T12:58:07Z</time>
      </trkpt>
      <trkpt lat="43.29841" lon="5.66309">
        <ele>295</ele>
        <time>2022-02-23T12:58:11Z</time>
      </trkpt>
      <trkpt lat="43.29836" lon="5.66306">
        <ele>294.5</ele>
        <time>2022-02-23T12:58:15Z</time>
      </trkpt>
      <trkpt lat="43.29831" lon="5.66304">
        <ele>293.7</ele>
        <time>2022-02-23T12:58:19Z</time>
      </trkpt>
      <trkpt lat="43.29826" lon="5.66301">
        <ele>292.9</ele>
        <time>2022-02-23T12:58:25Z</time>
      </trkpt>
      <trkpt lat="43.29821" lon="5.66299">
        <ele>292.3</ele>
        <time>2022-02-23T12:58:31Z</time>
      </trkpt>
      <trkpt lat="43.29816" lon="5.66295">
        <ele>292.3</ele>
        <time>2022-02-23T12:58:37Z</time>
      </trkpt>
      <trkpt lat="43.29811" lon="5.66292">
        <ele>292.1</ele>
        <time>2022-02-23T12:58:41Z</time>
      </trkpt>
      <trkpt lat="43.29807" lon="5.66291">
        <ele>291.9</ele>
        <time>2022-02-23T12:58:45Z</time>
      </trkpt>
      <trkpt lat="43.29802" lon="5.66289">
        <ele>291.9</ele>
        <time>2022-02-23T12:58:49Z</time>
      </trkpt>
      <trkpt lat="43.29796" lon="5.66287">
        <ele>291.4</ele>
        <time>2022-02-23T12:58:55Z</time>
      </trkpt>
      <trkpt lat="43.29792" lon="5.66286">
        <ele>291</ele>
        <time>2022-02-23T12:58:59Z</time>
      </trkpt>
      <trkpt lat="43.29786" lon="5.66289">
        <ele>289.7</ele>
        <time>2022-02-23T12:59:05Z</time>
      </trkpt>
      <trkpt lat="43.2978" lon="5.66288">
        <ele>289.2</ele>
        <time>2022-02-23T12:59:09Z</time>
      </trkpt>
      <trkpt lat="43.29774" lon="5.66291">
        <ele>287.8</ele>
        <time>2022-02-23T12:59:13Z</time>
      </trkpt>
      <trkpt lat="43.29769" lon="5.66293">
        <ele>286.7</ele>
        <time>2022-02-23T12:59:17Z</time>
      </trkpt>
      <trkpt lat="43.29764" lon="5.66292">
        <ele>286.4</ele>
        <time>2022-02-23T12:59:21Z</time>
      </trkpt>
      <trkpt lat="43.29759" lon="5.66292">
        <ele>285.9</ele>
        <time>2022-02-23T12:59:25Z</time>
      </trkpt>
      <trkpt lat="43.29754" lon="5.66289">
        <ele>286.2</ele>
        <time>2022-02-23T12:59:31Z</time>
      </trkpt>
      <trkpt lat="43.29749" lon="5.66286">
        <ele>286.4</ele>
        <time>2022-02-23T12:59:35Z</time>
      </trkpt>
      <trkpt lat="43.29744" lon="5.66285">
        <ele>285.6</ele>
        <time>2022-02-23T12:59:39Z</time>
      </trkpt>
      <trkpt lat="43.29739" lon="5.66283">
        <ele>284.5</ele>
        <time>2022-02-23T12:59:43Z</time>
      </trkpt>
      <trkpt lat="43.29734" lon="5.66281">
        <ele>283.5</ele>
        <time>2022-02-23T12:59:47Z</time>
      </trkpt>
      <trkpt lat="43.29729" lon="5.66278">
        <ele>282.1</ele>
        <time>2022-02-23T12:59:53Z</time>
      </trkpt>
      <trkpt lat="43.29724" lon="5.66276">
        <ele>281</ele>
        <time>2022-02-23T12:59:57Z</time>
      </trkpt>
      <trkpt lat="43.2972" lon="5.66273">
        <ele>280.5</ele>
        <time>2022-02-23T13:00:01Z</time>
      </trkpt>
      <trkpt lat="43.29716" lon="5.66271">
        <ele>280.3</ele>
        <time>2022-02-23T13:00:05Z</time>
      </trkpt>
      <trkpt lat="43.29711" lon="5.66268">
        <ele>280</ele>
        <time>2022-02-23T13:00:09Z</time>
      </trkpt>
      <trkpt lat="43.29706" lon="5.66263">
        <ele>279.8</ele>
        <time>2022-02-23T13:00:15Z</time>
      </trkpt>
      <trkpt lat="43.29701" lon="5.6626">
        <ele>279.5</ele>
        <time>2022-02-23T13:00:19Z</time>
      </trkpt>
      <trkpt lat="43.29695" lon="5.66256">
        <ele>279.1</ele>
        <time>2022-02-23T13:00:23Z</time>
      </trkpt>
      <trkpt lat="43.2969" lon="5.66254">
        <ele>278.7</ele>
        <time>2022-02-23T13:00:29Z</time>
      </trkpt>
      <trkpt lat="43.29685" lon="5.66254">
        <ele>278.2</ele>
        <time>2022-02-23T13:00:35Z</time>
      </trkpt>
      <trkpt lat="43.2968" lon="5.66253">
        <ele>278</ele>
        <time>2022-02-23T13:00:41Z</time>
      </trkpt>
      <trkpt lat="43.29673" lon="5.66251">
        <ele>277.5</ele>
        <time>2022-02-23T13:00:47Z</time>
      </trkpt>
      <trkpt lat="43.29668" lon="5.6625">
        <ele>277.1</ele>
        <time>2022-02-23T13:00:53Z</time>
      </trkpt>
      <trkpt lat="43.29663" lon="5.66251">
        <ele>276.9</ele>
        <time>2022-02-23T13:00:57Z</time>
      </trkpt>
      <trkpt lat="43.29657" lon="5.66252">
        <ele>276.7</ele>
        <time>2022-02-23T13:01:03Z</time>
      </trkpt>
      <trkpt lat="43.29651" lon="5.66254">
        <ele>276.4</ele>
        <time>2022-02-23T13:01:09Z</time>
      </trkpt>
      <trkpt lat="43.29646" lon="5.66255">
        <ele>276.3</ele>
        <time>2022-02-23T13:01:13Z</time>
      </trkpt>
      <trkpt lat="43.29641" lon="5.66256">
        <ele>276</ele>
        <time>2022-02-23T13:01:17Z</time>
      </trkpt>
      <trkpt lat="43.29636" lon="5.66257">
        <ele>275.8</ele>
        <time>2022-02-23T13:01:23Z</time>
      </trkpt>
      <trkpt lat="43.2963" lon="5.6626">
        <ele>275.3</ele>
        <time>2022-02-23T13:01:29Z</time>
      </trkpt>
      <trkpt lat="43.29625" lon="5.6626">
        <ele>275.3</ele>
        <time>2022-02-23T13:01:33Z</time>
      </trkpt>
      <trkpt lat="43.2962" lon="5.66259">
        <ele>275.6</ele>
        <time>2022-02-23T13:01:37Z</time>
      </trkpt>
      <trkpt lat="43.29614" lon="5.66259">
        <ele>275.6</ele>
        <time>2022-02-23T13:01:41Z</time>
      </trkpt>
      <trkpt lat="43.2961" lon="5.6626">
        <ele>275.4</ele>
        <time>2022-02-23T13:01:45Z</time>
      </trkpt>
      <trkpt lat="43.29605" lon="5.66262">
        <ele>274.9</ele>
        <time>2022-02-23T13:01:51Z</time>
      </trkpt>
      <trkpt lat="43.29599" lon="5.66264">
        <ele>274.4</ele>
        <time>2022-02-23T13:01:57Z</time>
      </trkpt>
      <trkpt lat="43.29594" lon="5.66266">
        <ele>273.9</ele>
        <time>2022-02-23T13:02:01Z</time>
      </trkpt>
      <trkpt lat="43.2959" lon="5.66268">
        <ele>273.4</ele>
        <time>2022-02-23T13:02:05Z</time>
      </trkpt>
      <trkpt lat="43.29583" lon="5.66267">
        <ele>273.7</ele>
        <time>2022-02-23T13:02:11Z</time>
      </trkpt>
      <trkpt lat="43.29579" lon="5.66268">
        <ele>272.9</ele>
        <time>2022-02-23T13:02:15Z</time>
      </trkpt>
      <trkpt lat="43.29574" lon="5.66267">
        <ele>272.5</ele>
        <time>2022-02-23T13:02:19Z</time>
      </trkpt>
      <trkpt lat="43.29568" lon="5.66266">
        <ele>272</ele>
        <time>2022-02-23T13:02:25Z</time>
      </trkpt>
      <trkpt lat="43.29562" lon="5.66265">
        <ele>271.4</ele>
        <time>2022-02-23T13:02:31Z</time>
      </trkpt>
      <trkpt lat="43.29557" lon="5.66264">
        <ele>271</ele>
        <time>2022-02-23T13:02:37Z</time>
      </trkpt>
      <trkpt lat="43.29549" lon="5.66263">
        <ele>270.7</ele>
        <time>2022-02-23T13:02:43Z</time>
      </trkpt>
      <trkpt lat="43.29543" lon="5.66263">
        <ele>270.3</ele>
        <time>2022-02-23T13:02:47Z</time>
      </trkpt>
      <trkpt lat="43.29537" lon="5.66265">
        <ele>269.5</ele>
        <time>2022-02-23T13:02:51Z</time>
      </trkpt>
      <trkpt lat="43.29532" lon="5.66266">
        <ele>269</ele>
        <time>2022-02-23T13:02:55Z</time>
      </trkpt>
      <trkpt lat="43.29526" lon="5.66267">
        <ele>268.4</ele>
        <time>2022-02-23T13:02:59Z</time>
      </trkpt>
      <trkpt lat="43.29522" lon="5.6627">
        <ele>267.7</ele>
        <time>2022-02-23T13:03:05Z</time>
      </trkpt>
      <trkpt lat="43.29516" lon="5.66273">
        <ele>267</ele>
        <time>2022-02-23T13:03:13Z</time>
      </trkpt>
      <trkpt lat="43.2951" lon="5.66272">
        <ele>266.8</ele>
        <time>2022-02-23T13:03:19Z</time>
      </trkpt>
      <trkpt lat="43.29505" lon="5.66273">
        <ele>266.3</ele>
        <time>2022-02-23T13:03:25Z</time>
      </trkpt>
      <trkpt lat="43.29498" lon="5.66273">
        <ele>266</ele>
        <time>2022-02-23T13:03:31Z</time>
      </trkpt>
      <trkpt lat="43.29493" lon="5.66273">
        <ele>265.8</ele>
        <time>2022-02-23T13:03:35Z</time>
      </trkpt>
      <trkpt lat="43.29487" lon="5.66273">
        <ele>265.6</ele>
        <time>2022-02-23T13:03:39Z</time>
      </trkpt>
      <trkpt lat="43.29483" lon="5.66274">
        <ele>265.3</ele>
        <time>2022-02-23T13:03:43Z</time>
      </trkpt>
      <trkpt lat="43.29478" lon="5.66274">
        <ele>265.1</ele>
        <time>2022-02-23T13:03:47Z</time>
      </trkpt>
      <trkpt lat="43.29472" lon="5.66274">
        <ele>264.8</ele>
        <time>2022-02-23T13:03:51Z</time>
      </trkpt>
      <trkpt lat="43.29467" lon="5.66275">
        <ele>264.9</ele>
        <time>2022-02-23T13:03:55Z</time>
      </trkpt>
      <trkpt lat="43.29462" lon="5.66275">
        <ele>264.7</ele>
        <time>2022-02-23T13:03:59Z</time>
      </trkpt>
      <trkpt lat="43.29456" lon="5.66277">
        <ele>264.3</ele>
        <time>2022-02-23T13:04:03Z</time>
      </trkpt>
      <trkpt lat="43.29452" lon="5.66281">
        <ele>264.1</ele>
        <time>2022-02-23T13:04:07Z</time>
      </trkpt>
      <trkpt lat="43.29447" lon="5.66287">
        <ele>264.1</ele>
        <time>2022-02-23T13:04:13Z</time>
      </trkpt>
      <trkpt lat="43.29444" lon="5.66293">
        <ele>264</ele>
        <time>2022-02-23T13:04:19Z</time>
      </trkpt>
      <trkpt lat="43.2944" lon="5.66295">
        <ele>264</ele>
        <time>2022-02-23T13:04:23Z</time>
      </trkpt>
      <trkpt lat="43.29434" lon="5.66295">
        <ele>263.9</ele>
        <time>2022-02-23T13:04:27Z</time>
      </trkpt>
      <trkpt lat="43.29429" lon="5.66294">
        <ele>263.9</ele>
        <time>2022-02-23T13:04:31Z</time>
      </trkpt>
      <trkpt lat="43.29425" lon="5.66294">
        <ele>263.9</ele>
        <time>2022-02-23T13:04:35Z</time>
      </trkpt>
      <trkpt lat="43.2942" lon="5.66294">
        <ele>263.8</ele>
        <time>2022-02-23T13:04:41Z</time>
      </trkpt>
      <trkpt lat="43.29415" lon="5.66294">
        <ele>263.7</ele>
        <time>2022-02-23T13:04:45Z</time>
      </trkpt>
      <trkpt lat="43.2941" lon="5.66295">
        <ele>263.4</ele>
        <time>2022-02-23T13:04:49Z</time>
      </trkpt>
      <trkpt lat="43.29406" lon="5.66295">
        <ele>263.1</ele>
        <time>2022-02-23T13:04:53Z</time>
      </trkpt>
      <trkpt lat="43.294" lon="5.66294">
        <ele>262.9</ele>
        <time>2022-02-23T13:04:57Z</time>
      </trkpt>
      <trkpt lat="43.29394" lon="5.66293">
        <ele>262.7</ele>
        <time>2022-02-23T13:05:01Z</time>
      </trkpt>
      <trkpt lat="43.29389" lon="5.66291">
        <ele>262.5</ele>
        <time>2022-02-23T13:05:05Z</time>
      </trkpt>
      <trkpt lat="43.29383" lon="5.66289">
        <ele>262.3</ele>
        <time>2022-02-23T13:05:09Z</time>
      </trkpt>
      <trkpt lat="43.29379" lon="5.66286">
        <ele>262.1</ele>
        <time>2022-02-23T13:05:13Z</time>
      </trkpt>
      <trkpt lat="43.29374" lon="5.66282">
        <ele>261.8</ele>
        <time>2022-02-23T13:05:17Z</time>
      </trkpt>
      <trkpt lat="43.2937" lon="5.66278">
        <ele>261.2</ele>
        <time>2022-02-23T13:05:21Z</time>
      </trkpt>
      <trkpt lat="43.29364" lon="5.66274">
        <ele>261.3</ele>
        <time>2022-02-23T13:05:27Z</time>
      </trkpt>
      <trkpt lat="43.2936" lon="5.66271">
        <ele>261.6</ele>
        <time>2022-02-23T13:05:31Z</time>
      </trkpt>
      <trkpt lat="43.29356" lon="5.66268">
        <ele>262.2</ele>
        <time>2022-02-23T13:05:37Z</time>
      </trkpt>
      <trkpt lat="43.29352" lon="5.66265">
        <ele>262.4</ele>
        <time>2022-02-23T13:05:43Z</time>
      </trkpt>
      <trkpt lat="43.29347" lon="5.6626">
        <ele>262.6</ele>
        <time>2022-02-23T13:05:49Z</time>
      </trkpt>
      <trkpt lat="43.29343" lon="5.66256">
        <ele>262.5</ele>
        <time>2022-02-23T13:05:55Z</time>
      </trkpt>
      <trkpt lat="43.29338" lon="5.6625">
        <ele>262</ele>
        <time>2022-02-23T13:06:01Z</time>
      </trkpt>
      <trkpt lat="43.29334" lon="5.66245">
        <ele>261.6</ele>
        <time>2022-02-23T13:06:07Z</time>
      </trkpt>
      <trkpt lat="43.2933" lon="5.66244">
        <ele>261.2</ele>
        <time>2022-02-23T13:06:13Z</time>
      </trkpt>
      <trkpt lat="43.29326" lon="5.66239">
        <ele>261.2</ele>
        <time>2022-02-23T13:06:21Z</time>
      </trkpt>
      <trkpt lat="43.29323" lon="5.66232">
        <ele>261.4</ele>
        <time>2022-02-23T13:07:51Z</time>
      </trkpt>
      <trkpt lat="43.2932" lon="5.66223">
        <ele>261.5</ele>
        <time>2022-02-23T13:07:57Z</time>
      </trkpt>
      <trkpt lat="43.29315" lon="5.66218">
        <ele>261.4</ele>
        <time>2022-02-23T13:08:03Z</time>
      </trkpt>
      <trkpt lat="43.29311" lon="5.66213">
        <ele>261.2</ele>
        <time>2022-02-23T13:08:07Z</time>
      </trkpt>
      <trkpt lat="43.29307" lon="5.66208">
        <ele>260.8</ele>
        <time>2022-02-23T13:08:11Z</time>
      </trkpt>
      <trkpt lat="43.29305" lon="5.66203">
        <ele>260.6</ele>
        <time>2022-02-23T13:08:15Z</time>
      </trkpt>
      <trkpt lat="43.29301" lon="5.66195">
        <ele>260.6</ele>
        <time>2022-02-23T13:08:21Z</time>
      </trkpt>
      <trkpt lat="43.29296" lon="5.6619">
        <ele>261</ele>
        <time>2022-02-23T13:08:27Z</time>
      </trkpt>
      <trkpt lat="43.29292" lon="5.66187">
        <ele>261.1</ele>
        <time>2022-02-23T13:08:31Z</time>
      </trkpt>
      <trkpt lat="43.29288" lon="5.66184">
        <ele>261.1</ele>
        <time>2022-02-23T13:08:35Z</time>
      </trkpt>
      <trkpt lat="43.29282" lon="5.6618">
        <ele>261</ele>
        <time>2022-02-23T13:08:41Z</time>
      </trkpt>
      <trkpt lat="43.29277" lon="5.66178">
        <ele>260.7</ele>
        <time>2022-02-23T13:08:47Z</time>
      </trkpt>
      <trkpt lat="43.29272" lon="5.66175">
        <ele>260.6</ele>
        <time>2022-02-23T13:08:53Z</time>
      </trkpt>
      <trkpt lat="43.29266" lon="5.66172">
        <ele>260.3</ele>
        <time>2022-02-23T13:08:59Z</time>
      </trkpt>
      <trkpt lat="43.2926" lon="5.6617">
        <ele>259.8</ele>
        <time>2022-02-23T13:09:05Z</time>
      </trkpt>
      <trkpt lat="43.29253" lon="5.66168">
        <ele>259.3</ele>
        <time>2022-02-23T13:09:11Z</time>
      </trkpt>
      <trkpt lat="43.29249" lon="5.66166">
        <ele>259.1</ele>
        <time>2022-02-23T13:09:15Z</time>
      </trkpt>
      <trkpt lat="43.29245" lon="5.66163">
        <ele>259.5</ele>
        <time>2022-02-23T13:09:19Z</time>
      </trkpt>
      <trkpt lat="43.2924" lon="5.66159">
        <ele>259.8</ele>
        <time>2022-02-23T13:09:25Z</time>
      </trkpt>
      <trkpt lat="43.29236" lon="5.66155">
        <ele>259.9</ele>
        <time>2022-02-23T13:09:29Z</time>
      </trkpt>
      <trkpt lat="43.29231" lon="5.6615">
        <ele>259.8</ele>
        <time>2022-02-23T13:09:35Z</time>
      </trkpt>
      <trkpt lat="43.29227" lon="5.66147">
        <ele>259.4</ele>
        <time>2022-02-23T13:09:39Z</time>
      </trkpt>
      <trkpt lat="43.29223" lon="5.66141">
        <ele>259.1</ele>
        <time>2022-02-23T13:09:45Z</time>
      </trkpt>
      <trkpt lat="43.29218" lon="5.66135">
        <ele>259.5</ele>
        <time>2022-02-23T13:09:51Z</time>
      </trkpt>
      <trkpt lat="43.29214" lon="5.66131">
        <ele>259.8</ele>
        <time>2022-02-23T13:09:55Z</time>
      </trkpt>
      <trkpt lat="43.29209" lon="5.66128">
        <ele>259.8</ele>
        <time>2022-02-23T13:09:59Z</time>
      </trkpt>
      <trkpt lat="43.29205" lon="5.66125">
        <ele>259.6</ele>
        <time>2022-02-23T13:10:03Z</time>
      </trkpt>
      <trkpt lat="43.292" lon="5.66123">
        <ele>259.2</ele>
        <time>2022-02-23T13:10:07Z</time>
      </trkpt>
      <trkpt lat="43.29196" lon="5.66119">
        <ele>258.6</ele>
        <time>2022-02-23T13:10:11Z</time>
      </trkpt>
      <trkpt lat="43.2919" lon="5.66115">
        <ele>258.2</ele>
        <time>2022-02-23T13:10:17Z</time>
      </trkpt>
      <trkpt lat="43.29186" lon="5.66112">
        <ele>258</ele>
        <time>2022-02-23T13:10:21Z</time>
      </trkpt>
      <trkpt lat="43.29181" lon="5.66112">
        <ele>257.4</ele>
        <time>2022-02-23T13:10:29Z</time>
      </trkpt>
      <trkpt lat="43.29176" lon="5.66116">
        <ele>256.5</ele>
        <time>2022-02-23T13:10:35Z</time>
      </trkpt>
      <trkpt lat="43.29176" lon="5.66124">
        <ele>255.7</ele>
        <time>2022-02-23T13:10:41Z</time>
      </trkpt>
      <trkpt lat="43.29175" lon="5.66133">
        <ele>254.7</ele>
        <time>2022-02-23T13:10:47Z</time>
      </trkpt>
      <trkpt lat="43.29175" lon="5.66139">
        <ele>254.2</ele>
        <time>2022-02-23T13:10:51Z</time>
      </trkpt>
      <trkpt lat="43.29176" lon="5.66146">
        <ele>254.5</ele>
        <time>2022-02-23T13:10:55Z</time>
      </trkpt>
      <trkpt lat="43.29176" lon="5.66153">
        <ele>254.6</ele>
        <time>2022-02-23T13:10:59Z</time>
      </trkpt>
      <trkpt lat="43.29175" lon="5.6616">
        <ele>254.7</ele>
        <time>2022-02-23T13:11:05Z</time>
      </trkpt>
      <trkpt lat="43.29175" lon="5.66167">
        <ele>254.9</ele>
        <time>2022-02-23T13:11:11Z</time>
      </trkpt>
      <trkpt lat="43.29174" lon="5.66173">
        <ele>255</ele>
        <time>2022-02-23T13:11:15Z</time>
      </trkpt>
      <trkpt lat="43.29172" lon="5.6618">
        <ele>255.1</ele>
        <time>2022-02-23T13:11:21Z</time>
      </trkpt>
      <trkpt lat="43.2917" lon="5.66186">
        <ele>255.4</ele>
        <time>2022-02-23T13:11:27Z</time>
      </trkpt>
      <trkpt lat="43.29172" lon="5.66193">
        <ele>255.7</ele>
        <time>2022-02-23T13:11:37Z</time>
      </trkpt>
      <trkpt lat="43.29176" lon="5.66198">
        <ele>256</ele>
        <time>2022-02-23T13:11:43Z</time>
      </trkpt>
      <trkpt lat="43.29179" lon="5.66203">
        <ele>256.4</ele>
        <time>2022-02-23T13:11:49Z</time>
      </trkpt>
      <trkpt lat="43.29182" lon="5.6621">
        <ele>256.9</ele>
        <time>2022-02-23T13:11:55Z</time>
      </trkpt>
      <trkpt lat="43.29181" lon="5.66216">
        <ele>257.5</ele>
        <time>2022-02-23T13:12:01Z</time>
      </trkpt>
      <trkpt lat="43.29181" lon="5.66223">
        <ele>258</ele>
        <time>2022-02-23T13:12:05Z</time>
      </trkpt>
      <trkpt lat="43.29181" lon="5.66229">
        <ele>258.1</ele>
        <time>2022-02-23T13:12:09Z</time>
      </trkpt>
      <trkpt lat="43.29179" lon="5.66238">
        <ele>258.3</ele>
        <time>2022-02-23T13:12:15Z</time>
      </trkpt>
      <trkpt lat="43.29178" lon="5.66244">
        <ele>258.5</ele>
        <time>2022-02-23T13:12:19Z</time>
      </trkpt>
      <trkpt lat="43.29174" lon="5.6625">
        <ele>258.7</ele>
        <time>2022-02-23T13:12:25Z</time>
      </trkpt>
      <trkpt lat="43.29169" lon="5.66254">
        <ele>259</ele>
        <time>2022-02-23T13:12:33Z</time>
      </trkpt>
      <trkpt lat="43.29167" lon="5.66261">
        <ele>259.4</ele>
        <time>2022-02-23T13:12:39Z</time>
      </trkpt>
      <trkpt lat="43.29166" lon="5.6627">
        <ele>259.7</ele>
        <time>2022-02-23T13:12:45Z</time>
      </trkpt>
      <trkpt lat="43.29165" lon="5.66278">
        <ele>260.2</ele>
        <time>2022-02-23T13:12:49Z</time>
      </trkpt>
      <trkpt lat="43.29161" lon="5.66285">
        <ele>261.7</ele>
        <time>2022-02-23T13:12:55Z</time>
      </trkpt>
      <trkpt lat="43.29157" lon="5.66289">
        <ele>262.6</ele>
        <time>2022-02-23T13:13:01Z</time>
      </trkpt>
      <trkpt lat="43.29155" lon="5.66295">
        <ele>263.9</ele>
        <time>2022-02-23T13:13:11Z</time>
      </trkpt>
      <trkpt lat="43.2915" lon="5.663">
        <ele>264.6</ele>
        <time>2022-02-23T13:13:19Z</time>
      </trkpt>
      <trkpt lat="43.29143" lon="5.66303">
        <ele>264.8</ele>
        <time>2022-02-23T13:13:25Z</time>
      </trkpt>
      <trkpt lat="43.29139" lon="5.66305">
        <ele>264.9</ele>
        <time>2022-02-23T13:13:29Z</time>
      </trkpt>
      <trkpt lat="43.29132" lon="5.66309">
        <ele>266.6</ele>
        <time>2022-02-23T13:13:33Z</time>
      </trkpt>
      <trkpt lat="43.29128" lon="5.66311">
        <ele>268.1</ele>
        <time>2022-02-23T13:13:37Z</time>
      </trkpt>
      <trkpt lat="43.29124" lon="5.66312">
        <ele>268.6</ele>
        <time>2022-02-23T13:13:41Z</time>
      </trkpt>
      <trkpt lat="43.29118" lon="5.66312">
        <ele>268.4</ele>
        <time>2022-02-23T13:13:47Z</time>
      </trkpt>
      <trkpt lat="43.29114" lon="5.66307">
        <ele>265.7</ele>
        <time>2022-02-23T13:14:01Z</time>
      </trkpt>
      <trkpt lat="43.29111" lon="5.66301">
        <ele>264.5</ele>
        <time>2022-02-23T13:14:09Z</time>
      </trkpt>
      <trkpt lat="43.29108" lon="5.66295">
        <ele>264.1</ele>
        <time>2022-02-23T13:14:17Z</time>
      </trkpt>
      <trkpt lat="43.29104" lon="5.66289">
        <ele>263.6</ele>
        <time>2022-02-23T13:14:29Z</time>
      </trkpt>
      <trkpt lat="43.29101" lon="5.66284">
        <ele>263.1</ele>
        <time>2022-02-23T13:14:35Z</time>
      </trkpt>
      <trkpt lat="43.29099" lon="5.66276">
        <ele>262.3</ele>
        <time>2022-02-23T13:14:47Z</time>
      </trkpt>
      <trkpt lat="43.29095" lon="5.66272">
        <ele>262.2</ele>
        <time>2022-02-23T13:14:55Z</time>
      </trkpt>
      <trkpt lat="43.29093" lon="5.66266">
        <ele>261.8</ele>
        <time>2022-02-23T13:15:15Z</time>
      </trkpt>
      <trkpt lat="43.29093" lon="5.6626">
        <ele>261.4</ele>
        <time>2022-02-23T13:15:39Z</time>
      </trkpt>
      <trkpt lat="43.29097" lon="5.66257">
        <ele>261</ele>
        <time>2022-02-23T13:16:17Z</time>
      </trkpt>
      <trkpt lat="43.29093" lon="5.66252">
        <ele>260.8</ele>
        <time>2022-02-23T13:16:57Z</time>
      </trkpt>
      <trkpt lat="43.29094" lon="5.66244">
        <ele>260.1</ele>
        <time>2022-02-23T13:17:13Z</time>
      </trkpt>
      <trkpt lat="43.29096" lon="5.66238">
        <ele>259.7</ele>
        <time>2022-02-23T13:17:23Z</time>
      </trkpt>
      <trkpt lat="43.29094" lon="5.66232">
        <ele>259.3</ele>
        <time>2022-02-23T13:17:33Z</time>
      </trkpt>
      <trkpt lat="43.2909" lon="5.66228">
        <ele>259.2</ele>
        <time>2022-02-23T13:17:47Z</time>
      </trkpt>
      <trkpt lat="43.29085" lon="5.66222">
        <ele>258.9</ele>
        <time>2022-02-23T13:18:29Z</time>
      </trkpt>
      <trkpt lat="43.29081" lon="5.6622">
        <ele>258.8</ele>
        <time>2022-02-23T13:18:33Z</time>
      </trkpt>
      <trkpt lat="43.29076" lon="5.66217">
        <ele>258.7</ele>
        <time>2022-02-23T13:18:37Z</time>
      </trkpt>
      <trkpt lat="43.29071" lon="5.66215">
        <ele>258.6</ele>
        <time>2022-02-23T13:18:41Z</time>
      </trkpt>
      <trkpt lat="43.29066" lon="5.66213">
        <ele>258.6</ele>
        <time>2022-02-23T13:18:45Z</time>
      </trkpt>
      <trkpt lat="43.29061" lon="5.66212">
        <ele>258.5</ele>
        <time>2022-02-23T13:18:51Z</time>
      </trkpt>
      <trkpt lat="43.29056" lon="5.66211">
        <ele>258.6</ele>
        <time>2022-02-23T13:18:57Z</time>
      </trkpt>
      <trkpt lat="43.29051" lon="5.66208">
        <ele>258.6</ele>
        <time>2022-02-23T13:19:05Z</time>
      </trkpt>
      <trkpt lat="43.29046" lon="5.66207">
        <ele>258.6</ele>
        <time>2022-02-23T13:19:13Z</time>
      </trkpt>
      <trkpt lat="43.29042" lon="5.662">
        <ele>258.3</ele>
        <time>2022-02-23T13:19:21Z</time>
      </trkpt>
      <trkpt lat="43.29039" lon="5.66194">
        <ele>258</ele>
        <time>2022-02-23T13:19:27Z</time>
      </trkpt>
      <trkpt lat="43.29039" lon="5.66187">
        <ele>257.6</ele>
        <time>2022-02-23T13:19:33Z</time>
      </trkpt>
      <trkpt lat="43.29038" lon="5.66179">
        <ele>257.3</ele>
        <time>2022-02-23T13:19:39Z</time>
      </trkpt>
      <trkpt lat="43.29038" lon="5.66173">
        <ele>256.9</ele>
        <time>2022-02-23T13:19:45Z</time>
      </trkpt>
      <trkpt lat="43.29039" lon="5.66165">
        <ele>256.5</ele>
        <time>2022-02-23T13:19:53Z</time>
      </trkpt>
      <trkpt lat="43.29042" lon="5.66159">
        <ele>256.1</ele>
        <time>2022-02-23T13:19:57Z</time>
      </trkpt>
      <trkpt lat="43.29045" lon="5.66154">
        <ele>255.7</ele>
        <time>2022-02-23T13:20:01Z</time>
      </trkpt>
      <trkpt lat="43.29048" lon="5.66148">
        <ele>255.4</ele>
        <time>2022-02-23T13:20:07Z</time>
      </trkpt>
      <trkpt lat="43.29049" lon="5.66141">
        <ele>255.1</ele>
        <time>2022-02-23T13:20:13Z</time>
      </trkpt>
      <trkpt lat="43.29051" lon="5.66135">
        <ele>254.9</ele>
        <time>2022-02-23T13:20:21Z</time>
      </trkpt>
      <trkpt lat="43.29056" lon="5.66131">
        <ele>254.7</ele>
        <time>2022-02-23T13:20:25Z</time>
      </trkpt>
      <trkpt lat="43.2906" lon="5.66127">
        <ele>254.6</ele>
        <time>2022-02-23T13:20:29Z</time>
      </trkpt>
      <trkpt lat="43.29062" lon="5.66121">
        <ele>254.5</ele>
        <time>2022-02-23T13:20:33Z</time>
      </trkpt>
      <trkpt lat="43.29061" lon="5.66115">
        <ele>254.3</ele>
        <time>2022-02-23T13:20:37Z</time>
      </trkpt>
      <trkpt lat="43.29058" lon="5.66109">
        <ele>254</ele>
        <time>2022-02-23T13:20:43Z</time>
      </trkpt>
      <trkpt lat="43.29055" lon="5.66105">
        <ele>253.8</ele>
        <time>2022-02-23T13:20:51Z</time>
      </trkpt>
      <trkpt lat="43.2905" lon="5.66102">
        <ele>253.7</ele>
        <time>2022-02-23T13:21:03Z</time>
      </trkpt>
      <trkpt lat="43.29047" lon="5.66096">
        <ele>253.4</ele>
        <time>2022-02-23T13:21:11Z</time>
      </trkpt>
      <trkpt lat="43.29046" lon="5.66088">
        <ele>253.2</ele>
        <time>2022-02-23T13:21:17Z</time>
      </trkpt>
      <trkpt lat="43.29043" lon="5.66082">
        <ele>252.9</ele>
        <time>2022-02-23T13:21:23Z</time>
      </trkpt>
      <trkpt lat="43.2904" lon="5.66075">
        <ele>252.4</ele>
        <time>2022-02-23T13:21:29Z</time>
      </trkpt>
      <trkpt lat="43.29037" lon="5.66071">
        <ele>252.1</ele>
        <time>2022-02-23T13:21:33Z</time>
      </trkpt>
      <trkpt lat="43.29034" lon="5.66064">
        <ele>251.6</ele>
        <time>2022-02-23T13:21:39Z</time>
      </trkpt>
      <trkpt lat="43.2903" lon="5.66058">
        <ele>251.2</ele>
        <time>2022-02-23T13:21:43Z</time>
      </trkpt>
      <trkpt lat="43.29027" lon="5.66052">
        <ele>250.7</ele>
        <time>2022-02-23T13:21:53Z</time>
      </trkpt>
      <trkpt lat="43.29027" lon="5.66044">
        <ele>249.7</ele>
        <time>2022-02-23T13:22:07Z</time>
      </trkpt>
      <trkpt lat="43.29027" lon="5.66037">
        <ele>248.8</ele>
        <time>2022-02-23T13:22:15Z</time>
      </trkpt>
      <trkpt lat="43.29027" lon="5.66029">
        <ele>247.3</ele>
        <time>2022-02-23T13:22:25Z</time>
      </trkpt>
      <trkpt lat="43.29028" lon="5.66022">
        <ele>246.2</ele>
        <time>2022-02-23T13:22:35Z</time>
      </trkpt>
      <trkpt lat="43.29026" lon="5.66014">
        <ele>246.2</ele>
        <time>2022-02-23T13:22:45Z</time>
      </trkpt>
      <trkpt lat="43.29027" lon="5.66005">
        <ele>244</ele>
        <time>2022-02-23T13:22:53Z</time>
      </trkpt>
      <trkpt lat="43.29029" lon="5.65997">
        <ele>242.5</ele>
        <time>2022-02-23T13:22:59Z</time>
      </trkpt>
      <trkpt lat="43.29025" lon="5.65992">
        <ele>243.9</ele>
        <time>2022-02-23T13:23:13Z</time>
      </trkpt>
      <trkpt lat="43.2902" lon="5.65989">
        <ele>246.8</ele>
        <time>2022-02-23T13:23:19Z</time>
      </trkpt>
      <trkpt lat="43.29025" lon="5.65987">
        <ele>243.2</ele>
        <time>2022-02-23T13:23:39Z</time>
      </trkpt>
      <trkpt lat="43.29023" lon="5.65981">
        <ele>243.9</ele>
        <time>2022-02-23T13:25:17Z</time>
      </trkpt>
      <trkpt lat="43.29019" lon="5.65976">
        <ele>246.4</ele>
        <time>2022-02-23T13:25:33Z</time>
      </trkpt>
      <trkpt lat="43.2902" lon="5.6597">
        <ele>245.4</ele>
        <time>2022-02-23T13:25:45Z</time>
      </trkpt>
      <trkpt lat="43.29018" lon="5.65964">
        <ele>246.2</ele>
        <time>2022-02-23T13:25:51Z</time>
      </trkpt>
      <trkpt lat="43.29014" lon="5.65958">
        <ele>248.6</ele>
        <time>2022-02-23T13:25:57Z</time>
      </trkpt>
      <trkpt lat="43.29012" lon="5.6595">
        <ele>249.8</ele>
        <time>2022-02-23T13:26:03Z</time>
      </trkpt>
      <trkpt lat="43.2901" lon="5.65944">
        <ele>250.7</ele>
        <time>2022-02-23T13:26:07Z</time>
      </trkpt>
      <trkpt lat="43.29007" lon="5.65937">
        <ele>251.9</ele>
        <time>2022-02-23T13:26:13Z</time>
      </trkpt>
      <trkpt lat="43.29006" lon="5.6593">
        <ele>252.1</ele>
        <time>2022-02-23T13:26:21Z</time>
      </trkpt>
      <trkpt lat="43.29003" lon="5.65924">
        <ele>253.1</ele>
        <time>2022-02-23T13:26:27Z</time>
      </trkpt>
      <trkpt lat="43.29001" lon="5.65917">
        <ele>253.4</ele>
        <time>2022-02-23T13:26:35Z</time>
      </trkpt>
      <trkpt lat="43.29002" lon="5.6591">
        <ele>251.4</ele>
        <time>2022-02-23T13:26:43Z</time>
      </trkpt>
      <trkpt lat="43.29002" lon="5.65902">
        <ele>249.9</ele>
        <time>2022-02-23T13:26:49Z</time>
      </trkpt>
      <trkpt lat="43.29" lon="5.65896">
        <ele>249.5</ele>
        <time>2022-02-23T13:26:53Z</time>
      </trkpt>
      <trkpt lat="43.28998" lon="5.65889">
        <ele>249.2</ele>
        <time>2022-02-23T13:26:59Z</time>
      </trkpt>
      <trkpt lat="43.28997" lon="5.65882">
        <ele>249.8</ele>
        <time>2022-02-23T13:27:05Z</time>
      </trkpt>
      <trkpt lat="43.28996" lon="5.65875">
        <ele>250.2</ele>
        <time>2022-02-23T13:27:19Z</time>
      </trkpt>
      <trkpt lat="43.28993" lon="5.65868">
        <ele>251.8</ele>
        <time>2022-02-23T13:27:27Z</time>
      </trkpt>
      <trkpt lat="43.28991" lon="5.65861">
        <ele>253.5</ele>
        <time>2022-02-23T13:27:33Z</time>
      </trkpt>
      <trkpt lat="43.28987" lon="5.65855">
        <ele>256.5</ele>
        <time>2022-02-23T13:27:41Z</time>
      </trkpt>
      <trkpt lat="43.28984" lon="5.65848">
        <ele>259</ele>
        <time>2022-02-23T13:27:47Z</time>
      </trkpt>
      <trkpt lat="43.28982" lon="5.65842">
        <ele>260.8</ele>
        <time>2022-02-23T13:27:55Z</time>
      </trkpt>
      <trkpt lat="43.28984" lon="5.65836">
        <ele>260.5</ele>
        <time>2022-02-23T13:28:03Z</time>
      </trkpt>
      <trkpt lat="43.28984" lon="5.65828">
        <ele>261.6</ele>
        <time>2022-02-23T13:28:11Z</time>
      </trkpt>
      <trkpt lat="43.28986" lon="5.65823">
        <ele>262.4</ele>
        <time>2022-02-23T13:28:17Z</time>
      </trkpt>
      <trkpt lat="43.28988" lon="5.65817">
        <ele>262.8</ele>
        <time>2022-02-23T13:28:23Z</time>
      </trkpt>
      <trkpt lat="43.28992" lon="5.65813">
        <ele>262.9</ele>
        <time>2022-02-23T13:28:37Z</time>
      </trkpt>
      <trkpt lat="43.28996" lon="5.6581">
        <ele>262.4</ele>
        <time>2022-02-23T13:28:45Z</time>
      </trkpt>
      <trkpt lat="43.29" lon="5.65808">
        <ele>261.9</ele>
        <time>2022-02-23T13:28:51Z</time>
      </trkpt>
      <trkpt lat="43.29005" lon="5.65808">
        <ele>259.3</ele>
        <time>2022-02-23T13:28:57Z</time>
      </trkpt>
      <trkpt lat="43.2901" lon="5.65807">
        <ele>256.6</ele>
        <time>2022-02-23T13:29:03Z</time>
      </trkpt>
      <trkpt lat="43.29014" lon="5.65801">
        <ele>256.5</ele>
        <time>2022-02-23T13:29:11Z</time>
      </trkpt>
      <trkpt lat="43.29014" lon="5.65794">
        <ele>259.5</ele>
        <time>2022-02-23T13:29:19Z</time>
      </trkpt>
      <trkpt lat="43.29015" lon="5.65788">
        <ele>261.7</ele>
        <time>2022-02-23T13:29:25Z</time>
      </trkpt>
      <trkpt lat="43.29014" lon="5.6578">
        <ele>265.3</ele>
        <time>2022-02-23T13:29:31Z</time>
      </trkpt>
      <trkpt lat="43.29014" lon="5.65772">
        <ele>266.9</ele>
        <time>2022-02-23T13:29:37Z</time>
      </trkpt>
      <trkpt lat="43.29014" lon="5.65764">
        <ele>267.7</ele>
        <time>2022-02-23T13:29:43Z</time>
      </trkpt>
      <trkpt lat="43.29015" lon="5.65758">
        <ele>267.8</ele>
        <time>2022-02-23T13:29:49Z</time>
      </trkpt>
      <trkpt lat="43.29017" lon="5.65751">
        <ele>267.5</ele>
        <time>2022-02-23T13:29:55Z</time>
      </trkpt>
      <trkpt lat="43.29019" lon="5.65745">
        <ele>267.9</ele>
        <time>2022-02-23T13:30:01Z</time>
      </trkpt>
      <trkpt lat="43.29021" lon="5.6574">
        <ele>267.8</ele>
        <time>2022-02-23T13:30:07Z</time>
      </trkpt>
      <trkpt lat="43.29024" lon="5.65733">
        <ele>267.7</ele>
        <time>2022-02-23T13:30:15Z</time>
      </trkpt>
      <trkpt lat="43.29029" lon="5.65728">
        <ele>266.3</ele>
        <time>2022-02-23T13:30:21Z</time>
      </trkpt>
      <trkpt lat="43.29034" lon="5.65725">
        <ele>265</ele>
        <time>2022-02-23T13:30:29Z</time>
      </trkpt>
      <trkpt lat="43.29037" lon="5.6572">
        <ele>263.7</ele>
        <time>2022-02-23T13:31:33Z</time>
      </trkpt>
      <trkpt lat="43.29032" lon="5.65724">
        <ele>266.3</ele>
        <time>2022-02-23T13:31:47Z</time>
      </trkpt>
      <trkpt lat="43.29028" lon="5.65729">
        <ele>267</ele>
        <time>2022-02-23T13:31:55Z</time>
      </trkpt>
      <trkpt lat="43.29026" lon="5.65735">
        <ele>266.4</ele>
        <time>2022-02-23T13:32:01Z</time>
      </trkpt>
      <trkpt lat="43.29022" lon="5.65739">
        <ele>267.2</ele>
        <time>2022-02-23T13:32:07Z</time>
      </trkpt>
      <trkpt lat="43.2902" lon="5.65747">
        <ele>266.6</ele>
        <time>2022-02-23T13:32:13Z</time>
      </trkpt>
      <trkpt lat="43.29017" lon="5.65755">
        <ele>266.9</ele>
        <time>2022-02-23T13:32:19Z</time>
      </trkpt>
      <trkpt lat="43.29014" lon="5.65761">
        <ele>267.8</ele>
        <time>2022-02-23T13:32:25Z</time>
      </trkpt>
      <trkpt lat="43.29012" lon="5.65767">
        <ele>268.6</ele>
        <time>2022-02-23T13:32:31Z</time>
      </trkpt>
      <trkpt lat="43.29011" lon="5.65776">
        <ele>268.2</ele>
        <time>2022-02-23T13:32:37Z</time>
      </trkpt>
      <trkpt lat="43.29009" lon="5.65783">
        <ele>266.5</ele>
        <time>2022-02-23T13:32:43Z</time>
      </trkpt>
      <trkpt lat="43.29007" lon="5.65789">
        <ele>265.2</ele>
        <time>2022-02-23T13:32:47Z</time>
      </trkpt>
      <trkpt lat="43.29003" lon="5.65793">
        <ele>266</ele>
        <time>2022-02-23T13:32:53Z</time>
      </trkpt>
      <trkpt lat="43.28998" lon="5.65795">
        <ele>267.6</ele>
        <time>2022-02-23T13:32:59Z</time>
      </trkpt>
      <trkpt lat="43.28993" lon="5.65795">
        <ele>269</ele>
        <time>2022-02-23T13:33:05Z</time>
      </trkpt>
      <trkpt lat="43.28988" lon="5.65795">
        <ele>270.7</ele>
        <time>2022-02-23T13:33:11Z</time>
      </trkpt>
      <trkpt lat="43.28983" lon="5.65798">
        <ele>270.7</ele>
        <time>2022-02-23T13:33:19Z</time>
      </trkpt>
      <trkpt lat="43.28977" lon="5.65799">
        <ele>272</ele>
        <time>2022-02-23T13:33:27Z</time>
      </trkpt>
      <trkpt lat="43.28973" lon="5.65802">
        <ele>271.7</ele>
        <time>2022-02-23T13:33:33Z</time>
      </trkpt>
      <trkpt lat="43.28969" lon="5.65807">
        <ele>271.2</ele>
        <time>2022-02-23T13:33:39Z</time>
      </trkpt>
      <trkpt lat="43.28965" lon="5.65811">
        <ele>272.8</ele>
        <time>2022-02-23T13:33:45Z</time>
      </trkpt>
      <trkpt lat="43.28961" lon="5.65814">
        <ele>274.8</ele>
        <time>2022-02-23T13:33:51Z</time>
      </trkpt>
      <trkpt lat="43.28957" lon="5.65817">
        <ele>277.1</ele>
        <time>2022-02-23T13:33:57Z</time>
      </trkpt>
      <trkpt lat="43.28953" lon="5.65821">
        <ele>279.3</ele>
        <time>2022-02-23T13:34:03Z</time>
      </trkpt>
      <trkpt lat="43.28948" lon="5.65823">
        <ele>282.1</ele>
        <time>2022-02-23T13:34:17Z</time>
      </trkpt>
      <trkpt lat="43.28948" lon="5.65831">
        <ele>283.1</ele>
        <time>2022-02-23T13:34:25Z</time>
      </trkpt>
      <trkpt lat="43.2895" lon="5.65836">
        <ele>282.3</ele>
        <time>2022-02-23T13:34:35Z</time>
      </trkpt>
      <trkpt lat="43.28953" lon="5.65842">
        <ele>280.9</ele>
        <time>2022-02-23T13:34:43Z</time>
      </trkpt>
      <trkpt lat="43.28954" lon="5.65849">
        <ele>280.5</ele>
        <time>2022-02-23T13:34:51Z</time>
      </trkpt>
      <trkpt lat="43.28954" lon="5.65855">
        <ele>281.5</ele>
        <time>2022-02-23T13:34:59Z</time>
      </trkpt>
      <trkpt lat="43.28954" lon="5.65863">
        <ele>281.9</ele>
        <time>2022-02-23T13:35:07Z</time>
      </trkpt>
      <trkpt lat="43.28953" lon="5.6587">
        <ele>282</ele>
        <time>2022-02-23T13:35:15Z</time>
      </trkpt>
      <trkpt lat="43.28953" lon="5.65878">
        <ele>281.9</ele>
        <time>2022-02-23T13:35:23Z</time>
      </trkpt>
      <trkpt lat="43.28951" lon="5.65883">
        <ele>283.7</ele>
        <time>2022-02-23T13:35:29Z</time>
      </trkpt>
      <trkpt lat="43.28948" lon="5.65889">
        <ele>285.7</ele>
        <time>2022-02-23T13:35:37Z</time>
      </trkpt>
      <trkpt lat="43.28946" lon="5.65895">
        <ele>286.9</ele>
        <time>2022-02-23T13:35:43Z</time>
      </trkpt>
      <trkpt lat="43.28945" lon="5.65902">
        <ele>288.3</ele>
        <time>2022-02-23T13:35:49Z</time>
      </trkpt>
      <trkpt lat="43.28944" lon="5.65909">
        <ele>289.3</ele>
        <time>2022-02-23T13:35:57Z</time>
      </trkpt>
      <trkpt lat="43.28943" lon="5.65916">
        <ele>289.6</ele>
        <time>2022-02-23T13:36:05Z</time>
      </trkpt>
      <trkpt lat="43.28941" lon="5.65922">
        <ele>293.2</ele>
        <time>2022-02-23T13:38:11Z</time>
      </trkpt>
      <trkpt lat="43.28938" lon="5.65916">
        <ele>293.2</ele>
        <time>2022-02-23T13:38:23Z</time>
      </trkpt>
      <trkpt lat="43.28937" lon="5.6591">
        <ele>293.6</ele>
        <time>2022-02-23T13:38:33Z</time>
      </trkpt>
      <trkpt lat="43.28938" lon="5.65903">
        <ele>293.3</ele>
        <time>2022-02-23T13:38:39Z</time>
      </trkpt>
      <trkpt lat="43.28937" lon="5.65896">
        <ele>293.7</ele>
        <time>2022-02-23T13:38:47Z</time>
      </trkpt>
      <trkpt lat="43.28939" lon="5.65889">
        <ele>292.6</ele>
        <time>2022-02-23T13:38:51Z</time>
      </trkpt>
      <trkpt lat="43.28941" lon="5.65884">
        <ele>291.3</ele>
        <time>2022-02-23T13:38:55Z</time>
      </trkpt>
      <trkpt lat="43.28942" lon="5.65876">
        <ele>291.1</ele>
        <time>2022-02-23T13:39:03Z</time>
      </trkpt>
      <trkpt lat="43.28941" lon="5.6587">
        <ele>291.8</ele>
        <time>2022-02-23T13:39:11Z</time>
      </trkpt>
      <trkpt lat="43.28938" lon="5.65864">
        <ele>294.1</ele>
        <time>2022-02-23T13:39:17Z</time>
      </trkpt>
      <trkpt lat="43.28937" lon="5.65854">
        <ele>293.6</ele>
        <time>2022-02-23T13:39:23Z</time>
      </trkpt>
      <trkpt lat="43.28934" lon="5.65848">
        <ele>294.3</ele>
        <time>2022-02-23T13:39:27Z</time>
      </trkpt>
      <trkpt lat="43.28932" lon="5.65842">
        <ele>294.4</ele>
        <time>2022-02-23T13:39:31Z</time>
      </trkpt>
      <trkpt lat="43.28927" lon="5.65838">
        <ele>295.6</ele>
        <time>2022-02-23T13:39:37Z</time>
      </trkpt>
      <trkpt lat="43.28923" lon="5.65832">
        <ele>296.7</ele>
        <time>2022-02-23T13:39:43Z</time>
      </trkpt>
      <trkpt lat="43.28919" lon="5.65827">
        <ele>298.1</ele>
        <time>2022-02-23T13:39:51Z</time>
      </trkpt>
      <trkpt lat="43.28915" lon="5.65822">
        <ele>299.3</ele>
        <time>2022-02-23T13:39:59Z</time>
      </trkpt>
      <trkpt lat="43.28912" lon="5.65816">
        <ele>299.9</ele>
        <time>2022-02-23T13:40:07Z</time>
      </trkpt>
      <trkpt lat="43.28913" lon="5.65807">
        <ele>298.2</ele>
        <time>2022-02-23T13:40:15Z</time>
      </trkpt>
      <trkpt lat="43.28914" lon="5.658">
        <ele>299.3</ele>
        <time>2022-02-23T13:40:23Z</time>
      </trkpt>
      <trkpt lat="43.28916" lon="5.65794">
        <ele>299.9</ele>
        <time>2022-02-23T13:40:29Z</time>
      </trkpt>
      <trkpt lat="43.28921" lon="5.65792">
        <ele>298.4</ele>
        <time>2022-02-23T13:40:59Z</time>
      </trkpt>
      <trkpt lat="43.28924" lon="5.65785">
        <ele>299.4</ele>
        <time>2022-02-23T13:41:07Z</time>
      </trkpt>
      <trkpt lat="43.28927" lon="5.65779">
        <ele>300.3</ele>
        <time>2022-02-23T13:41:15Z</time>
      </trkpt>
      <trkpt lat="43.28929" lon="5.65773">
        <ele>301.9</ele>
        <time>2022-02-23T13:41:21Z</time>
      </trkpt>
      <trkpt lat="43.2893" lon="5.65766">
        <ele>303.8</ele>
        <time>2022-02-23T13:41:29Z</time>
      </trkpt>
      <trkpt lat="43.28931" lon="5.65759">
        <ele>306.2</ele>
        <time>2022-02-23T13:41:37Z</time>
      </trkpt>
      <trkpt lat="43.28933" lon="5.65753">
        <ele>307.5</ele>
        <time>2022-02-23T13:41:43Z</time>
      </trkpt>
      <trkpt lat="43.28937" lon="5.65747">
        <ele>308.8</ele>
        <time>2022-02-23T13:41:51Z</time>
      </trkpt>
      <trkpt lat="43.28941" lon="5.65741">
        <ele>309.3</ele>
        <time>2022-02-23T13:41:57Z</time>
      </trkpt>
      <trkpt lat="43.28944" lon="5.65736">
        <ele>309.9</ele>
        <time>2022-02-23T13:42:03Z</time>
      </trkpt>
      <trkpt lat="43.28948" lon="5.6573">
        <ele>310.2</ele>
        <time>2022-02-23T13:42:11Z</time>
      </trkpt>
      <trkpt lat="43.28952" lon="5.65725">
        <ele>309.8</ele>
        <time>2022-02-23T13:42:19Z</time>
      </trkpt>
      <trkpt lat="43.28952" lon="5.65719">
        <ele>310.8</ele>
        <time>2022-02-23T13:42:25Z</time>
      </trkpt>
      <trkpt lat="43.28951" lon="5.65725">
        <ele>310</ele>
        <time>2022-02-23T13:43:21Z</time>
      </trkpt>
      <trkpt lat="43.28947" lon="5.6573">
        <ele>310.8</ele>
        <time>2022-02-23T13:43:31Z</time>
      </trkpt>
      <trkpt lat="43.28942" lon="5.65733">
        <ele>312</ele>
        <time>2022-02-23T13:43:37Z</time>
      </trkpt>
      <trkpt lat="43.28941" lon="5.65738">
        <ele>310.6</ele>
        <time>2022-02-23T13:44:09Z</time>
      </trkpt>
      <trkpt lat="43.28936" lon="5.65741">
        <ele>312</ele>
        <time>2022-02-23T13:44:15Z</time>
      </trkpt>
      <trkpt lat="43.28931" lon="5.65744">
        <ele>312.6</ele>
        <time>2022-02-23T13:44:21Z</time>
      </trkpt>
      <trkpt lat="43.28927" lon="5.65747">
        <ele>313</ele>
        <time>2022-02-23T13:44:29Z</time>
      </trkpt>
      <trkpt lat="43.28925" lon="5.65754">
        <ele>310.7</ele>
        <time>2022-02-23T13:44:59Z</time>
      </trkpt>
      <trkpt lat="43.28922" lon="5.65757">
        <ele>311</ele>
        <time>2022-02-23T13:45:07Z</time>
      </trkpt>
      <trkpt lat="43.28917" lon="5.6576">
        <ele>312.2</ele>
        <time>2022-02-23T13:45:15Z</time>
      </trkpt>
      <trkpt lat="43.28913" lon="5.65764">
        <ele>312.2</ele>
        <time>2022-02-23T13:45:21Z</time>
      </trkpt>
      <trkpt lat="43.28908" lon="5.65768">
        <ele>312.6</ele>
        <time>2022-02-23T13:45:29Z</time>
      </trkpt>
      <trkpt lat="43.28905" lon="5.65773">
        <ele>312</ele>
        <time>2022-02-23T13:45:35Z</time>
      </trkpt>
      <trkpt lat="43.289" lon="5.65771">
        <ele>315.2</ele>
        <time>2022-02-23T13:45:41Z</time>
      </trkpt>
      <trkpt lat="43.28896" lon="5.65767">
        <ele>318.8</ele>
        <time>2022-02-23T13:45:45Z</time>
      </trkpt>
      <trkpt lat="43.28892" lon="5.65764">
        <ele>322</ele>
        <time>2022-02-23T13:45:51Z</time>
      </trkpt>
      <trkpt lat="43.28886" lon="5.65762">
        <ele>325.4</ele>
        <time>2022-02-23T13:46:01Z</time>
      </trkpt>
      <trkpt lat="43.2888" lon="5.65762">
        <ele>326.9</ele>
        <time>2022-02-23T13:46:07Z</time>
      </trkpt>
      <trkpt lat="43.28875" lon="5.65762">
        <ele>328.3</ele>
        <time>2022-02-23T13:46:15Z</time>
      </trkpt>
      <trkpt lat="43.2887" lon="5.65763">
        <ele>329.4</ele>
        <time>2022-02-23T13:46:23Z</time>
      </trkpt>
      <trkpt lat="43.28865" lon="5.65768">
        <ele>329.7</ele>
        <time>2022-02-23T13:46:33Z</time>
      </trkpt>
      <trkpt lat="43.28863" lon="5.65774">
        <ele>328.9</ele>
        <time>2022-02-23T13:46:39Z</time>
      </trkpt>
      <trkpt lat="43.28863" lon="5.6578">
        <ele>328.1</ele>
        <time>2022-02-23T13:46:47Z</time>
      </trkpt>
      <trkpt lat="43.28862" lon="5.65788">
        <ele>328.9</ele>
        <time>2022-02-23T13:46:55Z</time>
      </trkpt>
      <trkpt lat="43.28862" lon="5.65794">
        <ele>329.2</ele>
        <time>2022-02-23T13:47:03Z</time>
      </trkpt>
      <trkpt lat="43.28862" lon="5.65801">
        <ele>329.4</ele>
        <time>2022-02-23T13:47:11Z</time>
      </trkpt>
      <trkpt lat="43.2886" lon="5.65806">
        <ele>330.8</ele>
        <time>2022-02-23T13:47:19Z</time>
      </trkpt>
      <trkpt lat="43.28857" lon="5.65812">
        <ele>332.5</ele>
        <time>2022-02-23T13:47:25Z</time>
      </trkpt>
      <trkpt lat="43.28852" lon="5.65816">
        <ele>334.8</ele>
        <time>2022-02-23T13:47:33Z</time>
      </trkpt>
      <trkpt lat="43.2885" lon="5.65821">
        <ele>336</ele>
        <time>2022-02-23T13:47:39Z</time>
      </trkpt>
      <trkpt lat="43.28849" lon="5.65828">
        <ele>336.3</ele>
        <time>2022-02-23T13:47:45Z</time>
      </trkpt>
      <trkpt lat="43.2885" lon="5.65834">
        <ele>335.8</ele>
        <time>2022-02-23T13:47:53Z</time>
      </trkpt>
      <trkpt lat="43.2885" lon="5.65841">
        <ele>336.8</ele>
        <time>2022-02-23T13:48:01Z</time>
      </trkpt>
      <trkpt lat="43.2885" lon="5.65849">
        <ele>337.9</ele>
        <time>2022-02-23T13:48:09Z</time>
      </trkpt>
      <trkpt lat="43.28851" lon="5.65856">
        <ele>338.4</ele>
        <time>2022-02-23T13:48:15Z</time>
      </trkpt>
      <trkpt lat="43.28852" lon="5.65862">
        <ele>338.9</ele>
        <time>2022-02-23T13:48:21Z</time>
      </trkpt>
      <trkpt lat="43.28852" lon="5.6587">
        <ele>341.1</ele>
        <time>2022-02-23T13:48:29Z</time>
      </trkpt>
      <trkpt lat="43.28853" lon="5.65877">
        <ele>342.4</ele>
        <time>2022-02-23T13:48:37Z</time>
      </trkpt>
      <trkpt lat="43.28857" lon="5.65883">
        <ele>342.6</ele>
        <time>2022-02-23T13:48:45Z</time>
      </trkpt>
      <trkpt lat="43.2886" lon="5.65887">
        <ele>342.6</ele>
        <time>2022-02-23T13:48:53Z</time>
      </trkpt>
      <trkpt lat="43.28864" lon="5.65893">
        <ele>342.2</ele>
        <time>2022-02-23T13:49:01Z</time>
      </trkpt>
      <trkpt lat="43.28868" lon="5.65897">
        <ele>340.5</ele>
        <time>2022-02-23T13:49:07Z</time>
      </trkpt>
      <trkpt lat="43.28868" lon="5.65905">
        <ele>341.1</ele>
        <time>2022-02-23T13:49:17Z</time>
      </trkpt>
      <trkpt lat="43.28867" lon="5.65911">
        <ele>342.4</ele>
        <time>2022-02-23T13:49:23Z</time>
      </trkpt>
      <trkpt lat="43.28867" lon="5.65918">
        <ele>343.1</ele>
        <time>2022-02-23T13:49:29Z</time>
      </trkpt>
      <trkpt lat="43.28869" lon="5.65925">
        <ele>342.6</ele>
        <time>2022-02-23T13:49:37Z</time>
      </trkpt>
      <trkpt lat="43.2887" lon="5.65931">
        <ele>342.3</ele>
        <time>2022-02-23T13:49:43Z</time>
      </trkpt>
      <trkpt lat="43.28869" lon="5.65937">
        <ele>343.6</ele>
        <time>2022-02-23T13:49:49Z</time>
      </trkpt>
      <trkpt lat="43.28868" lon="5.65944">
        <ele>345.3</ele>
        <time>2022-02-23T13:49:57Z</time>
      </trkpt>
      <trkpt lat="43.28867" lon="5.65951">
        <ele>347.6</ele>
        <time>2022-02-23T13:50:05Z</time>
      </trkpt>
      <trkpt lat="43.28867" lon="5.65958">
        <ele>348.7</ele>
        <time>2022-02-23T13:50:13Z</time>
      </trkpt>
      <trkpt lat="43.28867" lon="5.65964">
        <ele>350.2</ele>
        <time>2022-02-23T13:50:19Z</time>
      </trkpt>
      <trkpt lat="43.28869" lon="5.65972">
        <ele>350.9</ele>
        <time>2022-02-23T13:50:27Z</time>
      </trkpt>
      <trkpt lat="43.28872" lon="5.65977">
        <ele>351.3</ele>
        <time>2022-02-23T13:50:33Z</time>
      </trkpt>
      <trkpt lat="43.28874" lon="5.65982">
        <ele>351.5</ele>
        <time>2022-02-23T13:50:39Z</time>
      </trkpt>
      <trkpt lat="43.28877" lon="5.65988">
        <ele>352.1</ele>
        <time>2022-02-23T13:50:45Z</time>
      </trkpt>
      <trkpt lat="43.28879" lon="5.65993">
        <ele>352.7</ele>
        <time>2022-02-23T13:50:51Z</time>
      </trkpt>
      <trkpt lat="43.28882" lon="5.66">
        <ele>353.5</ele>
        <time>2022-02-23T13:50:57Z</time>
      </trkpt>
      <trkpt lat="43.28885" lon="5.66007">
        <ele>353.8</ele>
        <time>2022-02-23T13:51:05Z</time>
      </trkpt>
      <trkpt lat="43.28887" lon="5.66013">
        <ele>354.3</ele>
        <time>2022-02-23T13:51:11Z</time>
      </trkpt>
      <trkpt lat="43.2889" lon="5.6602">
        <ele>354.6</ele>
        <time>2022-02-23T13:51:19Z</time>
      </trkpt>
      <trkpt lat="43.28892" lon="5.66025">
        <ele>354.9</ele>
        <time>2022-02-23T13:51:27Z</time>
      </trkpt>
      <trkpt lat="43.28895" lon="5.66032">
        <ele>355.1</ele>
        <time>2022-02-23T13:51:35Z</time>
      </trkpt>
      <trkpt lat="43.28896" lon="5.66039">
        <ele>355.5</ele>
        <time>2022-02-23T13:51:43Z</time>
      </trkpt>
      <trkpt lat="43.28897" lon="5.66047">
        <ele>356.5</ele>
        <time>2022-02-23T13:51:51Z</time>
      </trkpt>
      <trkpt lat="43.28896" lon="5.66054">
        <ele>357.6</ele>
        <time>2022-02-23T13:51:59Z</time>
      </trkpt>
      <trkpt lat="43.28894" lon="5.66061">
        <ele>357.3</ele>
        <time>2022-02-23T13:52:07Z</time>
      </trkpt>
      <trkpt lat="43.28888" lon="5.66065">
        <ele>358.2</ele>
        <time>2022-02-23T13:52:15Z</time>
      </trkpt>
      <trkpt lat="43.28885" lon="5.66069">
        <ele>358.9</ele>
        <time>2022-02-23T13:52:21Z</time>
      </trkpt>
      <trkpt lat="43.28881" lon="5.66073">
        <ele>359.8</ele>
        <time>2022-02-23T13:52:27Z</time>
      </trkpt>
      <trkpt lat="43.28878" lon="5.66078">
        <ele>360.3</ele>
        <time>2022-02-23T13:52:35Z</time>
      </trkpt>
      <trkpt lat="43.28875" lon="5.66083">
        <ele>360.7</ele>
        <time>2022-02-23T13:52:43Z</time>
      </trkpt>
      <trkpt lat="43.28872" lon="5.66091">
        <ele>361.6</ele>
        <time>2022-02-23T13:52:51Z</time>
      </trkpt>
      <trkpt lat="43.28871" lon="5.66098">
        <ele>361.5</ele>
        <time>2022-02-23T13:52:57Z</time>
      </trkpt>
      <trkpt lat="43.28872" lon="5.66106">
        <ele>360.7</ele>
        <time>2022-02-23T13:53:05Z</time>
      </trkpt>
      <trkpt lat="43.28868" lon="5.6611">
        <ele>363.5</ele>
        <time>2022-02-23T13:53:13Z</time>
      </trkpt>
      <trkpt lat="43.28864" lon="5.66107">
        <ele>366.1</ele>
        <time>2022-02-23T13:53:19Z</time>
      </trkpt>
      <trkpt lat="43.28862" lon="5.66099">
        <ele>367.1</ele>
        <time>2022-02-23T13:57:05Z</time>
      </trkpt>
      <trkpt lat="43.28862" lon="5.66091">
        <ele>366.7</ele>
        <time>2022-02-23T13:57:15Z</time>
      </trkpt>
      <trkpt lat="43.28863" lon="5.66085">
        <ele>366.1</ele>
        <time>2022-02-23T13:57:21Z</time>
      </trkpt>
      <trkpt lat="43.28865" lon="5.66078">
        <ele>366.1</ele>
        <time>2022-02-23T13:57:25Z</time>
      </trkpt>
      <trkpt lat="43.28867" lon="5.66072">
        <ele>366.8</ele>
        <time>2022-02-23T13:57:29Z</time>
      </trkpt>
      <trkpt lat="43.28867" lon="5.66064">
        <ele>368.4</ele>
        <time>2022-02-23T13:57:37Z</time>
      </trkpt>
      <trkpt lat="43.28867" lon="5.66057">
        <ele>370.1</ele>
        <time>2022-02-23T13:57:45Z</time>
      </trkpt>
      <trkpt lat="43.28866" lon="5.6605">
        <ele>370.2</ele>
        <time>2022-02-23T13:57:53Z</time>
      </trkpt>
      <trkpt lat="43.28866" lon="5.66043">
        <ele>369.9</ele>
        <time>2022-02-23T13:57:59Z</time>
      </trkpt>
      <trkpt lat="43.28864" lon="5.66036">
        <ele>370.4</ele>
        <time>2022-02-23T13:58:05Z</time>
      </trkpt>
      <trkpt lat="43.28861" lon="5.6603">
        <ele>371.1</ele>
        <time>2022-02-23T13:58:11Z</time>
      </trkpt>
      <trkpt lat="43.28859" lon="5.66024">
        <ele>371</ele>
        <time>2022-02-23T13:58:17Z</time>
      </trkpt>
      <trkpt lat="43.28856" lon="5.6602">
        <ele>371.5</ele>
        <time>2022-02-23T13:58:23Z</time>
      </trkpt>
      <trkpt lat="43.28852" lon="5.66016">
        <ele>372.3</ele>
        <time>2022-02-23T13:58:29Z</time>
      </trkpt>
      <trkpt lat="43.28847" lon="5.6601">
        <ele>373.1</ele>
        <time>2022-02-23T13:58:35Z</time>
      </trkpt>
      <trkpt lat="43.28843" lon="5.66005">
        <ele>374</ele>
        <time>2022-02-23T13:58:41Z</time>
      </trkpt>
      <trkpt lat="43.28839" lon="5.66002">
        <ele>374.9</ele>
        <time>2022-02-23T13:58:51Z</time>
      </trkpt>
      <trkpt lat="43.28835" lon="5.65996">
        <ele>375.4</ele>
        <time>2022-02-23T13:58:59Z</time>
      </trkpt>
      <trkpt lat="43.28833" lon="5.6599">
        <ele>375.8</ele>
        <time>2022-02-23T13:59:03Z</time>
      </trkpt>
      <trkpt lat="43.2883" lon="5.65984">
        <ele>376.2</ele>
        <time>2022-02-23T13:59:09Z</time>
      </trkpt>
      <trkpt lat="43.28828" lon="5.65979">
        <ele>376.7</ele>
        <time>2022-02-23T13:59:15Z</time>
      </trkpt>
      <trkpt lat="43.28826" lon="5.65971">
        <ele>376.3</ele>
        <time>2022-02-23T13:59:21Z</time>
      </trkpt>
      <trkpt lat="43.28824" lon="5.65965">
        <ele>376.5</ele>
        <time>2022-02-23T13:59:27Z</time>
      </trkpt>
      <trkpt lat="43.28821" lon="5.65971">
        <ele>379.2</ele>
        <time>2022-02-23T13:59:45Z</time>
      </trkpt>
      <trkpt lat="43.28823" lon="5.65977">
        <ele>379.3</ele>
        <time>2022-02-23T13:59:51Z</time>
      </trkpt>
      <trkpt lat="43.28825" lon="5.65983">
        <ele>379.1</ele>
        <time>2022-02-23T13:59:57Z</time>
      </trkpt>
      <trkpt lat="43.28828" lon="5.65989">
        <ele>378.7</ele>
        <time>2022-02-23T14:00:03Z</time>
      </trkpt>
      <trkpt lat="43.28829" lon="5.65997">
        <ele>379.5</ele>
        <time>2022-02-23T14:00:11Z</time>
      </trkpt>
      <trkpt lat="43.28829" lon="5.66005">
        <ele>381.1</ele>
        <time>2022-02-23T14:00:19Z</time>
      </trkpt>
      <trkpt lat="43.28829" lon="5.66013">
        <ele>383.1</ele>
        <time>2022-02-23T14:00:27Z</time>
      </trkpt>
      <trkpt lat="43.2883" lon="5.66019">
        <ele>383.7</ele>
        <time>2022-02-23T14:00:33Z</time>
      </trkpt>
      <trkpt lat="43.28832" lon="5.66026">
        <ele>384.6</ele>
        <time>2022-02-23T14:00:41Z</time>
      </trkpt>
      <trkpt lat="43.28834" lon="5.66034">
        <ele>384.5</ele>
        <time>2022-02-23T14:00:49Z</time>
      </trkpt>
      <trkpt lat="43.28836" lon="5.66041">
        <ele>384.5</ele>
        <time>2022-02-23T14:00:57Z</time>
      </trkpt>
      <trkpt lat="43.28837" lon="5.66049">
        <ele>385</ele>
        <time>2022-02-23T14:01:05Z</time>
      </trkpt>
      <trkpt lat="43.28836" lon="5.66055">
        <ele>386.6</ele>
        <time>2022-02-23T14:01:11Z</time>
      </trkpt>
      <trkpt lat="43.28834" lon="5.66062">
        <ele>386.5</ele>
        <time>2022-02-23T14:01:19Z</time>
      </trkpt>
      <trkpt lat="43.28832" lon="5.66069">
        <ele>386.5</ele>
        <time>2022-02-23T14:01:27Z</time>
      </trkpt>
      <trkpt lat="43.28829" lon="5.66075">
        <ele>387</ele>
        <time>2022-02-23T14:01:35Z</time>
      </trkpt>
      <trkpt lat="43.28826" lon="5.66082">
        <ele>387.6</ele>
        <time>2022-02-23T14:01:43Z</time>
      </trkpt>
      <trkpt lat="43.28823" lon="5.66088">
        <ele>389.1</ele>
        <time>2022-02-23T14:01:51Z</time>
      </trkpt>
      <trkpt lat="43.28821" lon="5.66096">
        <ele>390.2</ele>
        <time>2022-02-23T14:02:07Z</time>
      </trkpt>
      <trkpt lat="43.28819" lon="5.66103">
        <ele>391.7</ele>
        <time>2022-02-23T14:02:13Z</time>
      </trkpt>
      <trkpt lat="43.28818" lon="5.6611">
        <ele>392.2</ele>
        <time>2022-02-23T14:02:19Z</time>
      </trkpt>
      <trkpt lat="43.28818" lon="5.66119">
        <ele>392.8</ele>
        <time>2022-02-23T14:02:27Z</time>
      </trkpt>
      <trkpt lat="43.28819" lon="5.66125">
        <ele>392.9</ele>
        <time>2022-02-23T14:02:33Z</time>
      </trkpt>
      <trkpt lat="43.28819" lon="5.66131">
        <ele>393.4</ele>
        <time>2022-02-23T14:02:39Z</time>
      </trkpt>
      <trkpt lat="43.2882" lon="5.66138">
        <ele>393.9</ele>
        <time>2022-02-23T14:02:45Z</time>
      </trkpt>
      <trkpt lat="43.2882" lon="5.66144">
        <ele>393.2</ele>
        <time>2022-02-23T14:02:51Z</time>
      </trkpt>
      <trkpt lat="43.28821" lon="5.66152">
        <ele>392.2</ele>
        <time>2022-02-23T14:02:59Z</time>
      </trkpt>
      <trkpt lat="43.28822" lon="5.66159">
        <ele>390.9</ele>
        <time>2022-02-23T14:03:07Z</time>
      </trkpt>
      <trkpt lat="43.2882" lon="5.66165">
        <ele>391.4</ele>
        <time>2022-02-23T14:03:15Z</time>
      </trkpt>
      <trkpt lat="43.28821" lon="5.66172">
        <ele>389.2</ele>
        <time>2022-02-23T14:03:25Z</time>
      </trkpt>
      <trkpt lat="43.28817" lon="5.66168">
        <ele>392.7</ele>
        <time>2022-02-23T14:04:13Z</time>
      </trkpt>
      <trkpt lat="43.28812" lon="5.6617">
        <ele>395.2</ele>
        <time>2022-02-23T14:04:19Z</time>
      </trkpt>
      <trkpt lat="43.28806" lon="5.66174">
        <ele>397.3</ele>
        <time>2022-02-23T14:04:25Z</time>
      </trkpt>
      <trkpt lat="43.28801" lon="5.66178">
        <ele>398</ele>
        <time>2022-02-23T14:04:31Z</time>
      </trkpt>
      <trkpt lat="43.28797" lon="5.66183">
        <ele>398.5</ele>
        <time>2022-02-23T14:04:37Z</time>
      </trkpt>
      <trkpt lat="43.28793" lon="5.66188">
        <ele>398.7</ele>
        <time>2022-02-23T14:04:43Z</time>
      </trkpt>
      <trkpt lat="43.2879" lon="5.66195">
        <ele>397.9</ele>
        <time>2022-02-23T14:04:49Z</time>
      </trkpt>
      <trkpt lat="43.28788" lon="5.66203">
        <ele>396.1</ele>
        <time>2022-02-23T14:04:55Z</time>
      </trkpt>
      <trkpt lat="43.28785" lon="5.66209">
        <ele>395.4</ele>
        <time>2022-02-23T14:05:01Z</time>
      </trkpt>
      <trkpt lat="43.2878" lon="5.66214">
        <ele>396.3</ele>
        <time>2022-02-23T14:05:07Z</time>
      </trkpt>
      <trkpt lat="43.28776" lon="5.66216">
        <ele>398.1</ele>
        <time>2022-02-23T14:05:13Z</time>
      </trkpt>
      <trkpt lat="43.28771" lon="5.6622">
        <ele>399.4</ele>
        <time>2022-02-23T14:05:19Z</time>
      </trkpt>
      <trkpt lat="43.28767" lon="5.66224">
        <ele>400.4</ele>
        <time>2022-02-23T14:05:25Z</time>
      </trkpt>
      <trkpt lat="43.28763" lon="5.6623">
        <ele>401.1</ele>
        <time>2022-02-23T14:05:33Z</time>
      </trkpt>
      <trkpt lat="43.28759" lon="5.66236">
        <ele>401.1</ele>
        <time>2022-02-23T14:05:39Z</time>
      </trkpt>
      <trkpt lat="43.28757" lon="5.66243">
        <ele>400.5</ele>
        <time>2022-02-23T14:05:45Z</time>
      </trkpt>
      <trkpt lat="43.28755" lon="5.6625">
        <ele>399.5</ele>
        <time>2022-02-23T14:05:51Z</time>
      </trkpt>
      <trkpt lat="43.28752" lon="5.66256">
        <ele>400.4</ele>
        <time>2022-02-23T14:05:57Z</time>
      </trkpt>
      <trkpt lat="43.28748" lon="5.66263">
        <ele>400.8</ele>
        <time>2022-02-23T14:06:03Z</time>
      </trkpt>
      <trkpt lat="43.28744" lon="5.66267">
        <ele>401.1</ele>
        <time>2022-02-23T14:06:09Z</time>
      </trkpt>
      <trkpt lat="43.28741" lon="5.66271">
        <ele>401</ele>
        <time>2022-02-23T14:06:15Z</time>
      </trkpt>
      <trkpt lat="43.28734" lon="5.66272">
        <ele>402.5</ele>
        <time>2022-02-23T14:06:23Z</time>
      </trkpt>
      <trkpt lat="43.28729" lon="5.6627">
        <ele>404.8</ele>
        <time>2022-02-23T14:06:29Z</time>
      </trkpt>
      <trkpt lat="43.28724" lon="5.6627">
        <ele>406.2</ele>
        <time>2022-02-23T14:06:35Z</time>
      </trkpt>
      <trkpt lat="43.28718" lon="5.66271">
        <ele>407.8</ele>
        <time>2022-02-23T14:06:41Z</time>
      </trkpt>
      <trkpt lat="43.28713" lon="5.66272">
        <ele>409</ele>
        <time>2022-02-23T14:06:47Z</time>
      </trkpt>
      <trkpt lat="43.28709" lon="5.66274">
        <ele>409.3</ele>
        <time>2022-02-23T14:06:53Z</time>
      </trkpt>
      <trkpt lat="43.28705" lon="5.66277">
        <ele>409</ele>
        <time>2022-02-23T14:06:59Z</time>
      </trkpt>
      <trkpt lat="43.28699" lon="5.66281">
        <ele>409.2</ele>
        <time>2022-02-23T14:07:07Z</time>
      </trkpt>
      <trkpt lat="43.28695" lon="5.66285">
        <ele>409.5</ele>
        <time>2022-02-23T14:07:15Z</time>
      </trkpt>
      <trkpt lat="43.28691" lon="5.66289">
        <ele>410.2</ele>
        <time>2022-02-23T14:07:23Z</time>
      </trkpt>
      <trkpt lat="43.28687" lon="5.66293">
        <ele>411.4</ele>
        <time>2022-02-23T14:07:31Z</time>
      </trkpt>
      <trkpt lat="43.28682" lon="5.66296">
        <ele>412.8</ele>
        <time>2022-02-23T14:07:37Z</time>
      </trkpt>
      <trkpt lat="43.28678" lon="5.66301">
        <ele>412.8</ele>
        <time>2022-02-23T14:07:43Z</time>
      </trkpt>
      <trkpt lat="43.28674" lon="5.66307">
        <ele>412.5</ele>
        <time>2022-02-23T14:07:49Z</time>
      </trkpt>
      <trkpt lat="43.2867" lon="5.6631">
        <ele>413.2</ele>
        <time>2022-02-23T14:07:57Z</time>
      </trkpt>
      <trkpt lat="43.28664" lon="5.66312">
        <ele>414.4</ele>
        <time>2022-02-23T14:08:05Z</time>
      </trkpt>
      <trkpt lat="43.28659" lon="5.66314">
        <ele>415</ele>
        <time>2022-02-23T14:08:11Z</time>
      </trkpt>
      <trkpt lat="43.28655" lon="5.66316">
        <ele>415.5</ele>
        <time>2022-02-23T14:08:17Z</time>
      </trkpt>
      <trkpt lat="43.2865" lon="5.66319">
        <ele>415.9</ele>
        <time>2022-02-23T14:08:23Z</time>
      </trkpt>
      <trkpt lat="43.28645" lon="5.66321">
        <ele>416.6</ele>
        <time>2022-02-23T14:08:29Z</time>
      </trkpt>
      <trkpt lat="43.2864" lon="5.66321">
        <ele>418.2</ele>
        <time>2022-02-23T14:08:35Z</time>
      </trkpt>
      <trkpt lat="43.28635" lon="5.66319">
        <ele>420.6</ele>
        <time>2022-02-23T14:08:43Z</time>
      </trkpt>
      <trkpt lat="43.28629" lon="5.66318">
        <ele>422.7</ele>
        <time>2022-02-23T14:08:51Z</time>
      </trkpt>
      <trkpt lat="43.28623" lon="5.6632">
        <ele>423.1</ele>
        <time>2022-02-23T14:08:59Z</time>
      </trkpt>
      <trkpt lat="43.28619" lon="5.66324">
        <ele>423</ele>
        <time>2022-02-23T14:09:07Z</time>
      </trkpt>
      <trkpt lat="43.28614" lon="5.66326">
        <ele>423.5</ele>
        <time>2022-02-23T14:09:15Z</time>
      </trkpt>
      <trkpt lat="43.28609" lon="5.66329">
        <ele>424.3</ele>
        <time>2022-02-23T14:09:23Z</time>
      </trkpt>
      <trkpt lat="43.28606" lon="5.66334">
        <ele>424.5</ele>
        <time>2022-02-23T14:09:29Z</time>
      </trkpt>
      <trkpt lat="43.28603" lon="5.66339">
        <ele>425.1</ele>
        <time>2022-02-23T14:09:35Z</time>
      </trkpt>
      <trkpt lat="43.286" lon="5.66346">
        <ele>425.6</ele>
        <time>2022-02-23T14:09:41Z</time>
      </trkpt>
      <trkpt lat="43.28598" lon="5.66353">
        <ele>426.2</ele>
        <time>2022-02-23T14:09:49Z</time>
      </trkpt>
      <trkpt lat="43.28596" lon="5.66361">
        <ele>426.3</ele>
        <time>2022-02-23T14:09:55Z</time>
      </trkpt>
      <trkpt lat="43.28594" lon="5.66367">
        <ele>427.3</ele>
        <time>2022-02-23T14:10:01Z</time>
      </trkpt>
      <trkpt lat="43.28592" lon="5.66373">
        <ele>428.3</ele>
        <time>2022-02-23T14:10:07Z</time>
      </trkpt>
      <trkpt lat="43.28591" lon="5.66379">
        <ele>428.9</ele>
        <time>2022-02-23T14:10:13Z</time>
      </trkpt>
      <trkpt lat="43.28591" lon="5.66386">
        <ele>428.9</ele>
        <time>2022-02-23T14:10:19Z</time>
      </trkpt>
      <trkpt lat="43.28591" lon="5.66392">
        <ele>429</ele>
        <time>2022-02-23T14:10:25Z</time>
      </trkpt>
      <trkpt lat="43.2859" lon="5.66399">
        <ele>429.1</ele>
        <time>2022-02-23T14:10:31Z</time>
      </trkpt>
      <trkpt lat="43.28589" lon="5.66406">
        <ele>429.1</ele>
        <time>2022-02-23T14:10:37Z</time>
      </trkpt>
      <trkpt lat="43.28587" lon="5.66413">
        <ele>429.5</ele>
        <time>2022-02-23T14:10:45Z</time>
      </trkpt>
      <trkpt lat="43.28583" lon="5.66416">
        <ele>430.4</ele>
        <time>2022-02-23T14:10:51Z</time>
      </trkpt>
      <trkpt lat="43.28578" lon="5.6642">
        <ele>432</ele>
        <time>2022-02-23T14:10:57Z</time>
      </trkpt>
      <trkpt lat="43.28574" lon="5.66423">
        <ele>433.4</ele>
        <time>2022-02-23T14:11:03Z</time>
      </trkpt>
      <trkpt lat="43.28568" lon="5.66427">
        <ele>434.9</ele>
        <time>2022-02-23T14:11:11Z</time>
      </trkpt>
      <trkpt lat="43.28562" lon="5.6643">
        <ele>436.1</ele>
        <time>2022-02-23T14:11:21Z</time>
      </trkpt>
      <trkpt lat="43.28557" lon="5.66433">
        <ele>437</ele>
        <time>2022-02-23T14:11:27Z</time>
      </trkpt>
      <trkpt lat="43.28553" lon="5.66436">
        <ele>437.5</ele>
        <time>2022-02-23T14:11:35Z</time>
      </trkpt>
      <trkpt lat="43.28548" lon="5.66438">
        <ele>438.3</ele>
        <time>2022-02-23T14:11:41Z</time>
      </trkpt>
      <trkpt lat="43.28543" lon="5.66437">
        <ele>439.3</ele>
        <time>2022-02-23T14:11:47Z</time>
      </trkpt>
      <trkpt lat="43.28538" lon="5.66438">
        <ele>440</ele>
        <time>2022-02-23T14:11:53Z</time>
      </trkpt>
      <trkpt lat="43.28534" lon="5.66438">
        <ele>440.9</ele>
        <time>2022-02-23T14:12:03Z</time>
      </trkpt>
      <trkpt lat="43.2853" lon="5.66441">
        <ele>441.2</ele>
        <time>2022-02-23T14:12:11Z</time>
      </trkpt>
      <trkpt lat="43.28525" lon="5.66443">
        <ele>441.7</ele>
        <time>2022-02-23T14:12:19Z</time>
      </trkpt>
      <trkpt lat="43.2852" lon="5.66444">
        <ele>442.6</ele>
        <time>2022-02-23T14:12:27Z</time>
      </trkpt>
      <trkpt lat="43.28514" lon="5.66445">
        <ele>443.4</ele>
        <time>2022-02-23T14:12:35Z</time>
      </trkpt>
      <trkpt lat="43.2851" lon="5.66446">
        <ele>444.5</ele>
        <time>2022-02-23T14:12:41Z</time>
      </trkpt>
      <trkpt lat="43.28506" lon="5.66448">
        <ele>445.6</ele>
        <time>2022-02-23T14:12:53Z</time>
      </trkpt>
      <trkpt lat="43.285" lon="5.66448">
        <ele>446.6</ele>
        <time>2022-02-23T14:13:03Z</time>
      </trkpt>
      <trkpt lat="43.28495" lon="5.66448">
        <ele>447.5</ele>
        <time>2022-02-23T14:13:11Z</time>
      </trkpt>
      <trkpt lat="43.2849" lon="5.66446">
        <ele>448.1</ele>
        <time>2022-02-23T14:13:21Z</time>
      </trkpt>
      <trkpt lat="43.28484" lon="5.66446">
        <ele>449.1</ele>
        <time>2022-02-23T14:13:29Z</time>
      </trkpt>
      <trkpt lat="43.28478" lon="5.66444">
        <ele>450.1</ele>
        <time>2022-02-23T14:13:37Z</time>
      </trkpt>
      <trkpt lat="43.28473" lon="5.66442">
        <ele>451.7</ele>
        <time>2022-02-23T14:13:45Z</time>
      </trkpt>
      <trkpt lat="43.28468" lon="5.66439">
        <ele>453.8</ele>
        <time>2022-02-23T14:13:53Z</time>
      </trkpt>
      <trkpt lat="43.28463" lon="5.66438">
        <ele>455.5</ele>
        <time>2022-02-23T14:14:01Z</time>
      </trkpt>
      <trkpt lat="43.28458" lon="5.66438">
        <ele>456.5</ele>
        <time>2022-02-23T14:14:09Z</time>
      </trkpt>
      <trkpt lat="43.28457" lon="5.66445">
        <ele>455.9</ele>
        <time>2022-02-23T14:15:05Z</time>
      </trkpt>
      <trkpt lat="43.28455" lon="5.66451">
        <ele>457.2</ele>
        <time>2022-02-23T14:15:13Z</time>
      </trkpt>
      <trkpt lat="43.28455" lon="5.66458">
        <ele>457.8</ele>
        <time>2022-02-23T14:15:19Z</time>
      </trkpt>
      <trkpt lat="43.28454" lon="5.66465">
        <ele>458.8</ele>
        <time>2022-02-23T14:15:27Z</time>
      </trkpt>
      <trkpt lat="43.28452" lon="5.66472">
        <ele>459.7</ele>
        <time>2022-02-23T14:15:35Z</time>
      </trkpt>
      <trkpt lat="43.28449" lon="5.66479">
        <ele>460.8</ele>
        <time>2022-02-23T14:15:43Z</time>
      </trkpt>
      <trkpt lat="43.28446" lon="5.66486">
        <ele>461.8</ele>
        <time>2022-02-23T14:15:51Z</time>
      </trkpt>
      <trkpt lat="43.28441" lon="5.66488">
        <ele>462.4</ele>
        <time>2022-02-23T14:15:59Z</time>
      </trkpt>
      <trkpt lat="43.28437" lon="5.66491">
        <ele>462.7</ele>
        <time>2022-02-23T14:16:05Z</time>
      </trkpt>
      <trkpt lat="43.28432" lon="5.6649">
        <ele>463</ele>
        <time>2022-02-23T14:16:21Z</time>
      </trkpt>
      <trkpt lat="43.28427" lon="5.6649">
        <ele>463.2</ele>
        <time>2022-02-23T14:16:27Z</time>
      </trkpt>
      <trkpt lat="43.28423" lon="5.66493">
        <ele>463.1</ele>
        <time>2022-02-23T14:18:37Z</time>
      </trkpt>
      <trkpt lat="43.28418" lon="5.66489">
        <ele>463.8</ele>
        <time>2022-02-23T14:18:45Z</time>
      </trkpt>
      <trkpt lat="43.28414" lon="5.66487">
        <ele>464.4</ele>
        <time>2022-02-23T14:18:51Z</time>
      </trkpt>
      <trkpt lat="43.28409" lon="5.66485">
        <ele>464.6</ele>
        <time>2022-02-23T14:18:57Z</time>
      </trkpt>
      <trkpt lat="43.28403" lon="5.66482">
        <ele>464.8</ele>
        <time>2022-02-23T14:19:03Z</time>
      </trkpt>
      <trkpt lat="43.28397" lon="5.6648">
        <ele>464.8</ele>
        <time>2022-02-23T14:19:09Z</time>
      </trkpt>
      <trkpt lat="43.28391" lon="5.66477">
        <ele>464.7</ele>
        <time>2022-02-23T14:19:15Z</time>
      </trkpt>
      <trkpt lat="43.28384" lon="5.66478">
        <ele>464.9</ele>
        <time>2022-02-23T14:19:21Z</time>
      </trkpt>
      <trkpt lat="43.28378" lon="5.66479">
        <ele>465.2</ele>
        <time>2022-02-23T14:19:27Z</time>
      </trkpt>
      <trkpt lat="43.28375" lon="5.66484">
        <ele>465.3</ele>
        <time>2022-02-23T14:19:33Z</time>
      </trkpt>
      <trkpt lat="43.28374" lon="5.66492">
        <ele>465.3</ele>
        <time>2022-02-23T14:19:39Z</time>
      </trkpt>
      <trkpt lat="43.28374" lon="5.665">
        <ele>465.2</ele>
        <time>2022-02-23T14:19:45Z</time>
      </trkpt>
      <trkpt lat="43.28376" lon="5.66507">
        <ele>465.4</ele>
        <time>2022-02-23T14:19:51Z</time>
      </trkpt>
      <trkpt lat="43.28379" lon="5.66515">
        <ele>465.4</ele>
        <time>2022-02-23T14:19:57Z</time>
      </trkpt>
      <trkpt lat="43.28382" lon="5.66522">
        <ele>465.2</ele>
        <time>2022-02-23T14:20:01Z</time>
      </trkpt>
      <trkpt lat="43.28385" lon="5.66527">
        <ele>464.9</ele>
        <time>2022-02-23T14:20:05Z</time>
      </trkpt>
      <trkpt lat="43.28386" lon="5.66534">
        <ele>465.5</ele>
        <time>2022-02-23T14:20:11Z</time>
      </trkpt>
      <trkpt lat="43.28389" lon="5.6654">
        <ele>465.9</ele>
        <time>2022-02-23T14:20:17Z</time>
      </trkpt>
      <trkpt lat="43.28392" lon="5.66548">
        <ele>466.3</ele>
        <time>2022-02-23T14:20:23Z</time>
      </trkpt>
      <trkpt lat="43.28395" lon="5.66553">
        <ele>466.4</ele>
        <time>2022-02-23T14:20:29Z</time>
      </trkpt>
      <trkpt lat="43.28398" lon="5.66558">
        <ele>466.7</ele>
        <time>2022-02-23T14:20:35Z</time>
      </trkpt>
      <trkpt lat="43.28402" lon="5.66564">
        <ele>467</ele>
        <time>2022-02-23T14:20:41Z</time>
      </trkpt>
      <trkpt lat="43.28406" lon="5.6657">
        <ele>467.3</ele>
        <time>2022-02-23T14:20:47Z</time>
      </trkpt>
      <trkpt lat="43.28409" lon="5.66574">
        <ele>467.3</ele>
        <time>2022-02-23T14:20:51Z</time>
      </trkpt>
      <trkpt lat="43.28412" lon="5.6658">
        <ele>467.5</ele>
        <time>2022-02-23T14:20:57Z</time>
      </trkpt>
      <trkpt lat="43.28417" lon="5.66586">
        <ele>467.5</ele>
        <time>2022-02-23T14:21:03Z</time>
      </trkpt>
      <trkpt lat="43.28421" lon="5.6659">
        <ele>467.9</ele>
        <time>2022-02-23T14:21:09Z</time>
      </trkpt>
      <trkpt lat="43.28426" lon="5.66595">
        <ele>468.3</ele>
        <time>2022-02-23T14:21:15Z</time>
      </trkpt>
      <trkpt lat="43.2843" lon="5.66601">
        <ele>469</ele>
        <time>2022-02-23T14:21:23Z</time>
      </trkpt>
      <trkpt lat="43.28434" lon="5.66604">
        <ele>469.2</ele>
        <time>2022-02-23T14:21:31Z</time>
      </trkpt>
      <trkpt lat="43.28437" lon="5.66609">
        <ele>469.8</ele>
        <time>2022-02-23T14:21:37Z</time>
      </trkpt>
      <trkpt lat="43.28441" lon="5.66613">
        <ele>470.2</ele>
        <time>2022-02-23T14:22:07Z</time>
      </trkpt>
      <trkpt lat="43.28446" lon="5.66616">
        <ele>470.3</ele>
        <time>2022-02-23T14:23:59Z</time>
      </trkpt>
      <trkpt lat="43.2845" lon="5.66621">
        <ele>471.3</ele>
        <time>2022-02-23T14:24:31Z</time>
      </trkpt>
      <trkpt lat="43.28455" lon="5.66624">
        <ele>471.4</ele>
        <time>2022-02-23T14:24:37Z</time>
      </trkpt>
      <trkpt lat="43.2846" lon="5.66626">
        <ele>471.6</ele>
        <time>2022-02-23T14:24:43Z</time>
      </trkpt>
      <trkpt lat="43.28466" lon="5.66627">
        <ele>471.4</ele>
        <time>2022-02-23T14:24:49Z</time>
      </trkpt>
      <trkpt lat="43.28472" lon="5.66628">
        <ele>470.8</ele>
        <time>2022-02-23T14:24:55Z</time>
      </trkpt>
      <trkpt lat="43.28477" lon="5.66629">
        <ele>470.4</ele>
        <time>2022-02-23T14:25:01Z</time>
      </trkpt>
      <trkpt lat="43.28482" lon="5.6663">
        <ele>470</ele>
        <time>2022-02-23T14:25:07Z</time>
      </trkpt>
      <trkpt lat="43.28487" lon="5.66631">
        <ele>469.7</ele>
        <time>2022-02-23T14:25:15Z</time>
      </trkpt>
      <trkpt lat="43.28492" lon="5.66632">
        <ele>469.4</ele>
        <time>2022-02-23T14:25:21Z</time>
      </trkpt>
      <trkpt lat="43.28497" lon="5.66636">
        <ele>470</ele>
        <time>2022-02-23T14:25:27Z</time>
      </trkpt>
      <trkpt lat="43.28502" lon="5.6664">
        <ele>470.1</ele>
        <time>2022-02-23T14:25:33Z</time>
      </trkpt>
      <trkpt lat="43.28504" lon="5.66646">
        <ele>469.2</ele>
        <time>2022-02-23T14:25:39Z</time>
      </trkpt>
      <trkpt lat="43.28503" lon="5.66653">
        <ele>469.1</ele>
        <time>2022-02-23T14:25:45Z</time>
      </trkpt>
      <trkpt lat="43.285" lon="5.66661">
        <ele>469.5</ele>
        <time>2022-02-23T14:25:51Z</time>
      </trkpt>
      <trkpt lat="43.28496" lon="5.66665">
        <ele>469.4</ele>
        <time>2022-02-23T14:25:55Z</time>
      </trkpt>
      <trkpt lat="43.28491" lon="5.6667">
        <ele>469</ele>
        <time>2022-02-23T14:26:01Z</time>
      </trkpt>
      <trkpt lat="43.28487" lon="5.66674">
        <ele>468.7</ele>
        <time>2022-02-23T14:26:07Z</time>
      </trkpt>
      <trkpt lat="43.28483" lon="5.6668">
        <ele>468.2</ele>
        <time>2022-02-23T14:26:15Z</time>
      </trkpt>
      <trkpt lat="43.2848" lon="5.66687">
        <ele>467.6</ele>
        <time>2022-02-23T14:26:21Z</time>
      </trkpt>
      <trkpt lat="43.28476" lon="5.66694">
        <ele>467.5</ele>
        <time>2022-02-23T14:26:27Z</time>
      </trkpt>
      <trkpt lat="43.28473" lon="5.66698">
        <ele>466.9</ele>
        <time>2022-02-23T14:26:31Z</time>
      </trkpt>
      <trkpt lat="43.28469" lon="5.66705">
        <ele>465.7</ele>
        <time>2022-02-23T14:26:37Z</time>
      </trkpt>
      <trkpt lat="43.28465" lon="5.6671">
        <ele>464.8</ele>
        <time>2022-02-23T14:26:41Z</time>
      </trkpt>
      <trkpt lat="43.28461" lon="5.66715">
        <ele>464.2</ele>
        <time>2022-02-23T14:26:45Z</time>
      </trkpt>
      <trkpt lat="43.28457" lon="5.66718">
        <ele>463.9</ele>
        <time>2022-02-23T14:26:49Z</time>
      </trkpt>
      <trkpt lat="43.28451" lon="5.66718">
        <ele>464.4</ele>
        <time>2022-02-23T14:26:55Z</time>
      </trkpt>
      <trkpt lat="43.28446" lon="5.66717">
        <ele>465.3</ele>
        <time>2022-02-23T14:26:59Z</time>
      </trkpt>
      <trkpt lat="43.28441" lon="5.66716">
        <ele>465.4</ele>
        <time>2022-02-23T14:27:03Z</time>
      </trkpt>
      <trkpt lat="43.28437" lon="5.66713">
        <ele>465.4</ele>
        <time>2022-02-23T14:27:07Z</time>
      </trkpt>
      <trkpt lat="43.28432" lon="5.6671">
        <ele>465.7</ele>
        <time>2022-02-23T14:27:11Z</time>
      </trkpt>
      <trkpt lat="43.28428" lon="5.66707">
        <ele>466</ele>
        <time>2022-02-23T14:27:15Z</time>
      </trkpt>
      <trkpt lat="43.28424" lon="5.66705">
        <ele>466</ele>
        <time>2022-02-23T14:27:19Z</time>
      </trkpt>
      <trkpt lat="43.28419" lon="5.66705">
        <ele>465.6</ele>
        <time>2022-02-23T14:27:23Z</time>
      </trkpt>
      <trkpt lat="43.28414" lon="5.66705">
        <ele>465.5</ele>
        <time>2022-02-23T14:27:27Z</time>
      </trkpt>
      <trkpt lat="43.28407" lon="5.66706">
        <ele>465.9</ele>
        <time>2022-02-23T14:27:33Z</time>
      </trkpt>
      <trkpt lat="43.28402" lon="5.66709">
        <ele>465.4</ele>
        <time>2022-02-23T14:27:39Z</time>
      </trkpt>
      <trkpt lat="43.28396" lon="5.66714">
        <ele>464.4</ele>
        <time>2022-02-23T14:27:45Z</time>
      </trkpt>
      <trkpt lat="43.28391" lon="5.66717">
        <ele>463.6</ele>
        <time>2022-02-23T14:27:49Z</time>
      </trkpt>
      <trkpt lat="43.28385" lon="5.6672">
        <ele>463.1</ele>
        <time>2022-02-23T14:27:55Z</time>
      </trkpt>
      <trkpt lat="43.2838" lon="5.66721">
        <ele>462.9</ele>
        <time>2022-02-23T14:28:01Z</time>
      </trkpt>
      <trkpt lat="43.28375" lon="5.66722">
        <ele>463.1</ele>
        <time>2022-02-23T14:28:07Z</time>
      </trkpt>
      <trkpt lat="43.2837" lon="5.66721">
        <ele>463.8</ele>
        <time>2022-02-23T14:28:13Z</time>
      </trkpt>
      <trkpt lat="43.28365" lon="5.66721">
        <ele>464</ele>
        <time>2022-02-23T14:28:19Z</time>
      </trkpt>
      <trkpt lat="43.28359" lon="5.66722">
        <ele>464</ele>
        <time>2022-02-23T14:28:25Z</time>
      </trkpt>
      <trkpt lat="43.28353" lon="5.66723">
        <ele>463.6</ele>
        <time>2022-02-23T14:28:31Z</time>
      </trkpt>
      <trkpt lat="43.28348" lon="5.66723">
        <ele>463.2</ele>
        <time>2022-02-23T14:28:35Z</time>
      </trkpt>
      <trkpt lat="43.28344" lon="5.66724">
        <ele>462.9</ele>
        <time>2022-02-23T14:28:39Z</time>
      </trkpt>
      <trkpt lat="43.28339" lon="5.66725">
        <ele>462.4</ele>
        <time>2022-02-23T14:28:43Z</time>
      </trkpt>
      <trkpt lat="43.28334" lon="5.66724">
        <ele>462.4</ele>
        <time>2022-02-23T14:28:47Z</time>
      </trkpt>
      <trkpt lat="43.28329" lon="5.66724">
        <ele>462.1</ele>
        <time>2022-02-23T14:28:51Z</time>
      </trkpt>
      <trkpt lat="43.28323" lon="5.66724">
        <ele>461.6</ele>
        <time>2022-02-23T14:28:55Z</time>
      </trkpt>
      <trkpt lat="43.28317" lon="5.66725">
        <ele>460.7</ele>
        <time>2022-02-23T14:28:59Z</time>
      </trkpt>
      <trkpt lat="43.28312" lon="5.66724">
        <ele>460.4</ele>
        <time>2022-02-23T14:29:03Z</time>
      </trkpt>
      <trkpt lat="43.28307" lon="5.66723">
        <ele>460.1</ele>
        <time>2022-02-23T14:29:07Z</time>
      </trkpt>
      <trkpt lat="43.28302" lon="5.66721">
        <ele>460.6</ele>
        <time>2022-02-23T14:29:13Z</time>
      </trkpt>
      <trkpt lat="43.28296" lon="5.66722">
        <ele>460.8</ele>
        <time>2022-02-23T14:29:19Z</time>
      </trkpt>
      <trkpt lat="43.28292" lon="5.66726">
        <ele>460.9</ele>
        <time>2022-02-23T14:29:23Z</time>
      </trkpt>
      <trkpt lat="43.28289" lon="5.66732">
        <ele>461.4</ele>
        <time>2022-02-23T14:29:27Z</time>
      </trkpt>
      <trkpt lat="43.28289" lon="5.66739">
        <ele>461.4</ele>
        <time>2022-02-23T14:29:33Z</time>
      </trkpt>
      <trkpt lat="43.28295" lon="5.66745">
        <ele>459.4</ele>
        <time>2022-02-23T14:29:37Z</time>
      </trkpt>
      <trkpt lat="43.283" lon="5.66751">
        <ele>457.3</ele>
        <time>2022-02-23T14:29:41Z</time>
      </trkpt>
      <trkpt lat="43.28302" lon="5.6676">
        <ele>457.6</ele>
        <time>2022-02-23T14:29:47Z</time>
      </trkpt>
      <trkpt lat="43.28304" lon="5.66765">
        <ele>456.8</ele>
        <time>2022-02-23T14:29:51Z</time>
      </trkpt>
      <trkpt lat="43.28307" lon="5.66771">
        <ele>456.2</ele>
        <time>2022-02-23T14:29:55Z</time>
      </trkpt>
      <trkpt lat="43.28309" lon="5.66776">
        <ele>455.7</ele>
        <time>2022-02-23T14:29:59Z</time>
      </trkpt>
      <trkpt lat="43.28312" lon="5.66783">
        <ele>455.4</ele>
        <time>2022-02-23T14:30:05Z</time>
      </trkpt>
      <trkpt lat="43.28314" lon="5.66789">
        <ele>455</ele>
        <time>2022-02-23T14:30:09Z</time>
      </trkpt>
      <trkpt lat="43.28316" lon="5.66795">
        <ele>454.9</ele>
        <time>2022-02-23T14:30:13Z</time>
      </trkpt>
      <trkpt lat="43.28318" lon="5.66802">
        <ele>454.9</ele>
        <time>2022-02-23T14:30:19Z</time>
      </trkpt>
      <trkpt lat="43.28321" lon="5.6681">
        <ele>454.5</ele>
        <time>2022-02-23T14:30:25Z</time>
      </trkpt>
      <trkpt lat="43.28323" lon="5.66817">
        <ele>454.6</ele>
        <time>2022-02-23T14:30:31Z</time>
      </trkpt>
      <trkpt lat="43.28324" lon="5.66826">
        <ele>455.2</ele>
        <time>2022-02-23T14:30:37Z</time>
      </trkpt>
      <trkpt lat="43.28323" lon="5.66832">
        <ele>456.7</ele>
        <time>2022-02-23T14:30:41Z</time>
      </trkpt>
      <trkpt lat="43.28321" lon="5.66839">
        <ele>456.9</ele>
        <time>2022-02-23T14:30:45Z</time>
      </trkpt>
      <trkpt lat="43.2832" lon="5.66846">
        <ele>456.7</ele>
        <time>2022-02-23T14:30:49Z</time>
      </trkpt>
      <trkpt lat="43.28319" lon="5.66853">
        <ele>456.6</ele>
        <time>2022-02-23T14:30:53Z</time>
      </trkpt>
      <trkpt lat="43.28319" lon="5.66859">
        <ele>455.9</ele>
        <time>2022-02-23T14:30:57Z</time>
      </trkpt>
      <trkpt lat="43.28319" lon="5.66868">
        <ele>454.9</ele>
        <time>2022-02-23T14:31:03Z</time>
      </trkpt>
      <trkpt lat="43.28318" lon="5.66876">
        <ele>454.3</ele>
        <time>2022-02-23T14:31:09Z</time>
      </trkpt>
      <trkpt lat="43.28314" lon="5.66883">
        <ele>454.5</ele>
        <time>2022-02-23T14:31:15Z</time>
      </trkpt>
      <trkpt lat="43.28309" lon="5.66887">
        <ele>455.2</ele>
        <time>2022-02-23T14:31:21Z</time>
      </trkpt>
      <trkpt lat="43.28305" lon="5.66891">
        <ele>455.9</ele>
        <time>2022-02-23T14:31:27Z</time>
      </trkpt>
      <trkpt lat="43.283" lon="5.66893">
        <ele>456.1</ele>
        <time>2022-02-23T14:31:33Z</time>
      </trkpt>
      <trkpt lat="43.28296" lon="5.66899">
        <ele>456</ele>
        <time>2022-02-23T14:31:39Z</time>
      </trkpt>
      <trkpt lat="43.28293" lon="5.66905">
        <ele>455.8</ele>
        <time>2022-02-23T14:31:45Z</time>
      </trkpt>
      <trkpt lat="43.2829" lon="5.66911">
        <ele>455.6</ele>
        <time>2022-02-23T14:31:49Z</time>
      </trkpt>
      <trkpt lat="43.28287" lon="5.66919">
        <ele>455.4</ele>
        <time>2022-02-23T14:31:55Z</time>
      </trkpt>
      <trkpt lat="43.28285" lon="5.66925">
        <ele>455.4</ele>
        <time>2022-02-23T14:31:59Z</time>
      </trkpt>
      <trkpt lat="43.28284" lon="5.66932">
        <ele>455.4</ele>
        <time>2022-02-23T14:32:03Z</time>
      </trkpt>
      <trkpt lat="43.28284" lon="5.66938">
        <ele>455.3</ele>
        <time>2022-02-23T14:32:07Z</time>
      </trkpt>
      <trkpt lat="43.28284" lon="5.66947">
        <ele>455.2</ele>
        <time>2022-02-23T14:32:13Z</time>
      </trkpt>
      <trkpt lat="43.28284" lon="5.66954">
        <ele>455.2</ele>
        <time>2022-02-23T14:32:17Z</time>
      </trkpt>
      <trkpt lat="43.28284" lon="5.6696">
        <ele>455.2</ele>
        <time>2022-02-23T14:32:21Z</time>
      </trkpt>
      <trkpt lat="43.28284" lon="5.66967">
        <ele>455.2</ele>
        <time>2022-02-23T14:32:25Z</time>
      </trkpt>
      <trkpt lat="43.28283" lon="5.66973">
        <ele>455.2</ele>
        <time>2022-02-23T14:32:29Z</time>
      </trkpt>
      <trkpt lat="43.28282" lon="5.6698">
        <ele>454.9</ele>
        <time>2022-02-23T14:32:33Z</time>
      </trkpt>
      <trkpt lat="43.28281" lon="5.66986">
        <ele>454.6</ele>
        <time>2022-02-23T14:32:37Z</time>
      </trkpt>
      <trkpt lat="43.2828" lon="5.66993">
        <ele>454.3</ele>
        <time>2022-02-23T14:32:41Z</time>
      </trkpt>
      <trkpt lat="43.28278" lon="5.67">
        <ele>454</ele>
        <time>2022-02-23T14:32:45Z</time>
      </trkpt>
      <trkpt lat="43.28277" lon="5.67008">
        <ele>453.8</ele>
        <time>2022-02-23T14:32:51Z</time>
      </trkpt>
      <trkpt lat="43.28275" lon="5.67017">
        <ele>453.6</ele>
        <time>2022-02-23T14:32:57Z</time>
      </trkpt>
      <trkpt lat="43.28274" lon="5.67025">
        <ele>453.3</ele>
        <time>2022-02-23T14:33:03Z</time>
      </trkpt>
      <trkpt lat="43.28271" lon="5.67033">
        <ele>453.1</ele>
        <time>2022-02-23T14:33:09Z</time>
      </trkpt>
      <trkpt lat="43.28269" lon="5.67041">
        <ele>453</ele>
        <time>2022-02-23T14:33:15Z</time>
      </trkpt>
      <trkpt lat="43.28267" lon="5.67046">
        <ele>452.9</ele>
        <time>2022-02-23T14:33:19Z</time>
      </trkpt>
      <trkpt lat="43.28264" lon="5.67053">
        <ele>452.6</ele>
        <time>2022-02-23T14:33:25Z</time>
      </trkpt>
      <trkpt lat="43.28261" lon="5.67061">
        <ele>451.9</ele>
        <time>2022-02-23T14:33:31Z</time>
      </trkpt>
      <trkpt lat="43.28259" lon="5.67068">
        <ele>451.2</ele>
        <time>2022-02-23T14:33:35Z</time>
      </trkpt>
      <trkpt lat="43.28257" lon="5.67074">
        <ele>450.4</ele>
        <time>2022-02-23T14:33:39Z</time>
      </trkpt>
      <trkpt lat="43.28256" lon="5.67081">
        <ele>449.6</ele>
        <time>2022-02-23T14:33:43Z</time>
      </trkpt>
      <trkpt lat="43.28254" lon="5.67087">
        <ele>449.1</ele>
        <time>2022-02-23T14:33:47Z</time>
      </trkpt>
      <trkpt lat="43.28251" lon="5.67095">
        <ele>448.6</ele>
        <time>2022-02-23T14:33:53Z</time>
      </trkpt>
      <trkpt lat="43.2825" lon="5.67103">
        <ele>448.3</ele>
        <time>2022-02-23T14:33:59Z</time>
      </trkpt>
      <trkpt lat="43.28248" lon="5.67111">
        <ele>448</ele>
        <time>2022-02-23T14:34:05Z</time>
      </trkpt>
      <trkpt lat="43.28248" lon="5.6712">
        <ele>447.4</ele>
        <time>2022-02-23T14:34:11Z</time>
      </trkpt>
      <trkpt lat="43.28247" lon="5.67127">
        <ele>446.9</ele>
        <time>2022-02-23T14:34:15Z</time>
      </trkpt>
      <trkpt lat="43.28248" lon="5.67134">
        <ele>446.4</ele>
        <time>2022-02-23T14:34:19Z</time>
      </trkpt>
      <trkpt lat="43.28248" lon="5.6714">
        <ele>446</ele>
        <time>2022-02-23T14:34:23Z</time>
      </trkpt>
      <trkpt lat="43.28249" lon="5.6715">
        <ele>445.7</ele>
        <time>2022-02-23T14:34:29Z</time>
      </trkpt>
      <trkpt lat="43.2825" lon="5.67158">
        <ele>445.3</ele>
        <time>2022-02-23T14:34:35Z</time>
      </trkpt>
      <trkpt lat="43.28252" lon="5.67166">
        <ele>445.1</ele>
        <time>2022-02-23T14:34:41Z</time>
      </trkpt>
      <trkpt lat="43.28254" lon="5.67173">
        <ele>444.9</ele>
        <time>2022-02-23T14:34:47Z</time>
      </trkpt>
      <trkpt lat="43.28256" lon="5.67182">
        <ele>444.7</ele>
        <time>2022-02-23T14:34:53Z</time>
      </trkpt>
      <trkpt lat="43.28258" lon="5.67191">
        <ele>444.4</ele>
        <time>2022-02-23T14:34:59Z</time>
      </trkpt>
      <trkpt lat="43.2826" lon="5.67197">
        <ele>444.3</ele>
        <time>2022-02-23T14:35:03Z</time>
      </trkpt>
      <trkpt lat="43.28261" lon="5.67203">
        <ele>444.1</ele>
        <time>2022-02-23T14:35:07Z</time>
      </trkpt>
      <trkpt lat="43.28263" lon="5.67211">
        <ele>443.9</ele>
        <time>2022-02-23T14:35:13Z</time>
      </trkpt>
      <trkpt lat="43.28266" lon="5.67219">
        <ele>443.7</ele>
        <time>2022-02-23T14:35:19Z</time>
      </trkpt>
      <trkpt lat="43.28267" lon="5.67228">
        <ele>443.6</ele>
        <time>2022-02-23T14:35:25Z</time>
      </trkpt>
      <trkpt lat="43.2827" lon="5.67236">
        <ele>443.7</ele>
        <time>2022-02-23T14:35:31Z</time>
      </trkpt>
      <trkpt lat="43.28273" lon="5.67244">
        <ele>443.8</ele>
        <time>2022-02-23T14:35:37Z</time>
      </trkpt>
      <trkpt lat="43.28277" lon="5.67248">
        <ele>444</ele>
        <time>2022-02-23T14:35:41Z</time>
      </trkpt>
      <trkpt lat="43.2828" lon="5.67252">
        <ele>444.1</ele>
        <time>2022-02-23T14:35:45Z</time>
      </trkpt>
      <trkpt lat="43.28284" lon="5.67255">
        <ele>444.2</ele>
        <time>2022-02-23T14:35:49Z</time>
      </trkpt>
      <trkpt lat="43.28289" lon="5.67257">
        <ele>444.3</ele>
        <time>2022-02-23T14:35:53Z</time>
      </trkpt>
      <trkpt lat="43.28293" lon="5.67259">
        <ele>444.4</ele>
        <time>2022-02-23T14:35:57Z</time>
      </trkpt>
      <trkpt lat="43.28298" lon="5.67261">
        <ele>444.4</ele>
        <time>2022-02-23T14:36:01Z</time>
      </trkpt>
      <trkpt lat="43.28303" lon="5.67263">
        <ele>444.5</ele>
        <time>2022-02-23T14:36:05Z</time>
      </trkpt>
      <trkpt lat="43.28307" lon="5.67265">
        <ele>444.6</ele>
        <time>2022-02-23T14:36:09Z</time>
      </trkpt>
      <trkpt lat="43.28313" lon="5.67269">
        <ele>444.8</ele>
        <time>2022-02-23T14:36:15Z</time>
      </trkpt>
      <trkpt lat="43.28315" lon="5.67276">
        <ele>444.7</ele>
        <time>2022-02-23T14:36:21Z</time>
      </trkpt>
      <trkpt lat="43.28311" lon="5.67282">
        <ele>444.5</ele>
        <time>2022-02-23T14:36:27Z</time>
      </trkpt>
      <trkpt lat="43.28305" lon="5.67286">
        <ele>444.3</ele>
        <time>2022-02-23T14:36:33Z</time>
      </trkpt>
      <trkpt lat="43.28299" lon="5.67291">
        <ele>444.4</ele>
        <time>2022-02-23T14:36:39Z</time>
      </trkpt>
      <trkpt lat="43.28295" lon="5.67294">
        <ele>444.4</ele>
        <time>2022-02-23T14:36:43Z</time>
      </trkpt>
      <trkpt lat="43.2829" lon="5.67297">
        <ele>444.3</ele>
        <time>2022-02-23T14:36:49Z</time>
      </trkpt>
      <trkpt lat="43.28285" lon="5.67301">
        <ele>444.2</ele>
        <time>2022-02-23T14:36:55Z</time>
      </trkpt>
      <trkpt lat="43.28281" lon="5.67305">
        <ele>444.1</ele>
        <time>2022-02-23T14:36:59Z</time>
      </trkpt>
      <trkpt lat="43.28277" lon="5.6731">
        <ele>443.8</ele>
        <time>2022-02-23T14:37:03Z</time>
      </trkpt>
      <trkpt lat="43.28273" lon="5.67313">
        <ele>443.4</ele>
        <time>2022-02-23T14:37:07Z</time>
      </trkpt>
      <trkpt lat="43.28268" lon="5.67319">
        <ele>442.8</ele>
        <time>2022-02-23T14:37:13Z</time>
      </trkpt>
      <trkpt lat="43.28265" lon="5.67325">
        <ele>442.2</ele>
        <time>2022-02-23T14:37:19Z</time>
      </trkpt>
      <trkpt lat="43.28264" lon="5.67331">
        <ele>441.7</ele>
        <time>2022-02-23T14:37:23Z</time>
      </trkpt>
      <trkpt lat="43.28263" lon="5.67337">
        <ele>441.1</ele>
        <time>2022-02-23T14:37:27Z</time>
      </trkpt>
      <trkpt lat="43.28263" lon="5.67344">
        <ele>440.6</ele>
        <time>2022-02-23T14:37:31Z</time>
      </trkpt>
      <trkpt lat="43.28263" lon="5.6735">
        <ele>440.1</ele>
        <time>2022-02-23T14:37:35Z</time>
      </trkpt>
      <trkpt lat="43.28264" lon="5.67357">
        <ele>439.8</ele>
        <time>2022-02-23T14:37:39Z</time>
      </trkpt>
      <trkpt lat="43.28265" lon="5.67366">
        <ele>439.4</ele>
        <time>2022-02-23T14:37:45Z</time>
      </trkpt>
      <trkpt lat="43.28265" lon="5.67373">
        <ele>439</ele>
        <time>2022-02-23T14:37:49Z</time>
      </trkpt>
      <trkpt lat="43.28266" lon="5.67379">
        <ele>438.8</ele>
        <time>2022-02-23T14:37:53Z</time>
      </trkpt>
      <trkpt lat="43.28267" lon="5.67385">
        <ele>438.4</ele>
        <time>2022-02-23T14:37:57Z</time>
      </trkpt>
      <trkpt lat="43.28267" lon="5.67394">
        <ele>438.2</ele>
        <time>2022-02-23T14:38:03Z</time>
      </trkpt>
      <trkpt lat="43.28266" lon="5.67403">
        <ele>438.1</ele>
        <time>2022-02-23T14:38:09Z</time>
      </trkpt>
      <trkpt lat="43.28266" lon="5.6741">
        <ele>437.9</ele>
        <time>2022-02-23T14:38:13Z</time>
      </trkpt>
      <trkpt lat="43.28265" lon="5.67417">
        <ele>437.8</ele>
        <time>2022-02-23T14:38:17Z</time>
      </trkpt>
      <trkpt lat="43.28265" lon="5.67425">
        <ele>437.3</ele>
        <time>2022-02-23T14:38:23Z</time>
      </trkpt>
      <trkpt lat="43.28264" lon="5.67434">
        <ele>436.9</ele>
        <time>2022-02-23T14:38:29Z</time>
      </trkpt>
      <trkpt lat="43.28263" lon="5.6744">
        <ele>436.5</ele>
        <time>2022-02-23T14:38:33Z</time>
      </trkpt>
      <trkpt lat="43.28262" lon="5.6745">
        <ele>435.9</ele>
        <time>2022-02-23T14:38:39Z</time>
      </trkpt>
      <trkpt lat="43.28261" lon="5.67456">
        <ele>435.5</ele>
        <time>2022-02-23T14:38:43Z</time>
      </trkpt>
      <trkpt lat="43.2826" lon="5.67462">
        <ele>435.1</ele>
        <time>2022-02-23T14:38:47Z</time>
      </trkpt>
      <trkpt lat="43.28258" lon="5.6747">
        <ele>434.6</ele>
        <time>2022-02-23T14:38:53Z</time>
      </trkpt>
      <trkpt lat="43.28258" lon="5.67479">
        <ele>434.1</ele>
        <time>2022-02-23T14:38:59Z</time>
      </trkpt>
      <trkpt lat="43.28257" lon="5.67485">
        <ele>433.6</ele>
        <time>2022-02-23T14:39:03Z</time>
      </trkpt>
      <trkpt lat="43.28257" lon="5.67492">
        <ele>433.1</ele>
        <time>2022-02-23T14:39:07Z</time>
      </trkpt>
      <trkpt lat="43.28256" lon="5.67499">
        <ele>432.7</ele>
        <time>2022-02-23T14:39:11Z</time>
      </trkpt>
      <trkpt lat="43.28257" lon="5.67506">
        <ele>432.4</ele>
        <time>2022-02-23T14:39:15Z</time>
      </trkpt>
      <trkpt lat="43.28257" lon="5.67513">
        <ele>432</ele>
        <time>2022-02-23T14:39:19Z</time>
      </trkpt>
      <trkpt lat="43.28257" lon="5.67522">
        <ele>431.4</ele>
        <time>2022-02-23T14:39:25Z</time>
      </trkpt>
      <trkpt lat="43.28257" lon="5.67528">
        <ele>430.9</ele>
        <time>2022-02-23T14:39:29Z</time>
      </trkpt>
      <trkpt lat="43.28257" lon="5.67535">
        <ele>430.7</ele>
        <time>2022-02-23T14:39:33Z</time>
      </trkpt>
      <trkpt lat="43.28257" lon="5.67542">
        <ele>430.2</ele>
        <time>2022-02-23T14:39:37Z</time>
      </trkpt>
      <trkpt lat="43.28256" lon="5.67548">
        <ele>429.8</ele>
        <time>2022-02-23T14:39:41Z</time>
      </trkpt>
      <trkpt lat="43.28256" lon="5.67554">
        <ele>429.4</ele>
        <time>2022-02-23T14:39:45Z</time>
      </trkpt>
      <trkpt lat="43.28256" lon="5.67563">
        <ele>428.5</ele>
        <time>2022-02-23T14:39:51Z</time>
      </trkpt>
      <trkpt lat="43.28257" lon="5.6757">
        <ele>428</ele>
        <time>2022-02-23T14:39:55Z</time>
      </trkpt>
      <trkpt lat="43.28257" lon="5.67576">
        <ele>427.5</ele>
        <time>2022-02-23T14:39:59Z</time>
      </trkpt>
      <trkpt lat="43.28258" lon="5.67583">
        <ele>427.1</ele>
        <time>2022-02-23T14:40:03Z</time>
      </trkpt>
      <trkpt lat="43.28259" lon="5.67589">
        <ele>426.4</ele>
        <time>2022-02-23T14:40:07Z</time>
      </trkpt>
      <trkpt lat="43.28261" lon="5.67597">
        <ele>425.7</ele>
        <time>2022-02-23T14:40:13Z</time>
      </trkpt>
      <trkpt lat="43.28263" lon="5.67605">
        <ele>425</ele>
        <time>2022-02-23T14:40:19Z</time>
      </trkpt>
      <trkpt lat="43.28264" lon="5.67612">
        <ele>424.5</ele>
        <time>2022-02-23T14:40:23Z</time>
      </trkpt>
      <trkpt lat="43.28266" lon="5.67618">
        <ele>424</ele>
        <time>2022-02-23T14:40:27Z</time>
      </trkpt>
      <trkpt lat="43.28268" lon="5.67624">
        <ele>423.3</ele>
        <time>2022-02-23T14:40:31Z</time>
      </trkpt>
      <trkpt lat="43.2827" lon="5.67632">
        <ele>422.4</ele>
        <time>2022-02-23T14:40:37Z</time>
      </trkpt>
      <trkpt lat="43.28273" lon="5.67638">
        <ele>422</ele>
        <time>2022-02-23T14:40:41Z</time>
      </trkpt>
      <trkpt lat="43.28277" lon="5.67644">
        <ele>422</ele>
        <time>2022-02-23T14:40:47Z</time>
      </trkpt>
      <trkpt lat="43.2828" lon="5.6765">
        <ele>421.8</ele>
        <time>2022-02-23T14:40:51Z</time>
      </trkpt>
      <trkpt lat="43.28284" lon="5.67655">
        <ele>421.5</ele>
        <time>2022-02-23T14:40:57Z</time>
      </trkpt>
      <trkpt lat="43.28289" lon="5.67661">
        <ele>421.2</ele>
        <time>2022-02-23T14:41:03Z</time>
      </trkpt>
      <trkpt lat="43.28293" lon="5.67666">
        <ele>420.9</ele>
        <time>2022-02-23T14:41:07Z</time>
      </trkpt>
      <trkpt lat="43.28298" lon="5.6767">
        <ele>420.6</ele>
        <time>2022-02-23T14:41:11Z</time>
      </trkpt>
      <trkpt lat="43.28303" lon="5.67673">
        <ele>420.6</ele>
        <time>2022-02-23T14:41:15Z</time>
      </trkpt>
      <trkpt lat="43.28308" lon="5.67676">
        <ele>420.7</ele>
        <time>2022-02-23T14:41:19Z</time>
      </trkpt>
      <trkpt lat="43.28312" lon="5.67678">
        <ele>421.1</ele>
        <time>2022-02-23T14:41:23Z</time>
      </trkpt>
      <trkpt lat="43.28316" lon="5.67681">
        <ele>421.3</ele>
        <time>2022-02-23T14:41:27Z</time>
      </trkpt>
      <trkpt lat="43.28319" lon="5.67687">
        <ele>420.7</ele>
        <time>2022-02-23T14:41:33Z</time>
      </trkpt>
      <trkpt lat="43.28314" lon="5.67691">
        <ele>419</ele>
        <time>2022-02-23T14:41:41Z</time>
      </trkpt>
      <trkpt lat="43.28309" lon="5.6769">
        <ele>418.4</ele>
        <time>2022-02-23T14:41:45Z</time>
      </trkpt>
      <trkpt lat="43.28303" lon="5.6769">
        <ele>417.7</ele>
        <time>2022-02-23T14:41:49Z</time>
      </trkpt>
      <trkpt lat="43.28298" lon="5.67686">
        <ele>417.9</ele>
        <time>2022-02-23T14:41:55Z</time>
      </trkpt>
      <trkpt lat="43.28291" lon="5.67682">
        <ele>417.9</ele>
        <time>2022-02-23T14:42:01Z</time>
      </trkpt>
      <trkpt lat="43.28287" lon="5.6768">
        <ele>417.8</ele>
        <time>2022-02-23T14:42:05Z</time>
      </trkpt>
      <trkpt lat="43.28281" lon="5.67678">
        <ele>417.7</ele>
        <time>2022-02-23T14:42:09Z</time>
      </trkpt>
      <trkpt lat="43.28275" lon="5.67674">
        <ele>417.5</ele>
        <time>2022-02-23T14:42:13Z</time>
      </trkpt>
      <trkpt lat="43.2827" lon="5.67671">
        <ele>416.9</ele>
        <time>2022-02-23T14:42:17Z</time>
      </trkpt>
      <trkpt lat="43.28265" lon="5.67669">
        <ele>416.4</ele>
        <time>2022-02-23T14:42:21Z</time>
      </trkpt>
      <trkpt lat="43.2826" lon="5.67666">
        <ele>416</ele>
        <time>2022-02-23T14:42:25Z</time>
      </trkpt>
      <trkpt lat="43.28257" lon="5.67662">
        <ele>415.8</ele>
        <time>2022-02-23T14:42:29Z</time>
      </trkpt>
      <trkpt lat="43.28254" lon="5.67657">
        <ele>415.7</ele>
        <time>2022-02-23T14:42:33Z</time>
      </trkpt>
      <trkpt lat="43.28248" lon="5.67652">
        <ele>415.1</ele>
        <time>2022-02-23T14:42:39Z</time>
      </trkpt>
      <trkpt lat="43.28245" lon="5.67648">
        <ele>414.4</ele>
        <time>2022-02-23T14:42:43Z</time>
      </trkpt>
      <trkpt lat="43.2824" lon="5.67642">
        <ele>413.7</ele>
        <time>2022-02-23T14:42:49Z</time>
      </trkpt>
      <trkpt lat="43.28234" lon="5.67637">
        <ele>412.7</ele>
        <time>2022-02-23T14:42:55Z</time>
      </trkpt>
      <trkpt lat="43.2823" lon="5.6763">
        <ele>412</ele>
        <time>2022-02-23T14:43:01Z</time>
      </trkpt>
      <trkpt lat="43.28227" lon="5.67625">
        <ele>411.4</ele>
        <time>2022-02-23T14:43:05Z</time>
      </trkpt>
      <trkpt lat="43.28224" lon="5.67619">
        <ele>410.9</ele>
        <time>2022-02-23T14:43:09Z</time>
      </trkpt>
      <trkpt lat="43.28221" lon="5.67614">
        <ele>410.2</ele>
        <time>2022-02-23T14:43:13Z</time>
      </trkpt>
      <trkpt lat="43.28218" lon="5.67609">
        <ele>409.7</ele>
        <time>2022-02-23T14:43:17Z</time>
      </trkpt>
      <trkpt lat="43.28215" lon="5.67605">
        <ele>409.4</ele>
        <time>2022-02-23T14:43:21Z</time>
      </trkpt>
      <trkpt lat="43.28211" lon="5.676">
        <ele>409</ele>
        <time>2022-02-23T14:43:25Z</time>
      </trkpt>
      <trkpt lat="43.28207" lon="5.67593">
        <ele>408.6</ele>
        <time>2022-02-23T14:43:31Z</time>
      </trkpt>
      <trkpt lat="43.28203" lon="5.67589">
        <ele>408.5</ele>
        <time>2022-02-23T14:43:35Z</time>
      </trkpt>
      <trkpt lat="43.28198" lon="5.67582">
        <ele>408.2</ele>
        <time>2022-02-23T14:43:41Z</time>
      </trkpt>
      <trkpt lat="43.28195" lon="5.67578">
        <ele>407.8</ele>
        <time>2022-02-23T14:43:45Z</time>
      </trkpt>
      <trkpt lat="43.28189" lon="5.67572">
        <ele>407.3</ele>
        <time>2022-02-23T14:43:51Z</time>
      </trkpt>
      <trkpt lat="43.28186" lon="5.67568">
        <ele>407.2</ele>
        <time>2022-02-23T14:43:55Z</time>
      </trkpt>
      <trkpt lat="43.28183" lon="5.67563">
        <ele>407</ele>
        <time>2022-02-23T14:43:59Z</time>
      </trkpt>
      <trkpt lat="43.28179" lon="5.67559">
        <ele>406.5</ele>
        <time>2022-02-23T14:44:03Z</time>
      </trkpt>
      <trkpt lat="43.28174" lon="5.67556">
        <ele>405.7</ele>
        <time>2022-02-23T14:44:07Z</time>
      </trkpt>
      <trkpt lat="43.28167" lon="5.67553">
        <ele>404.7</ele>
        <time>2022-02-23T14:44:13Z</time>
      </trkpt>
      <trkpt lat="43.28161" lon="5.67552">
        <ele>404.3</ele>
        <time>2022-02-23T14:44:19Z</time>
      </trkpt>
      <trkpt lat="43.28155" lon="5.67551">
        <ele>403.9</ele>
        <time>2022-02-23T14:44:23Z</time>
      </trkpt>
      <trkpt lat="43.2815" lon="5.6755">
        <ele>403.4</ele>
        <time>2022-02-23T14:44:27Z</time>
      </trkpt>
      <trkpt lat="43.28145" lon="5.6755">
        <ele>402.8</ele>
        <time>2022-02-23T14:44:31Z</time>
      </trkpt>
      <trkpt lat="43.2814" lon="5.67548">
        <ele>402.4</ele>
        <time>2022-02-23T14:44:37Z</time>
      </trkpt>
      <trkpt lat="43.28133" lon="5.67548">
        <ele>401.6</ele>
        <time>2022-02-23T14:44:43Z</time>
      </trkpt>
      <trkpt lat="43.28128" lon="5.67547">
        <ele>400.9</ele>
        <time>2022-02-23T14:44:47Z</time>
      </trkpt>
      <trkpt lat="43.28124" lon="5.67547">
        <ele>400.2</ele>
        <time>2022-02-23T14:44:51Z</time>
      </trkpt>
      <trkpt lat="43.28117" lon="5.67544">
        <ele>399.5</ele>
        <time>2022-02-23T14:44:57Z</time>
      </trkpt>
      <trkpt lat="43.28111" lon="5.67539">
        <ele>398.6</ele>
        <time>2022-02-23T14:45:03Z</time>
      </trkpt>
      <trkpt lat="43.28107" lon="5.67535">
        <ele>398.1</ele>
        <time>2022-02-23T14:45:07Z</time>
      </trkpt>
      <trkpt lat="43.28104" lon="5.6753">
        <ele>397.6</ele>
        <time>2022-02-23T14:45:11Z</time>
      </trkpt>
      <trkpt lat="43.28101" lon="5.67525">
        <ele>397.4</ele>
        <time>2022-02-23T14:45:15Z</time>
      </trkpt>
      <trkpt lat="43.28098" lon="5.67519">
        <ele>397.3</ele>
        <time>2022-02-23T14:45:19Z</time>
      </trkpt>
      <trkpt lat="43.28097" lon="5.67512">
        <ele>397.5</ele>
        <time>2022-02-23T14:45:23Z</time>
      </trkpt>
      <trkpt lat="43.28095" lon="5.67506">
        <ele>397.5</ele>
        <time>2022-02-23T14:45:27Z</time>
      </trkpt>
      <trkpt lat="43.28092" lon="5.675">
        <ele>397.2</ele>
        <time>2022-02-23T14:45:31Z</time>
      </trkpt>
      <trkpt lat="43.28091" lon="5.67494">
        <ele>397.2</ele>
        <time>2022-02-23T14:45:35Z</time>
      </trkpt>
      <trkpt lat="43.28091" lon="5.67487">
        <ele>397.5</ele>
        <time>2022-02-23T14:45:39Z</time>
      </trkpt>
      <trkpt lat="43.28091" lon="5.6748">
        <ele>397.8</ele>
        <time>2022-02-23T14:45:43Z</time>
      </trkpt>
      <trkpt lat="43.28092" lon="5.67473">
        <ele>398.3</ele>
        <time>2022-02-23T14:45:47Z</time>
      </trkpt>
      <trkpt lat="43.28094" lon="5.67467">
        <ele>398.4</ele>
        <time>2022-02-23T14:45:51Z</time>
      </trkpt>
      <trkpt lat="43.28096" lon="5.6746">
        <ele>398.5</ele>
        <time>2022-02-23T14:45:55Z</time>
      </trkpt>
      <trkpt lat="43.28097" lon="5.67453">
        <ele>398.1</ele>
        <time>2022-02-23T14:45:59Z</time>
      </trkpt>
      <trkpt lat="43.28095" lon="5.67446">
        <ele>397.3</ele>
        <time>2022-02-23T14:46:03Z</time>
      </trkpt>
      <trkpt lat="43.28092" lon="5.67441">
        <ele>397.5</ele>
        <time>2022-02-23T14:46:07Z</time>
      </trkpt>
      <trkpt lat="43.28088" lon="5.67436">
        <ele>397.7</ele>
        <time>2022-02-23T14:46:11Z</time>
      </trkpt>
      <trkpt lat="43.28084" lon="5.67433">
        <ele>397.7</ele>
        <time>2022-02-23T14:46:15Z</time>
      </trkpt>
      <trkpt lat="43.28079" lon="5.67429">
        <ele>396.9</ele>
        <time>2022-02-23T14:46:19Z</time>
      </trkpt>
      <trkpt lat="43.28074" lon="5.67422">
        <ele>396.5</ele>
        <time>2022-02-23T14:46:25Z</time>
      </trkpt>
      <trkpt lat="43.28071" lon="5.67417">
        <ele>396.6</ele>
        <time>2022-02-23T14:46:29Z</time>
      </trkpt>
      <trkpt lat="43.28069" lon="5.67411">
        <ele>396.5</ele>
        <time>2022-02-23T14:46:33Z</time>
      </trkpt>
      <trkpt lat="43.28065" lon="5.67405">
        <ele>396.2</ele>
        <time>2022-02-23T14:46:37Z</time>
      </trkpt>
      <trkpt lat="43.28062" lon="5.67399">
        <ele>395.7</ele>
        <time>2022-02-23T14:46:41Z</time>
      </trkpt>
      <trkpt lat="43.28059" lon="5.67394">
        <ele>395.4</ele>
        <time>2022-02-23T14:46:45Z</time>
      </trkpt>
      <trkpt lat="43.28056" lon="5.67389">
        <ele>395</ele>
        <time>2022-02-23T14:46:49Z</time>
      </trkpt>
      <trkpt lat="43.28053" lon="5.67384">
        <ele>394.7</ele>
        <time>2022-02-23T14:46:53Z</time>
      </trkpt>
      <trkpt lat="43.28051" lon="5.67378">
        <ele>394.4</ele>
        <time>2022-02-23T14:46:57Z</time>
      </trkpt>
      <trkpt lat="43.28048" lon="5.67373">
        <ele>393.9</ele>
        <time>2022-02-23T14:47:01Z</time>
      </trkpt>
      <trkpt lat="43.28046" lon="5.67365">
        <ele>394</ele>
        <time>2022-02-23T14:47:07Z</time>
      </trkpt>
      <trkpt lat="43.28045" lon="5.67358">
        <ele>394.2</ele>
        <time>2022-02-23T14:47:11Z</time>
      </trkpt>
      <trkpt lat="43.28046" lon="5.67351">
        <ele>394.3</ele>
        <time>2022-02-23T14:47:15Z</time>
      </trkpt>
      <trkpt lat="43.28047" lon="5.67343">
        <ele>394.3</ele>
        <time>2022-02-23T14:47:19Z</time>
      </trkpt>
      <trkpt lat="43.28048" lon="5.67336">
        <ele>394.5</ele>
        <time>2022-02-23T14:47:23Z</time>
      </trkpt>
      <trkpt lat="43.28049" lon="5.67329">
        <ele>395</ele>
        <time>2022-02-23T14:47:27Z</time>
      </trkpt>
      <trkpt lat="43.28048" lon="5.67322">
        <ele>395.6</ele>
        <time>2022-02-23T14:47:31Z</time>
      </trkpt>
      <trkpt lat="43.28047" lon="5.67316">
        <ele>396.1</ele>
        <time>2022-02-23T14:47:35Z</time>
      </trkpt>
      <trkpt lat="43.28046" lon="5.67308">
        <ele>396.6</ele>
        <time>2022-02-23T14:47:39Z</time>
      </trkpt>
      <trkpt lat="43.28044" lon="5.673">
        <ele>396.7</ele>
        <time>2022-02-23T14:47:45Z</time>
      </trkpt>
      <trkpt lat="43.28042" lon="5.67294">
        <ele>396.9</ele>
        <time>2022-02-23T14:47:49Z</time>
      </trkpt>
      <trkpt lat="43.2804" lon="5.67288">
        <ele>396.6</ele>
        <time>2022-02-23T14:47:53Z</time>
      </trkpt>
      <trkpt lat="43.28037" lon="5.67282">
        <ele>396.2</ele>
        <time>2022-02-23T14:47:57Z</time>
      </trkpt>
      <trkpt lat="43.28035" lon="5.67277">
        <ele>395.8</ele>
        <time>2022-02-23T14:48:01Z</time>
      </trkpt>
      <trkpt lat="43.28033" lon="5.67271">
        <ele>396.2</ele>
        <time>2022-02-23T14:48:05Z</time>
      </trkpt>
      <trkpt lat="43.2803" lon="5.67265">
        <ele>396.1</ele>
        <time>2022-02-23T14:48:09Z</time>
      </trkpt>
      <trkpt lat="43.28028" lon="5.6726">
        <ele>395.9</ele>
        <time>2022-02-23T14:48:13Z</time>
      </trkpt>
      <trkpt lat="43.28024" lon="5.67255">
        <ele>395.5</ele>
        <time>2022-02-23T14:48:17Z</time>
      </trkpt>
      <trkpt lat="43.28021" lon="5.6725">
        <ele>395</ele>
        <time>2022-02-23T14:48:21Z</time>
      </trkpt>
      <trkpt lat="43.28017" lon="5.67246">
        <ele>395.4</ele>
        <time>2022-02-23T14:48:25Z</time>
      </trkpt>
      <trkpt lat="43.28014" lon="5.67241">
        <ele>395.6</ele>
        <time>2022-02-23T14:48:29Z</time>
      </trkpt>
      <trkpt lat="43.2801" lon="5.67237">
        <ele>395.9</ele>
        <time>2022-02-23T14:48:33Z</time>
      </trkpt>
      <trkpt lat="43.28006" lon="5.67232">
        <ele>396.4</ele>
        <time>2022-02-23T14:48:37Z</time>
      </trkpt>
      <trkpt lat="43.28002" lon="5.67227">
        <ele>396.8</ele>
        <time>2022-02-23T14:48:41Z</time>
      </trkpt>
      <trkpt lat="43.27998" lon="5.67222">
        <ele>397.3</ele>
        <time>2022-02-23T14:48:45Z</time>
      </trkpt>
      <trkpt lat="43.27995" lon="5.67217">
        <ele>396.7</ele>
        <time>2022-02-23T14:48:49Z</time>
      </trkpt>
      <trkpt lat="43.27992" lon="5.67212">
        <ele>396.4</ele>
        <time>2022-02-23T14:48:53Z</time>
      </trkpt>
      <trkpt lat="43.27988" lon="5.67205">
        <ele>396.2</ele>
        <time>2022-02-23T14:48:59Z</time>
      </trkpt>
      <trkpt lat="43.27986" lon="5.672">
        <ele>396</ele>
        <time>2022-02-23T14:49:03Z</time>
      </trkpt>
      <trkpt lat="43.27983" lon="5.67195">
        <ele>395.9</ele>
        <time>2022-02-23T14:49:07Z</time>
      </trkpt>
      <trkpt lat="43.27978" lon="5.67189">
        <ele>395.6</ele>
        <time>2022-02-23T14:49:13Z</time>
      </trkpt>
      <trkpt lat="43.27974" lon="5.67182">
        <ele>395.6</ele>
        <time>2022-02-23T14:49:19Z</time>
      </trkpt>
      <trkpt lat="43.27971" lon="5.67176">
        <ele>395.5</ele>
        <time>2022-02-23T14:49:23Z</time>
      </trkpt>
      <trkpt lat="43.27969" lon="5.6717">
        <ele>395.9</ele>
        <time>2022-02-23T14:49:27Z</time>
      </trkpt>
      <trkpt lat="43.27967" lon="5.67165">
        <ele>396.3</ele>
        <time>2022-02-23T14:49:31Z</time>
      </trkpt>
      <trkpt lat="43.27963" lon="5.6716">
        <ele>396</ele>
        <time>2022-02-23T14:49:35Z</time>
      </trkpt>
      <trkpt lat="43.2796" lon="5.67155">
        <ele>395.8</ele>
        <time>2022-02-23T14:49:39Z</time>
      </trkpt>
      <trkpt lat="43.27957" lon="5.6715">
        <ele>395.5</ele>
        <time>2022-02-23T14:49:43Z</time>
      </trkpt>
      <trkpt lat="43.27955" lon="5.67145">
        <ele>395.5</ele>
        <time>2022-02-23T14:49:47Z</time>
      </trkpt>
      <trkpt lat="43.27951" lon="5.67139">
        <ele>395.1</ele>
        <time>2022-02-23T14:49:51Z</time>
      </trkpt>
      <trkpt lat="43.27948" lon="5.67133">
        <ele>395.1</ele>
        <time>2022-02-23T14:49:55Z</time>
      </trkpt>
      <trkpt lat="43.27944" lon="5.67128">
        <ele>395</ele>
        <time>2022-02-23T14:49:59Z</time>
      </trkpt>
      <trkpt lat="43.2794" lon="5.67124">
        <ele>395.1</ele>
        <time>2022-02-23T14:50:03Z</time>
      </trkpt>
      <trkpt lat="43.27936" lon="5.67121">
        <ele>394.9</ele>
        <time>2022-02-23T14:50:07Z</time>
      </trkpt>
      <trkpt lat="43.27932" lon="5.67118">
        <ele>394.5</ele>
        <time>2022-02-23T14:50:11Z</time>
      </trkpt>
      <trkpt lat="43.27927" lon="5.67116">
        <ele>393.5</ele>
        <time>2022-02-23T14:50:15Z</time>
      </trkpt>
      <trkpt lat="43.27922" lon="5.67114">
        <ele>392.8</ele>
        <time>2022-02-23T14:50:19Z</time>
      </trkpt>
      <trkpt lat="43.27918" lon="5.67112">
        <ele>392</ele>
        <time>2022-02-23T14:50:23Z</time>
      </trkpt>
      <trkpt lat="43.27913" lon="5.6711">
        <ele>390.9</ele>
        <time>2022-02-23T14:50:27Z</time>
      </trkpt>
      <trkpt lat="43.27908" lon="5.67105">
        <ele>389.7</ele>
        <time>2022-02-23T14:50:33Z</time>
      </trkpt>
      <trkpt lat="43.27902" lon="5.67099">
        <ele>388.8</ele>
        <time>2022-02-23T14:50:39Z</time>
      </trkpt>
      <trkpt lat="43.27899" lon="5.67094">
        <ele>388.8</ele>
        <time>2022-02-23T14:50:43Z</time>
      </trkpt>
      <trkpt lat="43.27896" lon="5.67089">
        <ele>388.8</ele>
        <time>2022-02-23T14:50:47Z</time>
      </trkpt>
      <trkpt lat="43.27894" lon="5.67084">
        <ele>388.8</ele>
        <time>2022-02-23T14:50:51Z</time>
      </trkpt>
      <trkpt lat="43.2789" lon="5.67076">
        <ele>388.6</ele>
        <time>2022-02-23T14:50:57Z</time>
      </trkpt>
      <trkpt lat="43.27888" lon="5.6707">
        <ele>388.2</ele>
        <time>2022-02-23T14:51:01Z</time>
      </trkpt>
      <trkpt lat="43.27886" lon="5.67062">
        <ele>388.3</ele>
        <time>2022-02-23T14:51:07Z</time>
      </trkpt>
      <trkpt lat="43.27884" lon="5.67056">
        <ele>388.5</ele>
        <time>2022-02-23T14:51:11Z</time>
      </trkpt>
      <trkpt lat="43.27882" lon="5.6705">
        <ele>388.2</ele>
        <time>2022-02-23T14:51:15Z</time>
      </trkpt>
      <trkpt lat="43.2788" lon="5.67043">
        <ele>388.2</ele>
        <time>2022-02-23T14:51:19Z</time>
      </trkpt>
      <trkpt lat="43.27878" lon="5.67036">
        <ele>388.1</ele>
        <time>2022-02-23T14:51:23Z</time>
      </trkpt>
      <trkpt lat="43.27876" lon="5.6703">
        <ele>387.9</ele>
        <time>2022-02-23T14:51:27Z</time>
      </trkpt>
      <trkpt lat="43.27874" lon="5.67024">
        <ele>387.3</ele>
        <time>2022-02-23T14:51:31Z</time>
      </trkpt>
      <trkpt lat="43.27872" lon="5.67017">
        <ele>386.5</ele>
        <time>2022-02-23T14:51:35Z</time>
      </trkpt>
      <trkpt lat="43.27872" lon="5.67011">
        <ele>386.1</ele>
        <time>2022-02-23T14:51:39Z</time>
      </trkpt>
      <trkpt lat="43.27872" lon="5.67004">
        <ele>386</ele>
        <time>2022-02-23T14:51:43Z</time>
      </trkpt>
      <trkpt lat="43.27873" lon="5.66998">
        <ele>386.5</ele>
        <time>2022-02-23T14:51:47Z</time>
      </trkpt>
      <trkpt lat="43.27873" lon="5.66992">
        <ele>387.3</ele>
        <time>2022-02-23T14:51:51Z</time>
      </trkpt>
      <trkpt lat="43.27874" lon="5.66985">
        <ele>387.9</ele>
        <time>2022-02-23T14:51:55Z</time>
      </trkpt>
      <trkpt lat="43.27873" lon="5.66979">
        <ele>388.1</ele>
        <time>2022-02-23T14:51:59Z</time>
      </trkpt>
      <trkpt lat="43.27871" lon="5.66973">
        <ele>387.9</ele>
        <time>2022-02-23T14:52:03Z</time>
      </trkpt>
      <trkpt lat="43.27867" lon="5.66966">
        <ele>387.3</ele>
        <time>2022-02-23T14:52:09Z</time>
      </trkpt>
      <trkpt lat="43.2786" lon="5.66962">
        <ele>386.3</ele>
        <time>2022-02-23T14:52:15Z</time>
      </trkpt>
      <trkpt lat="43.27855" lon="5.66963">
        <ele>387.2</ele>
        <time>2022-02-23T14:52:19Z</time>
      </trkpt>
      <trkpt lat="43.27851" lon="5.66966">
        <ele>387.5</ele>
        <time>2022-02-23T14:52:23Z</time>
      </trkpt>
      <trkpt lat="43.27847" lon="5.6697">
        <ele>387.3</ele>
        <time>2022-02-23T14:52:27Z</time>
      </trkpt>
      <trkpt lat="43.27842" lon="5.66976">
        <ele>386.5</ele>
        <time>2022-02-23T14:52:33Z</time>
      </trkpt>
      <trkpt lat="43.27837" lon="5.6698">
        <ele>385.8</ele>
        <time>2022-02-23T14:52:39Z</time>
      </trkpt>
      <trkpt lat="43.27831" lon="5.66983">
        <ele>385.9</ele>
        <time>2022-02-23T14:52:45Z</time>
      </trkpt>
      <trkpt lat="43.27826" lon="5.66984">
        <ele>386.4</ele>
        <time>2022-02-23T14:52:49Z</time>
      </trkpt>
      <trkpt lat="43.27821" lon="5.66988">
        <ele>386.7</ele>
        <time>2022-02-23T14:52:55Z</time>
      </trkpt>
      <trkpt lat="43.27817" lon="5.66993">
        <ele>386.5</ele>
        <time>2022-02-23T14:52:59Z</time>
      </trkpt>
      <trkpt lat="43.27814" lon="5.66998">
        <ele>385.9</ele>
        <time>2022-02-23T14:53:03Z</time>
      </trkpt>
      <trkpt lat="43.27811" lon="5.67004">
        <ele>385.2</ele>
        <time>2022-02-23T14:53:07Z</time>
      </trkpt>
      <trkpt lat="43.27808" lon="5.67011">
        <ele>384.4</ele>
        <time>2022-02-23T14:53:11Z</time>
      </trkpt>
      <trkpt lat="43.27806" lon="5.67017">
        <ele>383.5</ele>
        <time>2022-02-23T14:53:15Z</time>
      </trkpt>
      <trkpt lat="43.27804" lon="5.67023">
        <ele>382.7</ele>
        <time>2022-02-23T14:53:19Z</time>
      </trkpt>
      <trkpt lat="43.27801" lon="5.67031">
        <ele>381.8</ele>
        <time>2022-02-23T14:53:25Z</time>
      </trkpt>
      <trkpt lat="43.27797" lon="5.67038">
        <ele>381</ele>
        <time>2022-02-23T14:53:31Z</time>
      </trkpt>
      <trkpt lat="43.27794" lon="5.67043">
        <ele>380.4</ele>
        <time>2022-02-23T14:53:35Z</time>
      </trkpt>
      <trkpt lat="43.2779" lon="5.67047">
        <ele>380.3</ele>
        <time>2022-02-23T14:53:39Z</time>
      </trkpt>
      <trkpt lat="43.27786" lon="5.67051">
        <ele>380.3</ele>
        <time>2022-02-23T14:53:43Z</time>
      </trkpt>
      <trkpt lat="43.27781" lon="5.67056">
        <ele>380.1</ele>
        <time>2022-02-23T14:53:49Z</time>
      </trkpt>
      <trkpt lat="43.27776" lon="5.67061">
        <ele>379.7</ele>
        <time>2022-02-23T14:53:55Z</time>
      </trkpt>
      <trkpt lat="43.27772" lon="5.67064">
        <ele>379.5</ele>
        <time>2022-02-23T14:53:59Z</time>
      </trkpt>
      <trkpt lat="43.27768" lon="5.67068">
        <ele>378.8</ele>
        <time>2022-02-23T14:54:03Z</time>
      </trkpt>
      <trkpt lat="43.27764" lon="5.67071">
        <ele>378.6</ele>
        <time>2022-02-23T14:54:07Z</time>
      </trkpt>
      <trkpt lat="43.27759" lon="5.67076">
        <ele>378.1</ele>
        <time>2022-02-23T14:54:13Z</time>
      </trkpt>
      <trkpt lat="43.27755" lon="5.67079">
        <ele>377.6</ele>
        <time>2022-02-23T14:54:17Z</time>
      </trkpt>
      <trkpt lat="43.2775" lon="5.67082">
        <ele>377.6</ele>
        <time>2022-02-23T14:54:21Z</time>
      </trkpt>
      <trkpt lat="43.27745" lon="5.67083">
        <ele>376.9</ele>
        <time>2022-02-23T14:54:25Z</time>
      </trkpt>
      <trkpt lat="43.2774" lon="5.67085">
        <ele>376.3</ele>
        <time>2022-02-23T14:54:29Z</time>
      </trkpt>
      <trkpt lat="43.27734" lon="5.67084">
        <ele>376.2</ele>
        <time>2022-02-23T14:54:35Z</time>
      </trkpt>
      <trkpt lat="43.2773" lon="5.67084">
        <ele>376.1</ele>
        <time>2022-02-23T14:54:39Z</time>
      </trkpt>
      <trkpt lat="43.27724" lon="5.67085">
        <ele>375.7</ele>
        <time>2022-02-23T14:54:43Z</time>
      </trkpt>
      <trkpt lat="43.27719" lon="5.67083">
        <ele>375.3</ele>
        <time>2022-02-23T14:54:47Z</time>
      </trkpt>
      <trkpt lat="43.27715" lon="5.67082">
        <ele>375</ele>
        <time>2022-02-23T14:54:51Z</time>
      </trkpt>
      <trkpt lat="43.2771" lon="5.6708">
        <ele>374.5</ele>
        <time>2022-02-23T14:54:55Z</time>
      </trkpt>
      <trkpt lat="43.27706" lon="5.67077">
        <ele>374.6</ele>
        <time>2022-02-23T14:54:59Z</time>
      </trkpt>
      <trkpt lat="43.27702" lon="5.67073">
        <ele>374.7</ele>
        <time>2022-02-23T14:55:03Z</time>
      </trkpt>
      <trkpt lat="43.27698" lon="5.67068">
        <ele>375</ele>
        <time>2022-02-23T14:55:07Z</time>
      </trkpt>
      <trkpt lat="43.27693" lon="5.67062">
        <ele>374.6</ele>
        <time>2022-02-23T14:55:13Z</time>
      </trkpt>
      <trkpt lat="43.27689" lon="5.67058">
        <ele>373.8</ele>
        <time>2022-02-23T14:55:17Z</time>
      </trkpt>
      <trkpt lat="43.27685" lon="5.67054">
        <ele>373.5</ele>
        <time>2022-02-23T14:55:21Z</time>
      </trkpt>
      <trkpt lat="43.27682" lon="5.67049">
        <ele>373.4</ele>
        <time>2022-02-23T14:55:25Z</time>
      </trkpt>
      <trkpt lat="43.27678" lon="5.67044">
        <ele>373.4</ele>
        <time>2022-02-23T14:55:29Z</time>
      </trkpt>
      <trkpt lat="43.27676" lon="5.67038">
        <ele>373.8</ele>
        <time>2022-02-23T14:55:33Z</time>
      </trkpt>
      <trkpt lat="43.27672" lon="5.67031">
        <ele>374.3</ele>
        <time>2022-02-23T14:55:39Z</time>
      </trkpt>
      <trkpt lat="43.27668" lon="5.67023">
        <ele>374.3</ele>
        <time>2022-02-23T14:55:45Z</time>
      </trkpt>
      <trkpt lat="43.27664" lon="5.67019">
        <ele>374</ele>
        <time>2022-02-23T14:55:49Z</time>
      </trkpt>
      <trkpt lat="43.2766" lon="5.67014">
        <ele>374</ele>
        <time>2022-02-23T14:55:53Z</time>
      </trkpt>
      <trkpt lat="43.27657" lon="5.67009">
        <ele>374.3</ele>
        <time>2022-02-23T14:55:57Z</time>
      </trkpt>
      <trkpt lat="43.27654" lon="5.67006">
        <ele>374</ele>
        <time>2022-02-23T14:56:01Z</time>
      </trkpt>
      <trkpt lat="43.27649" lon="5.67">
        <ele>373.6</ele>
        <time>2022-02-23T14:56:07Z</time>
      </trkpt>
      <trkpt lat="43.27645" lon="5.66996">
        <ele>373</ele>
        <time>2022-02-23T14:56:11Z</time>
      </trkpt>
      <trkpt lat="43.27641" lon="5.6699">
        <ele>372.4</ele>
        <time>2022-02-23T14:56:17Z</time>
      </trkpt>
      <trkpt lat="43.27637" lon="5.66983">
        <ele>372.8</ele>
        <time>2022-02-23T14:56:23Z</time>
      </trkpt>
      <trkpt lat="43.27632" lon="5.66977">
        <ele>373.6</ele>
        <time>2022-02-23T14:56:29Z</time>
      </trkpt>
      <trkpt lat="43.2763" lon="5.66971">
        <ele>374.6</ele>
        <time>2022-02-23T14:56:33Z</time>
      </trkpt>
      <trkpt lat="43.27626" lon="5.66967">
        <ele>375</ele>
        <time>2022-02-23T14:56:37Z</time>
      </trkpt>
      <trkpt lat="43.27622" lon="5.66964">
        <ele>375</ele>
        <time>2022-02-23T14:56:41Z</time>
      </trkpt>
      <trkpt lat="43.27616" lon="5.66961">
        <ele>374.7</ele>
        <time>2022-02-23T14:56:47Z</time>
      </trkpt>
      <trkpt lat="43.2761" lon="5.66962">
        <ele>374.1</ele>
        <time>2022-02-23T14:56:53Z</time>
      </trkpt>
      <trkpt lat="43.27605" lon="5.66966">
        <ele>374.8</ele>
        <time>2022-02-23T14:56:57Z</time>
      </trkpt>
      <trkpt lat="43.27602" lon="5.6697">
        <ele>374.9</ele>
        <time>2022-02-23T14:57:01Z</time>
      </trkpt>
      <trkpt lat="43.27599" lon="5.66975">
        <ele>374.6</ele>
        <time>2022-02-23T14:57:05Z</time>
      </trkpt>
      <trkpt lat="43.27596" lon="5.6698">
        <ele>374.3</ele>
        <time>2022-02-23T14:57:09Z</time>
      </trkpt>
      <trkpt lat="43.27592" lon="5.66988">
        <ele>373.6</ele>
        <time>2022-02-23T14:57:15Z</time>
      </trkpt>
      <trkpt lat="43.27589" lon="5.66993">
        <ele>373</ele>
        <time>2022-02-23T14:57:19Z</time>
      </trkpt>
      <trkpt lat="43.27585" lon="5.66999">
        <ele>372.7</ele>
        <time>2022-02-23T14:57:25Z</time>
      </trkpt>
      <trkpt lat="43.27581" lon="5.67004">
        <ele>373.4</ele>
        <time>2022-02-23T14:57:31Z</time>
      </trkpt>
      <trkpt lat="43.27577" lon="5.6701">
        <ele>373.8</ele>
        <time>2022-02-23T14:57:37Z</time>
      </trkpt>
      <trkpt lat="43.27575" lon="5.67016">
        <ele>373.8</ele>
        <time>2022-02-23T14:57:41Z</time>
      </trkpt>
      <trkpt lat="43.27573" lon="5.67022">
        <ele>373.2</ele>
        <time>2022-02-23T14:57:45Z</time>
      </trkpt>
      <trkpt lat="43.27571" lon="5.67027">
        <ele>372.9</ele>
        <time>2022-02-23T14:57:49Z</time>
      </trkpt>
      <trkpt lat="43.27568" lon="5.67036">
        <ele>372</ele>
        <time>2022-02-23T14:57:55Z</time>
      </trkpt>
      <trkpt lat="43.27565" lon="5.67041">
        <ele>371.6</ele>
        <time>2022-02-23T14:57:59Z</time>
      </trkpt>
      <trkpt lat="43.27562" lon="5.67047">
        <ele>371</ele>
        <time>2022-02-23T14:58:03Z</time>
      </trkpt>
      <trkpt lat="43.27558" lon="5.67052">
        <ele>370.4</ele>
        <time>2022-02-23T14:58:09Z</time>
      </trkpt>
      <trkpt lat="43.27554" lon="5.67056">
        <ele>370.2</ele>
        <time>2022-02-23T14:58:13Z</time>
      </trkpt>
      <trkpt lat="43.27551" lon="5.67061">
        <ele>369.9</ele>
        <time>2022-02-23T14:58:17Z</time>
      </trkpt>
      <trkpt lat="43.27547" lon="5.67065">
        <ele>369.5</ele>
        <time>2022-02-23T14:58:21Z</time>
      </trkpt>
      <trkpt lat="43.27542" lon="5.67071">
        <ele>368.9</ele>
        <time>2022-02-23T14:58:27Z</time>
      </trkpt>
      <trkpt lat="43.27538" lon="5.67074">
        <ele>368.7</ele>
        <time>2022-02-23T14:58:31Z</time>
      </trkpt>
      <trkpt lat="43.27532" lon="5.67077">
        <ele>368.7</ele>
        <time>2022-02-23T14:58:37Z</time>
      </trkpt>
      <trkpt lat="43.27527" lon="5.6708">
        <ele>368.1</ele>
        <time>2022-02-23T14:58:41Z</time>
      </trkpt>
      <trkpt lat="43.27522" lon="5.67084">
        <ele>367.1</ele>
        <time>2022-02-23T14:58:45Z</time>
      </trkpt>
      <trkpt lat="43.27518" lon="5.67087">
        <ele>366.6</ele>
        <time>2022-02-23T14:58:49Z</time>
      </trkpt>
      <trkpt lat="43.27514" lon="5.6709">
        <ele>366</ele>
        <time>2022-02-23T14:58:53Z</time>
      </trkpt>
      <trkpt lat="43.27509" lon="5.67093">
        <ele>365.6</ele>
        <time>2022-02-23T14:58:57Z</time>
      </trkpt>
      <trkpt lat="43.27505" lon="5.67096">
        <ele>365.3</ele>
        <time>2022-02-23T14:59:01Z</time>
      </trkpt>
      <trkpt lat="43.275" lon="5.671">
        <ele>364.8</ele>
        <time>2022-02-23T14:59:05Z</time>
      </trkpt>
      <trkpt lat="43.27495" lon="5.67103">
        <ele>364.6</ele>
        <time>2022-02-23T14:59:09Z</time>
      </trkpt>
      <trkpt lat="43.27489" lon="5.67106">
        <ele>364.4</ele>
        <time>2022-02-23T14:59:15Z</time>
      </trkpt>
      <trkpt lat="43.27483" lon="5.6711">
        <ele>364.1</ele>
        <time>2022-02-23T14:59:21Z</time>
      </trkpt>
      <trkpt lat="43.27479" lon="5.67114">
        <ele>363.5</ele>
        <time>2022-02-23T14:59:25Z</time>
      </trkpt>
      <trkpt lat="43.27474" lon="5.67118">
        <ele>363</ele>
        <time>2022-02-23T14:59:29Z</time>
      </trkpt>
      <trkpt lat="43.27469" lon="5.67121">
        <ele>362.6</ele>
        <time>2022-02-23T14:59:33Z</time>
      </trkpt>
      <trkpt lat="43.27465" lon="5.67124">
        <ele>362.2</ele>
        <time>2022-02-23T14:59:37Z</time>
      </trkpt>
      <trkpt lat="43.27461" lon="5.67128">
        <ele>361.8</ele>
        <time>2022-02-23T14:59:41Z</time>
      </trkpt>
      <trkpt lat="43.27457" lon="5.67132">
        <ele>361.1</ele>
        <time>2022-02-23T14:59:45Z</time>
      </trkpt>
      <trkpt lat="43.27454" lon="5.67136">
        <ele>360.5</ele>
        <time>2022-02-23T14:59:49Z</time>
      </trkpt>
      <trkpt lat="43.27449" lon="5.67139">
        <ele>360.4</ele>
        <time>2022-02-23T14:59:55Z</time>
      </trkpt>
      <trkpt lat="43.27444" lon="5.67141">
        <ele>360.6</ele>
        <time>2022-02-23T15:00:01Z</time>
      </trkpt>
      <trkpt lat="43.27439" lon="5.67146">
        <ele>360</ele>
        <time>2022-02-23T15:00:07Z</time>
      </trkpt>
      <trkpt lat="43.27435" lon="5.6715">
        <ele>359.6</ele>
        <time>2022-02-23T15:00:11Z</time>
      </trkpt>
      <trkpt lat="43.27431" lon="5.67154">
        <ele>359.2</ele>
        <time>2022-02-23T15:00:15Z</time>
      </trkpt>
      <trkpt lat="43.27426" lon="5.6716">
        <ele>358.4</ele>
        <time>2022-02-23T15:00:19Z</time>
      </trkpt>
      <trkpt lat="43.27421" lon="5.67165">
        <ele>357.7</ele>
        <time>2022-02-23T15:00:23Z</time>
      </trkpt>
      <trkpt lat="43.27418" lon="5.67169">
        <ele>357.3</ele>
        <time>2022-02-23T15:00:27Z</time>
      </trkpt>
      <trkpt lat="43.27414" lon="5.67174">
        <ele>356.9</ele>
        <time>2022-02-23T15:00:33Z</time>
      </trkpt>
      <trkpt lat="43.2741" lon="5.67179">
        <ele>356.5</ele>
        <time>2022-02-23T15:00:37Z</time>
      </trkpt>
      <trkpt lat="43.27406" lon="5.67184">
        <ele>356.1</ele>
        <time>2022-02-23T15:00:41Z</time>
      </trkpt>
      <trkpt lat="43.27403" lon="5.67189">
        <ele>355.6</ele>
        <time>2022-02-23T15:00:45Z</time>
      </trkpt>
      <trkpt lat="43.27399" lon="5.67194">
        <ele>355.2</ele>
        <time>2022-02-23T15:00:49Z</time>
      </trkpt>
      <trkpt lat="43.27396" lon="5.67199">
        <ele>355</ele>
        <time>2022-02-23T15:00:53Z</time>
      </trkpt>
      <trkpt lat="43.27393" lon="5.67203">
        <ele>354.7</ele>
        <time>2022-02-23T15:00:57Z</time>
      </trkpt>
      <trkpt lat="43.27389" lon="5.6721">
        <ele>354.2</ele>
        <time>2022-02-23T15:01:03Z</time>
      </trkpt>
      <trkpt lat="43.27385" lon="5.67214">
        <ele>353.4</ele>
        <time>2022-02-23T15:01:07Z</time>
      </trkpt>
      <trkpt lat="43.2738" lon="5.6722">
        <ele>352.4</ele>
        <time>2022-02-23T15:01:13Z</time>
      </trkpt>
      <trkpt lat="43.27376" lon="5.67224">
        <ele>351.6</ele>
        <time>2022-02-23T15:01:17Z</time>
      </trkpt>
      <trkpt lat="43.27372" lon="5.67227">
        <ele>351.2</ele>
        <time>2022-02-23T15:01:21Z</time>
      </trkpt>
      <trkpt lat="43.27368" lon="5.6723">
        <ele>350.7</ele>
        <time>2022-02-23T15:01:25Z</time>
      </trkpt>
      <trkpt lat="43.27364" lon="5.67233">
        <ele>350.4</ele>
        <time>2022-02-23T15:01:29Z</time>
      </trkpt>
      <trkpt lat="43.27359" lon="5.67235">
        <ele>349.8</ele>
        <time>2022-02-23T15:01:33Z</time>
      </trkpt>
      <trkpt lat="43.27354" lon="5.67235">
        <ele>348.9</ele>
        <time>2022-02-23T15:01:37Z</time>
      </trkpt>
      <trkpt lat="43.27347" lon="5.67232">
        <ele>347.9</ele>
        <time>2022-02-23T15:01:43Z</time>
      </trkpt>
      <trkpt lat="43.27343" lon="5.67229">
        <ele>347.4</ele>
        <time>2022-02-23T15:01:47Z</time>
      </trkpt>
      <trkpt lat="43.2734" lon="5.67224">
        <ele>347.3</ele>
        <time>2022-02-23T15:01:51Z</time>
      </trkpt>
      <trkpt lat="43.27338" lon="5.67218">
        <ele>347.2</ele>
        <time>2022-02-23T15:01:55Z</time>
      </trkpt>
      <trkpt lat="43.27336" lon="5.67211">
        <ele>347.2</ele>
        <time>2022-02-23T15:01:59Z</time>
      </trkpt>
      <trkpt lat="43.27334" lon="5.67205">
        <ele>346.9</ele>
        <time>2022-02-23T15:02:03Z</time>
      </trkpt>
      <trkpt lat="43.27332" lon="5.67198">
        <ele>346.5</ele>
        <time>2022-02-23T15:02:07Z</time>
      </trkpt>
      <trkpt lat="43.27331" lon="5.67192">
        <ele>346.2</ele>
        <time>2022-02-23T15:02:11Z</time>
      </trkpt>
      <trkpt lat="43.27329" lon="5.67185">
        <ele>346.1</ele>
        <time>2022-02-23T15:02:15Z</time>
      </trkpt>
      <trkpt lat="43.27327" lon="5.67178">
        <ele>346.1</ele>
        <time>2022-02-23T15:02:19Z</time>
      </trkpt>
      <trkpt lat="43.27325" lon="5.67172">
        <ele>345.7</ele>
        <time>2022-02-23T15:02:23Z</time>
      </trkpt>
      <trkpt lat="43.27323" lon="5.67165">
        <ele>345.4</ele>
        <time>2022-02-23T15:02:27Z</time>
      </trkpt>
      <trkpt lat="43.27321" lon="5.67157">
        <ele>345</ele>
        <time>2022-02-23T15:02:33Z</time>
      </trkpt>
      <trkpt lat="43.27319" lon="5.6715">
        <ele>344.7</ele>
        <time>2022-02-23T15:02:37Z</time>
      </trkpt>
      <trkpt lat="43.27318" lon="5.67144">
        <ele>344.6</ele>
        <time>2022-02-23T15:02:41Z</time>
      </trkpt>
      <trkpt lat="43.27316" lon="5.67137">
        <ele>344.5</ele>
        <time>2022-02-23T15:02:45Z</time>
      </trkpt>
      <trkpt lat="43.27314" lon="5.6713">
        <ele>344.4</ele>
        <time>2022-02-23T15:02:49Z</time>
      </trkpt>
      <trkpt lat="43.27312" lon="5.67124">
        <ele>344.4</ele>
        <time>2022-02-23T15:02:53Z</time>
      </trkpt>
      <trkpt lat="43.27311" lon="5.67117">
        <ele>344.9</ele>
        <time>2022-02-23T15:02:57Z</time>
      </trkpt>
      <trkpt lat="43.27309" lon="5.6711">
        <ele>345.2</ele>
        <time>2022-02-23T15:03:01Z</time>
      </trkpt>
      <trkpt lat="43.27307" lon="5.67105">
        <ele>345.2</ele>
        <time>2022-02-23T15:03:05Z</time>
      </trkpt>
      <trkpt lat="43.27303" lon="5.67097">
        <ele>345.5</ele>
        <time>2022-02-23T15:03:11Z</time>
      </trkpt>
      <trkpt lat="43.273" lon="5.67092">
        <ele>345.7</ele>
        <time>2022-02-23T15:03:15Z</time>
      </trkpt>
      <trkpt lat="43.27296" lon="5.67088">
        <ele>345.7</ele>
        <time>2022-02-23T15:03:19Z</time>
      </trkpt>
      <trkpt lat="43.27292" lon="5.67083">
        <ele>345.7</ele>
        <time>2022-02-23T15:03:23Z</time>
      </trkpt>
      <trkpt lat="43.27288" lon="5.6708">
        <ele>345.7</ele>
        <time>2022-02-23T15:03:27Z</time>
      </trkpt>
      <trkpt lat="43.27283" lon="5.67079">
        <ele>344.8</ele>
        <time>2022-02-23T15:03:31Z</time>
      </trkpt>
      <trkpt lat="43.27278" lon="5.67078">
        <ele>343.5</ele>
        <time>2022-02-23T15:03:35Z</time>
      </trkpt>
      <trkpt lat="43.27273" lon="5.67078">
        <ele>344.3</ele>
        <time>2022-02-23T15:03:39Z</time>
      </trkpt>
      <trkpt lat="43.27268" lon="5.6708">
        <ele>343.7</ele>
        <time>2022-02-23T15:03:43Z</time>
      </trkpt>
      <trkpt lat="43.27262" lon="5.67083">
        <ele>342.8</ele>
        <time>2022-02-23T15:03:47Z</time>
      </trkpt>
      <trkpt lat="43.27258" lon="5.67085">
        <ele>342.3</ele>
        <time>2022-02-23T15:03:51Z</time>
      </trkpt>
      <trkpt lat="43.27253" lon="5.67088">
        <ele>341.4</ele>
        <time>2022-02-23T15:03:55Z</time>
      </trkpt>
      <trkpt lat="43.27248" lon="5.67093">
        <ele>340.6</ele>
        <time>2022-02-23T15:03:59Z</time>
      </trkpt>
      <trkpt lat="43.27242" lon="5.67097">
        <ele>340.5</ele>
        <time>2022-02-23T15:04:03Z</time>
      </trkpt>
      <trkpt lat="43.27238" lon="5.67101">
        <ele>340.7</ele>
        <time>2022-02-23T15:04:07Z</time>
      </trkpt>
      <trkpt lat="43.27232" lon="5.67105">
        <ele>340.9</ele>
        <time>2022-02-23T15:04:13Z</time>
      </trkpt>
      <trkpt lat="43.27228" lon="5.67108">
        <ele>340.9</ele>
        <time>2022-02-23T15:04:17Z</time>
      </trkpt>
      <trkpt lat="43.27223" lon="5.67112">
        <ele>340.3</ele>
        <time>2022-02-23T15:04:21Z</time>
      </trkpt>
      <trkpt lat="43.2722" lon="5.67116">
        <ele>340.1</ele>
        <time>2022-02-23T15:04:25Z</time>
      </trkpt>
      <trkpt lat="43.27217" lon="5.67121">
        <ele>340.2</ele>
        <time>2022-02-23T15:04:29Z</time>
      </trkpt>
      <trkpt lat="43.27214" lon="5.67126">
        <ele>339.8</ele>
        <time>2022-02-23T15:04:33Z</time>
      </trkpt>
      <trkpt lat="43.27211" lon="5.67134">
        <ele>338.1</ele>
        <time>2022-02-23T15:04:39Z</time>
      </trkpt>
      <trkpt lat="43.27209" lon="5.6714">
        <ele>336.7</ele>
        <time>2022-02-23T15:04:43Z</time>
      </trkpt>
      <trkpt lat="43.27205" lon="5.67144">
        <ele>336.8</ele>
        <time>2022-02-23T15:04:47Z</time>
      </trkpt>
      <trkpt lat="43.27201" lon="5.67148">
        <ele>337.5</ele>
        <time>2022-02-23T15:04:51Z</time>
      </trkpt>
      <trkpt lat="43.27196" lon="5.67153">
        <ele>338.2</ele>
        <time>2022-02-23T15:04:55Z</time>
      </trkpt>
      <trkpt lat="43.27192" lon="5.67156">
        <ele>338.6</ele>
        <time>2022-02-23T15:04:59Z</time>
      </trkpt>
      <trkpt lat="43.27189" lon="5.6716">
        <ele>338.2</ele>
        <time>2022-02-23T15:05:03Z</time>
      </trkpt>
      <trkpt lat="43.27184" lon="5.67165">
        <ele>337.8</ele>
        <time>2022-02-23T15:05:07Z</time>
      </trkpt>
      <trkpt lat="43.2718" lon="5.67169">
        <ele>337.8</ele>
        <time>2022-02-23T15:05:11Z</time>
      </trkpt>
      <trkpt lat="43.27176" lon="5.67174">
        <ele>337.6</ele>
        <time>2022-02-23T15:05:15Z</time>
      </trkpt>
      <trkpt lat="43.27172" lon="5.67178">
        <ele>337.5</ele>
        <time>2022-02-23T15:05:19Z</time>
      </trkpt>
      <trkpt lat="43.27168" lon="5.67183">
        <ele>337.4</ele>
        <time>2022-02-23T15:05:23Z</time>
      </trkpt>
      <trkpt lat="43.27164" lon="5.67188">
        <ele>337</ele>
        <time>2022-02-23T15:05:27Z</time>
      </trkpt>
      <trkpt lat="43.2716" lon="5.67192">
        <ele>336.7</ele>
        <time>2022-02-23T15:05:31Z</time>
      </trkpt>
      <trkpt lat="43.27157" lon="5.67197">
        <ele>336</ele>
        <time>2022-02-23T15:05:35Z</time>
      </trkpt>
      <trkpt lat="43.27154" lon="5.67202">
        <ele>335.5</ele>
        <time>2022-02-23T15:05:39Z</time>
      </trkpt>
      <trkpt lat="43.27151" lon="5.67207">
        <ele>335.1</ele>
        <time>2022-02-23T15:05:43Z</time>
      </trkpt>
      <trkpt lat="43.27149" lon="5.67213">
        <ele>334.3</ele>
        <time>2022-02-23T15:05:47Z</time>
      </trkpt>
      <trkpt lat="43.27147" lon="5.67219">
        <ele>333.4</ele>
        <time>2022-02-23T15:05:51Z</time>
      </trkpt>
      <trkpt lat="43.27145" lon="5.67225">
        <ele>332.6</ele>
        <time>2022-02-23T15:05:55Z</time>
      </trkpt>
      <trkpt lat="43.27142" lon="5.6723">
        <ele>332</ele>
        <time>2022-02-23T15:05:59Z</time>
      </trkpt>
      <trkpt lat="43.27139" lon="5.67239">
        <ele>331.4</ele>
        <time>2022-02-23T15:06:05Z</time>
      </trkpt>
      <trkpt lat="43.27137" lon="5.67244">
        <ele>331.1</ele>
        <time>2022-02-23T15:06:09Z</time>
      </trkpt>
      <trkpt lat="43.27134" lon="5.67249">
        <ele>331.2</ele>
        <time>2022-02-23T15:06:13Z</time>
      </trkpt>
      <trkpt lat="43.27132" lon="5.67255">
        <ele>330.7</ele>
        <time>2022-02-23T15:06:17Z</time>
      </trkpt>
      <trkpt lat="43.27129" lon="5.67261">
        <ele>330.4</ele>
        <time>2022-02-23T15:06:21Z</time>
      </trkpt>
      <trkpt lat="43.27126" lon="5.67269">
        <ele>329.3</ele>
        <time>2022-02-23T15:06:27Z</time>
      </trkpt>
      <trkpt lat="43.27123" lon="5.67274">
        <ele>329</ele>
        <time>2022-02-23T15:06:31Z</time>
      </trkpt>
      <trkpt lat="43.2712" lon="5.67282">
        <ele>327.9</ele>
        <time>2022-02-23T15:06:37Z</time>
      </trkpt>
      <trkpt lat="43.27118" lon="5.67287">
        <ele>327.2</ele>
        <time>2022-02-23T15:06:41Z</time>
      </trkpt>
      <trkpt lat="43.27114" lon="5.67293">
        <ele>326.7</ele>
        <time>2022-02-23T15:06:45Z</time>
      </trkpt>
      <trkpt lat="43.27111" lon="5.67299">
        <ele>326</ele>
        <time>2022-02-23T15:06:49Z</time>
      </trkpt>
      <trkpt lat="43.27109" lon="5.67304">
        <ele>324.7</ele>
        <time>2022-02-23T15:06:53Z</time>
      </trkpt>
      <trkpt lat="43.27107" lon="5.67312">
        <ele>322.7</ele>
        <time>2022-02-23T15:06:59Z</time>
      </trkpt>
      <trkpt lat="43.27104" lon="5.67319">
        <ele>321.2</ele>
        <time>2022-02-23T15:07:05Z</time>
      </trkpt>
      <trkpt lat="43.27101" lon="5.67326">
        <ele>319.7</ele>
        <time>2022-02-23T15:07:11Z</time>
      </trkpt>
      <trkpt lat="43.27098" lon="5.67334">
        <ele>318.3</ele>
        <time>2022-02-23T15:07:17Z</time>
      </trkpt>
      <trkpt lat="43.27094" lon="5.6734">
        <ele>317.7</ele>
        <time>2022-02-23T15:07:23Z</time>
      </trkpt>
      <trkpt lat="43.27088" lon="5.67343">
        <ele>318</ele>
        <time>2022-02-23T15:07:29Z</time>
      </trkpt>
      <trkpt lat="43.27083" lon="5.67343">
        <ele>318.9</ele>
        <time>2022-02-23T15:07:33Z</time>
      </trkpt>
      <trkpt lat="43.27079" lon="5.67341">
        <ele>317.8</ele>
        <time>2022-02-23T15:07:37Z</time>
      </trkpt>
      <trkpt lat="43.27074" lon="5.67338">
        <ele>317</ele>
        <time>2022-02-23T15:07:41Z</time>
      </trkpt>
      <trkpt lat="43.27069" lon="5.67332">
        <ele>316.4</ele>
        <time>2022-02-23T15:07:47Z</time>
      </trkpt>
      <trkpt lat="43.27064" lon="5.67329">
        <ele>315.6</ele>
        <time>2022-02-23T15:07:51Z</time>
      </trkpt>
      <trkpt lat="43.2706" lon="5.67325">
        <ele>314.9</ele>
        <time>2022-02-23T15:07:55Z</time>
      </trkpt>
      <trkpt lat="43.27056" lon="5.67319">
        <ele>314.2</ele>
        <time>2022-02-23T15:08:01Z</time>
      </trkpt>
      <trkpt lat="43.27052" lon="5.67314">
        <ele>313.2</ele>
        <time>2022-02-23T15:08:05Z</time>
      </trkpt>
      <trkpt lat="43.27049" lon="5.67308">
        <ele>312.6</ele>
        <time>2022-02-23T15:08:11Z</time>
      </trkpt>
      <trkpt lat="43.27044" lon="5.67302">
        <ele>311.5</ele>
        <time>2022-02-23T15:08:17Z</time>
      </trkpt>
      <trkpt lat="43.2704" lon="5.67294">
        <ele>310.8</ele>
        <time>2022-02-23T15:08:23Z</time>
      </trkpt>
      <trkpt lat="43.27038" lon="5.67289">
        <ele>310.5</ele>
        <time>2022-02-23T15:08:27Z</time>
      </trkpt>
      <trkpt lat="43.27036" lon="5.67283">
        <ele>310.3</ele>
        <time>2022-02-23T15:08:31Z</time>
      </trkpt>
      <trkpt lat="43.27034" lon="5.67277">
        <ele>310.2</ele>
        <time>2022-02-23T15:08:35Z</time>
      </trkpt>
      <trkpt lat="43.27033" lon="5.67271">
        <ele>309.8</ele>
        <time>2022-02-23T15:08:39Z</time>
      </trkpt>
      <trkpt lat="43.27032" lon="5.67264">
        <ele>309.3</ele>
        <time>2022-02-23T15:08:43Z</time>
      </trkpt>
      <trkpt lat="43.27031" lon="5.67258">
        <ele>309.1</ele>
        <time>2022-02-23T15:08:47Z</time>
      </trkpt>
      <trkpt lat="43.2703" lon="5.67252">
        <ele>309</ele>
        <time>2022-02-23T15:08:51Z</time>
      </trkpt>
      <trkpt lat="43.27029" lon="5.67245">
        <ele>308.9</ele>
        <time>2022-02-23T15:08:55Z</time>
      </trkpt>
      <trkpt lat="43.27028" lon="5.67238">
        <ele>308.6</ele>
        <time>2022-02-23T15:08:59Z</time>
      </trkpt>
      <trkpt lat="43.27027" lon="5.67231">
        <ele>308.1</ele>
        <time>2022-02-23T15:09:03Z</time>
      </trkpt>
      <trkpt lat="43.27023" lon="5.67226">
        <ele>307</ele>
        <time>2022-02-23T15:09:07Z</time>
      </trkpt>
      <trkpt lat="43.27021" lon="5.6722">
        <ele>306.7</ele>
        <time>2022-02-23T15:09:11Z</time>
      </trkpt>
      <trkpt lat="43.27017" lon="5.67216">
        <ele>305.7</ele>
        <time>2022-02-23T15:09:15Z</time>
      </trkpt>
      <trkpt lat="43.27012" lon="5.67214">
        <ele>304.3</ele>
        <time>2022-02-23T15:09:19Z</time>
      </trkpt>
      <trkpt lat="43.27007" lon="5.6721">
        <ele>303</ele>
        <time>2022-02-23T15:09:23Z</time>
      </trkpt>
      <trkpt lat="43.27002" lon="5.67208">
        <ele>301.5</ele>
        <time>2022-02-23T15:09:27Z</time>
      </trkpt>
      <trkpt lat="43.26998" lon="5.67203">
        <ele>301.2</ele>
        <time>2022-02-23T15:09:33Z</time>
      </trkpt>
      <trkpt lat="43.26996" lon="5.67197">
        <ele>301.7</ele>
        <time>2022-02-23T15:09:39Z</time>
      </trkpt>
      <trkpt lat="43.26992" lon="5.67193">
        <ele>301.5</ele>
        <time>2022-02-23T15:09:43Z</time>
      </trkpt>
      <trkpt lat="43.26987" lon="5.67188">
        <ele>301.4</ele>
        <time>2022-02-23T15:09:47Z</time>
      </trkpt>
      <trkpt lat="43.26982" lon="5.67184">
        <ele>300.7</ele>
        <time>2022-02-23T15:09:51Z</time>
      </trkpt>
      <trkpt lat="43.26977" lon="5.67181">
        <ele>300.2</ele>
        <time>2022-02-23T15:09:55Z</time>
      </trkpt>
      <trkpt lat="43.26973" lon="5.67178">
        <ele>299.7</ele>
        <time>2022-02-23T15:09:59Z</time>
      </trkpt>
      <trkpt lat="43.26968" lon="5.67174">
        <ele>300.3</ele>
        <time>2022-02-23T15:10:03Z</time>
      </trkpt>
      <trkpt lat="43.26963" lon="5.67173">
        <ele>299.7</ele>
        <time>2022-02-23T15:10:07Z</time>
      </trkpt>
      <trkpt lat="43.26958" lon="5.67173">
        <ele>298.2</ele>
        <time>2022-02-23T15:10:11Z</time>
      </trkpt>
      <trkpt lat="43.26951" lon="5.67173">
        <ele>296.9</ele>
        <time>2022-02-23T15:10:17Z</time>
      </trkpt>
      <trkpt lat="43.26946" lon="5.6717">
        <ele>296.8</ele>
        <time>2022-02-23T15:10:21Z</time>
      </trkpt>
      <trkpt lat="43.26941" lon="5.67168">
        <ele>296.5</ele>
        <time>2022-02-23T15:10:25Z</time>
      </trkpt>
      <trkpt lat="43.26935" lon="5.67167">
        <ele>295.8</ele>
        <time>2022-02-23T15:10:29Z</time>
      </trkpt>
      <trkpt lat="43.2693" lon="5.67167">
        <ele>294.9</ele>
        <time>2022-02-23T15:10:33Z</time>
      </trkpt>
      <trkpt lat="43.26925" lon="5.67166">
        <ele>294.4</ele>
        <time>2022-02-23T15:10:37Z</time>
      </trkpt>
      <trkpt lat="43.2692" lon="5.67164">
        <ele>293.8</ele>
        <time>2022-02-23T15:10:41Z</time>
      </trkpt>
      <trkpt lat="43.26916" lon="5.67162">
        <ele>293.8</ele>
        <time>2022-02-23T15:10:45Z</time>
      </trkpt>
      <trkpt lat="43.26912" lon="5.67161">
        <ele>293.6</ele>
        <time>2022-02-23T15:10:49Z</time>
      </trkpt>
      <trkpt lat="43.26907" lon="5.6716">
        <ele>292.7</ele>
        <time>2022-02-23T15:10:53Z</time>
      </trkpt>
      <trkpt lat="43.269" lon="5.6716">
        <ele>291.1</ele>
        <time>2022-02-23T15:10:59Z</time>
      </trkpt>
      <trkpt lat="43.26896" lon="5.67157">
        <ele>290.7</ele>
        <time>2022-02-23T15:11:03Z</time>
      </trkpt>
      <trkpt lat="43.26891" lon="5.67153">
        <ele>290.3</ele>
        <time>2022-02-23T15:11:07Z</time>
      </trkpt>
      <trkpt lat="43.26887" lon="5.6715">
        <ele>289.4</ele>
        <time>2022-02-23T15:11:11Z</time>
      </trkpt>
      <trkpt lat="43.26884" lon="5.67144">
        <ele>289.4</ele>
        <time>2022-02-23T15:11:15Z</time>
      </trkpt>
      <trkpt lat="43.26882" lon="5.67138">
        <ele>289.3</ele>
        <time>2022-02-23T15:11:19Z</time>
      </trkpt>
      <trkpt lat="43.26879" lon="5.67133">
        <ele>289</ele>
        <time>2022-02-23T15:11:23Z</time>
      </trkpt>
      <trkpt lat="43.26876" lon="5.67127">
        <ele>288.9</ele>
        <time>2022-02-23T15:11:27Z</time>
      </trkpt>
      <trkpt lat="43.26873" lon="5.67121">
        <ele>288.8</ele>
        <time>2022-02-23T15:11:31Z</time>
      </trkpt>
      <trkpt lat="43.26871" lon="5.67115">
        <ele>288.8</ele>
        <time>2022-02-23T15:11:35Z</time>
      </trkpt>
      <trkpt lat="43.26868" lon="5.67109">
        <ele>288.1</ele>
        <time>2022-02-23T15:11:39Z</time>
      </trkpt>
      <trkpt lat="43.26865" lon="5.67103">
        <ele>287.1</ele>
        <time>2022-02-23T15:11:43Z</time>
      </trkpt>
      <trkpt lat="43.26863" lon="5.67097">
        <ele>286.4</ele>
        <time>2022-02-23T15:11:47Z</time>
      </trkpt>
      <trkpt lat="43.2686" lon="5.67089">
        <ele>285.4</ele>
        <time>2022-02-23T15:11:53Z</time>
      </trkpt>
      <trkpt lat="43.26858" lon="5.6708">
        <ele>284.6</ele>
        <time>2022-02-23T15:11:59Z</time>
      </trkpt>
      <trkpt lat="43.26856" lon="5.67074">
        <ele>283.8</ele>
        <time>2022-02-23T15:12:03Z</time>
      </trkpt>
      <trkpt lat="43.26853" lon="5.67065">
        <ele>282.8</ele>
        <time>2022-02-23T15:12:09Z</time>
      </trkpt>
      <trkpt lat="43.26851" lon="5.67058">
        <ele>281.9</ele>
        <time>2022-02-23T15:12:13Z</time>
      </trkpt>
      <trkpt lat="43.26849" lon="5.67051">
        <ele>281.6</ele>
        <time>2022-02-23T15:12:17Z</time>
      </trkpt>
      <trkpt lat="43.26847" lon="5.67044">
        <ele>281.1</ele>
        <time>2022-02-23T15:12:21Z</time>
      </trkpt>
      <trkpt lat="43.26845" lon="5.67038">
        <ele>280.6</ele>
        <time>2022-02-23T15:12:25Z</time>
      </trkpt>
      <trkpt lat="43.26843" lon="5.6703">
        <ele>280</ele>
        <time>2022-02-23T15:12:31Z</time>
      </trkpt>
      <trkpt lat="43.26841" lon="5.67023">
        <ele>279.6</ele>
        <time>2022-02-23T15:12:35Z</time>
      </trkpt>
      <trkpt lat="43.2684" lon="5.67017">
        <ele>279.1</ele>
        <time>2022-02-23T15:12:39Z</time>
      </trkpt>
      <trkpt lat="43.26838" lon="5.67011">
        <ele>278.5</ele>
        <time>2022-02-23T15:12:43Z</time>
      </trkpt>
      <trkpt lat="43.26837" lon="5.67004">
        <ele>278.1</ele>
        <time>2022-02-23T15:12:49Z</time>
      </trkpt>
      <trkpt lat="43.26834" lon="5.67009">
        <ele>276.8</ele>
        <time>2022-02-23T15:14:17Z</time>
      </trkpt>
      <trkpt lat="43.26831" lon="5.67015">
        <ele>275.8</ele>
        <time>2022-02-23T15:14:21Z</time>
      </trkpt>
      <trkpt lat="43.26834" lon="5.67024">
        <ele>276.3</ele>
        <time>2022-02-23T15:14:27Z</time>
      </trkpt>
      <trkpt lat="43.26834" lon="5.67032">
        <ele>276.3</ele>
        <time>2022-02-23T15:14:33Z</time>
      </trkpt>
      <trkpt lat="43.26834" lon="5.6704">
        <ele>276</ele>
        <time>2022-02-23T15:14:39Z</time>
      </trkpt>
      <trkpt lat="43.26834" lon="5.67047">
        <ele>275.4</ele>
        <time>2022-02-23T15:14:45Z</time>
      </trkpt>
      <trkpt lat="43.26832" lon="5.67056">
        <ele>274.7</ele>
        <time>2022-02-23T15:14:51Z</time>
      </trkpt>
      <trkpt lat="43.2683" lon="5.67061">
        <ele>273.8</ele>
        <time>2022-02-23T15:14:55Z</time>
      </trkpt>
      <trkpt lat="43.26828" lon="5.67069">
        <ele>273.2</ele>
        <time>2022-02-23T15:15:01Z</time>
      </trkpt>
      <trkpt lat="43.26827" lon="5.67076">
        <ele>272.8</ele>
        <time>2022-02-23T15:15:07Z</time>
      </trkpt>
      <trkpt lat="43.26825" lon="5.67083">
        <ele>272.1</ele>
        <time>2022-02-23T15:15:13Z</time>
      </trkpt>
      <trkpt lat="43.26823" lon="5.6709">
        <ele>270.9</ele>
        <time>2022-02-23T15:15:19Z</time>
      </trkpt>
      <trkpt lat="43.26823" lon="5.67097">
        <ele>270</ele>
        <time>2022-02-23T15:15:25Z</time>
      </trkpt>
      <trkpt lat="43.26821" lon="5.67105">
        <ele>268.8</ele>
        <time>2022-02-23T15:15:33Z</time>
      </trkpt>
      <trkpt lat="43.26821" lon="5.67113">
        <ele>268</ele>
        <time>2022-02-23T15:15:39Z</time>
      </trkpt>
      <trkpt lat="43.26821" lon="5.67119">
        <ele>267.3</ele>
        <time>2022-02-23T15:15:45Z</time>
      </trkpt>
      <trkpt lat="43.26819" lon="5.67125">
        <ele>266.2</ele>
        <time>2022-02-23T15:15:51Z</time>
      </trkpt>
      <trkpt lat="43.26819" lon="5.67132">
        <ele>265.6</ele>
        <time>2022-02-23T15:15:55Z</time>
      </trkpt>
      <trkpt lat="43.2682" lon="5.67138">
        <ele>265.3</ele>
        <time>2022-02-23T15:15:59Z</time>
      </trkpt>
      <trkpt lat="43.26821" lon="5.67147">
        <ele>264.6</ele>
        <time>2022-02-23T15:16:05Z</time>
      </trkpt>
      <trkpt lat="43.26823" lon="5.67154">
        <ele>264.3</ele>
        <time>2022-02-23T15:16:09Z</time>
      </trkpt>
      <trkpt lat="43.26824" lon="5.6716">
        <ele>264</ele>
        <time>2022-02-23T15:16:13Z</time>
      </trkpt>
      <trkpt lat="43.26825" lon="5.67169">
        <ele>262.9</ele>
        <time>2022-02-23T15:16:19Z</time>
      </trkpt>
      <trkpt lat="43.26825" lon="5.67178">
        <ele>261.5</ele>
        <time>2022-02-23T15:16:25Z</time>
      </trkpt>
      <trkpt lat="43.26824" lon="5.67186">
        <ele>260.2</ele>
        <time>2022-02-23T15:16:31Z</time>
      </trkpt>
      <trkpt lat="43.26826" lon="5.67192">
        <ele>259.6</ele>
        <time>2022-02-23T15:16:35Z</time>
      </trkpt>
      <trkpt lat="43.26825" lon="5.672">
        <ele>258.4</ele>
        <time>2022-02-23T15:16:41Z</time>
      </trkpt>
      <trkpt lat="43.26825" lon="5.67208">
        <ele>257.3</ele>
        <time>2022-02-23T15:16:47Z</time>
      </trkpt>
      <trkpt lat="43.2682" lon="5.67213">
        <ele>255.2</ele>
        <time>2022-02-23T15:16:55Z</time>
      </trkpt>
      <trkpt lat="43.26815" lon="5.67209">
        <ele>254.1</ele>
        <time>2022-02-23T15:17:03Z</time>
      </trkpt>
      <trkpt lat="43.26812" lon="5.67204">
        <ele>253.3</ele>
        <time>2022-02-23T15:17:09Z</time>
      </trkpt>
      <trkpt lat="43.26807" lon="5.67201">
        <ele>252</ele>
        <time>2022-02-23T15:17:15Z</time>
      </trkpt>
      <trkpt lat="43.26803" lon="5.67196">
        <ele>251.3</ele>
        <time>2022-02-23T15:17:21Z</time>
      </trkpt>
      <trkpt lat="43.26798" lon="5.67193">
        <ele>250.7</ele>
        <time>2022-02-23T15:17:27Z</time>
      </trkpt>
      <trkpt lat="43.26794" lon="5.67188">
        <ele>250.2</ele>
        <time>2022-02-23T15:17:33Z</time>
      </trkpt>
      <trkpt lat="43.26789" lon="5.67185">
        <ele>249.5</ele>
        <time>2022-02-23T15:17:37Z</time>
      </trkpt>
      <trkpt lat="43.26784" lon="5.67183">
        <ele>248.4</ele>
        <time>2022-02-23T15:17:41Z</time>
      </trkpt>
      <trkpt lat="43.26778" lon="5.6718">
        <ele>247.1</ele>
        <time>2022-02-23T15:17:47Z</time>
      </trkpt>
      <trkpt lat="43.26773" lon="5.67179">
        <ele>246.3</ele>
        <time>2022-02-23T15:17:55Z</time>
      </trkpt>
      <trkpt lat="43.26768" lon="5.67177">
        <ele>245.6</ele>
        <time>2022-02-23T15:17:59Z</time>
      </trkpt>
      <trkpt lat="43.26761" lon="5.67174">
        <ele>244.7</ele>
        <time>2022-02-23T15:18:05Z</time>
      </trkpt>
      <trkpt lat="43.26757" lon="5.67172">
        <ele>244.1</ele>
        <time>2022-02-23T15:18:09Z</time>
      </trkpt>
      <trkpt lat="43.26751" lon="5.67168">
        <ele>243.1</ele>
        <time>2022-02-23T15:18:15Z</time>
      </trkpt>
      <trkpt lat="43.26747" lon="5.67166">
        <ele>242.7</ele>
        <time>2022-02-23T15:18:19Z</time>
      </trkpt>
      <trkpt lat="43.26741" lon="5.67163">
        <ele>242.2</ele>
        <time>2022-02-23T15:18:25Z</time>
      </trkpt>
      <trkpt lat="43.26737" lon="5.67161">
        <ele>241.7</ele>
        <time>2022-02-23T15:18:31Z</time>
      </trkpt>
      <trkpt lat="43.26732" lon="5.67158">
        <ele>241.3</ele>
        <time>2022-02-23T15:18:35Z</time>
      </trkpt>
      <trkpt lat="43.26728" lon="5.67156">
        <ele>240.8</ele>
        <time>2022-02-23T15:18:39Z</time>
      </trkpt>
      <trkpt lat="43.26723" lon="5.67155">
        <ele>240.1</ele>
        <time>2022-02-23T15:18:43Z</time>
      </trkpt>
      <trkpt lat="43.26718" lon="5.67152">
        <ele>239.6</ele>
        <time>2022-02-23T15:18:49Z</time>
      </trkpt>
      <trkpt lat="43.26713" lon="5.6715">
        <ele>239</ele>
        <time>2022-02-23T15:18:55Z</time>
      </trkpt>
      <trkpt lat="43.26707" lon="5.67147">
        <ele>238.4</ele>
        <time>2022-02-23T15:19:01Z</time>
      </trkpt>
      <trkpt lat="43.26703" lon="5.67144">
        <ele>237.9</ele>
        <time>2022-02-23T15:19:05Z</time>
      </trkpt>
      <trkpt lat="43.26698" lon="5.67141">
        <ele>237.4</ele>
        <time>2022-02-23T15:19:09Z</time>
      </trkpt>
      <trkpt lat="43.26693" lon="5.67139">
        <ele>236.8</ele>
        <time>2022-02-23T15:19:13Z</time>
      </trkpt>
      <trkpt lat="43.26689" lon="5.67135">
        <ele>236</ele>
        <time>2022-02-23T15:19:17Z</time>
      </trkpt>
      <trkpt lat="43.26684" lon="5.6713">
        <ele>235.2</ele>
        <time>2022-02-23T15:19:23Z</time>
      </trkpt>
      <trkpt lat="43.26681" lon="5.67125">
        <ele>234.6</ele>
        <time>2022-02-23T15:19:29Z</time>
      </trkpt>
      <trkpt lat="43.26679" lon="5.67119">
        <ele>234.2</ele>
        <time>2022-02-23T15:19:35Z</time>
      </trkpt>
      <trkpt lat="43.26674" lon="5.67113">
        <ele>233.3</ele>
        <time>2022-02-23T15:19:41Z</time>
      </trkpt>
      <trkpt lat="43.2667" lon="5.67109">
        <ele>232.6</ele>
        <time>2022-02-23T15:19:47Z</time>
      </trkpt>
      <trkpt lat="43.26664" lon="5.6711">
        <ele>231.4</ele>
        <time>2022-02-23T15:19:53Z</time>
      </trkpt>
      <trkpt lat="43.26659" lon="5.67111">
        <ele>229.8</ele>
        <time>2022-02-23T15:20:01Z</time>
      </trkpt>
      <trkpt lat="43.26654" lon="5.6711">
        <ele>228.2</ele>
        <time>2022-02-23T15:20:11Z</time>
      </trkpt>
      <trkpt lat="43.26648" lon="5.67111">
        <ele>226.6</ele>
        <time>2022-02-23T15:20:19Z</time>
      </trkpt>
      <trkpt lat="43.26643" lon="5.67111">
        <ele>225.2</ele>
        <time>2022-02-23T15:20:27Z</time>
      </trkpt>
      <trkpt lat="43.26639" lon="5.67113">
        <ele>224</ele>
        <time>2022-02-23T15:20:37Z</time>
      </trkpt>
      <trkpt lat="43.26635" lon="5.67109">
        <ele>223.6</ele>
        <time>2022-02-23T15:20:43Z</time>
      </trkpt>
      <trkpt lat="43.26633" lon="5.67102">
        <ele>223.4</ele>
        <time>2022-02-23T15:20:47Z</time>
      </trkpt>
      <trkpt lat="43.26631" lon="5.67094">
        <ele>223.2</ele>
        <time>2022-02-23T15:20:51Z</time>
      </trkpt>
      <trkpt lat="43.26629" lon="5.67088">
        <ele>222.9</ele>
        <time>2022-02-23T15:20:55Z</time>
      </trkpt>
      <trkpt lat="43.26626" lon="5.67081">
        <ele>222.6</ele>
        <time>2022-02-23T15:21:01Z</time>
      </trkpt>
      <trkpt lat="43.26621" lon="5.67075">
        <ele>222.2</ele>
        <time>2022-02-23T15:21:07Z</time>
      </trkpt>
      <trkpt lat="43.26618" lon="5.67068">
        <ele>221.8</ele>
        <time>2022-02-23T15:21:13Z</time>
      </trkpt>
      <trkpt lat="43.26614" lon="5.67063">
        <ele>221.4</ele>
        <time>2022-02-23T15:21:19Z</time>
      </trkpt>
      <trkpt lat="43.26611" lon="5.67058">
        <ele>221</ele>
        <time>2022-02-23T15:21:25Z</time>
      </trkpt>
      <trkpt lat="43.26608" lon="5.67052">
        <ele>220.7</ele>
        <time>2022-02-23T15:21:31Z</time>
      </trkpt>
    </trkseg>
  </trk>
</gpx>